<?xml version='1.0' encoding='UTF-8'?><gpx version="1.1" creator="JPX - https://github.com/jenetics/jpx" xmlns="http://www.topografix.com/GPX/1/1"><trk><trkseg><trkpt lat="45.58886152531707" lon="12.848932524352717"><ele>1.9999999999999998</ele><time>2026-05-01T08:18:01.979Z</time></trkpt><trkpt lat="45.58890202010222" lon="12.849054266568844"><ele>2.0</ele><time>2026-05-01T08:18:03.979Z</time></trkpt><trkpt lat="45.58895504732522" lon="12.849206517731218"><ele>2.0</ele><time>2026-05-01T08:18:05.979Z</time></trkpt><trkpt lat="45.58898288882291" lon="12.849295464959882"><ele>2.0</ele><time>2026-05-01T08:18:06.979Z</time></trkpt><trkpt lat="45.589018182218396" lon="12.849392233426775"><ele>1.9999999999999998</ele><time>2026-05-01T08:18:07.979Z</time></trkpt><trkpt lat="45.589054267963235" lon="12.849492855576592"><ele>2.0</ele><time>2026-05-01T08:18:08.979Z</time></trkpt><trkpt lat="45.589090343946545" lon="12.849597038316604"><ele>1.857142857142857</ele><time>2026-05-01T08:18:09.979Z</time></trkpt><trkpt lat="45.589125968779655" lon="12.849699465819816"><ele>1.714285714285714</ele><time>2026-05-01T08:18:10.979Z</time></trkpt><trkpt lat="45.589126515506166" lon="12.849806552709413"><ele>1.5714285714285714</ele><time>2026-05-01T08:18:11.979Z</time></trkpt><trkpt lat="45.58915622167229" lon="12.849886356737928"><ele>1.4285714285714284</ele><time>2026-05-01T08:18:12.979Z</time></trkpt><trkpt lat="45.58918762650901" lon="12.849970860988233"><ele>1.2857142857142856</ele><time>2026-05-01T08:18:13.979Z</time></trkpt><trkpt lat="45.58922284625739" lon="12.85006576307053"><ele>1.1428571428571428</ele><time>2026-05-01T08:18:14.979Z</time></trkpt><trkpt lat="45.589259785666435" lon="12.850165298794103"><ele>1.0</ele><time>2026-05-01T08:18:15.979Z</time></trkpt><trkpt lat="45.589299286313285" lon="12.85027173629238"><ele>1.0</ele><time>2026-05-01T08:18:16.979Z</time></trkpt><trkpt lat="45.58936042326579" lon="12.850361559976113"><ele>1.0</ele><time>2026-05-01T08:18:17.979Z</time></trkpt><trkpt lat="45.58941420868217" lon="12.85047881251406"><ele>1.0</ele><time>2026-05-01T08:18:18.979Z</time></trkpt><trkpt lat="45.589456563112925" lon="12.850597721527892"><ele>1.0</ele><time>2026-05-01T08:18:19.979Z</time></trkpt><trkpt lat="45.58949718235489" lon="12.850717040991109"><ele>1.0</ele><time>2026-05-01T08:18:20.979Z</time></trkpt><trkpt lat="45.58953844477624" lon="12.850835968294632"><ele>1.2000000000000002</ele><time>2026-05-01T08:18:21.979Z</time></trkpt><trkpt lat="45.58958348680186" lon="12.850957265388164"><ele>1.4000000000000001</ele><time>2026-05-01T08:18:22.979Z</time></trkpt><trkpt lat="45.58962620193706" lon="12.851081062007864"><ele>1.6</ele><time>2026-05-01T08:18:23.979Z</time></trkpt><trkpt lat="45.58968244538971" lon="12.851211681000505"><ele>1.8</ele><time>2026-05-01T08:18:24.979Z</time></trkpt><trkpt lat="45.58973852920525" lon="12.851346673096547"><ele>2.0</ele><time>2026-05-01T08:18:25.979Z</time></trkpt><trkpt lat="45.58978818940729" lon="12.851486911261462"><ele>1.8</ele><time>2026-05-01T08:18:26.979Z</time></trkpt><trkpt lat="45.58983790488278" lon="12.851632231412507"><ele>1.6</ele><time>2026-05-01T08:18:27.979Z</time></trkpt><trkpt lat="45.58989327977556" lon="12.851770346050666"><ele>1.4000000000000001</ele><time>2026-05-01T08:18:28.979Z</time></trkpt><trkpt lat="45.58993884134746" lon="12.851903645994106"><ele>1.2000000000000002</ele><time>2026-05-01T08:18:29.979Z</time></trkpt><trkpt lat="45.58998179153604" lon="12.852030201593454"><ele>1.0</ele><time>2026-05-01T08:18:30.979Z</time></trkpt><trkpt lat="45.590025425447145" lon="12.852145860069571"><ele>1.0</ele><time>2026-05-01T08:18:31.979Z</time></trkpt><trkpt lat="45.59007039942839" lon="12.852259664830747"><ele>1.0</ele><time>2026-05-01T08:18:32.979Z</time></trkpt><trkpt lat="45.59011017065882" lon="12.852372880449325"><ele>1.0</ele><time>2026-05-01T08:18:33.979Z</time></trkpt><trkpt lat="45.590161339095" lon="12.852481109471718"><ele>1.0</ele><time>2026-05-01T08:18:34.979Z</time></trkpt><trkpt lat="45.590171643168" lon="12.852621927262952"><ele>1.0</ele><time>2026-05-01T08:18:35.979Z</time></trkpt><trkpt lat="45.5902124480731" lon="12.852732018682868"><ele>0.6666666666666666</ele><time>2026-05-01T08:18:36.979Z</time></trkpt><trkpt lat="45.59025009508148" lon="12.852833590081733"><ele>0.3333333333333333</ele><time>2026-05-01T08:18:37.979Z</time></trkpt><trkpt lat="45.590281008113855" lon="12.852921854968482"><ele>0.0</ele><time>2026-05-01T08:18:38.979Z</time></trkpt><trkpt lat="45.59030939660867" lon="12.853010850232257"><ele>-0.3333333333333333</ele><time>2026-05-01T08:18:39.979Z</time></trkpt><trkpt lat="45.590349747939264" lon="12.853139536458741"><ele>-0.6666666666666666</ele><time>2026-05-01T08:18:41.979Z</time></trkpt><trkpt lat="45.59037647723944" lon="12.85323361508815"><ele>-1.0</ele><time>2026-05-01T08:18:44.979Z</time></trkpt><trkpt lat="45.5903930231529" lon="12.853369963780374"><ele>-0.9999999999999999</ele><time>2026-05-01T08:18:47.979Z</time></trkpt><trkpt lat="45.59048324895437" lon="12.853475701667644"><ele>-1.0</ele><time>2026-05-01T08:18:49.979Z</time></trkpt><trkpt lat="45.59058697856946" lon="12.853540705315307"><ele>-1.0</ele><time>2026-05-01T08:18:51.979Z</time></trkpt><trkpt lat="45.590648329858446" lon="12.853573520656772"><ele>-1.0</ele><time>2026-05-01T08:18:52.979Z</time></trkpt><trkpt lat="45.5907193905169" lon="12.853601488428708"><ele>-0.9999999999999999</ele><time>2026-05-01T08:18:53.979Z</time></trkpt><trkpt lat="45.59079535880607" lon="12.853629809136944"><ele>-1.0</ele><time>2026-05-01T08:18:54.979Z</time></trkpt><trkpt lat="45.5908743258176" lon="12.853638557223935"><ele>-1.0</ele><time>2026-05-01T08:18:55.979Z</time></trkpt><trkpt lat="45.59095566834256" lon="12.853628295595188"><ele>-0.9999999999999999</ele><time>2026-05-01T08:18:56.979Z</time></trkpt><trkpt lat="45.59103078391251" lon="12.853608440528422"><ele>-1.0</ele><time>2026-05-01T08:18:57.979Z</time></trkpt><trkpt lat="45.59109336016949" lon="12.85359448523943"><ele>-1.0</ele><time>2026-05-01T08:18:58.979Z</time></trkpt><trkpt lat="45.59115908828096" lon="12.85360379450435"><ele>-0.9999999999999999</ele><time>2026-05-01T08:18:59.979Z</time></trkpt><trkpt lat="45.59123083059962" lon="12.853631591585112"><ele>-1.0</ele><time>2026-05-01T08:19:00.979Z</time></trkpt><trkpt lat="45.59129422125109" lon="12.853704367896023"><ele>-1.0</ele><time>2026-05-01T08:19:01.979Z</time></trkpt><trkpt lat="45.59139297571564" lon="12.853695828616624"><ele>-0.8</ele><time>2026-05-01T08:19:02.978Z</time></trkpt><trkpt lat="45.591480774723514" lon="12.853722753344078"><ele>-0.6000000000000001</ele><time>2026-05-01T08:19:03.978Z</time></trkpt><trkpt lat="45.59156712118004" lon="12.853775411823255"><ele>-0.4</ele><time>2026-05-01T08:19:04.978Z</time></trkpt><trkpt lat="45.59164503743429" lon="12.853857934295407"><ele>-0.2</ele><time>2026-05-01T08:19:05.978Z</time></trkpt><trkpt lat="45.5917180713039" lon="12.8539593589365"><ele>0.0</ele><time>2026-05-01T08:19:06.978Z</time></trkpt><trkpt lat="45.591781393372955" lon="12.854079815558359"><ele>0.0</ele><time>2026-05-01T08:19:07.978Z</time></trkpt><trkpt lat="45.59183673128648" lon="12.854214066892897"><ele>0.0</ele><time>2026-05-01T08:19:08.978Z</time></trkpt><trkpt lat="45.59188832631332" lon="12.854357928553727"><ele>0.0</ele><time>2026-05-01T08:19:09.978Z</time></trkpt><trkpt lat="45.591942369074516" lon="12.854504014434445"><ele>0.0</ele><time>2026-05-01T08:19:10.978Z</time></trkpt><trkpt lat="45.5920007738712" lon="12.854651952950286"><ele>-0.5</ele><time>2026-05-01T08:19:11.978Z</time></trkpt><trkpt lat="45.59205992963478" lon="12.854803962620347"><ele>-1.0</ele><time>2026-05-01T08:19:12.978Z</time></trkpt><trkpt lat="45.592121525414335" lon="12.854961898558773"><ele>-1.5</ele><time>2026-05-01T08:19:13.978Z</time></trkpt><trkpt lat="45.592182322018935" lon="12.855121771353074"><ele>-2.0</ele><time>2026-05-01T08:19:14.978Z</time></trkpt><trkpt lat="45.59224420681914" lon="12.855285566300626"><ele>-2.0</ele><time>2026-05-01T08:19:15.978Z</time></trkpt><trkpt lat="45.592307445647116" lon="12.855448637699753"><ele>-2.0</ele><time>2026-05-01T08:19:16.978Z</time></trkpt><trkpt lat="45.59237184099927" lon="12.855614469412972"><ele>-2.0</ele><time>2026-05-01T08:19:17.978Z</time></trkpt><trkpt lat="45.59243627839019" lon="12.855784169677923"><ele>-2.0</ele><time>2026-05-01T08:19:18.978Z</time></trkpt><trkpt lat="45.59249979414459" lon="12.855955933815716"><ele>-2.0</ele><time>2026-05-01T08:19:19.978Z</time></trkpt><trkpt lat="45.59256613372756" lon="12.856128665554097"><ele>-2.0</ele><time>2026-05-01T08:19:20.978Z</time></trkpt><trkpt lat="45.59263374548909" lon="12.85630258757202"><ele>-2.0</ele><time>2026-05-01T08:19:21.978Z</time></trkpt><trkpt lat="45.592708609019766" lon="12.856481562582912"><ele>-2.0</ele><time>2026-05-01T08:19:22.978Z</time></trkpt><trkpt lat="45.59278633784435" lon="12.856661983121459"><ele>-1.75</ele><time>2026-05-01T08:19:23.978Z</time></trkpt><trkpt lat="45.59286099530749" lon="12.856842135596118"><ele>-1.5</ele><time>2026-05-01T08:19:24.978Z</time></trkpt><trkpt lat="45.592938268716026" lon="12.857023668138224"><ele>-1.25</ele><time>2026-05-01T08:19:25.978Z</time></trkpt><trkpt lat="45.59301634632903" lon="12.857209416880542"><ele>-1.0</ele><time>2026-05-01T08:19:26.978Z</time></trkpt><trkpt lat="45.59309364201277" lon="12.857394902958202"><ele>-1.0</ele><time>2026-05-01T08:19:27.978Z</time></trkpt><trkpt lat="45.59317205714883" lon="12.85758169912559"><ele>-1.0</ele><time>2026-05-01T08:19:28.978Z</time></trkpt><trkpt lat="45.593254430689186" lon="12.857770820220624"><ele>-1.0</ele><time>2026-05-01T08:19:29.978Z</time></trkpt><trkpt lat="45.59333425423187" lon="12.857960574731948"><ele>-1.3333333333333333</ele><time>2026-05-01T08:19:30.978Z</time></trkpt><trkpt lat="45.59341511138957" lon="12.858151823629978"><ele>-1.6666666666666665</ele><time>2026-05-01T08:19:31.978Z</time></trkpt><trkpt lat="45.59349808104664" lon="12.858342989636135"><ele>-2.0</ele><time>2026-05-01T08:19:32.978Z</time></trkpt><trkpt lat="45.59357909265537" lon="12.858537084591571"><ele>-2.0</ele><time>2026-05-01T08:19:33.978Z</time></trkpt><trkpt lat="45.5936602095035" lon="12.858733294422107"><ele>-2.0</ele><time>2026-05-01T08:19:34.978Z</time></trkpt><trkpt lat="45.59374087507453" lon="12.858931771263114"><ele>-2.0</ele><time>2026-05-01T08:19:35.978Z</time></trkpt><trkpt lat="45.5938279062137" lon="12.859131171454438"><ele>-2.0</ele><time>2026-05-01T08:19:36.978Z</time></trkpt><trkpt lat="45.59391223856184" lon="12.859334404837576"><ele>-2.0</ele><time>2026-05-01T08:19:37.978Z</time></trkpt><trkpt lat="45.59398729769522" lon="12.859543951885826"><ele>-2.0</ele><time>2026-05-01T08:19:38.978Z</time></trkpt><trkpt lat="45.59406829193833" lon="12.85974999950868"><ele>-2.0</ele><time>2026-05-01T08:19:39.978Z</time></trkpt><trkpt lat="45.594159173412095" lon="12.859944737405613"><ele>-2.0</ele><time>2026-05-01T08:19:40.978Z</time></trkpt><trkpt lat="45.59424756926262" lon="12.860128512580607"><ele>-2.0</ele><time>2026-05-01T08:19:41.978Z</time></trkpt><trkpt lat="45.59434523673868" lon="12.860309253459572"><ele>-2.0</ele><time>2026-05-01T08:19:42.978Z</time></trkpt><trkpt lat="45.59445040583003" lon="12.860485922165667"><ele>-2.0</ele><time>2026-05-01T08:19:43.978Z</time></trkpt><trkpt lat="45.59456305636481" lon="12.860663587312274"><ele>-2.0</ele><time>2026-05-01T08:19:44.978Z</time></trkpt><trkpt lat="45.59468255349708" lon="12.860831428049103"><ele>-2.0</ele><time>2026-05-01T08:19:45.978Z</time></trkpt><trkpt lat="45.59480503589854" lon="12.860994678848332"><ele>-2.0</ele><time>2026-05-01T08:19:46.978Z</time></trkpt><trkpt lat="45.59492922167839" lon="12.861157314843199"><ele>-2.0</ele><time>2026-05-01T08:19:47.978Z</time></trkpt><trkpt lat="45.595053013819616" lon="12.861324630237167"><ele>-2.0</ele><time>2026-05-01T08:19:48.978Z</time></trkpt><trkpt lat="45.59517280474424" lon="12.86149261048547"><ele>-2.0</ele><time>2026-05-01T08:19:49.978Z</time></trkpt><trkpt lat="45.595293175912495" lon="12.861659468249886"><ele>-2.0</ele><time>2026-05-01T08:19:50.978Z</time></trkpt><trkpt lat="45.59541298345223" lon="12.861828519792228"><ele>-2.6666666666666665</ele><time>2026-05-01T08:19:51.979Z</time></trkpt><trkpt lat="45.59553817918942" lon="12.86199754170714"><ele>-3.333333333333333</ele><time>2026-05-01T08:19:52.979Z</time></trkpt><trkpt lat="45.59566132767157" lon="12.862169749584192"><ele>-4.0</ele><time>2026-05-01T08:19:53.979Z</time></trkpt><trkpt lat="45.595784070243425" lon="12.862340924985151"><ele>-4.0</ele><time>2026-05-01T08:19:54.979Z</time></trkpt><trkpt lat="45.59590546879763" lon="12.862511851266163"><ele>-4.0</ele><time>2026-05-01T08:19:55.98Z</time></trkpt><trkpt lat="45.59602747815872" lon="12.86267946722057"><ele>-4.0</ele><time>2026-05-01T08:19:56.98Z</time></trkpt><trkpt lat="45.59615000189936" lon="12.862850116728403"><ele>-4.0</ele><time>2026-05-01T08:19:57.98Z</time></trkpt><trkpt lat="45.596271573531084" lon="12.86302038573411"><ele>-4.0</ele><time>2026-05-01T08:19:58.979Z</time></trkpt><trkpt lat="45.59639369787066" lon="12.863193480902838"><ele>-4.0</ele><time>2026-05-01T08:19:59.979Z</time></trkpt><trkpt lat="45.59651440807955" lon="12.86336688242251"><ele>-4.0</ele><time>2026-05-01T08:20:00.979Z</time></trkpt><trkpt lat="45.59663727040755" lon="12.863539227090397"><ele>-4.0</ele><time>2026-05-01T08:20:01.979Z</time></trkpt><trkpt lat="45.59676267998771" lon="12.863712170319113"><ele>-4.0</ele><time>2026-05-01T08:20:02.979Z</time></trkpt><trkpt lat="45.5968888745531" lon="12.863889245855377"><ele>-3.6666666666666665</ele><time>2026-05-01T08:20:03.979Z</time></trkpt><trkpt lat="45.597016048308504" lon="12.864065272661179"><ele>-3.333333333333333</ele><time>2026-05-01T08:20:04.979Z</time></trkpt><trkpt lat="45.59714478972799" lon="12.864242793078594"><ele>-3.0</ele><time>2026-05-01T08:20:05.979Z</time></trkpt><trkpt lat="45.597275802202105" lon="12.864423467033783"><ele>-3.666666666666667</ele><time>2026-05-01T08:20:06.979Z</time></trkpt><trkpt lat="45.597403450247995" lon="12.86460976509068"><ele>-4.333333333333334</ele><time>2026-05-01T08:20:07.979Z</time></trkpt><trkpt lat="45.597533564416" lon="12.864791617108423"><ele>-5.0</ele><time>2026-05-01T08:20:08.979Z</time></trkpt><trkpt lat="45.59766379824007" lon="12.864976826004776"><ele>-4.666666666666667</ele><time>2026-05-01T08:20:09.979Z</time></trkpt><trkpt lat="45.597794371324234" lon="12.865164152741224"><ele>-4.333333333333333</ele><time>2026-05-01T08:20:10.979Z</time></trkpt><trkpt lat="45.59792689376624" lon="12.865348205401416"><ele>-4.0</ele><time>2026-05-01T08:20:11.979Z</time></trkpt><trkpt lat="45.59806004780708" lon="12.865532910070662"><ele>-4.0</ele><time>2026-05-01T08:20:12.979Z</time></trkpt><trkpt lat="45.59819383732607" lon="12.865717525263722"><ele>-4.0</ele><time>2026-05-01T08:20:13.979Z</time></trkpt><trkpt lat="45.59832556026738" lon="12.865904374343792"><ele>-4.0</ele><time>2026-05-01T08:20:14.979Z</time></trkpt><trkpt lat="45.59845708247241" lon="12.866090483987772"><ele>-4.0</ele><time>2026-05-01T08:20:15.979Z</time></trkpt><trkpt lat="45.59859230752279" lon="12.866274699263387"><ele>-4.0</ele><time>2026-05-01T08:20:16.979Z</time></trkpt><trkpt lat="45.59872600912737" lon="12.866461238657168"><ele>-4.0</ele><time>2026-05-01T08:20:17.979Z</time></trkpt><trkpt lat="45.59885334514318" lon="12.866638225630425"><ele>-3.333333333333333</ele><time>2026-05-01T08:20:18.979Z</time></trkpt><trkpt lat="45.59897420081355" lon="12.866806990096668"><ele>-2.6666666666666665</ele><time>2026-05-01T08:20:19.979Z</time></trkpt><trkpt lat="45.59908924746109" lon="12.866967158098527"><ele>-2.0</ele><time>2026-05-01T08:20:20.979Z</time></trkpt><trkpt lat="45.59920106919626" lon="12.867124767717256"><ele>-2.0</ele><time>2026-05-01T08:20:21.979Z</time></trkpt><trkpt lat="45.5993136546898" lon="12.867281561692057"><ele>-2.0</ele><time>2026-05-01T08:20:22.979Z</time></trkpt><trkpt lat="45.5994280446281" lon="12.867439932882824"><ele>-2.0</ele><time>2026-05-01T08:20:23.979Z</time></trkpt><trkpt lat="45.59954408672395" lon="12.86760139294531"><ele>-2.333333333333333</ele><time>2026-05-01T08:20:24.979Z</time></trkpt><trkpt lat="45.599660105441465" lon="12.867768459077572"><ele>-2.6666666666666665</ele><time>2026-05-01T08:20:25.979Z</time></trkpt><trkpt lat="45.59977950463636" lon="12.86793449748355"><ele>-3.0</ele><time>2026-05-01T08:20:26.979Z</time></trkpt><trkpt lat="45.59989623406502" lon="12.86810479130665"><ele>-3.0</ele><time>2026-05-01T08:20:27.979Z</time></trkpt><trkpt lat="45.60001147478213" lon="12.868277898394576"><ele>-3.0</ele><time>2026-05-01T08:20:28.979Z</time></trkpt><trkpt lat="45.60012736359249" lon="12.868454912147984"><ele>-3.0</ele><time>2026-05-01T08:20:29.979Z</time></trkpt><trkpt lat="45.60025333271857" lon="12.868627462079823"><ele>-3.0</ele><time>2026-05-01T08:20:30.979Z</time></trkpt><trkpt lat="45.60037520002579" lon="12.868804735592539"><ele>-3.0</ele><time>2026-05-01T08:20:31.979Z</time></trkpt><trkpt lat="45.600511163106866" lon="12.868973602398794"><ele>-3.0</ele><time>2026-05-01T08:20:32.979Z</time></trkpt><trkpt lat="45.60063941251608" lon="12.869147400059353"><ele>-2.6666666666666665</ele><time>2026-05-01T08:20:33.979Z</time></trkpt><trkpt lat="45.600770096074264" lon="12.869321965363586"><ele>-2.333333333333333</ele><time>2026-05-01T08:20:34.979Z</time></trkpt><trkpt lat="45.60089742273862" lon="12.86949601568976"><ele>-2.0</ele><time>2026-05-01T08:20:35.979Z</time></trkpt><trkpt lat="45.60101426441516" lon="12.869663231423123"><ele>-2.0</ele><time>2026-05-01T08:20:36.979Z</time></trkpt><trkpt lat="45.60112783627003" lon="12.869823923241361"><ele>-2.0</ele><time>2026-05-01T08:20:37.979Z</time></trkpt><trkpt lat="45.60123720368711" lon="12.869975849834276"><ele>-2.0</ele><time>2026-05-01T08:20:38.979Z</time></trkpt><trkpt lat="45.601344958416924" lon="12.870122963993136"><ele>-1.75</ele><time>2026-05-01T08:20:39.979Z</time></trkpt><trkpt lat="45.60144645123759" lon="12.870268135611541"><ele>-1.5</ele><time>2026-05-01T08:20:40.979Z</time></trkpt><trkpt lat="45.60155032343745" lon="12.870408397146916"><ele>-1.25</ele><time>2026-05-01T08:20:41.978Z</time></trkpt><trkpt lat="45.60165807484413" lon="12.870549260021777"><ele>-1.0</ele><time>2026-05-01T08:20:42.978Z</time></trkpt><trkpt lat="45.60177179095549" lon="12.87069238208731"><ele>-1.0</ele><time>2026-05-01T08:20:43.978Z</time></trkpt><trkpt lat="45.601889139947495" lon="12.870840448104715"><ele>-1.0</ele><time>2026-05-01T08:20:44.978Z</time></trkpt><trkpt lat="45.602007635946705" lon="12.87099259689405"><ele>-1.0</ele><time>2026-05-01T08:20:45.978Z</time></trkpt><trkpt lat="45.602125211348415" lon="12.871145308147112"><ele>-1.25</ele><time>2026-05-01T08:20:46.978Z</time></trkpt><trkpt lat="45.602233490201115" lon="12.871297738699381"><ele>-1.5</ele><time>2026-05-01T08:20:47.978Z</time></trkpt><trkpt lat="45.60233295936725" lon="12.871442613073038"><ele>-1.75</ele><time>2026-05-01T08:20:48.978Z</time></trkpt><trkpt lat="45.60241004438889" lon="12.871609044018284"><ele>-2.0</ele><time>2026-05-01T08:20:49.978Z</time></trkpt><trkpt lat="45.60250288821424" lon="12.871739770303213"><ele>-2.0</ele><time>2026-05-01T08:20:50.978Z</time></trkpt><trkpt lat="45.60259180382955" lon="12.871864965767989"><ele>-2.0</ele><time>2026-05-01T08:20:51.978Z</time></trkpt><trkpt lat="45.602680889545326" lon="12.871990402305713"><ele>-2.0</ele><time>2026-05-01T08:20:52.978Z</time></trkpt><trkpt lat="45.60277172165192" lon="12.872114069826841"><ele>-2.0</ele><time>2026-05-01T08:20:53.978Z</time></trkpt><trkpt lat="45.60286618387518" lon="12.87223995058972"><ele>-2.0</ele><time>2026-05-01T08:20:54.978Z</time></trkpt><trkpt lat="45.60296274599032" lon="12.872365021691643"><ele>-2.0</ele><time>2026-05-01T08:20:55.978Z</time></trkpt><trkpt lat="45.60306270762727" lon="12.872488964329982"><ele>-2.0</ele><time>2026-05-01T08:20:56.978Z</time></trkpt><trkpt lat="45.60318244478718" lon="12.872577761598814"><ele>-2.0</ele><time>2026-05-01T08:20:57.978Z</time></trkpt><trkpt lat="45.60328641311259" lon="12.872699503625391"><ele>-2.0</ele><time>2026-05-01T08:20:58.978Z</time></trkpt><trkpt lat="45.6033951258908" lon="12.872817430081174"><ele>-2.0</ele><time>2026-05-01T08:20:59.978Z</time></trkpt><trkpt lat="45.60350574156229" lon="12.872930562795803"><ele>-2.0</ele><time>2026-05-01T08:21:00.978Z</time></trkpt><trkpt lat="45.60362287295848" lon="12.873038882218566"><ele>-2.0</ele><time>2026-05-01T08:21:01.978Z</time></trkpt><trkpt lat="45.60374320336371" lon="12.873144055420601"><ele>-1.75</ele><time>2026-05-01T08:21:02.978Z</time></trkpt><trkpt lat="45.60386949063581" lon="12.873245905552409"><ele>-1.5</ele><time>2026-05-01T08:21:03.978Z</time></trkpt><trkpt lat="45.60399806928496" lon="12.873348104562817"><ele>-1.25</ele><time>2026-05-01T08:21:04.978Z</time></trkpt><trkpt lat="45.604131316615145" lon="12.87344380449163"><ele>-1.0</ele><time>2026-05-01T08:21:05.978Z</time></trkpt><trkpt lat="45.60440124374941" lon="12.873629156721893"><ele>-0.75</ele><time>2026-05-01T08:21:07.978Z</time></trkpt><trkpt lat="45.60453633439096" lon="12.87371813358586"><ele>-0.5</ele><time>2026-05-01T08:21:08.978Z</time></trkpt><trkpt lat="45.604667717276044" lon="12.873807133973266"><ele>-0.25</ele><time>2026-05-01T08:21:09.978Z</time></trkpt><trkpt lat="45.60479819897313" lon="12.873893858936754"><ele>0.0</ele><time>2026-05-01T08:21:10.978Z</time></trkpt><trkpt lat="45.604928085544614" lon="12.873975052234647"><ele>0.0</ele><time>2026-05-01T08:21:11.978Z</time></trkpt><trkpt lat="45.605054599438226" lon="12.874055970304548"><ele>0.0</ele><time>2026-05-01T08:21:12.978Z</time></trkpt><trkpt lat="45.60517565771496" lon="12.874135437546583"><ele>0.0</ele><time>2026-05-01T08:21:13.978Z</time></trkpt><trkpt lat="45.605290277020785" lon="12.874214424010244"><ele>0.0</ele><time>2026-05-01T08:21:14.978Z</time></trkpt><trkpt lat="45.60540487907742" lon="12.874288701058447"><ele>-0.25</ele><time>2026-05-01T08:21:15.978Z</time></trkpt><trkpt lat="45.605514408572525" lon="12.87435942097614"><ele>-0.5</ele><time>2026-05-01T08:21:16.978Z</time></trkpt><trkpt lat="45.60561490880537" lon="12.874446352769025"><ele>-0.75</ele><time>2026-05-01T08:21:17.978Z</time></trkpt><trkpt lat="45.60572467073644" lon="12.874516220263239"><ele>-1.0</ele><time>2026-05-01T08:21:18.978Z</time></trkpt><trkpt lat="45.60582831136117" lon="12.874581755222717"><ele>-0.9999999999999999</ele><time>2026-05-01T08:21:19.978Z</time></trkpt><trkpt lat="45.60592621765146" lon="12.874642177615813"><ele>-1.0</ele><time>2026-05-01T08:21:20.978Z</time></trkpt><trkpt lat="45.60600976386691" lon="12.874694892441639"><ele>-1.0</ele><time>2026-05-01T08:21:21.978Z</time></trkpt><trkpt lat="45.606079691404226" lon="12.874742066854058"><ele>-1.0</ele><time>2026-05-01T08:21:22.978Z</time></trkpt><trkpt lat="45.60614140718416" lon="12.874781783474443"><ele>-0.9999999999999999</ele><time>2026-05-01T08:21:23.978Z</time></trkpt><trkpt lat="45.60622605948178" lon="12.87483817517008"><ele>-1.0</ele><time>2026-05-01T08:21:25.978Z</time></trkpt><trkpt lat="45.606290894064834" lon="12.874880539433468"><ele>-0.6666666666666666</ele><time>2026-05-01T08:21:27.978Z</time></trkpt><trkpt lat="45.606360549375594" lon="12.874924027579427"><ele>-0.3333333333333333</ele><time>2026-05-01T08:21:29.978Z</time></trkpt><trkpt lat="45.60643235105035" lon="12.87497129830073"><ele>0.0</ele><time>2026-05-01T08:21:31.978Z</time></trkpt><trkpt lat="45.606492489222624" lon="12.87502759105995"><ele>0.3333333333333333</ele><time>2026-05-01T08:21:33.978Z</time></trkpt><trkpt lat="45.6065629636625" lon="12.875123767192283"><ele>0.6666666666666666</ele><time>2026-05-01T08:21:35.978Z</time></trkpt><trkpt lat="45.60662558606114" lon="12.875241679497798"><ele>1.0</ele><time>2026-05-01T08:21:37.978Z</time></trkpt><trkpt lat="45.60673106008747" lon="12.875312185867823"><ele>1.3333333333333333</ele><time>2026-05-01T08:21:39.978Z</time></trkpt><trkpt lat="45.6067993441306" lon="12.875317967086062"><ele>1.6666666666666665</ele><time>2026-05-01T08:21:40.978Z</time></trkpt><trkpt lat="45.60687610228216" lon="12.87531929457035"><ele>2.0</ele><time>2026-05-01T08:21:41.978Z</time></trkpt><trkpt lat="45.60696113559346" lon="12.875338564462384"><ele>2.3333333333333335</ele><time>2026-05-01T08:21:42.978Z</time></trkpt><trkpt lat="45.60704858872956" lon="12.875377746964645"><ele>2.6666666666666665</ele><time>2026-05-01T08:21:43.978Z</time></trkpt><trkpt lat="45.60712657559819" lon="12.875445271483725"><ele>3.0</ele><time>2026-05-01T08:21:44.978Z</time></trkpt><trkpt lat="45.60721277575536" lon="12.87550186223508"><ele>2.1999999999999997</ele><time>2026-05-01T08:21:45.978Z</time></trkpt><trkpt lat="45.607311057595915" lon="12.87554143755511"><ele>1.4</ele><time>2026-05-01T08:21:46.978Z</time></trkpt><trkpt lat="45.60740358634064" lon="12.875604405512373"><ele>0.5999999999999999</ele><time>2026-05-01T08:21:47.978Z</time></trkpt><trkpt lat="45.60749816315264" lon="12.875665470416825"><ele>-0.20000000000000007</ele><time>2026-05-01T08:21:48.978Z</time></trkpt><trkpt lat="45.607593020118465" lon="12.875727249947412"><ele>-1.0</ele><time>2026-05-01T08:21:49.978Z</time></trkpt><trkpt lat="45.60768374870204" lon="12.875789486437114"><ele>-0.9999999999999999</ele><time>2026-05-01T08:21:50.978Z</time></trkpt><trkpt lat="45.60776846846895" lon="12.875848342905455"><ele>-1.0</ele><time>2026-05-01T08:21:51.978Z</time></trkpt><trkpt lat="45.60784795917067" lon="12.875909121990222"><ele>-1.0</ele><time>2026-05-01T08:21:52.978Z</time></trkpt><trkpt lat="45.60792380161318" lon="12.875973848630181"><ele>-1.0</ele><time>2026-05-01T08:21:53.978Z</time></trkpt><trkpt lat="45.607988041297375" lon="12.876044975515477"><ele>-0.9999999999999999</ele><time>2026-05-01T08:21:54.978Z</time></trkpt><trkpt lat="45.608035444643946" lon="12.876121170263664"><ele>-1.0</ele><time>2026-05-01T08:21:55.978Z</time></trkpt><trkpt lat="45.60808589842185" lon="12.876253085780906"><ele>-1.2000000000000002</ele><time>2026-05-01T08:21:57.979Z</time></trkpt><trkpt lat="45.60810522638794" lon="12.876340880669435"><ele>-1.4000000000000001</ele><time>2026-05-01T08:21:59.978Z</time></trkpt><trkpt lat="45.608130648600934" lon="12.876490701385128"><ele>-1.6</ele><time>2026-05-01T08:22:01.978Z</time></trkpt><trkpt lat="45.60812421042273" lon="12.876633732879803"><ele>-1.8</ele><time>2026-05-01T08:22:03.978Z</time></trkpt><trkpt lat="45.60823906291978" lon="12.876685735280327"><ele>-2.0</ele><time>2026-05-01T08:22:04.978Z</time></trkpt><trkpt lat="45.60832079109537" lon="12.876682850973953"><ele>-2.0</ele><time>2026-05-01T08:22:05.978Z</time></trkpt><trkpt lat="45.60839025751813" lon="12.876619673218439"><ele>-2.0</ele><time>2026-05-01T08:22:06.978Z</time></trkpt><trkpt lat="45.60846095886263" lon="12.87655940694275"><ele>-2.0</ele><time>2026-05-01T08:22:07.978Z</time></trkpt><trkpt lat="45.60853656257205" lon="12.876484808298773"><ele>-2.0</ele><time>2026-05-01T08:22:08.978Z</time></trkpt><trkpt lat="45.60861882222729" lon="12.87640719057991"><ele>-2.0</ele><time>2026-05-01T08:22:09.978Z</time></trkpt><trkpt lat="45.608690505834" lon="12.876305800848916"><ele>-2.25</ele><time>2026-05-01T08:22:10.978Z</time></trkpt><trkpt lat="45.60880408318159" lon="12.876264192003772"><ele>-2.5</ele><time>2026-05-01T08:22:11.978Z</time></trkpt><trkpt lat="45.60890723172507" lon="12.876184991508934"><ele>-2.75</ele><time>2026-05-01T08:22:12.978Z</time></trkpt><trkpt lat="45.609017107745764" lon="12.876096205036829"><ele>-3.0</ele><time>2026-05-01T08:22:13.978Z</time></trkpt><trkpt lat="45.60913145741238" lon="12.876004286338429"><ele>-3.0</ele><time>2026-05-01T08:22:14.978Z</time></trkpt><trkpt lat="45.609250403708195" lon="12.875905605552475"><ele>-3.0</ele><time>2026-05-01T08:22:15.978Z</time></trkpt><trkpt lat="45.60937360992386" lon="12.875802709294973"><ele>-3.0</ele><time>2026-05-01T08:22:16.978Z</time></trkpt><trkpt lat="45.60950092930973" lon="12.875698553500584"><ele>-3.0</ele><time>2026-05-01T08:22:17.978Z</time></trkpt><trkpt lat="45.60962957203951" lon="12.875592224110157"><ele>-3.333333333333333</ele><time>2026-05-01T08:22:18.978Z</time></trkpt><trkpt lat="45.60976274125234" lon="12.875486106792684"><ele>-3.6666666666666665</ele><time>2026-05-01T08:22:19.978Z</time></trkpt><trkpt lat="45.60989929264619" lon="12.875379367240216"><ele>-4.0</ele><time>2026-05-01T08:22:20.978Z</time></trkpt><trkpt lat="45.61003722101739" lon="12.875274078738647"><ele>-4.0</ele><time>2026-05-01T08:22:21.978Z</time></trkpt><trkpt lat="45.610178948718115" lon="12.87517035856356"><ele>-4.0</ele><time>2026-05-01T08:22:22.978Z</time></trkpt><trkpt lat="45.61031920026676" lon="12.875065906704219"><ele>-4.0</ele><time>2026-05-01T08:22:23.978Z</time></trkpt><trkpt lat="45.61046124483743" lon="12.874958166466817"><ele>-3.6666666666666665</ele><time>2026-05-01T08:22:24.978Z</time></trkpt><trkpt lat="45.61060403608241" lon="12.8748512806923"><ele>-3.333333333333333</ele><time>2026-05-01T08:22:25.978Z</time></trkpt><trkpt lat="45.61074830206095" lon="12.874744433296492"><ele>-3.0</ele><time>2026-05-01T08:22:26.978Z</time></trkpt><trkpt lat="45.61089470850688" lon="12.874636028089212"><ele>-3.0</ele><time>2026-05-01T08:22:27.978Z</time></trkpt><trkpt lat="45.611039681094866" lon="12.874528413863034"><ele>-3.0</ele><time>2026-05-01T08:22:28.978Z</time></trkpt><trkpt lat="45.61118446374705" lon="12.874421035136283"><ele>-3.0</ele><time>2026-05-01T08:22:29.978Z</time></trkpt><trkpt lat="45.61133009538558" lon="12.874314829166895"><ele>-3.0</ele><time>2026-05-01T08:22:30.978Z</time></trkpt><trkpt lat="45.611473455192915" lon="12.874208637745573"><ele>-3.0</ele><time>2026-05-01T08:22:31.978Z</time></trkpt><trkpt lat="45.61161461748352" lon="12.874105276070699"><ele>-3.0</ele><time>2026-05-01T08:22:32.978Z</time></trkpt><trkpt lat="45.61175625641669" lon="12.873995019448689"><ele>-3.0</ele><time>2026-05-01T08:22:33.978Z</time></trkpt><trkpt lat="45.61189676257051" lon="12.873888270155188"><ele>-3.0</ele><time>2026-05-01T08:22:34.978Z</time></trkpt><trkpt lat="45.612037784913284" lon="12.87378232803504"><ele>-3.0</ele><time>2026-05-01T08:22:35.978Z</time></trkpt><trkpt lat="45.612180477053684" lon="12.87367428936314"><ele>-3.333333333333333</ele><time>2026-05-01T08:22:36.978Z</time></trkpt><trkpt lat="45.612322519964735" lon="12.873565382375439"><ele>-3.6666666666666665</ele><time>2026-05-01T08:22:37.978Z</time></trkpt><trkpt lat="45.612465981211564" lon="12.873456419262565"><ele>-4.0</ele><time>2026-05-01T08:22:38.977Z</time></trkpt><trkpt lat="45.612611197588244" lon="12.873349325366652"><ele>-4.0</ele><time>2026-05-01T08:22:39.977Z</time></trkpt><trkpt lat="45.61275594649777" lon="12.873241695937882"><ele>-4.0</ele><time>2026-05-01T08:22:40.977Z</time></trkpt><trkpt lat="45.61290098163646" lon="12.873134418777578"><ele>-4.0</ele><time>2026-05-01T08:22:41.977Z</time></trkpt><trkpt lat="45.613045731883155" lon="12.8730280032106"><ele>-4.0</ele><time>2026-05-01T08:22:42.977Z</time></trkpt><trkpt lat="45.61319010759261" lon="12.872921021474626"><ele>-4.0</ele><time>2026-05-01T08:22:43.977Z</time></trkpt><trkpt lat="45.613333892411674" lon="12.872815324293503"><ele>-4.0</ele><time>2026-05-01T08:22:44.977Z</time></trkpt><trkpt lat="45.613477109889345" lon="12.872707977524186"><ele>-3.6666666666666665</ele><time>2026-05-01T08:22:45.977Z</time></trkpt><trkpt lat="45.61362078025384" lon="12.872600104720153"><ele>-3.333333333333333</ele><time>2026-05-01T08:22:46.977Z</time></trkpt><trkpt lat="45.61376033954603" lon="12.872494961697884"><ele>-3.0</ele><time>2026-05-01T08:22:47.977Z</time></trkpt><trkpt lat="45.61389403877301" lon="12.872392259945478"><ele>-2.5</ele><time>2026-05-01T08:22:48.977Z</time></trkpt><trkpt lat="45.614023843789475" lon="12.872294240870104"><ele>-2.0</ele><time>2026-05-01T08:22:49.977Z</time></trkpt><trkpt lat="45.614148470979124" lon="12.872201029022655"><ele>-1.5</ele><time>2026-05-01T08:22:50.977Z</time></trkpt><trkpt lat="45.614275235980486" lon="12.872109017857303"><ele>-1.0</ele><time>2026-05-01T08:22:51.977Z</time></trkpt><trkpt lat="45.61440317019175" lon="12.872012647780553"><ele>-1.0</ele><time>2026-05-01T08:22:52.977Z</time></trkpt><trkpt lat="45.61453241516201" lon="12.871917024582224"><ele>-1.0</ele><time>2026-05-01T08:22:53.977Z</time></trkpt><trkpt lat="45.614662558036926" lon="12.871815077899118"><ele>-1.0</ele><time>2026-05-01T08:22:54.977Z</time></trkpt><trkpt lat="45.61479319363302" lon="12.87170940936417"><ele>-1.0</ele><time>2026-05-01T08:22:55.977Z</time></trkpt><trkpt lat="45.61492418612245" lon="12.871607298675853"><ele>-1.0</ele><time>2026-05-01T08:22:56.977Z</time></trkpt><trkpt lat="45.61505651657226" lon="12.871509057216274"><ele>-1.0</ele><time>2026-05-01T08:22:57.977Z</time></trkpt><trkpt lat="45.615188396226955" lon="12.871414328398275"><ele>-1.0</ele><time>2026-05-01T08:22:58.977Z</time></trkpt><trkpt lat="45.615317248147115" lon="12.871317533177907"><ele>-1.0</ele><time>2026-05-01T08:22:59.977Z</time></trkpt><trkpt lat="45.615445373732484" lon="12.871220146489312"><ele>-1.0</ele><time>2026-05-01T08:23:00.977Z</time></trkpt><trkpt lat="45.615572674673665" lon="12.871123260938326"><ele>-1.0</ele><time>2026-05-01T08:23:01.977Z</time></trkpt><trkpt lat="45.61570189995958" lon="12.871030216132496"><ele>-1.0</ele><time>2026-05-01T08:23:02.977Z</time></trkpt><trkpt lat="45.615830556948794" lon="12.870934529277102"><ele>-1.0</ele><time>2026-05-01T08:23:03.977Z</time></trkpt><trkpt lat="45.61595758934486" lon="12.870839616488214"><ele>-1.0</ele><time>2026-05-01T08:23:04.977Z</time></trkpt><trkpt lat="45.61608067905868" lon="12.870746439092166"><ele>-1.0</ele><time>2026-05-01T08:23:05.977Z</time></trkpt><trkpt lat="45.616202042755546" lon="12.870654308131757"><ele>-1.0</ele><time>2026-05-01T08:23:06.977Z</time></trkpt><trkpt lat="45.61632448424758" lon="12.870563565778275"><ele>-1.0</ele><time>2026-05-01T08:23:07.977Z</time></trkpt><trkpt lat="45.61644851589151" lon="12.870471296658096"><ele>-1.25</ele><time>2026-05-01T08:23:08.977Z</time></trkpt><trkpt lat="45.61657496975248" lon="12.87037874473044"><ele>-1.5</ele><time>2026-05-01T08:23:09.977Z</time></trkpt><trkpt lat="45.61670243380071" lon="12.870282593765662"><ele>-1.75</ele><time>2026-05-01T08:23:10.977Z</time></trkpt><trkpt lat="45.61683086919344" lon="12.870187494144092"><ele>-2.0</ele><time>2026-05-01T08:23:11.977Z</time></trkpt><trkpt lat="45.61696092244607" lon="12.870089026795938"><ele>-2.0</ele><time>2026-05-01T08:23:12.977Z</time></trkpt><trkpt lat="45.61708996953035" lon="12.869991263026613"><ele>-2.0</ele><time>2026-05-01T08:23:13.977Z</time></trkpt><trkpt lat="45.61722009905067" lon="12.869894380520153"><ele>-2.0</ele><time>2026-05-01T08:23:14.977Z</time></trkpt><trkpt lat="45.61734915345827" lon="12.869795520307264"><ele>-2.0</ele><time>2026-05-01T08:23:15.977Z</time></trkpt><trkpt lat="45.61747860114791" lon="12.869696805268147"><ele>-2.0</ele><time>2026-05-01T08:23:16.977Z</time></trkpt><trkpt lat="45.61760956062985" lon="12.869601403468803"><ele>-2.0</ele><time>2026-05-01T08:23:17.977Z</time></trkpt><trkpt lat="45.61773556059129" lon="12.869508817997687"><ele>-2.0</ele><time>2026-05-01T08:23:18.977Z</time></trkpt><trkpt lat="45.617861934588575" lon="12.869415828797093"><ele>-2.0</ele><time>2026-05-01T08:23:19.977Z</time></trkpt><trkpt lat="45.61798699888174" lon="12.869321573350367"><ele>-2.5</ele><time>2026-05-01T08:23:20.977Z</time></trkpt><trkpt lat="45.6181119960375" lon="12.869227911196294"><ele>-3.0</ele><time>2026-05-01T08:23:21.977Z</time></trkpt><trkpt lat="45.61823749200086" lon="12.869134765285024"><ele>-3.5</ele><time>2026-05-01T08:23:22.977Z</time></trkpt><trkpt lat="45.61836220772857" lon="12.869040763823397"><ele>-4.0</ele><time>2026-05-01T08:23:23.977Z</time></trkpt><trkpt lat="45.61848657138167" lon="12.868946837992256"><ele>-4.0</ele><time>2026-05-01T08:23:24.977Z</time></trkpt><trkpt lat="45.618614510021914" lon="12.868851304269764"><ele>-4.0</ele><time>2026-05-01T08:23:25.977Z</time></trkpt><trkpt lat="45.61874252371394" lon="12.868754581866625"><ele>-4.0</ele><time>2026-05-01T08:23:26.977Z</time></trkpt><trkpt lat="45.61887134737614" lon="12.868657193389769"><ele>-4.0</ele><time>2026-05-01T08:23:27.977Z</time></trkpt><trkpt lat="45.61900102419017" lon="12.868558337416781"><ele>-3.75</ele><time>2026-05-01T08:23:28.977Z</time></trkpt><trkpt lat="45.61913133701016" lon="12.868462127071739"><ele>-3.5</ele><time>2026-05-01T08:23:29.977Z</time></trkpt><trkpt lat="45.61926288434929" lon="12.868365997887835"><ele>-3.25</ele><time>2026-05-01T08:23:30.977Z</time></trkpt><trkpt lat="45.619392804713854" lon="12.868269247533942"><ele>-3.0</ele><time>2026-05-01T08:23:31.977Z</time></trkpt><trkpt lat="45.619525522517925" lon="12.868174165588954"><ele>-3.0</ele><time>2026-05-01T08:23:32.977Z</time></trkpt><trkpt lat="45.61965683188654" lon="12.868075163220505"><ele>-3.0</ele><time>2026-05-01T08:23:33.977Z</time></trkpt><trkpt lat="45.61978777193116" lon="12.867972756457505"><ele>-3.0</ele><time>2026-05-01T08:23:34.977Z</time></trkpt><trkpt lat="45.61991958348519" lon="12.86787490400006"><ele>-3.0</ele><time>2026-05-01T08:23:35.977Z</time></trkpt><trkpt lat="45.620053007497596" lon="12.867775194803318"><ele>-3.0</ele><time>2026-05-01T08:23:36.977Z</time></trkpt><trkpt lat="45.620185800675856" lon="12.867675912200811"><ele>-3.0</ele><time>2026-05-01T08:23:37.977Z</time></trkpt><trkpt lat="45.62031806578269" lon="12.867577583846323"><ele>-3.0</ele><time>2026-05-01T08:23:38.977Z</time></trkpt><trkpt lat="45.620449428731234" lon="12.867482551273739"><ele>-3.0</ele><time>2026-05-01T08:23:39.977Z</time></trkpt><trkpt lat="45.62057933573569" lon="12.867385493558105"><ele>-2.75</ele><time>2026-05-01T08:23:40.977Z</time></trkpt><trkpt lat="45.620708436735256" lon="12.867286602312346"><ele>-2.5</ele><time>2026-05-01T08:23:41.977Z</time></trkpt><trkpt lat="45.62083699087227" lon="12.867190604623223"><ele>-2.25</ele><time>2026-05-01T08:23:42.977Z</time></trkpt><trkpt lat="45.62096347554283" lon="12.86709452917989"><ele>-2.0</ele><time>2026-05-01T08:23:43.977Z</time></trkpt><trkpt lat="45.621090105604615" lon="12.866999947529196"><ele>-2.25</ele><time>2026-05-01T08:23:44.977Z</time></trkpt><trkpt lat="45.62121623823381" lon="12.86690568595141"><ele>-2.5</ele><time>2026-05-01T08:23:45.977Z</time></trkpt><trkpt lat="45.62134253273994" lon="12.866813842197974"><ele>-2.75</ele><time>2026-05-01T08:23:46.977Z</time></trkpt><trkpt lat="45.62146906844387" lon="12.866720221709786"><ele>-3.0</ele><time>2026-05-01T08:23:47.977Z</time></trkpt><trkpt lat="45.62159855462277" lon="12.866621162524071"><ele>-2.5</ele><time>2026-05-01T08:23:48.977Z</time></trkpt><trkpt lat="45.62172864719781" lon="12.866524776396968"><ele>-2.0</ele><time>2026-05-01T08:23:49.977Z</time></trkpt><trkpt lat="45.62185841267657" lon="12.866424589870107"><ele>-1.5</ele><time>2026-05-01T08:23:50.977Z</time></trkpt><trkpt lat="45.62199166451035" lon="12.86633038269788"><ele>-1.0</ele><time>2026-05-01T08:23:51.977Z</time></trkpt><trkpt lat="45.62212722289737" lon="12.866236914580291"><ele>-1.0</ele><time>2026-05-01T08:23:52.977Z</time></trkpt><trkpt lat="45.622263637592695" lon="12.86614692683845"><ele>-1.0</ele><time>2026-05-01T08:23:53.977Z</time></trkpt><trkpt lat="45.62240121393843" lon="12.866057881162682"><ele>-1.0</ele><time>2026-05-01T08:23:54.977Z</time></trkpt><trkpt lat="45.622538645428236" lon="12.865968742665585"><ele>-1.0</ele><time>2026-05-01T08:23:55.976Z</time></trkpt><trkpt lat="45.62267665128384" lon="12.865873993119592"><ele>-1.0</ele><time>2026-05-01T08:23:56.976Z</time></trkpt><trkpt lat="45.622811755205014" lon="12.86577518746615"><ele>-1.0</ele><time>2026-05-01T08:23:57.976Z</time></trkpt><trkpt lat="45.622947050143424" lon="12.86568062441639"><ele>-1.0</ele><time>2026-05-01T08:23:58.976Z</time></trkpt><trkpt lat="45.623082248083044" lon="12.865585309964441"><ele>-1.0</ele><time>2026-05-01T08:23:59.976Z</time></trkpt><trkpt lat="45.62321736322101" lon="12.865488842195765"><ele>-1.0</ele><time>2026-05-01T08:24:00.976Z</time></trkpt><trkpt lat="45.62335347823826" lon="12.865391807986105"><ele>-1.0</ele><time>2026-05-01T08:24:01.976Z</time></trkpt><trkpt lat="45.6234905973113" lon="12.865295247193378"><ele>-1.0</ele><time>2026-05-01T08:24:02.978Z</time></trkpt><trkpt lat="45.62362728669886" lon="12.865194745260371"><ele>-1.0</ele><time>2026-05-01T08:24:03.978Z</time></trkpt><trkpt lat="45.62376359283633" lon="12.865097120386512"><ele>-1.3333333333333333</ele><time>2026-05-01T08:24:04.978Z</time></trkpt><trkpt lat="45.623897652483464" lon="12.864995538930799"><ele>-1.6666666666666665</ele><time>2026-05-01T08:24:05.978Z</time></trkpt><trkpt lat="45.6240333579592" lon="12.864896018210795"><ele>-2.0</ele><time>2026-05-01T08:24:06.978Z</time></trkpt><trkpt lat="45.6241671669623" lon="12.864794809635288"><ele>-2.0</ele><time>2026-05-01T08:24:07.978Z</time></trkpt><trkpt lat="45.624301769072474" lon="12.86469090208856"><ele>-2.0</ele><time>2026-05-01T08:24:08.978Z</time></trkpt><trkpt lat="45.6244318610381" lon="12.864589424064766"><ele>-2.0</ele><time>2026-05-01T08:24:09.978Z</time></trkpt><trkpt lat="45.62456114347035" lon="12.864487422729024"><ele>-2.0</ele><time>2026-05-01T08:24:10.978Z</time></trkpt><trkpt lat="45.62469300694147" lon="12.864387656289967"><ele>-2.333333333333333</ele><time>2026-05-01T08:24:11.978Z</time></trkpt><trkpt lat="45.62482557517156" lon="12.864286086828104"><ele>-2.6666666666666665</ele><time>2026-05-01T08:24:12.978Z</time></trkpt><trkpt lat="45.624960895209355" lon="12.864182008168733"><ele>-3.0</ele><time>2026-05-01T08:24:13.978Z</time></trkpt><trkpt lat="45.625099387298036" lon="12.864081171700706"><ele>-3.0</ele><time>2026-05-01T08:24:14.978Z</time></trkpt><trkpt lat="45.62524136146228" lon="12.86397318772074"><ele>-3.0</ele><time>2026-05-01T08:24:15.978Z</time></trkpt><trkpt lat="45.62538092883617" lon="12.863867514356663"><ele>-3.0</ele><time>2026-05-01T08:24:16.978Z</time></trkpt><trkpt lat="45.62552113594026" lon="12.863759798871506"><ele>-3.0</ele><time>2026-05-01T08:24:17.978Z</time></trkpt><trkpt lat="45.6256621725028" lon="12.863650304929628"><ele>-3.0</ele><time>2026-05-01T08:24:18.978Z</time></trkpt><trkpt lat="45.62580472050367" lon="12.863542212216858"><ele>-3.0</ele><time>2026-05-01T08:24:19.978Z</time></trkpt><trkpt lat="45.62594656619335" lon="12.863434447412105"><ele>-2.6666666666666665</ele><time>2026-05-01T08:24:20.978Z</time></trkpt><trkpt lat="45.62608895856474" lon="12.863326509483237"><ele>-2.333333333333333</ele><time>2026-05-01T08:24:21.978Z</time></trkpt><trkpt lat="45.62623084850122" lon="12.863216247027303"><ele>-2.0</ele><time>2026-05-01T08:24:22.978Z</time></trkpt><trkpt lat="45.62637229085963" lon="12.863105912366835"><ele>-2.0</ele><time>2026-05-01T08:24:23.978Z</time></trkpt><trkpt lat="45.62651208036228" lon="12.863002599430782"><ele>-2.0</ele><time>2026-05-01T08:24:24.978Z</time></trkpt><trkpt lat="45.62665365492355" lon="12.862895934340296"><ele>-2.0</ele><time>2026-05-01T08:24:25.978Z</time></trkpt><trkpt lat="45.62679722297359" lon="12.862788157230007"><ele>-2.0</ele><time>2026-05-01T08:24:26.978Z</time></trkpt><trkpt lat="45.62694299335959" lon="12.862678076498378"><ele>-2.0</ele><time>2026-05-01T08:24:27.977Z</time></trkpt><trkpt lat="45.62708983045957" lon="12.862567412892425"><ele>-2.0</ele><time>2026-05-01T08:24:28.977Z</time></trkpt><trkpt lat="45.62723697557273" lon="12.862452821820048"><ele>-2.0</ele><time>2026-05-01T08:24:29.977Z</time></trkpt><trkpt lat="45.62738003875825" lon="12.862344961479902"><ele>-2.0</ele><time>2026-05-01T08:24:30.977Z</time></trkpt><trkpt lat="45.6275250416918" lon="12.862239423673442"><ele>-2.0</ele><time>2026-05-01T08:24:31.977Z</time></trkpt><trkpt lat="45.627667808199206" lon="12.862131063167963"><ele>-2.0</ele><time>2026-05-01T08:24:32.977Z</time></trkpt><trkpt lat="45.62780554124299" lon="12.862033275109292"><ele>-2.0</ele><time>2026-05-01T08:24:33.977Z</time></trkpt><trkpt lat="45.627935255948984" lon="12.861936280013047"><ele>-2.0</ele><time>2026-05-01T08:24:34.977Z</time></trkpt><trkpt lat="45.62806187541506" lon="12.861840597460587"><ele>-2.0</ele><time>2026-05-01T08:24:35.977Z</time></trkpt><trkpt lat="45.628188261719686" lon="12.861742158000629"><ele>-1.5</ele><time>2026-05-01T08:24:36.977Z</time></trkpt><trkpt lat="45.628313402580936" lon="12.861647656922683"><ele>-1.0</ele><time>2026-05-01T08:24:37.977Z</time></trkpt><trkpt lat="45.62843429351232" lon="12.861556180328863"><ele>-0.5</ele><time>2026-05-01T08:24:38.977Z</time></trkpt><trkpt lat="45.62854931948908" lon="12.861469318193347"><ele>0.0</ele><time>2026-05-01T08:24:39.977Z</time></trkpt><trkpt lat="45.62864096741154" lon="12.861395787434184"><ele>-0.16666666666666666</ele><time>2026-05-01T08:24:40.977Z</time></trkpt><trkpt lat="45.62870124646171" lon="12.861342112737443"><ele>-0.3333333333333333</ele><time>2026-05-01T08:24:41.977Z</time></trkpt><trkpt lat="45.62878235600723" lon="12.861368492558512"><ele>-0.5</ele><time>2026-05-01T08:24:44.977Z</time></trkpt><trkpt lat="45.62881017150611" lon="12.861524468145964"><ele>-0.6666666666666666</ele><time>2026-05-01T08:24:46.977Z</time></trkpt><trkpt lat="45.628833914922986" lon="12.861633817189093"><ele>-0.8333333333333333</ele><time>2026-05-01T08:24:47.977Z</time></trkpt><trkpt lat="45.62887892194566" lon="12.86175102648178"><ele>-1.0</ele><time>2026-05-01T08:24:48.977Z</time></trkpt><trkpt lat="45.6289326345966" lon="12.861882609034277"><ele>-1.25</ele><time>2026-05-01T08:24:49.977Z</time></trkpt><trkpt lat="45.62898690625161" lon="12.862022928676375"><ele>-1.5</ele><time>2026-05-01T08:24:50.977Z</time></trkpt><trkpt lat="45.629040629417624" lon="12.862171578352692"><ele>-1.75</ele><time>2026-05-01T08:24:51.977Z</time></trkpt><trkpt lat="45.62909821227071" lon="12.862323301303158"><ele>-2.0</ele><time>2026-05-01T08:24:52.977Z</time></trkpt><trkpt lat="45.629160017630674" lon="12.862464779310939"><ele>-2.0</ele><time>2026-05-01T08:24:53.977Z</time></trkpt><trkpt lat="45.62922705350779" lon="12.862592921716134"><ele>-2.0</ele><time>2026-05-01T08:24:54.977Z</time></trkpt><trkpt lat="45.629299092832" lon="12.862711186367731"><ele>-2.0</ele><time>2026-05-01T08:24:55.977Z</time></trkpt><trkpt lat="45.629388828356994" lon="12.862814043016737"><ele>-2.0</ele><time>2026-05-01T08:24:56.977Z</time></trkpt><trkpt lat="45.629490856946965" lon="12.862902108153673"><ele>-2.0</ele><time>2026-05-01T08:24:57.977Z</time></trkpt><trkpt lat="45.62960719704057" lon="12.862985598397744"><ele>-2.0</ele><time>2026-05-01T08:24:58.977Z</time></trkpt><trkpt lat="45.6297278072031" lon="12.863070804956761"><ele>-2.0</ele><time>2026-05-01T08:24:59.977Z</time></trkpt><trkpt lat="45.62985439743099" lon="12.863155314238037"><ele>-2.0</ele><time>2026-05-01T08:25:00.977Z</time></trkpt><trkpt lat="45.62998246542915" lon="12.86323746580324"><ele>-2.0</ele><time>2026-05-01T08:25:01.977Z</time></trkpt><trkpt lat="45.630110062671804" lon="12.863326798066817"><ele>-2.0</ele><time>2026-05-01T08:25:02.977Z</time></trkpt><trkpt lat="45.63024058717631" lon="12.863417337275552"><ele>-2.0</ele><time>2026-05-01T08:25:03.977Z</time></trkpt><trkpt lat="45.63036677486716" lon="12.863530421707516"><ele>-2.0</ele><time>2026-05-01T08:25:04.977Z</time></trkpt><trkpt lat="45.6305035851702" lon="12.863625715277944"><ele>-1.6666666666666665</ele><time>2026-05-01T08:25:05.977Z</time></trkpt><trkpt lat="45.63063855885773" lon="12.863719729566697"><ele>-1.3333333333333333</ele><time>2026-05-01T08:25:06.977Z</time></trkpt><trkpt lat="45.63077630653316" lon="12.863815612479668"><ele>-1.0</ele><time>2026-05-01T08:25:07.977Z</time></trkpt><trkpt lat="45.63091497112558" lon="12.863911145769737"><ele>-1.0</ele><time>2026-05-01T08:25:08.977Z</time></trkpt><trkpt lat="45.631056942624866" lon="12.86400895735709"><ele>-1.0</ele><time>2026-05-01T08:25:09.977Z</time></trkpt><trkpt lat="45.63119879312635" lon="12.864106685597317"><ele>-1.0</ele><time>2026-05-01T08:25:10.977Z</time></trkpt><trkpt lat="45.631338731615315" lon="12.864203655659304"><ele>-1.0</ele><time>2026-05-01T08:25:11.977Z</time></trkpt><trkpt lat="45.6314806544356" lon="12.864302423115463"><ele>-1.0</ele><time>2026-05-01T08:25:12.977Z</time></trkpt><trkpt lat="45.63162229998509" lon="12.86440099762864"><ele>-1.0</ele><time>2026-05-01T08:25:13.977Z</time></trkpt><trkpt lat="45.63176632223788" lon="12.864501226108423"><ele>-1.0</ele><time>2026-05-01T08:25:14.977Z</time></trkpt><trkpt lat="45.631899817116974" lon="12.864596102016133"><ele>-1.0</ele><time>2026-05-01T08:25:15.977Z</time></trkpt><trkpt lat="45.63203157350065" lon="12.864693915939451"><ele>-1.0</ele><time>2026-05-01T08:25:16.977Z</time></trkpt><trkpt lat="45.63215819431989" lon="12.864789325668248"><ele>-1.0</ele><time>2026-05-01T08:25:17.977Z</time></trkpt><trkpt lat="45.632282245225994" lon="12.864879098336727"><ele>-1.0</ele><time>2026-05-01T08:25:18.977Z</time></trkpt><trkpt lat="45.632414613705734" lon="12.864969312104417"><ele>-1.0</ele><time>2026-05-01T08:25:19.977Z</time></trkpt><trkpt lat="45.632547028546405" lon="12.865060496557735"><ele>-1.0</ele><time>2026-05-01T08:25:20.977Z</time></trkpt><trkpt lat="45.63267617879426" lon="12.865153316056437"><ele>-1.0</ele><time>2026-05-01T08:25:21.977Z</time></trkpt><trkpt lat="45.632807554312336" lon="12.865242346816542"><ele>-0.75</ele><time>2026-05-01T08:25:22.977Z</time></trkpt><trkpt lat="45.63294074810231" lon="12.865331022434887"><ele>-0.5</ele><time>2026-05-01T08:25:23.977Z</time></trkpt><trkpt lat="45.63307250229964" lon="12.86541833219853"><ele>-0.25</ele><time>2026-05-01T08:25:24.977Z</time></trkpt><trkpt lat="45.63320418765973" lon="12.865511036484333"><ele>0.0</ele><time>2026-05-01T08:25:25.977Z</time></trkpt><trkpt lat="45.633343644869264" lon="12.865602471449598"><ele>0.0</ele><time>2026-05-01T08:25:26.977Z</time></trkpt><trkpt lat="45.633481711985674" lon="12.865698353205916"><ele>0.0</ele><time>2026-05-01T08:25:27.977Z</time></trkpt><trkpt lat="45.63362820555212" lon="12.865791197596048"><ele>0.0</ele><time>2026-05-01T08:25:28.977Z</time></trkpt><trkpt lat="45.63377567537497" lon="12.865886060438072"><ele>-0.6666666666666666</ele><time>2026-05-01T08:25:29.977Z</time></trkpt><trkpt lat="45.63391903804762" lon="12.86598982995302"><ele>-1.3333333333333333</ele><time>2026-05-01T08:25:30.977Z</time></trkpt><trkpt lat="45.63406579578743" lon="12.866088487562836"><ele>-2.0</ele><time>2026-05-01T08:25:31.977Z</time></trkpt><trkpt lat="45.634217383660875" lon="12.866188282288256"><ele>-2.0</ele><time>2026-05-01T08:25:32.977Z</time></trkpt><trkpt lat="45.6343701034177" lon="12.86628604873584"><ele>-2.0</ele><time>2026-05-01T08:25:33.977Z</time></trkpt><trkpt lat="45.63451226865311" lon="12.866410246504802"><ele>-2.0</ele><time>2026-05-01T08:25:34.977Z</time></trkpt><trkpt lat="45.63466064766396" lon="12.866512433369625"><ele>-2.0</ele><time>2026-05-01T08:25:35.977Z</time></trkpt><trkpt lat="45.634809384812776" lon="12.866614866854908"><ele>-2.0</ele><time>2026-05-01T08:25:36.977Z</time></trkpt><trkpt lat="45.63496609455858" lon="12.866698862429622"><ele>-2.0</ele><time>2026-05-01T08:25:37.977Z</time></trkpt><trkpt lat="45.63511587006685" lon="12.866802431459787"><ele>-2.0</ele><time>2026-05-01T08:25:38.977Z</time></trkpt><trkpt lat="45.635262231371506" lon="12.866904631728131"><ele>-2.0</ele><time>2026-05-01T08:25:39.977Z</time></trkpt><trkpt lat="45.63540985802745" lon="12.86700530366467"><ele>-2.0</ele><time>2026-05-01T08:25:40.977Z</time></trkpt><trkpt lat="45.6355573356443" lon="12.867109942329625"><ele>-1.6666666666666665</ele><time>2026-05-01T08:25:41.977Z</time></trkpt><trkpt lat="45.635699315929585" lon="12.867210181522658"><ele>-1.3333333333333333</ele><time>2026-05-01T08:25:42.977Z</time></trkpt><trkpt lat="45.63584533819068" lon="12.86731150106016"><ele>-1.0</ele><time>2026-05-01T08:25:43.977Z</time></trkpt><trkpt lat="45.63598900745591" lon="12.867414383625022"><ele>-1.0</ele><time>2026-05-01T08:25:44.976Z</time></trkpt><trkpt lat="45.636123647650784" lon="12.867529398228367"><ele>-1.0</ele><time>2026-05-01T08:25:45.976Z</time></trkpt><trkpt lat="45.636265239616584" lon="12.867619178050367"><ele>-1.0</ele><time>2026-05-01T08:25:46.976Z</time></trkpt><trkpt lat="45.63640631528503" lon="12.867715012458135"><ele>-1.3333333333333333</ele><time>2026-05-01T08:25:47.976Z</time></trkpt><trkpt lat="45.6365463671499" lon="12.867812004851949"><ele>-1.6666666666666665</ele><time>2026-05-01T08:25:48.976Z</time></trkpt><trkpt lat="45.63668833581513" lon="12.867906170621746"><ele>-2.0</ele><time>2026-05-01T08:25:49.976Z</time></trkpt><trkpt lat="45.63682959526878" lon="12.8680032438543"><ele>-2.333333333333333</ele><time>2026-05-01T08:25:50.976Z</time></trkpt><trkpt lat="45.636970060677406" lon="12.8681053323487"><ele>-2.6666666666666665</ele><time>2026-05-01T08:25:51.976Z</time></trkpt><trkpt lat="45.63711087160921" lon="12.868201011840965"><ele>-3.0</ele><time>2026-05-01T08:25:52.976Z</time></trkpt><trkpt lat="45.637247858430506" lon="12.868294610324993"><ele>-3.0</ele><time>2026-05-01T08:25:53.976Z</time></trkpt><trkpt lat="45.63738179500269" lon="12.868381674441354"><ele>-3.0</ele><time>2026-05-01T08:25:54.976Z</time></trkpt><trkpt lat="45.63750004388206" lon="12.868468157003415"><ele>-3.0</ele><time>2026-05-01T08:25:55.976Z</time></trkpt><trkpt lat="45.63760014519088" lon="12.868545940862713"><ele>-3.0</ele><time>2026-05-01T08:25:56.976Z</time></trkpt><trkpt lat="45.63769031107083" lon="12.868639469221618"><ele>-2.6</ele><time>2026-05-01T08:25:57.976Z</time></trkpt><trkpt lat="45.637751082503705" lon="12.868776522133206"><ele>-2.1999999999999997</ele><time>2026-05-01T08:25:58.976Z</time></trkpt><trkpt lat="45.63779269181744" lon="12.868911121820595"><ele>-1.8</ele><time>2026-05-01T08:25:59.976Z</time></trkpt><trkpt lat="45.63783532999176" lon="12.869064024333268"><ele>-1.4</ele><time>2026-05-01T08:26:00.976Z</time></trkpt><trkpt lat="45.63783497152594" lon="12.869231306388416"><ele>-1.0</ele><time>2026-05-01T08:26:01.976Z</time></trkpt><trkpt lat="45.63786066919637" lon="12.869380942236996"><ele>-1.0</ele><time>2026-05-01T08:26:02.976Z</time></trkpt><trkpt lat="45.63787383600092" lon="12.869497112661685"><ele>-1.0</ele><time>2026-05-01T08:26:03.976Z</time></trkpt><trkpt lat="45.637869237951044" lon="12.869592841077768"><ele>-1.0</ele><time>2026-05-01T08:26:04.976Z</time></trkpt><trkpt lat="45.63787799452512" lon="12.869685229010601"><ele>-1.0</ele><time>2026-05-01T08:26:06.976Z</time></trkpt><trkpt lat="45.63803112365423" lon="12.86963713962059"><ele>-1.0</ele><time>2026-05-01T08:26:13.978Z</time></trkpt><trkpt lat="45.6380987623303" lon="12.869504961743493"><ele>-1.0</ele><time>2026-05-01T08:26:15.978Z</time></trkpt><trkpt lat="45.638115209365516" lon="12.869413222209147"><ele>-0.9999999999999999</ele><time>2026-05-01T08:26:16.978Z</time></trkpt><trkpt lat="45.63814654310633" lon="12.869330517302297"><ele>-1.0</ele><time>2026-05-01T08:26:17.978Z</time></trkpt><trkpt lat="45.63818131252605" lon="12.86924431050903"><ele>-1.0</ele><time>2026-05-01T08:26:18.978Z</time></trkpt><trkpt lat="45.638217232728145" lon="12.869156921156574"><ele>-0.9999999999999999</ele><time>2026-05-01T08:26:19.978Z</time></trkpt><trkpt lat="45.63825520219746" lon="12.869065812068524"><ele>-1.0</ele><time>2026-05-01T08:26:20.977Z</time></trkpt><trkpt lat="45.638290079097985" lon="12.868977554684154"><ele>-1.0</ele><time>2026-05-01T08:26:21.978Z</time></trkpt><trkpt lat="45.638321757110816" lon="12.868897007181824"><ele>-1.0</ele><time>2026-05-01T08:26:22.978Z</time></trkpt><trkpt lat="45.63835141193139" lon="12.868816213388977"><ele>-0.9999999999999999</ele><time>2026-05-01T08:26:23.978Z</time></trkpt><trkpt lat="45.63838562491654" lon="12.868732317318122"><ele>-1.0</ele><time>2026-05-01T08:26:24.978Z</time></trkpt><trkpt lat="45.638422126435664" lon="12.868642858458818"><ele>-1.0</ele><time>2026-05-01T08:26:25.978Z</time></trkpt><trkpt lat="45.638459696305205" lon="12.868550345435066"><ele>-0.9999999999999999</ele><time>2026-05-01T08:26:26.978Z</time></trkpt><trkpt lat="45.63849634527608" lon="12.868459411059465"><ele>-1.0</ele><time>2026-05-01T08:26:27.978Z</time></trkpt><trkpt lat="45.63853365486294" lon="12.868371212851315"><ele>-1.0</ele><time>2026-05-01T08:26:28.978Z</time></trkpt><trkpt lat="45.63856800586442" lon="12.868288918478592"><ele>-1.0</ele><time>2026-05-01T08:26:29.978Z</time></trkpt><trkpt lat="45.63860194985782" lon="12.868198402778217"><ele>-0.9999999999999999</ele><time>2026-05-01T08:26:30.978Z</time></trkpt><trkpt lat="45.638636244263644" lon="12.868108398535023"><ele>-1.0</ele><time>2026-05-01T08:26:31.978Z</time></trkpt><trkpt lat="45.638671381032864" lon="12.868017173283436"><ele>-1.0</ele><time>2026-05-01T08:26:32.978Z</time></trkpt><trkpt lat="45.638708344904884" lon="12.867924160840644"><ele>-0.9999999999999999</ele><time>2026-05-01T08:26:33.977Z</time></trkpt><trkpt lat="45.63874189182511" lon="12.867831972108991"><ele>-1.0</ele><time>2026-05-01T08:26:34.977Z</time></trkpt><trkpt lat="45.638777177403895" lon="12.867745842005785"><ele>-1.0</ele><time>2026-05-01T08:26:35.977Z</time></trkpt><trkpt lat="45.638813216766884" lon="12.867657273650385"><ele>-0.6666666666666666</ele><time>2026-05-01T08:26:36.977Z</time></trkpt><trkpt lat="45.63884782397512" lon="12.86756014022036"><ele>-0.3333333333333333</ele><time>2026-05-01T08:26:37.977Z</time></trkpt><trkpt lat="45.638878714624475" lon="12.867479141651028"><ele>0.0</ele><time>2026-05-01T08:26:38.977Z</time></trkpt><trkpt lat="45.63892488065535" lon="12.867410829693076"><ele>0.3333333333333333</ele><time>2026-05-01T08:26:39.977Z</time></trkpt><trkpt lat="45.63897919150898" lon="12.86727672333287"><ele>0.6666666666666666</ele><time>2026-05-01T08:26:41.977Z</time></trkpt><trkpt lat="45.63900274503727" lon="12.867158608554904"><ele>1.0</ele><time>2026-05-01T08:26:43.977Z</time></trkpt><trkpt lat="45.63889904869465" lon="12.867006809729848"><ele>1.0</ele><time>2026-05-01T08:26:46.977Z</time></trkpt><trkpt lat="45.638925901294094" lon="12.866881744665513"><ele>1.0</ele><time>2026-05-01T08:26:49.977Z</time></trkpt><trkpt lat="45.63898545212077" lon="12.866769820874458"><ele>1.0</ele><time>2026-05-01T08:26:51.977Z</time></trkpt><trkpt lat="45.639056902262375" lon="12.866740128046159"><ele>1.0</ele><time>2026-05-01T08:26:53.977Z</time></trkpt><trkpt lat="45.63913135509308" lon="12.866792583483706"><ele>1.0</ele><time>2026-05-01T08:26:55.977Z</time></trkpt><trkpt lat="45.639239025868044" lon="12.866847037178413"><ele>1.0</ele><time>2026-05-01T08:26:57.977Z</time></trkpt><trkpt lat="45.639348384205704" lon="12.866934272672287"><ele>1.0</ele><time>2026-05-01T08:26:59.977Z</time></trkpt><trkpt lat="45.639442511782136" lon="12.866996627070487"><ele>1.0</ele><time>2026-05-01T08:27:01.977Z</time></trkpt><trkpt lat="45.63951270532094" lon="12.867043071175743"><ele>1.0</ele><time>2026-05-01T08:27:03.977Z</time></trkpt><trkpt lat="45.639721535033836" lon="12.866728056302268"><ele>0.49999999999999994</ele><time>2026-05-01T08:27:08.977Z</time></trkpt><trkpt lat="45.639779565213935" lon="12.866654732409376"><ele>0.0</ele><time>2026-05-01T08:27:09.977Z</time></trkpt><trkpt lat="45.63984086477388" lon="12.866595624630195"><ele>-0.5</ele><time>2026-05-01T08:27:10.977Z</time></trkpt><trkpt lat="45.63991142245363" lon="12.866556401040175"><ele>-1.0</ele><time>2026-05-01T08:27:11.977Z</time></trkpt><trkpt lat="45.63998518257092" lon="12.866521547087606"><ele>-1.4999999999999998</ele><time>2026-05-01T08:27:12.977Z</time></trkpt><trkpt lat="45.6400628060641" lon="12.866492017073687"><ele>-2.0</ele><time>2026-05-01T08:27:13.977Z</time></trkpt><trkpt lat="45.64014398916023" lon="12.866470186371897"><ele>-1.9999999999999998</ele><time>2026-05-01T08:27:14.977Z</time></trkpt><trkpt lat="45.64022601806876" lon="12.86646089725857"><ele>-2.0</ele><time>2026-05-01T08:27:15.977Z</time></trkpt><trkpt lat="45.64030993034772" lon="12.866451928970804"><ele>-2.0</ele><time>2026-05-01T08:27:16.977Z</time></trkpt><trkpt lat="45.640392249738795" lon="12.866450826177449"><ele>-2.0</ele><time>2026-05-01T08:27:17.977Z</time></trkpt><trkpt lat="45.64047742884545" lon="12.866453325785795"><ele>-1.9999999999999998</ele><time>2026-05-01T08:27:18.977Z</time></trkpt><trkpt lat="45.640561279815266" lon="12.86646279069278"><ele>-2.0</ele><time>2026-05-01T08:27:19.977Z</time></trkpt><trkpt lat="45.640645234028106" lon="12.866475061440172"><ele>-1.9999999999999998</ele><time>2026-05-01T08:27:20.977Z</time></trkpt><trkpt lat="45.64073050680098" lon="12.86648928816763"><ele>-2.0</ele><time>2026-05-01T08:27:21.977Z</time></trkpt><trkpt lat="45.640815454566976" lon="12.866505749954557"><ele>-2.0</ele><time>2026-05-01T08:27:22.977Z</time></trkpt><trkpt lat="45.640900116018436" lon="12.866526056665931"><ele>-2.0</ele><time>2026-05-01T08:27:23.977Z</time></trkpt><trkpt lat="45.640990314401215" lon="12.866545734505637"><ele>-1.9999999999999998</ele><time>2026-05-01T08:27:24.977Z</time></trkpt><trkpt lat="45.64107650746042" lon="12.866566894567477"><ele>-2.0</ele><time>2026-05-01T08:27:25.977Z</time></trkpt><trkpt lat="45.64116554876152" lon="12.866587067972304"><ele>-1.8333333333333333</ele><time>2026-05-01T08:27:26.977Z</time></trkpt><trkpt lat="45.64125550201297" lon="12.866606052847072"><ele>-1.6666666666666665</ele><time>2026-05-01T08:27:27.977Z</time></trkpt><trkpt lat="45.64134004346971" lon="12.86662444604501"><ele>-1.5</ele><time>2026-05-01T08:27:28.977Z</time></trkpt><trkpt lat="45.64142532824388" lon="12.866642100961624"><ele>-1.3333333333333333</ele><time>2026-05-01T08:27:29.977Z</time></trkpt><trkpt lat="45.6415139928964" lon="12.86666101566298"><ele>-1.1666666666666665</ele><time>2026-05-01T08:27:30.977Z</time></trkpt><trkpt lat="45.64160559198776" lon="12.866684322263923"><ele>-1.0</ele><time>2026-05-01T08:27:31.977Z</time></trkpt><trkpt lat="45.64170088542109" lon="12.8667081079501"><ele>-1.0</ele><time>2026-05-01T08:27:32.977Z</time></trkpt><trkpt lat="45.64179879704082" lon="12.866729679030971"><ele>-1.0</ele><time>2026-05-01T08:27:33.977Z</time></trkpt><trkpt lat="45.64188749528366" lon="12.866756243241785"><ele>-1.0</ele><time>2026-05-01T08:27:34.977Z</time></trkpt><trkpt lat="45.64198064402129" lon="12.86678738469602"><ele>-1.0</ele><time>2026-05-01T08:27:35.977Z</time></trkpt><trkpt lat="45.642071626832895" lon="12.86681476048344"><ele>-1.0</ele><time>2026-05-01T08:27:36.977Z</time></trkpt><trkpt lat="45.6421632989019" lon="12.86683781480462"><ele>-1.2000000000000002</ele><time>2026-05-01T08:27:37.977Z</time></trkpt><trkpt lat="45.642257516134855" lon="12.866852035899376"><ele>-1.4000000000000001</ele><time>2026-05-01T08:27:38.977Z</time></trkpt><trkpt lat="45.64235475537306" lon="12.866864064561614"><ele>-1.6</ele><time>2026-05-01T08:27:39.977Z</time></trkpt><trkpt lat="45.64245406780854" lon="12.866869166570233"><ele>-1.8</ele><time>2026-05-01T08:27:40.977Z</time></trkpt><trkpt lat="45.64255228829121" lon="12.866871789391977"><ele>-2.0</ele><time>2026-05-01T08:27:41.977Z</time></trkpt><trkpt lat="45.642652656319314" lon="12.866868314260222"><ele>-2.0</ele><time>2026-05-01T08:27:42.977Z</time></trkpt><trkpt lat="45.64275297517322" lon="12.866856832444695"><ele>-2.0</ele><time>2026-05-01T08:27:43.977Z</time></trkpt><trkpt lat="45.642855573246706" lon="12.866848968396631"><ele>-2.0</ele><time>2026-05-01T08:27:44.977Z</time></trkpt><trkpt lat="45.642969686108486" lon="12.866821585573815"><ele>-2.0</ele><time>2026-05-01T08:27:45.977Z</time></trkpt><trkpt lat="45.64307980078715" lon="12.866833869332378"><ele>-2.0</ele><time>2026-05-01T08:27:46.977Z</time></trkpt><trkpt lat="45.643193129050516" lon="12.866821355687675"><ele>-2.0</ele><time>2026-05-01T08:27:47.977Z</time></trkpt><trkpt lat="45.64330459775544" lon="12.866808272602032"><ele>-2.0</ele><time>2026-05-01T08:27:48.977Z</time></trkpt><trkpt lat="45.64341804732519" lon="12.86678803578922"><ele>-2.0</ele><time>2026-05-01T08:27:49.976Z</time></trkpt><trkpt lat="45.643529775019104" lon="12.866759926950225"><ele>-2.0</ele><time>2026-05-01T08:27:50.976Z</time></trkpt><trkpt lat="45.64363355738377" lon="12.86672492913122"><ele>-2.0</ele><time>2026-05-01T08:27:51.976Z</time></trkpt><trkpt lat="45.64373165080512" lon="12.866685646509666"><ele>-1.9999999999999998</ele><time>2026-05-01T08:27:52.976Z</time></trkpt><trkpt lat="45.643814331343656" lon="12.866648354939075"><ele>-2.0</ele><time>2026-05-01T08:27:53.976Z</time></trkpt><trkpt lat="45.643874450829784" lon="12.866620591842405"><ele>-2.0</ele><time>2026-05-01T08:27:54.976Z</time></trkpt><trkpt lat="45.64399012775435" lon="12.866562264088753"><ele>-2.0</ele><time>2026-05-01T08:27:56.976Z</time></trkpt><trkpt lat="45.64407294681302" lon="12.866552429972124"><ele>-1.9999999999999998</ele><time>2026-05-01T08:27:58.976Z</time></trkpt><trkpt lat="45.644122307489795" lon="12.866661264959275"><ele>-2.0</ele><time>2026-05-01T08:28:01.976Z</time></trkpt><trkpt lat="45.64418184432875" lon="12.866808772329982"><ele>-1.9999999999999998</ele><time>2026-05-01T08:28:03.976Z</time></trkpt><trkpt lat="45.64421655337989" lon="12.866892470432308"><ele>-2.0</ele><time>2026-05-01T08:28:04.976Z</time></trkpt><trkpt lat="45.64425343328081" lon="12.866981403330904"><ele>-2.0</ele><time>2026-05-01T08:28:05.976Z</time></trkpt><trkpt lat="45.64429516427176" lon="12.86708203405046"><ele>-2.0</ele><time>2026-05-01T08:28:06.976Z</time></trkpt><trkpt lat="45.64433972702481" lon="12.867189493364888"><ele>-1.9999999999999998</ele><time>2026-05-01T08:28:07.976Z</time></trkpt><trkpt lat="45.6443853944548" lon="12.867299616648603"><ele>-2.0</ele><time>2026-05-01T08:28:08.976Z</time></trkpt><trkpt lat="45.64448857050811" lon="12.867526495919263"><ele>-2.2</ele><time>2026-05-01T08:28:10.976Z</time></trkpt><trkpt lat="45.64454193495135" lon="12.867652422534684"><ele>-2.4000000000000004</ele><time>2026-05-01T08:28:11.976Z</time></trkpt><trkpt lat="45.64459574830382" lon="12.867781927504687"><ele>-2.5999999999999996</ele><time>2026-05-01T08:28:12.976Z</time></trkpt><trkpt lat="45.64465029496125" lon="12.867914306868647"><ele>-2.8</ele><time>2026-05-01T08:28:13.978Z</time></trkpt><trkpt lat="45.64470331058413" lon="12.868048136809975"><ele>-3.0</ele><time>2026-05-01T08:28:14.976Z</time></trkpt><trkpt lat="45.6447585950965" lon="12.86818299532646"><ele>-3.0</ele><time>2026-05-01T08:28:15.976Z</time></trkpt><trkpt lat="45.64481509857959" lon="12.868316292072345"><ele>-3.0</ele><time>2026-05-01T08:28:16.978Z</time></trkpt><trkpt lat="45.64487029616119" lon="12.868450759547498"><ele>-3.0</ele><time>2026-05-01T08:28:17.977Z</time></trkpt><trkpt lat="45.644927278412084" lon="12.868584500273593"><ele>-3.0</ele><time>2026-05-01T08:28:18.977Z</time></trkpt><trkpt lat="45.644980525591556" lon="12.868713626370875"><ele>-3.0</ele><time>2026-05-01T08:28:19.977Z</time></trkpt><trkpt lat="45.6450350313415" lon="12.868840240521267"><ele>-3.0</ele><time>2026-05-01T08:28:20.978Z</time></trkpt><trkpt lat="45.64508499691566" lon="12.868966485904707"><ele>-3.0</ele><time>2026-05-01T08:28:21.978Z</time></trkpt><trkpt lat="45.645133471747535" lon="12.869085291233477"><ele>-3.0</ele><time>2026-05-01T08:28:22.976Z</time></trkpt><trkpt lat="45.64518105486001" lon="12.869204403077289"><ele>-3.0</ele><time>2026-05-01T08:28:23.978Z</time></trkpt><trkpt lat="45.6452294324139" lon="12.8693223040682"><ele>-3.0</ele><time>2026-05-01T08:28:24.978Z</time></trkpt><trkpt lat="45.6452796383028" lon="12.86944405784943"><ele>-3.0</ele><time>2026-05-01T08:28:25.977Z</time></trkpt><trkpt lat="45.64533048031772" lon="12.86956443109399"><ele>-3.0</ele><time>2026-05-01T08:28:26.977Z</time></trkpt><trkpt lat="45.64536466085976" lon="12.869694877060681"><ele>-3.0</ele><time>2026-05-01T08:28:27.977Z</time></trkpt><trkpt lat="45.64541226855594" lon="12.869811000111898"><ele>-3.0</ele><time>2026-05-01T08:28:28.977Z</time></trkpt><trkpt lat="45.64545929128821" lon="12.869923607616421"><ele>-3.0</ele><time>2026-05-01T08:28:29.977Z</time></trkpt><trkpt lat="45.64550597092993" lon="12.870037687239368"><ele>-3.2</ele><time>2026-05-01T08:28:30.977Z</time></trkpt><trkpt lat="45.64555701124018" lon="12.870156814386025"><ele>-3.4</ele><time>2026-05-01T08:28:31.977Z</time></trkpt><trkpt lat="45.64560885285629" lon="12.87027800912362"><ele>-3.6000000000000005</ele><time>2026-05-01T08:28:32.977Z</time></trkpt><trkpt lat="45.645658880150755" lon="12.8704055731388"><ele>-3.8000000000000003</ele><time>2026-05-01T08:28:33.977Z</time></trkpt><trkpt lat="45.64571057418461" lon="12.870528071740011"><ele>-4.0</ele><time>2026-05-01T08:28:34.977Z</time></trkpt><trkpt lat="45.64575961624487" lon="12.870647626577403"><ele>-4.0</ele><time>2026-05-01T08:28:35.977Z</time></trkpt><trkpt lat="45.645809900496054" lon="12.870768326044972"><ele>-4.0</ele><time>2026-05-01T08:28:36.977Z</time></trkpt><trkpt lat="45.6458575165544" lon="12.870888326020866"><ele>-4.0</ele><time>2026-05-01T08:28:37.977Z</time></trkpt><trkpt lat="45.64590347005849" lon="12.871005874492793"><ele>-4.0</ele><time>2026-05-01T08:28:38.977Z</time></trkpt><trkpt lat="45.645952014063326" lon="12.871121264038608"><ele>-4.0</ele><time>2026-05-01T08:28:39.977Z</time></trkpt><trkpt lat="45.64600049443885" lon="12.871234008213149"><ele>-3.9999999999999996</ele><time>2026-05-01T08:28:40.977Z</time></trkpt><trkpt lat="45.64604032725436" lon="12.87132732804612"><ele>-4.0</ele><time>2026-05-01T08:28:41.977Z</time></trkpt><trkpt lat="45.64609616008508" lon="12.871461825923273"><ele>-4.0</ele><time>2026-05-01T08:28:43.977Z</time></trkpt><trkpt lat="45.646131628429174" lon="12.87156044130578"><ele>-4.0</ele><time>2026-05-01T08:28:45.977Z</time></trkpt><trkpt lat="45.646151268835496" lon="12.871651355248494"><ele>-3.9999999999999996</ele><time>2026-05-01T08:28:47.977Z</time></trkpt><trkpt lat="45.646083489077334" lon="12.871692694559265"><ele>-4.0</ele><time>2026-05-01T08:28:48.977Z</time></trkpt><trkpt lat="45.646006981798415" lon="12.871829259671584"><ele>-3.833333333333333</ele><time>2026-05-01T08:28:50.977Z</time></trkpt><trkpt lat="45.64595974258681" lon="12.871913581413175"><ele>-3.6666666666666665</ele><time>2026-05-01T08:28:51.977Z</time></trkpt><trkpt lat="45.645907202076565" lon="12.872007365996948"><ele>-3.5</ele><time>2026-05-01T08:28:52.977Z</time></trkpt><trkpt lat="45.64585072637969" lon="12.872108174946367"><ele>-3.333333333333333</ele><time>2026-05-01T08:28:53.977Z</time></trkpt><trkpt lat="45.64580014772096" lon="12.872198524242293"><ele>-3.1666666666666665</ele><time>2026-05-01T08:28:54.977Z</time></trkpt><trkpt lat="45.64576471066643" lon="12.872282604806026"><ele>-3.0</ele><time>2026-05-01T08:28:55.977Z</time></trkpt><trkpt lat="45.64572122196739" lon="12.87236255302676"><ele>-3.0</ele><time>2026-05-01T08:28:56.977Z</time></trkpt><trkpt lat="45.64567260125174" lon="12.872447944899065"><ele>-3.0</ele><time>2026-05-01T08:28:57.977Z</time></trkpt><trkpt lat="45.645619616940024" lon="12.872544583271157"><ele>-3.0</ele><time>2026-05-01T08:28:58.977Z</time></trkpt><trkpt lat="45.64556286737176" lon="12.872655607869854"><ele>-3.0</ele><time>2026-05-01T08:28:59.977Z</time></trkpt><trkpt lat="45.645501318541626" lon="12.87276821545063"><ele>-3.0</ele><time>2026-05-01T08:29:00.977Z</time></trkpt><trkpt lat="45.645434383598314" lon="12.872890925155918"><ele>-2.75</ele><time>2026-05-01T08:29:01.977Z</time></trkpt><trkpt lat="45.645361417656055" lon="12.873018770094943"><ele>-2.5</ele><time>2026-05-01T08:29:02.977Z</time></trkpt><trkpt lat="45.645288829323796" lon="12.873150595914646"><ele>-2.25</ele><time>2026-05-01T08:29:03.977Z</time></trkpt><trkpt lat="45.64521497377351" lon="12.873284633794317"><ele>-2.0</ele><time>2026-05-01T08:29:04.977Z</time></trkpt><trkpt lat="45.64514259451601" lon="12.873417705673207"><ele>-1.2000000000000002</ele><time>2026-05-01T08:29:05.977Z</time></trkpt><trkpt lat="45.645072739211095" lon="12.873544441999691"><ele>-0.40000000000000013</ele><time>2026-05-01T08:29:06.977Z</time></trkpt><trkpt lat="45.64501315606798" lon="12.873663791749655"><ele>0.40000000000000013</ele><time>2026-05-01T08:29:07.977Z</time></trkpt><trkpt lat="45.644962782538094" lon="12.87375936534602"><ele>1.2000000000000002</ele><time>2026-05-01T08:29:08.977Z</time></trkpt><trkpt lat="45.644916394722586" lon="12.873837829106359"><ele>2.0</ele><time>2026-05-01T08:29:09.976Z</time></trkpt><trkpt lat="45.64483187718648" lon="12.873916048545649"><ele>2.0</ele><time>2026-05-01T08:29:11.976Z</time></trkpt><trkpt lat="45.6448413806922" lon="12.874076096926105"><ele>2.0</ele><time>2026-05-01T08:29:13.976Z</time></trkpt><trkpt lat="45.644856937244775" lon="12.87425835855286"><ele>2.0</ele><time>2026-05-01T08:29:15.976Z</time></trkpt><trkpt lat="45.64485917136074" lon="12.874392785602641"><ele>2.0</ele><time>2026-05-01T08:29:17.976Z</time></trkpt><trkpt lat="45.64499371589622" lon="12.874530136431845"><ele>1.9999999999999998</ele><time>2026-05-01T08:29:21.976Z</time></trkpt><trkpt lat="45.64511998655859" lon="12.87453012654724"><ele>2.0</ele><time>2026-05-01T08:29:23.976Z</time></trkpt><trkpt lat="45.64519077652482" lon="12.874527070402555"><ele>2.0</ele><time>2026-05-01T08:29:24.976Z</time></trkpt><trkpt lat="45.645262048492675" lon="12.874519535852471"><ele>2.0</ele><time>2026-05-01T08:29:25.976Z</time></trkpt><trkpt lat="45.6453389214748" lon="12.874514210418461"><ele>1.9999999999999998</ele><time>2026-05-01T08:29:26.976Z</time></trkpt><trkpt lat="45.645414289652685" lon="12.874500611901441"><ele>2.0</ele><time>2026-05-01T08:29:27.976Z</time></trkpt><trkpt lat="45.6454875146617" lon="12.874486226925585"><ele>2.0</ele><time>2026-05-01T08:29:28.976Z</time></trkpt><trkpt lat="45.64556163325609" lon="12.874474742832996"><ele>1.9999999999999998</ele><time>2026-05-01T08:29:29.976Z</time></trkpt><trkpt lat="45.64563333147797" lon="12.874471851634882"><ele>2.0</ele><time>2026-05-01T08:29:30.976Z</time></trkpt><trkpt lat="45.64570752745606" lon="12.874478096079619"><ele>2.0</ele><time>2026-05-01T08:29:31.976Z</time></trkpt><trkpt lat="45.64578409321295" lon="12.874493212921333"><ele>1.9999999999999998</ele><time>2026-05-01T08:29:32.976Z</time></trkpt><trkpt lat="45.645857253203914" lon="12.87450839136284"><ele>2.0</ele><time>2026-05-01T08:29:33.976Z</time></trkpt><trkpt lat="45.645924405137016" lon="12.874530273182414"><ele>2.0</ele><time>2026-05-01T08:29:34.976Z</time></trkpt><trkpt lat="45.645995614982176" lon="12.874560623068987"><ele>1.9999999999999998</ele><time>2026-05-01T08:29:35.976Z</time></trkpt><trkpt lat="45.64607244623505" lon="12.874588767429781"><ele>2.0</ele><time>2026-05-01T08:29:36.976Z</time></trkpt><trkpt lat="45.64615201080883" lon="12.87461511333976"><ele>2.0</ele><time>2026-05-01T08:29:37.976Z</time></trkpt><trkpt lat="45.646231524526854" lon="12.87464904209412"><ele>2.0</ele><time>2026-05-01T08:29:38.976Z</time></trkpt><trkpt lat="45.64631226810571" lon="12.874681429072094"><ele>1.9999999999999998</ele><time>2026-05-01T08:29:39.976Z</time></trkpt><trkpt lat="45.646391281129624" lon="12.874722667991083"><ele>2.0</ele><time>2026-05-01T08:29:40.976Z</time></trkpt><trkpt lat="45.6464724176005" lon="12.874773238864643"><ele>1.3333333333333333</ele><time>2026-05-01T08:29:41.976Z</time></trkpt><trkpt lat="45.64655240940818" lon="12.874817874669937"><ele>0.6666666666666666</ele><time>2026-05-01T08:29:42.976Z</time></trkpt><trkpt lat="45.646630276808935" lon="12.874870285628022"><ele>0.0</ele><time>2026-05-01T08:29:43.976Z</time></trkpt><trkpt lat="45.64670738580277" lon="12.874919159417257"><ele>-0.6666666666666666</ele><time>2026-05-01T08:29:44.976Z</time></trkpt><trkpt lat="45.646782887168655" lon="12.87497103580927"><ele>-1.3333333333333333</ele><time>2026-05-01T08:29:45.976Z</time></trkpt><trkpt lat="45.6468560499557" lon="12.875020351439629"><ele>-2.0</ele><time>2026-05-01T08:29:46.976Z</time></trkpt><trkpt lat="45.64693490386341" lon="12.875075149937283"><ele>-2.0</ele><time>2026-05-01T08:29:47.976Z</time></trkpt><trkpt lat="45.64701917639158" lon="12.8751293117207"><ele>-2.0</ele><time>2026-05-01T08:29:48.976Z</time></trkpt><trkpt lat="45.647111685172874" lon="12.875187041571655"><ele>-2.0</ele><time>2026-05-01T08:29:49.976Z</time></trkpt><trkpt lat="45.64720378168206" lon="12.875248432792555"><ele>-2.0</ele><time>2026-05-01T08:29:50.976Z</time></trkpt><trkpt lat="45.647287955253695" lon="12.875329013571466"><ele>-2.0</ele><time>2026-05-01T08:29:51.976Z</time></trkpt><trkpt lat="45.64738391617926" lon="12.87539297414677"><ele>-2.0</ele><time>2026-05-01T08:29:52.976Z</time></trkpt><trkpt lat="45.64747938708165" lon="12.875454340790165"><ele>-2.0</ele><time>2026-05-01T08:29:53.976Z</time></trkpt><trkpt lat="45.64757467683739" lon="12.8755100234502"><ele>-2.0</ele><time>2026-05-01T08:29:54.976Z</time></trkpt><trkpt lat="45.64767464198673" lon="12.87556212432351"><ele>-2.0</ele><time>2026-05-01T08:29:55.976Z</time></trkpt><trkpt lat="45.6477770736933" lon="12.875616143379458"><ele>-2.0</ele><time>2026-05-01T08:29:56.976Z</time></trkpt><trkpt lat="45.64788010595948" lon="12.875664101298156"><ele>-1.8</ele><time>2026-05-01T08:29:57.976Z</time></trkpt><trkpt lat="45.64798290835236" lon="12.875708890439075"><ele>-1.6</ele><time>2026-05-01T08:29:58.976Z</time></trkpt><trkpt lat="45.64808204903506" lon="12.875748914966971"><ele>-1.4000000000000001</ele><time>2026-05-01T08:29:59.976Z</time></trkpt><trkpt lat="45.64818506706444" lon="12.875788280131186"><ele>-1.2000000000000002</ele><time>2026-05-01T08:30:00.976Z</time></trkpt><trkpt lat="45.64828701923181" lon="12.875830271473168"><ele>-1.0</ele><time>2026-05-01T08:30:01.976Z</time></trkpt><trkpt lat="45.64838828294609" lon="12.87587014326262"><ele>-1.0</ele><time>2026-05-01T08:30:02.976Z</time></trkpt><trkpt lat="45.64849102625732" lon="12.875909608007959"><ele>-1.0</ele><time>2026-05-01T08:30:03.976Z</time></trkpt><trkpt lat="45.648592997798914" lon="12.875950571376075"><ele>-1.0</ele><time>2026-05-01T08:30:04.976Z</time></trkpt><trkpt lat="45.64869719709207" lon="12.875988516380367"><ele>-1.0</ele><time>2026-05-01T08:30:05.976Z</time></trkpt><trkpt lat="45.64880121589549" lon="12.876024517732834"><ele>-1.0</ele><time>2026-05-01T08:30:06.976Z</time></trkpt><trkpt lat="45.648904104433285" lon="12.876059461616325"><ele>-1.2000000000000002</ele><time>2026-05-01T08:30:07.976Z</time></trkpt><trkpt lat="45.649010308650354" lon="12.876093737190224"><ele>-1.4000000000000001</ele><time>2026-05-01T08:30:08.976Z</time></trkpt><trkpt lat="45.64911271042406" lon="12.876122183650816"><ele>-1.6</ele><time>2026-05-01T08:30:09.976Z</time></trkpt><trkpt lat="45.64921827563182" lon="12.876147104392608"><ele>-1.8</ele><time>2026-05-01T08:30:10.976Z</time></trkpt><trkpt lat="45.649321916799366" lon="12.876164531954108"><ele>-2.0</ele><time>2026-05-01T08:30:11.976Z</time></trkpt><trkpt lat="45.64942685917787" lon="12.87617671555492"><ele>-2.0</ele><time>2026-05-01T08:30:12.976Z</time></trkpt><trkpt lat="45.649537219527815" lon="12.876190142675384"><ele>-2.0</ele><time>2026-05-01T08:30:13.976Z</time></trkpt><trkpt lat="45.649648305977095" lon="12.87619732501071"><ele>-2.0</ele><time>2026-05-01T08:30:14.976Z</time></trkpt><trkpt lat="45.64975474601589" lon="12.876207763640423"><ele>-2.0</ele><time>2026-05-01T08:30:15.976Z</time></trkpt><trkpt lat="45.6498525595045" lon="12.876216075254494"><ele>-2.0</ele><time>2026-05-01T08:30:16.976Z</time></trkpt><trkpt lat="45.649945114990004" lon="12.876220411866107"><ele>-1.9999999999999998</ele><time>2026-05-01T08:30:17.976Z</time></trkpt><trkpt lat="45.6500308644565" lon="12.876222219453686"><ele>-2.0</ele><time>2026-05-01T08:30:18.976Z</time></trkpt><trkpt lat="45.65011877248105" lon="12.876214047955756"><ele>-2.0</ele><time>2026-05-01T08:30:19.977Z</time></trkpt><trkpt lat="45.650201623689384" lon="12.876199490541506"><ele>-2.0</ele><time>2026-05-01T08:30:20.977Z</time></trkpt><trkpt lat="45.65028310099846" lon="12.876176092360904"><ele>-1.9999999999999998</ele><time>2026-05-01T08:30:21.977Z</time></trkpt><trkpt lat="45.6503658528721" lon="12.876147923500744"><ele>-2.0</ele><time>2026-05-01T08:30:22.977Z</time></trkpt><trkpt lat="45.65044767459199" lon="12.87611605718588"><ele>-2.1666666666666665</ele><time>2026-05-01T08:30:23.977Z</time></trkpt><trkpt lat="45.650524548831434" lon="12.876077244309583"><ele>-2.333333333333333</ele><time>2026-05-01T08:30:24.977Z</time></trkpt><trkpt lat="45.65060412521353" lon="12.876041074423927"><ele>-2.5</ele><time>2026-05-01T08:30:25.977Z</time></trkpt><trkpt lat="45.6506828187598" lon="12.876000785710417"><ele>-2.6666666666666665</ele><time>2026-05-01T08:30:26.977Z</time></trkpt><trkpt lat="45.650759996698454" lon="12.875951874467825"><ele>-2.8333333333333335</ele><time>2026-05-01T08:30:27.977Z</time></trkpt><trkpt lat="45.650832393392115" lon="12.875897438506632"><ele>-3.0</ele><time>2026-05-01T08:30:28.976Z</time></trkpt><trkpt lat="45.65090271503407" lon="12.875847636043481"><ele>-2.8333333333333335</ele><time>2026-05-01T08:30:29.977Z</time></trkpt><trkpt lat="45.65097581341331" lon="12.875805827157302"><ele>-2.6666666666666665</ele><time>2026-05-01T08:30:30.976Z</time></trkpt><trkpt lat="45.65104072795479" lon="12.875745640035067"><ele>-2.5</ele><time>2026-05-01T08:30:31.977Z</time></trkpt><trkpt lat="45.65110861111013" lon="12.875683515132643"><ele>-2.333333333333333</ele><time>2026-05-01T08:30:32.977Z</time></trkpt><trkpt lat="45.65117588910829" lon="12.875623326285208"><ele>-2.1666666666666665</ele><time>2026-05-01T08:30:33.977Z</time></trkpt><trkpt lat="45.651241859463504" lon="12.87556282338366"><ele>-2.0</ele><time>2026-05-01T08:30:34.977Z</time></trkpt><trkpt lat="45.65130881833477" lon="12.87550084499075"><ele>-1.9999999999999998</ele><time>2026-05-01T08:30:35.977Z</time></trkpt><trkpt lat="45.65137683099975" lon="12.875439093782406"><ele>-2.0</ele><time>2026-05-01T08:30:36.977Z</time></trkpt><trkpt lat="45.65144599607591" lon="12.87537966624138"><ele>-2.0</ele><time>2026-05-01T08:30:37.977Z</time></trkpt><trkpt lat="45.65151334548515" lon="12.875317464015676"><ele>-2.0</ele><time>2026-05-01T08:30:38.977Z</time></trkpt><trkpt lat="45.65157967907836" lon="12.875251571104634"><ele>-1.9999999999999998</ele><time>2026-05-01T08:30:39.977Z</time></trkpt><trkpt lat="45.65164499716384" lon="12.875185762809437"><ele>-2.0</ele><time>2026-05-01T08:30:40.976Z</time></trkpt><trkpt lat="45.65170763425409" lon="12.875117906396472"><ele>-1.857142857142857</ele><time>2026-05-01T08:30:41.976Z</time></trkpt><trkpt lat="45.651764096228746" lon="12.875048255311079"><ele>-1.714285714285714</ele><time>2026-05-01T08:30:42.976Z</time></trkpt><trkpt lat="45.65181766370188" lon="12.874978994735411"><ele>-1.5714285714285714</ele><time>2026-05-01T08:30:43.976Z</time></trkpt><trkpt lat="45.65186844097874" lon="12.874909428381658"><ele>-1.4285714285714284</ele><time>2026-05-01T08:30:44.976Z</time></trkpt><trkpt lat="45.6519206504936" lon="12.874839064478493"><ele>-1.2857142857142856</ele><time>2026-05-01T08:30:45.976Z</time></trkpt><trkpt lat="45.65196913933113" lon="12.874769300032309"><ele>-1.1428571428571428</ele><time>2026-05-01T08:30:46.976Z</time></trkpt><trkpt lat="45.652015504963984" lon="12.874698709059878"><ele>-1.0</ele><time>2026-05-01T08:30:47.976Z</time></trkpt><trkpt lat="45.65210176288676" lon="12.874567559323623"><ele>-1.1428571428571428</ele><time>2026-05-01T08:30:49.976Z</time></trkpt><trkpt lat="45.65214493993847" lon="12.874498579174515"><ele>-1.2857142857142856</ele><time>2026-05-01T08:30:50.976Z</time></trkpt><trkpt lat="45.652189993701825" lon="12.874428940877083"><ele>-1.4285714285714284</ele><time>2026-05-01T08:30:51.976Z</time></trkpt><trkpt lat="45.652233724479004" lon="12.874357043911756"><ele>-1.5714285714285714</ele><time>2026-05-01T08:30:52.976Z</time></trkpt><trkpt lat="45.65227889996875" lon="12.87428930231298"><ele>-1.714285714285714</ele><time>2026-05-01T08:30:53.976Z</time></trkpt><trkpt lat="45.65234930150833" lon="12.874179454895726"><ele>-1.857142857142857</ele><time>2026-05-01T08:30:55.976Z</time></trkpt><trkpt lat="45.65240332917985" lon="12.874095953909082"><ele>-2.0</ele><time>2026-05-01T08:30:57.976Z</time></trkpt><trkpt lat="45.65245219434933" lon="12.874006219727725"><ele>-1.9999999999999998</ele><time>2026-05-01T08:30:59.976Z</time></trkpt><trkpt lat="45.65253175957483" lon="12.87390639314343"><ele>-2.0</ele><time>2026-05-01T08:31:01.976Z</time></trkpt><trkpt lat="45.65256280992362" lon="12.873823745606375"><ele>-2.0</ele><time>2026-05-01T08:31:02.976Z</time></trkpt><trkpt lat="45.6526238265829" lon="12.873761697982486"><ele>-2.0</ele><time>2026-05-01T08:31:03.976Z</time></trkpt><trkpt lat="45.65267664973902" lon="12.87368422611838"><ele>-1.9999999999999998</ele><time>2026-05-01T08:31:04.976Z</time></trkpt><trkpt lat="45.65273102330536" lon="12.87361061552523"><ele>-2.0</ele><time>2026-05-01T08:31:05.976Z</time></trkpt><trkpt lat="45.65278248853906" lon="12.87354179058333"><ele>-1.9999999999999998</ele><time>2026-05-01T08:31:06.976Z</time></trkpt><trkpt lat="45.65283315350414" lon="12.873467035083388"><ele>-2.0</ele><time>2026-05-01T08:31:07.976Z</time></trkpt><trkpt lat="45.65288215234766" lon="12.873382176492338"><ele>-2.0</ele><time>2026-05-01T08:31:08.976Z</time></trkpt><trkpt lat="45.65293050026034" lon="12.873295223736367"><ele>-2.0</ele><time>2026-05-01T08:31:09.976Z</time></trkpt><trkpt lat="45.65297693453896" lon="12.873209132983495"><ele>-1.9999999999999998</ele><time>2026-05-01T08:31:10.976Z</time></trkpt><trkpt lat="45.65302042909884" lon="12.873120802523543"><ele>-2.0</ele><time>2026-05-01T08:31:11.976Z</time></trkpt><trkpt lat="45.65306227437885" lon="12.873027534777046"><ele>-1.9999999999999998</ele><time>2026-05-01T08:31:12.976Z</time></trkpt><trkpt lat="45.65310313765993" lon="12.872935231473823"><ele>-2.0</ele><time>2026-05-01T08:31:13.976Z</time></trkpt><trkpt lat="45.65314472175835" lon="12.87284271930226"><ele>-2.0</ele><time>2026-05-01T08:31:14.976Z</time></trkpt><trkpt lat="45.65318420720446" lon="12.872747714960031"><ele>-2.0</ele><time>2026-05-01T08:31:15.976Z</time></trkpt><trkpt lat="45.65322292580608" lon="12.87265134371183"><ele>-1.9999999999999998</ele><time>2026-05-01T08:31:16.976Z</time></trkpt><trkpt lat="45.65326276742222" lon="12.872556941031839"><ele>-2.0</ele><time>2026-05-01T08:31:17.976Z</time></trkpt><trkpt lat="45.65330232936782" lon="12.872461942227382"><ele>-1.8333333333333333</ele><time>2026-05-01T08:31:18.976Z</time></trkpt><trkpt lat="45.65334300402565" lon="12.872368031066722"><ele>-1.6666666666666665</ele><time>2026-05-01T08:31:19.976Z</time></trkpt><trkpt lat="45.6533827790756" lon="12.87227070415852"><ele>-1.5</ele><time>2026-05-01T08:31:20.976Z</time></trkpt><trkpt lat="45.653423160488266" lon="12.872171186260607"><ele>-1.3333333333333333</ele><time>2026-05-01T08:31:21.976Z</time></trkpt><trkpt lat="45.65346501983567" lon="12.872072052339247"><ele>-1.1666666666666665</ele><time>2026-05-01T08:31:22.976Z</time></trkpt><trkpt lat="45.65350795730305" lon="12.871975859161463"><ele>-1.0</ele><time>2026-05-01T08:31:23.976Z</time></trkpt><trkpt lat="45.65355160990663" lon="12.871885633505217"><ele>-0.9999999999999999</ele><time>2026-05-01T08:31:24.976Z</time></trkpt><trkpt lat="45.65359634646114" lon="12.87179322867003"><ele>-1.0</ele><time>2026-05-01T08:31:25.976Z</time></trkpt><trkpt lat="45.653647747472675" lon="12.871708904986694"><ele>-1.0</ele><time>2026-05-01T08:31:26.976Z</time></trkpt><trkpt lat="45.65370229317695" lon="12.871626018270954"><ele>-1.0</ele><time>2026-05-01T08:31:27.976Z</time></trkpt><trkpt lat="45.65375988570107" lon="12.871543672189286"><ele>-0.9999999999999999</ele><time>2026-05-01T08:31:28.976Z</time></trkpt><trkpt lat="45.65381800763332" lon="12.871461665817005"><ele>-1.0</ele><time>2026-05-01T08:31:29.976Z</time></trkpt><trkpt lat="45.65388135498176" lon="12.871383615319772"><ele>-0.8333333333333333</ele><time>2026-05-01T08:31:30.976Z</time></trkpt><trkpt lat="45.65394184372779" lon="12.871308840407183"><ele>-0.6666666666666666</ele><time>2026-05-01T08:31:31.976Z</time></trkpt><trkpt lat="45.65400337682954" lon="12.871231615186655"><ele>-0.5</ele><time>2026-05-01T08:31:32.976Z</time></trkpt><trkpt lat="45.654065807944264" lon="12.871153345757882"><ele>-0.3333333333333333</ele><time>2026-05-01T08:31:33.976Z</time></trkpt><trkpt lat="45.65412711557455" lon="12.871073074398476"><ele>-0.16666666666666666</ele><time>2026-05-01T08:31:34.976Z</time></trkpt><trkpt lat="45.654187052470554" lon="12.870993035575584"><ele>0.0</ele><time>2026-05-01T08:31:35.976Z</time></trkpt><trkpt lat="45.65424516864556" lon="12.870912950789753"><ele>0.0</ele><time>2026-05-01T08:31:36.976Z</time></trkpt><trkpt lat="45.65430192137198" lon="12.870835695442494"><ele>0.0</ele><time>2026-05-01T08:31:37.976Z</time></trkpt><trkpt lat="45.65436074741628" lon="12.870758189698252"><ele>0.0</ele><time>2026-05-01T08:31:38.976Z</time></trkpt><trkpt lat="45.654419680853344" lon="12.87067617607655"><ele>0.0</ele><time>2026-05-01T08:31:39.976Z</time></trkpt><trkpt lat="45.654476469174554" lon="12.87059703846336"><ele>0.0</ele><time>2026-05-01T08:31:40.976Z</time></trkpt><trkpt lat="45.65453367502145" lon="12.870512376995343"><ele>0.0</ele><time>2026-05-01T08:31:41.976Z</time></trkpt><trkpt lat="45.65458962045619" lon="12.870426995518867"><ele>-0.16666666666666666</ele><time>2026-05-01T08:31:42.976Z</time></trkpt><trkpt lat="45.65464397510262" lon="12.870338381350892"><ele>-0.3333333333333333</ele><time>2026-05-01T08:31:43.976Z</time></trkpt><trkpt lat="45.65470019857572" lon="12.870248891408023"><ele>-0.5</ele><time>2026-05-01T08:31:44.976Z</time></trkpt><trkpt lat="45.65475570677873" lon="12.870159742446607"><ele>-0.6666666666666666</ele><time>2026-05-01T08:31:45.976Z</time></trkpt><trkpt lat="45.65481109026374" lon="12.870073082766924"><ele>-0.8333333333333333</ele><time>2026-05-01T08:31:46.976Z</time></trkpt><trkpt lat="45.65487164245992" lon="12.869975609396024"><ele>-1.0</ele><time>2026-05-01T08:31:47.976Z</time></trkpt><trkpt lat="45.654933403645124" lon="12.869871508167401"><ele>-1.0</ele><time>2026-05-01T08:31:48.976Z</time></trkpt><trkpt lat="45.65499894254817" lon="12.869762384370409"><ele>-1.0</ele><time>2026-05-01T08:31:49.976Z</time></trkpt><trkpt lat="45.65506519248676" lon="12.869652094186009"><ele>-1.0</ele><time>2026-05-01T08:31:50.976Z</time></trkpt><trkpt lat="45.65513512384571" lon="12.86953691305276"><ele>-1.0</ele><time>2026-05-01T08:31:51.976Z</time></trkpt><trkpt lat="45.65520567586487" lon="12.869422075036008"><ele>-1.0</ele><time>2026-05-01T08:31:52.976Z</time></trkpt><trkpt lat="45.65527569560688" lon="12.86930582734701"><ele>-1.2000000000000002</ele><time>2026-05-01T08:31:53.976Z</time></trkpt><trkpt lat="45.65534843996532" lon="12.869190717943106"><ele>-1.4000000000000001</ele><time>2026-05-01T08:31:54.976Z</time></trkpt><trkpt lat="45.65541937128673" lon="12.869076745167638"><ele>-1.6</ele><time>2026-05-01T08:31:55.976Z</time></trkpt><trkpt lat="45.65549078678522" lon="12.868963815926039"><ele>-1.8</ele><time>2026-05-01T08:31:56.975Z</time></trkpt><trkpt lat="45.655559208944126" lon="12.868852655486254"><ele>-2.0</ele><time>2026-05-01T08:31:57.975Z</time></trkpt><trkpt lat="45.65562832558845" lon="12.86874213873221"><ele>-2.0</ele><time>2026-05-01T08:31:58.975Z</time></trkpt><trkpt lat="45.655696176289666" lon="12.868631644759418"><ele>-2.0</ele><time>2026-05-01T08:31:59.975Z</time></trkpt><trkpt lat="45.65576230758769" lon="12.868521079746944"><ele>-2.0</ele><time>2026-05-01T08:32:00.975Z</time></trkpt><trkpt lat="45.655828560047915" lon="12.868407430974697"><ele>-2.0</ele><time>2026-05-01T08:32:01.975Z</time></trkpt><trkpt lat="45.655892885025786" lon="12.868291566056392"><ele>-2.0</ele><time>2026-05-01T08:32:02.975Z</time></trkpt><trkpt lat="45.6559578203103" lon="12.868174126460442"><ele>-2.0</ele><time>2026-05-01T08:32:03.975Z</time></trkpt><trkpt lat="45.65602102684953" lon="12.868053992253056"><ele>-2.0</ele><time>2026-05-01T08:32:04.975Z</time></trkpt><trkpt lat="45.656083381349" lon="12.867929634819351"><ele>-2.0</ele><time>2026-05-01T08:32:05.975Z</time></trkpt><trkpt lat="45.65614585350417" lon="12.867808382201254"><ele>-2.0</ele><time>2026-05-01T08:32:06.975Z</time></trkpt><trkpt lat="45.65620744993751" lon="12.867690013186655"><ele>-2.0</ele><time>2026-05-01T08:32:07.975Z</time></trkpt><trkpt lat="45.65626826972998" lon="12.867572429089051"><ele>-2.2</ele><time>2026-05-01T08:32:08.975Z</time></trkpt><trkpt lat="45.65633215492015" lon="12.867459621674001"><ele>-2.4000000000000004</ele><time>2026-05-01T08:32:09.975Z</time></trkpt><trkpt lat="45.65639686751478" lon="12.867354972956129"><ele>-2.5999999999999996</ele><time>2026-05-01T08:32:10.975Z</time></trkpt><trkpt lat="45.65646413027574" lon="12.86725684773137"><ele>-2.8</ele><time>2026-05-01T08:32:11.975Z</time></trkpt><trkpt lat="45.65652736266785" lon="12.867170658630478"><ele>-3.0</ele><time>2026-05-01T08:32:12.975Z</time></trkpt><trkpt lat="45.656588206012145" lon="12.867088816886948"><ele>-3.0</ele><time>2026-05-01T08:32:13.975Z</time></trkpt><trkpt lat="45.65665289297342" lon="12.867007205369807"><ele>-3.0</ele><time>2026-05-01T08:32:14.975Z</time></trkpt><trkpt lat="45.65671847045227" lon="12.86692562240986"><ele>-3.0</ele><time>2026-05-01T08:32:15.975Z</time></trkpt><trkpt lat="45.656784201951915" lon="12.86684372582366"><ele>-3.0</ele><time>2026-05-01T08:32:16.975Z</time></trkpt><trkpt lat="45.65684829059339" lon="12.866760791236155"><ele>-3.0</ele><time>2026-05-01T08:32:17.975Z</time></trkpt><trkpt lat="45.65690477543568" lon="12.866674624425986"><ele>-3.0</ele><time>2026-05-01T08:32:18.975Z</time></trkpt><trkpt lat="45.65695796705953" lon="12.866585831756518"><ele>-3.1666666666666665</ele><time>2026-05-01T08:32:19.975Z</time></trkpt><trkpt lat="45.657014140580046" lon="12.86649775275354"><ele>-3.333333333333333</ele><time>2026-05-01T08:32:20.975Z</time></trkpt><trkpt lat="45.657062934908836" lon="12.86640276109077"><ele>-3.5</ele><time>2026-05-01T08:32:21.975Z</time></trkpt><trkpt lat="45.657112202643965" lon="12.866301493596085"><ele>-3.6666666666666665</ele><time>2026-05-01T08:32:22.975Z</time></trkpt><trkpt lat="45.65715929416495" lon="12.866201346539517"><ele>-3.833333333333333</ele><time>2026-05-01T08:32:23.975Z</time></trkpt><trkpt lat="45.65720338552545" lon="12.86609888285652"><ele>-4.0</ele><time>2026-05-01T08:32:24.975Z</time></trkpt><trkpt lat="45.65724355502282" lon="12.86598520607981"><ele>-3.8000000000000003</ele><time>2026-05-01T08:32:25.976Z</time></trkpt><trkpt lat="45.65728496622348" lon="12.865868637100062"><ele>-3.6000000000000005</ele><time>2026-05-01T08:32:26.976Z</time></trkpt><trkpt lat="45.657326885348745" lon="12.865749122850245"><ele>-3.4</ele><time>2026-05-01T08:32:27.976Z</time></trkpt><trkpt lat="45.65736957334799" lon="12.865628911397344"><ele>-3.2</ele><time>2026-05-01T08:32:28.977Z</time></trkpt><trkpt lat="45.65741107562277" lon="12.865506812842378"><ele>-3.0</ele><time>2026-05-01T08:32:29.976Z</time></trkpt><trkpt lat="45.65745685671303" lon="12.865382381906919"><ele>-3.0</ele><time>2026-05-01T08:32:30.976Z</time></trkpt><trkpt lat="45.6575036722425" lon="12.865270169918677"><ele>-3.0</ele><time>2026-05-01T08:32:31.977Z</time></trkpt><trkpt lat="45.657552235313105" lon="12.865163451544499"><ele>-3.0</ele><time>2026-05-01T08:32:32.976Z</time></trkpt><trkpt lat="45.65760649658699" lon="12.865063523988416"><ele>-3.0</ele><time>2026-05-01T08:32:33.976Z</time></trkpt><trkpt lat="45.65766175405427" lon="12.864969145754456"><ele>-3.0</ele><time>2026-05-01T08:32:34.976Z</time></trkpt><trkpt lat="45.65772380711285" lon="12.864885078885942"><ele>-3.0</ele><time>2026-05-01T08:32:35.976Z</time></trkpt><trkpt lat="45.65778977642478" lon="12.864806468335983"><ele>-2.8333333333333335</ele><time>2026-05-01T08:32:36.976Z</time></trkpt><trkpt lat="45.65785828700642" lon="12.864728630806914"><ele>-2.6666666666666665</ele><time>2026-05-01T08:32:37.976Z</time></trkpt><trkpt lat="45.657930089651586" lon="12.86465625121203"><ele>-2.5</ele><time>2026-05-01T08:32:38.976Z</time></trkpt><trkpt lat="45.658001898407186" lon="12.864581036597645"><ele>-2.333333333333333</ele><time>2026-05-01T08:32:39.976Z</time></trkpt><trkpt lat="45.65807468703715" lon="12.864508369537827"><ele>-2.1666666666666665</ele><time>2026-05-01T08:32:40.976Z</time></trkpt><trkpt lat="45.65814846616393" lon="12.864436549053277"><ele>-2.0</ele><time>2026-05-01T08:32:41.976Z</time></trkpt><trkpt lat="45.65822249237295" lon="12.86435845844265"><ele>-2.0</ele><time>2026-05-01T08:32:42.976Z</time></trkpt><trkpt lat="45.65830077751742" lon="12.864280562373242"><ele>-2.0</ele><time>2026-05-01T08:32:43.976Z</time></trkpt><trkpt lat="45.658378101540066" lon="12.864198895334649"><ele>-2.0</ele><time>2026-05-01T08:32:44.976Z</time></trkpt><trkpt lat="45.65845789113466" lon="12.864116327723947"><ele>-2.0</ele><time>2026-05-01T08:32:45.976Z</time></trkpt><trkpt lat="45.658538090713556" lon="12.86403430745896"><ele>-2.0</ele><time>2026-05-01T08:32:46.976Z</time></trkpt><trkpt lat="45.658617089238746" lon="12.863950617963317"><ele>-2.0</ele><time>2026-05-01T08:32:47.976Z</time></trkpt><trkpt lat="45.658691905434125" lon="12.863867069766757"><ele>-2.0</ele><time>2026-05-01T08:32:48.976Z</time></trkpt><trkpt lat="45.65876367302444" lon="12.86377950535621"><ele>-2.0</ele><time>2026-05-01T08:32:49.976Z</time></trkpt><trkpt lat="45.65883143180474" lon="12.863689350245767"><ele>-2.0</ele><time>2026-05-01T08:32:50.976Z</time></trkpt><trkpt lat="45.65889540846673" lon="12.8635912411528"><ele>-2.0</ele><time>2026-05-01T08:32:51.976Z</time></trkpt><trkpt lat="45.65895377378899" lon="12.86349334414448"><ele>-1.9999999999999998</ele><time>2026-05-01T08:32:52.976Z</time></trkpt><trkpt lat="45.659003902295076" lon="12.863396779848301"><ele>-2.0</ele><time>2026-05-01T08:32:53.976Z</time></trkpt><trkpt lat="45.659049581413576" lon="12.863297131236022"><ele>-2.0</ele><time>2026-05-01T08:32:54.976Z</time></trkpt><trkpt lat="45.65909405302133" lon="12.86319818945239"><ele>-2.0</ele><time>2026-05-01T08:32:55.976Z</time></trkpt><trkpt lat="45.659132941556095" lon="12.863096652661005"><ele>-1.9999999999999998</ele><time>2026-05-01T08:32:56.976Z</time></trkpt><trkpt lat="45.659168610263364" lon="12.862994900715826"><ele>-2.0</ele><time>2026-05-01T08:32:57.976Z</time></trkpt><trkpt lat="45.65919792246154" lon="12.862889052300158"><ele>-1.9999999999999998</ele><time>2026-05-01T08:32:58.976Z</time></trkpt><trkpt lat="45.659228102640164" lon="12.86278324425857"><ele>-2.0</ele><time>2026-05-01T08:32:59.976Z</time></trkpt><trkpt lat="45.65925754513306" lon="12.862673522678609"><ele>-2.0</ele><time>2026-05-01T08:33:00.976Z</time></trkpt><trkpt lat="45.65928795647728" lon="12.86256124908256"><ele>-2.0</ele><time>2026-05-01T08:33:01.976Z</time></trkpt><trkpt lat="45.65931574626546" lon="12.862450001778724"><ele>-1.9999999999999998</ele><time>2026-05-01T08:33:02.976Z</time></trkpt><trkpt lat="45.659344879499606" lon="12.862340706607375"><ele>-2.0</ele><time>2026-05-01T08:33:03.976Z</time></trkpt><trkpt lat="45.65937454265228" lon="12.862233620606167"><ele>-2.0</ele><time>2026-05-01T08:33:04.976Z</time></trkpt><trkpt lat="45.659405726617244" lon="12.86213199604783"><ele>-1.9999999999999998</ele><time>2026-05-01T08:33:05.976Z</time></trkpt><trkpt lat="45.65943884753576" lon="12.86203531013864"><ele>-2.0</ele><time>2026-05-01T08:33:06.976Z</time></trkpt><trkpt lat="45.65947422488026" lon="12.861950096805192"><ele>-2.0</ele><time>2026-05-01T08:33:07.976Z</time></trkpt><trkpt lat="45.659510419944866" lon="12.861867950859729"><ele>-1.9999999999999998</ele><time>2026-05-01T08:33:08.976Z</time></trkpt><trkpt lat="45.659549200802346" lon="12.861789810870418"><ele>-2.0</ele><time>2026-05-01T08:33:09.976Z</time></trkpt><trkpt lat="45.6595902821905" lon="12.861714617234222"><ele>-2.0</ele><time>2026-05-01T08:33:10.976Z</time></trkpt><trkpt lat="45.659657268531824" lon="12.861598903572395"><ele>-1.9999999999999998</ele><time>2026-05-01T08:33:12.976Z</time></trkpt><trkpt lat="45.659723118593895" lon="12.861498387034823"><ele>-2.0</ele><time>2026-05-01T08:33:14.975Z</time></trkpt><trkpt lat="45.65979919433561" lon="12.861353338835578"><ele>-2.0</ele><time>2026-05-01T08:33:16.975Z</time></trkpt><trkpt lat="45.659844192546956" lon="12.861273911161534"><ele>-2.0</ele><time>2026-05-01T08:33:17.975Z</time></trkpt><trkpt lat="45.65989086677334" lon="12.861192339455574"><ele>-1.9999999999999998</ele><time>2026-05-01T08:33:18.975Z</time></trkpt><trkpt lat="45.65994058813383" lon="12.861107859385102"><ele>-2.0</ele><time>2026-05-01T08:33:19.975Z</time></trkpt><trkpt lat="45.659990364550445" lon="12.861021079592211"><ele>-1.9999999999999998</ele><time>2026-05-01T08:33:20.975Z</time></trkpt><trkpt lat="45.66004168860722" lon="12.86093438126434"><ele>-2.0</ele><time>2026-05-01T08:33:21.975Z</time></trkpt><trkpt lat="45.660088911939056" lon="12.86084651510021"><ele>-2.0</ele><time>2026-05-01T08:33:22.975Z</time></trkpt><trkpt lat="45.660133577241595" lon="12.860754825459178"><ele>-2.0</ele><time>2026-05-01T08:33:23.975Z</time></trkpt><trkpt lat="45.66017462751313" lon="12.860664304056707"><ele>-1.9999999999999998</ele><time>2026-05-01T08:33:24.975Z</time></trkpt><trkpt lat="45.66021440094345" lon="12.860576691692602"><ele>-2.0</ele><time>2026-05-01T08:33:25.975Z</time></trkpt><trkpt lat="45.66025225881931" lon="12.860485030282277"><ele>-1.9999999999999998</ele><time>2026-05-01T08:33:26.975Z</time></trkpt><trkpt lat="45.660290372949035" lon="12.86039396672091"><ele>-2.0</ele><time>2026-05-01T08:33:27.975Z</time></trkpt><trkpt lat="45.66032404035324" lon="12.860303461567904"><ele>-2.0</ele><time>2026-05-01T08:33:28.975Z</time></trkpt><trkpt lat="45.66035383952062" lon="12.860220886370541"><ele>-2.0</ele><time>2026-05-01T08:33:29.975Z</time></trkpt><trkpt lat="45.66040869299616" lon="12.860070954580628"><ele>-1.9999999999999998</ele><time>2026-05-01T08:33:31.975Z</time></trkpt><trkpt lat="45.66046209290706" lon="12.859943988392809"><ele>-2.0</ele><time>2026-05-01T08:33:33.975Z</time></trkpt><trkpt lat="45.66051235987518" lon="12.859834918388612"><ele>-1.9999999999999998</ele><time>2026-05-01T08:33:35.975Z</time></trkpt><trkpt lat="45.66055751528173" lon="12.859750229581262"><ele>-2.0</ele><time>2026-05-01T08:33:37.975Z</time></trkpt><trkpt lat="45.66060317541741" lon="12.859678099155511"><ele>-2.0</ele><time>2026-05-01T08:33:39.975Z</time></trkpt><trkpt lat="45.66066671269665" lon="12.859587434824387"><ele>-2.0</ele><time>2026-05-01T08:33:42.975Z</time></trkpt><trkpt lat="45.66073366484512" lon="12.85949886858987"><ele>-1.9999999999999998</ele><time>2026-05-01T08:33:45.975Z</time></trkpt><trkpt lat="45.66078626486801" lon="12.859432218540784"><ele>-2.0</ele><time>2026-05-01T08:33:47.975Z</time></trkpt><trkpt lat="45.660860392492616" lon="12.859343020119743"><ele>-2.0</ele><time>2026-05-01T08:33:49.975Z</time></trkpt><trkpt lat="45.660952741902165" lon="12.85923433669328"><ele>-2.0</ele><time>2026-05-01T08:33:51.975Z</time></trkpt><trkpt lat="45.66104705100912" lon="12.859121006400194"><ele>-2.0</ele><time>2026-05-01T08:33:53.975Z</time></trkpt><trkpt lat="45.661125812512516" lon="12.859025064853224"><ele>-2.0</ele><time>2026-05-01T08:33:55.975Z</time></trkpt><trkpt lat="45.66119826368861" lon="12.858941283007"><ele>-2.0</ele><time>2026-05-01T08:33:57.975Z</time></trkpt><trkpt lat="45.66127081142384" lon="12.858853807145348"><ele>-1.9999999999999998</ele><time>2026-05-01T08:33:59.975Z</time></trkpt><trkpt lat="45.661353211237646" lon="12.858752152562822"><ele>-2.0</ele><time>2026-05-01T08:34:01.975Z</time></trkpt><trkpt lat="45.66144590580843" lon="12.858632774660299"><ele>-2.0</ele><time>2026-05-01T08:34:03.975Z</time></trkpt><trkpt lat="45.6614984208499" lon="12.858570116545291"><ele>-2.0</ele><time>2026-05-01T08:34:04.975Z</time></trkpt><trkpt lat="45.661550048420025" lon="12.858510409711274"><ele>-1.9999999999999998</ele><time>2026-05-01T08:34:05.975Z</time></trkpt><trkpt lat="45.66160061927713" lon="12.85844914087116"><ele>-2.0</ele><time>2026-05-01T08:34:06.975Z</time></trkpt><trkpt lat="45.66164995320443" lon="12.858388709183652"><ele>-2.0</ele><time>2026-05-01T08:34:07.975Z</time></trkpt><trkpt lat="45.66170034133277" lon="12.858332680497451"><ele>-1.9999999999999998</ele><time>2026-05-01T08:34:08.975Z</time></trkpt><trkpt lat="45.66175709761679" lon="12.858272062560916"><ele>-2.0</ele><time>2026-05-01T08:34:09.975Z</time></trkpt><trkpt lat="45.66181071998192" lon="12.858209775295586"><ele>-2.0</ele><time>2026-05-01T08:34:10.975Z</time></trkpt><trkpt lat="45.66186357083873" lon="12.858143124595548"><ele>-1.9999999999999998</ele><time>2026-05-01T08:34:11.975Z</time></trkpt><trkpt lat="45.661920689619905" lon="12.858067227884202"><ele>-2.0</ele><time>2026-05-01T08:34:12.975Z</time></trkpt><trkpt lat="45.66197683781651" lon="12.858001551301482"><ele>-2.0</ele><time>2026-05-01T08:34:13.975Z</time></trkpt><trkpt lat="45.66203361716303" lon="12.857931011391717"><ele>-1.9999999999999998</ele><time>2026-05-01T08:34:14.975Z</time></trkpt><trkpt lat="45.66209027964488" lon="12.85785870237526"><ele>-2.0</ele><time>2026-05-01T08:34:15.975Z</time></trkpt><trkpt lat="45.662143272136866" lon="12.857788094818586"><ele>-2.0</ele><time>2026-05-01T08:34:16.975Z</time></trkpt><trkpt lat="45.66220059147674" lon="12.857722403419078"><ele>-2.0</ele><time>2026-05-01T08:34:17.975Z</time></trkpt><trkpt lat="45.662259106655526" lon="12.857654588527101"><ele>-1.9999999999999998</ele><time>2026-05-01T08:34:18.975Z</time></trkpt><trkpt lat="45.66231534452002" lon="12.857576649891433"><ele>-2.0</ele><time>2026-05-01T08:34:19.975Z</time></trkpt><trkpt lat="45.66237644564709" lon="12.857505448107524"><ele>-1.9999999999999998</ele><time>2026-05-01T08:34:20.975Z</time></trkpt><trkpt lat="45.6624386831261" lon="12.857434310917535"><ele>-2.0</ele><time>2026-05-01T08:34:21.975Z</time></trkpt><trkpt lat="45.662504472769214" lon="12.857372395649392"><ele>-2.0</ele><time>2026-05-01T08:34:22.975Z</time></trkpt><trkpt lat="45.66257378586613" lon="12.857326116139339"><ele>-2.0</ele><time>2026-05-01T08:34:23.975Z</time></trkpt><trkpt lat="45.6626484328457" lon="12.85729075587753"><ele>-1.9999999999999998</ele><time>2026-05-01T08:34:24.975Z</time></trkpt><trkpt lat="45.66272371382966" lon="12.857271318325468"><ele>-2.0</ele><time>2026-05-01T08:34:25.975Z</time></trkpt><trkpt lat="45.66280099899411" lon="12.857263682821007"><ele>-1.9999999999999998</ele><time>2026-05-01T08:34:26.975Z</time></trkpt><trkpt lat="45.66287910801471" lon="12.857264507663768"><ele>-2.0</ele><time>2026-05-01T08:34:27.975Z</time></trkpt><trkpt lat="45.66296197429199" lon="12.857268492253834"><ele>-2.0</ele><time>2026-05-01T08:34:28.975Z</time></trkpt><trkpt lat="45.663043899056746" lon="12.857274570503115"><ele>-2.0</ele><time>2026-05-01T08:34:29.975Z</time></trkpt><trkpt lat="45.663126840666116" lon="12.857282387298191"><ele>-1.9999999999999998</ele><time>2026-05-01T08:34:30.975Z</time></trkpt><trkpt lat="45.663210050377344" lon="12.857292813287584"><ele>-2.0</ele><time>2026-05-01T08:34:31.976Z</time></trkpt><trkpt lat="45.6632908082952" lon="12.857301281624181"><ele>-1.9999999999999998</ele><time>2026-05-01T08:34:32.976Z</time></trkpt><trkpt lat="45.663371446204415" lon="12.857308348582144"><ele>-2.0</ele><time>2026-05-01T08:34:33.976Z</time></trkpt><trkpt lat="45.66345243386575" lon="12.857304206378814"><ele>-2.0</ele><time>2026-05-01T08:34:34.976Z</time></trkpt><trkpt lat="45.66352912954383" lon="12.857292332454456"><ele>-2.0</ele><time>2026-05-01T08:34:35.976Z</time></trkpt><trkpt lat="45.66360286055649" lon="12.857269632388414"><ele>-1.9999999999999998</ele><time>2026-05-01T08:34:36.976Z</time></trkpt><trkpt lat="45.663679497736055" lon="12.857241599074309"><ele>-2.0</ele><time>2026-05-01T08:34:37.975Z</time></trkpt><trkpt lat="45.66375765155029" lon="12.857205144362204"><ele>-1.9999999999999998</ele><time>2026-05-01T08:34:38.975Z</time></trkpt><trkpt lat="45.66383869933552" lon="12.857168809149726"><ele>-2.0</ele><time>2026-05-01T08:34:39.975Z</time></trkpt><trkpt lat="45.663919180979995" lon="12.857125828829352"><ele>-2.0</ele><time>2026-05-01T08:34:40.976Z</time></trkpt><trkpt lat="45.66399957978775" lon="12.857084236467175"><ele>-2.0</ele><time>2026-05-01T08:34:41.976Z</time></trkpt><trkpt lat="45.66408085040523" lon="12.857039354988881"><ele>-1.9999999999999998</ele><time>2026-05-01T08:34:42.976Z</time></trkpt><trkpt lat="45.6641622264945" lon="12.856996974587393"><ele>-2.0</ele><time>2026-05-01T08:34:43.976Z</time></trkpt><trkpt lat="45.66424240590937" lon="12.856959102219959"><ele>-1.9999999999999998</ele><time>2026-05-01T08:34:44.975Z</time></trkpt><trkpt lat="45.664319793050794" lon="12.856919571093606"><ele>-2.0</ele><time>2026-05-01T08:34:45.975Z</time></trkpt><trkpt lat="45.6643966443501" lon="12.856886547674693"><ele>-2.0</ele><time>2026-05-01T08:34:46.975Z</time></trkpt><trkpt lat="45.664474443095024" lon="12.856852067780714"><ele>-2.0</ele><time>2026-05-01T08:34:47.975Z</time></trkpt><trkpt lat="45.66455382588724" lon="12.856818291768239"><ele>-1.9999999999999998</ele><time>2026-05-01T08:34:48.975Z</time></trkpt><trkpt lat="45.66463476417045" lon="12.856789432192377"><ele>-2.0</ele><time>2026-05-01T08:34:49.975Z</time></trkpt><trkpt lat="45.664718567203174" lon="12.856759534129841"><ele>-1.9999999999999998</ele><time>2026-05-01T08:34:50.975Z</time></trkpt><trkpt lat="45.66480459638665" lon="12.856738565829126"><ele>-2.0</ele><time>2026-05-01T08:34:51.975Z</time></trkpt><trkpt lat="45.66489005503331" lon="12.856712350083063"><ele>-2.0</ele><time>2026-05-01T08:34:52.975Z</time></trkpt><trkpt lat="45.664973065917124" lon="12.856684882468043"><ele>-2.0</ele><time>2026-05-01T08:34:53.975Z</time></trkpt><trkpt lat="45.6650556202251" lon="12.856659540073688"><ele>-1.9999999999999998</ele><time>2026-05-01T08:34:54.975Z</time></trkpt><trkpt lat="45.66513883124521" lon="12.856628331926641"><ele>-2.0</ele><time>2026-05-01T08:34:55.975Z</time></trkpt><trkpt lat="45.665220796675136" lon="12.856592026115202"><ele>-1.9999999999999998</ele><time>2026-05-01T08:34:56.975Z</time></trkpt><trkpt lat="45.66530065697059" lon="12.856553716520573"><ele>-2.0</ele><time>2026-05-01T08:34:57.975Z</time></trkpt><trkpt lat="45.66538057403707" lon="12.856516017510748"><ele>-2.0</ele><time>2026-05-01T08:34:58.975Z</time></trkpt><trkpt lat="45.66545693957684" lon="12.856476748475835"><ele>-2.0</ele><time>2026-05-01T08:34:59.975Z</time></trkpt><trkpt lat="45.66553115641329" lon="12.856431634738627"><ele>-1.9999999999999998</ele><time>2026-05-01T08:35:00.975Z</time></trkpt><trkpt lat="45.66560266462261" lon="12.856377328277588"><ele>-2.0</ele><time>2026-05-01T08:35:01.975Z</time></trkpt><trkpt lat="45.66566826750829" lon="12.856318841275725"><ele>-2.0</ele><time>2026-05-01T08:35:02.975Z</time></trkpt><trkpt lat="45.66572557827238" lon="12.856252062644117"><ele>-2.0</ele><time>2026-05-01T08:35:03.975Z</time></trkpt><trkpt lat="45.66581211625307" lon="12.856143789206126"><ele>-2.0</ele><time>2026-05-01T08:35:05.975Z</time></trkpt><trkpt lat="45.66588130787582" lon="12.856041986620523"><ele>-2.0</ele><time>2026-05-01T08:35:07.975Z</time></trkpt><trkpt lat="45.665973712742236" lon="12.855920562317262"><ele>-2.0</ele><time>2026-05-01T08:35:09.975Z</time></trkpt><trkpt lat="45.666026301177915" lon="12.855852751853552"><ele>-1.8333333333333333</ele><time>2026-05-01T08:35:10.975Z</time></trkpt><trkpt lat="45.66608275242171" lon="12.8557829198015"><ele>-1.6666666666666665</ele><time>2026-05-01T08:35:11.975Z</time></trkpt><trkpt lat="45.666141138706124" lon="12.855709000312801"><ele>-1.5</ele><time>2026-05-01T08:35:12.975Z</time></trkpt><trkpt lat="45.66620029826861" lon="12.855636786285853"><ele>-1.3333333333333333</ele><time>2026-05-01T08:35:13.975Z</time></trkpt><trkpt lat="45.66625857305351" lon="12.855567795954553"><ele>-1.1666666666666665</ele><time>2026-05-01T08:35:14.975Z</time></trkpt><trkpt lat="45.666318979971805" lon="12.855502914039665"><ele>-1.0</ele><time>2026-05-01T08:35:15.975Z</time></trkpt><trkpt lat="45.66638328220098" lon="12.855440375453306"><ele>-1.3333333333333333</ele><time>2026-05-01T08:35:16.975Z</time></trkpt><trkpt lat="45.66645535297447" lon="12.855372761475945"><ele>-1.6666666666666665</ele><time>2026-05-01T08:35:17.975Z</time></trkpt><trkpt lat="45.66652798123755" lon="12.85531882854534"><ele>-2.0</ele><time>2026-05-01T08:35:18.975Z</time></trkpt><trkpt lat="45.66660091887048" lon="12.855270563977847"><ele>-2.3333333333333335</ele><time>2026-05-01T08:35:19.975Z</time></trkpt><trkpt lat="45.666676815466346" lon="12.85521847883446"><ele>-2.6666666666666665</ele><time>2026-05-01T08:35:20.975Z</time></trkpt><trkpt lat="45.66675454565679" lon="12.855175157722462"><ele>-3.0</ele><time>2026-05-01T08:35:21.975Z</time></trkpt><trkpt lat="45.66683396905917" lon="12.855129566711907"><ele>-3.0</ele><time>2026-05-01T08:35:22.975Z</time></trkpt><trkpt lat="45.66691354613095" lon="12.855085526236941"><ele>-3.0</ele><time>2026-05-01T08:35:23.975Z</time></trkpt><trkpt lat="45.66698645618483" lon="12.855046040892345"><ele>-3.0</ele><time>2026-05-01T08:35:24.975Z</time></trkpt><trkpt lat="45.667062520855964" lon="12.855004643926925"><ele>-3.0</ele><time>2026-05-01T08:35:25.975Z</time></trkpt><trkpt lat="45.667133892527616" lon="12.854957728389287"><ele>-3.0</ele><time>2026-05-01T08:35:26.975Z</time></trkpt><trkpt lat="45.66720723978115" lon="12.854906391552799"><ele>-3.0</ele><time>2026-05-01T08:35:27.975Z</time></trkpt><trkpt lat="45.6672786127171" lon="12.854848088600303"><ele>-2.8333333333333335</ele><time>2026-05-01T08:35:28.975Z</time></trkpt><trkpt lat="45.667351387511836" lon="12.854789577749768"><ele>-2.6666666666666665</ele><time>2026-05-01T08:35:29.975Z</time></trkpt><trkpt lat="45.66742642570829" lon="12.854731367616594"><ele>-2.5</ele><time>2026-05-01T08:35:30.975Z</time></trkpt><trkpt lat="45.667503690626795" lon="12.854670801705378"><ele>-2.333333333333333</ele><time>2026-05-01T08:35:31.975Z</time></trkpt><trkpt lat="45.66758219496773" lon="12.854607520730042"><ele>-2.1666666666666665</ele><time>2026-05-01T08:35:32.975Z</time></trkpt><trkpt lat="45.667662908702205" lon="12.854540069150387"><ele>-2.0</ele><time>2026-05-01T08:35:33.975Z</time></trkpt><trkpt lat="45.66774580955917" lon="12.854468979768022"><ele>-1.9999999999999998</ele><time>2026-05-01T08:35:34.975Z</time></trkpt><trkpt lat="45.667827441167624" lon="12.854404404359741"><ele>-2.0</ele><time>2026-05-01T08:35:35.975Z</time></trkpt><trkpt lat="45.6678936016566" lon="12.85435335715928"><ele>-2.0</ele><time>2026-05-01T08:35:36.975Z</time></trkpt><trkpt lat="45.66797525781747" lon="12.854295198868552"><ele>-2.0</ele><time>2026-05-01T08:35:38.975Z</time></trkpt><trkpt lat="45.66804492991882" lon="12.854238857386797"><ele>-1.9999999999999998</ele><time>2026-05-01T08:36:14.974Z</time></trkpt><trkpt lat="45.668108452959366" lon="12.854176025505948"><ele>-2.0</ele><time>2026-05-01T08:36:16.974Z</time></trkpt><trkpt lat="45.668201520021" lon="12.85410830682209"><ele>-1.8333333333333333</ele><time>2026-05-01T08:36:18.974Z</time></trkpt><trkpt lat="45.66830845040431" lon="12.85402600310742"><ele>-1.6666666666666665</ele><time>2026-05-01T08:36:20.974Z</time></trkpt><trkpt lat="45.668365831112084" lon="12.853980833679326"><ele>-1.5</ele><time>2026-05-01T08:36:21.974Z</time></trkpt><trkpt lat="45.66842588585673" lon="12.853934126349813"><ele>-1.3333333333333333</ele><time>2026-05-01T08:36:22.974Z</time></trkpt><trkpt lat="45.668486467085344" lon="12.85388498443661"><ele>-1.1666666666666665</ele><time>2026-05-01T08:36:23.974Z</time></trkpt><trkpt lat="45.66854869036469" lon="12.853836312369411"><ele>-1.0</ele><time>2026-05-01T08:36:24.974Z</time></trkpt><trkpt lat="45.66861036698756" lon="12.853794140806139"><ele>-1.5714285714285714</ele><time>2026-05-01T08:36:25.974Z</time></trkpt><trkpt lat="45.66867189738665" lon="12.853753551722548"><ele>-2.142857142857143</ele><time>2026-05-01T08:36:26.974Z</time></trkpt><trkpt lat="45.66873266640628" lon="12.853718151106142"><ele>-2.7142857142857144</ele><time>2026-05-01T08:36:27.974Z</time></trkpt><trkpt lat="45.66879441706193" lon="12.853685591263346"><ele>-3.2857142857142856</ele><time>2026-05-01T08:36:28.974Z</time></trkpt><trkpt lat="45.668857136710535" lon="12.853660658187056"><ele>-3.857142857142857</ele><time>2026-05-01T08:36:29.974Z</time></trkpt><trkpt lat="45.66892193354784" lon="12.853635400731354"><ele>-4.428571428571429</ele><time>2026-05-01T08:36:30.974Z</time></trkpt><trkpt lat="45.66898875777575" lon="12.853616624439507"><ele>-5.0</ele><time>2026-05-01T08:36:31.974Z</time></trkpt><trkpt lat="45.66905703836262" lon="12.853595435106817"><ele>-5.0</ele><time>2026-05-01T08:36:32.974Z</time></trkpt><trkpt lat="45.66912566152893" lon="12.853581976457704"><ele>-5.0</ele><time>2026-05-01T08:36:33.974Z</time></trkpt><trkpt lat="45.66919504993389" lon="12.85356849946287"><ele>-5.0</ele><time>2026-05-01T08:36:34.974Z</time></trkpt><trkpt lat="45.669266009577" lon="12.853561728128708"><ele>-5.0</ele><time>2026-05-01T08:36:35.974Z</time></trkpt><trkpt lat="45.66933659539944" lon="12.853555890694283"><ele>-5.0</ele><time>2026-05-01T08:36:36.974Z</time></trkpt><trkpt lat="45.669408581400994" lon="12.853555777850618"><ele>-5.0</ele><time>2026-05-01T08:36:37.976Z</time></trkpt><trkpt lat="45.669484062081985" lon="12.85355289125994"><ele>-5.0</ele><time>2026-05-01T08:36:38.975Z</time></trkpt><trkpt lat="45.66955691331584" lon="12.853548791429825"><ele>-4.833333333333334</ele><time>2026-05-01T08:36:39.975Z</time></trkpt><trkpt lat="45.66963058759647" lon="12.853545692836615"><ele>-4.666666666666667</ele><time>2026-05-01T08:36:40.975Z</time></trkpt><trkpt lat="45.6697067371921" lon="12.85353885317111"><ele>-4.5</ele><time>2026-05-01T08:36:41.975Z</time></trkpt><trkpt lat="45.669783766630225" lon="12.85352418587289"><ele>-4.333333333333333</ele><time>2026-05-01T08:36:42.975Z</time></trkpt><trkpt lat="45.669861855661644" lon="12.853509461151633"><ele>-4.166666666666666</ele><time>2026-05-01T08:36:43.976Z</time></trkpt><trkpt lat="45.66993800381763" lon="12.853490726224607"><ele>-4.0</ele><time>2026-05-01T08:36:44.975Z</time></trkpt><trkpt lat="45.67001923304585" lon="12.853468545821775"><ele>-3.9999999999999996</ele><time>2026-05-01T08:36:45.975Z</time></trkpt><trkpt lat="45.67010420753052" lon="12.853444190611707"><ele>-4.0</ele><time>2026-05-01T08:36:46.975Z</time></trkpt><trkpt lat="45.670190140694665" lon="12.853419523112207"><ele>-4.0</ele><time>2026-05-01T08:36:47.975Z</time></trkpt><trkpt lat="45.67027857094466" lon="12.853393987012103"><ele>-4.0</ele><time>2026-05-01T08:36:48.975Z</time></trkpt><trkpt lat="45.67036612352553" lon="12.853367118050967"><ele>-3.9999999999999996</ele><time>2026-05-01T08:36:49.975Z</time></trkpt><trkpt lat="45.67045673943553" lon="12.853342657881237"><ele>-4.0</ele><time>2026-05-01T08:36:50.975Z</time></trkpt><trkpt lat="45.67054874361142" lon="12.853316296394082"><ele>-3.8000000000000003</ele><time>2026-05-01T08:36:51.975Z</time></trkpt><trkpt lat="45.67064245751277" lon="12.853290037930025"><ele>-3.6000000000000005</ele><time>2026-05-01T08:36:52.975Z</time></trkpt><trkpt lat="45.67073477598187" lon="12.85326247747068"><ele>-3.4</ele><time>2026-05-01T08:36:53.975Z</time></trkpt><trkpt lat="45.67083156265725" lon="12.853238694401856"><ele>-3.2</ele><time>2026-05-01T08:36:54.975Z</time></trkpt><trkpt lat="45.67092525416483" lon="12.853211506891304"><ele>-3.0</ele><time>2026-05-01T08:36:55.975Z</time></trkpt><trkpt lat="45.67101491271036" lon="12.853190719290888"><ele>-3.0</ele><time>2026-05-01T08:36:56.975Z</time></trkpt><trkpt lat="45.67110430287469" lon="12.853166587361912"><ele>-3.0</ele><time>2026-05-01T08:36:57.975Z</time></trkpt><trkpt lat="45.67119610528386" lon="12.85314275178271"><ele>-3.0</ele><time>2026-05-01T08:36:58.975Z</time></trkpt><trkpt lat="45.671286686013254" lon="12.85311791573461"><ele>-3.0</ele><time>2026-05-01T08:36:59.975Z</time></trkpt><trkpt lat="45.6713772051548" lon="12.853094466843046"><ele>-3.0</ele><time>2026-05-01T08:37:00.975Z</time></trkpt><trkpt lat="45.67146873830622" lon="12.85306834014408"><ele>-2.8</ele><time>2026-05-01T08:37:01.975Z</time></trkpt><trkpt lat="45.6715625533866" lon="12.853040894999802"><ele>-2.5999999999999996</ele><time>2026-05-01T08:37:02.975Z</time></trkpt><trkpt lat="45.67165640407866" lon="12.853011948819294"><ele>-2.4000000000000004</ele><time>2026-05-01T08:37:03.975Z</time></trkpt><trkpt lat="45.67174758335642" lon="12.852991449702861"><ele>-2.2</ele><time>2026-05-01T08:37:04.975Z</time></trkpt><trkpt lat="45.671837507128444" lon="12.8529803685346"><ele>-2.0</ele><time>2026-05-01T08:37:05.975Z</time></trkpt><trkpt lat="45.671930193173715" lon="12.852963333730722"><ele>-1.9999999999999998</ele><time>2026-05-01T08:37:06.975Z</time></trkpt><trkpt lat="45.672019091097155" lon="12.852945856101218"><ele>-2.0</ele><time>2026-05-01T08:37:07.975Z</time></trkpt><trkpt lat="45.67210763585411" lon="12.852928437967353"><ele>-2.0</ele><time>2026-05-01T08:37:08.975Z</time></trkpt><trkpt lat="45.672187878051524" lon="12.852901169385293"><ele>-2.0</ele><time>2026-05-01T08:37:09.975Z</time></trkpt><trkpt lat="45.672262503553036" lon="12.852879048595051"><ele>-1.9999999999999998</ele><time>2026-05-01T08:37:10.975Z</time></trkpt><trkpt lat="45.672327992363606" lon="12.852841823579594"><ele>-2.0</ele><time>2026-05-01T08:37:11.975Z</time></trkpt><trkpt lat="45.672386965689725" lon="12.85278839632575"><ele>-1.9999999999999998</ele><time>2026-05-01T08:37:12.975Z</time></trkpt><trkpt lat="45.67244768620322" lon="12.85272388426339"><ele>-2.0</ele><time>2026-05-01T08:37:13.975Z</time></trkpt><trkpt lat="45.67250497538556" lon="12.8526498603341"><ele>-2.0</ele><time>2026-05-01T08:37:14.975Z</time></trkpt><trkpt lat="45.67255686059431" lon="12.852567155226675"><ele>-2.0</ele><time>2026-05-01T08:37:15.975Z</time></trkpt><trkpt lat="45.672607913664926" lon="12.852488098527445"><ele>-1.9999999999999998</ele><time>2026-05-01T08:37:16.975Z</time></trkpt><trkpt lat="45.672655521973425" lon="12.852406880328672"><ele>-2.0</ele><time>2026-05-01T08:37:17.975Z</time></trkpt><trkpt lat="45.6726990441528" lon="12.852328788857033"><ele>-1.9999999999999998</ele><time>2026-05-01T08:37:18.975Z</time></trkpt><trkpt lat="45.67273726073505" lon="12.852248281265119"><ele>-2.0</ele><time>2026-05-01T08:37:19.975Z</time></trkpt><trkpt lat="45.67277391640427" lon="12.852171730047335"><ele>-2.0</ele><time>2026-05-01T08:37:20.975Z</time></trkpt><trkpt lat="45.67283139060442" lon="12.8520365624699"><ele>-2.0</ele><time>2026-05-01T08:37:22.975Z</time></trkpt><trkpt lat="45.672885316145255" lon="12.851946195312772"><ele>-1.9999999999999998</ele><time>2026-05-01T08:37:25.975Z</time></trkpt><trkpt lat="45.67298796182706" lon="12.852021295589697"><ele>-2.0</ele><time>2026-05-01T08:37:27.975Z</time></trkpt><trkpt lat="45.67305788081359" lon="12.852028929446515"><ele>-2.1666666666666665</ele><time>2026-05-01T08:37:28.975Z</time></trkpt><trkpt lat="45.67313238445193" lon="12.852053312147666"><ele>-2.333333333333333</ele><time>2026-05-01T08:37:29.975Z</time></trkpt><trkpt lat="45.67322095280764" lon="12.85206455528774"><ele>-2.5</ele><time>2026-05-01T08:37:30.975Z</time></trkpt><trkpt lat="45.673311365850275" lon="12.852071712760033"><ele>-2.6666666666666665</ele><time>2026-05-01T08:37:31.975Z</time></trkpt><trkpt lat="45.67340606099292" lon="12.852069258998197"><ele>-2.8333333333333335</ele><time>2026-05-01T08:37:32.975Z</time></trkpt><trkpt lat="45.67350129114929" lon="12.852044351164851"><ele>-3.0</ele><time>2026-05-01T08:37:33.975Z</time></trkpt><trkpt lat="45.67360028458282" lon="12.852009444944612"><ele>-2.6</ele><time>2026-05-01T08:37:34.975Z</time></trkpt><trkpt lat="45.67370556489722" lon="12.85196853833018"><ele>-2.1999999999999997</ele><time>2026-05-01T08:37:35.975Z</time></trkpt><trkpt lat="45.67381014529363" lon="12.851926998026292"><ele>-1.8</ele><time>2026-05-01T08:37:36.975Z</time></trkpt><trkpt lat="45.673918025841274" lon="12.851887639332553"><ele>-1.4</ele><time>2026-05-01T08:37:37.975Z</time></trkpt><trkpt lat="45.67402291846724" lon="12.851841692820722"><ele>-1.0</ele><time>2026-05-01T08:37:38.975Z</time></trkpt><trkpt lat="45.67412924648354" lon="12.851791359195444"><ele>-1.5</ele><time>2026-05-01T08:37:39.975Z</time></trkpt><trkpt lat="45.67423851543173" lon="12.851742274519312"><ele>-2.0</ele><time>2026-05-01T08:37:40.975Z</time></trkpt><trkpt lat="45.67435240812403" lon="12.851694995957708"><ele>-2.5</ele><time>2026-05-01T08:37:41.975Z</time></trkpt><trkpt lat="45.67446907068965" lon="12.851649589684895"><ele>-3.0</ele><time>2026-05-01T08:37:42.975Z</time></trkpt><trkpt lat="45.67458784265335" lon="12.851598804658364"><ele>-3.5</ele><time>2026-05-01T08:37:43.975Z</time></trkpt><trkpt lat="45.6747084436915" lon="12.85154727273653"><ele>-4.0</ele><time>2026-05-01T08:37:44.975Z</time></trkpt><trkpt lat="45.674833810191046" lon="12.851493096190419"><ele>-4.5</ele><time>2026-05-01T08:37:45.975Z</time></trkpt><trkpt lat="45.674962123283855" lon="12.851440983338712"><ele>-5.0</ele><time>2026-05-01T08:37:46.975Z</time></trkpt><trkpt lat="45.675093390075716" lon="12.851392629335459"><ele>-5.0</ele><time>2026-05-01T08:37:47.974Z</time></trkpt><trkpt lat="45.67522243064953" lon="12.851340882781269"><ele>-5.0</ele><time>2026-05-01T08:37:48.974Z</time></trkpt><trkpt lat="45.675350818226796" lon="12.851284847223905"><ele>-5.0</ele><time>2026-05-01T08:37:49.974Z</time></trkpt><trkpt lat="45.675480014869564" lon="12.85122365244727"><ele>-5.0</ele><time>2026-05-01T08:37:50.974Z</time></trkpt><trkpt lat="45.6756125834731" lon="12.851167664248228"><ele>-5.0</ele><time>2026-05-01T08:37:51.974Z</time></trkpt><trkpt lat="45.67574545593773" lon="12.851110318814264"><ele>-5.0</ele><time>2026-05-01T08:37:52.974Z</time></trkpt><trkpt lat="45.67587964801066" lon="12.851054324839259"><ele>-5.0</ele><time>2026-05-01T08:37:53.974Z</time></trkpt><trkpt lat="45.676015899279065" lon="12.850998760798987"><ele>-5.0</ele><time>2026-05-01T08:37:54.974Z</time></trkpt><trkpt lat="45.67615180303134" lon="12.850942058222243"><ele>-5.0</ele><time>2026-05-01T08:37:55.974Z</time></trkpt><trkpt lat="45.67628989621758" lon="12.850881432940808"><ele>-5.0</ele><time>2026-05-01T08:37:56.974Z</time></trkpt><trkpt lat="45.67642884510866" lon="12.850821028542693"><ele>-5.0</ele><time>2026-05-01T08:37:57.974Z</time></trkpt><trkpt lat="45.67656777087998" lon="12.850760153543725"><ele>-5.0</ele><time>2026-05-01T08:37:58.974Z</time></trkpt><trkpt lat="45.67670980987866" lon="12.850699803629917"><ele>-5.0</ele><time>2026-05-01T08:37:59.974Z</time></trkpt><trkpt lat="45.676853732271006" lon="12.850638461183133"><ele>-5.0</ele><time>2026-05-01T08:38:00.974Z</time></trkpt><trkpt lat="45.67699550583497" lon="12.850576714013759"><ele>-5.0</ele><time>2026-05-01T08:38:01.974Z</time></trkpt><trkpt lat="45.67714116980865" lon="12.85051745586634"><ele>-4.75</ele><time>2026-05-01T08:38:02.974Z</time></trkpt><trkpt lat="45.67728619711316" lon="12.850457822920557"><ele>-4.5</ele><time>2026-05-01T08:38:03.974Z</time></trkpt><trkpt lat="45.67743036081555" lon="12.850399494397807"><ele>-4.25</ele><time>2026-05-01T08:38:04.974Z</time></trkpt><trkpt lat="45.67756913602036" lon="12.850342271515414"><ele>-4.0</ele><time>2026-05-01T08:38:05.974Z</time></trkpt><trkpt lat="45.67771024373736" lon="12.850280671629832"><ele>-4.0</ele><time>2026-05-01T08:38:06.974Z</time></trkpt><trkpt lat="45.677850256785085" lon="12.850219384370998"><ele>-4.0</ele><time>2026-05-01T08:38:07.974Z</time></trkpt><trkpt lat="45.67799163010956" lon="12.85016045489415"><ele>-4.0</ele><time>2026-05-01T08:38:08.974Z</time></trkpt><trkpt lat="45.678131348927785" lon="12.850101058010956"><ele>-4.0</ele><time>2026-05-01T08:38:09.974Z</time></trkpt><trkpt lat="45.67827035330722" lon="12.850041409291872"><ele>-4.25</ele><time>2026-05-01T08:38:10.974Z</time></trkpt><trkpt lat="45.67840989503715" lon="12.849981583725322"><ele>-4.5</ele><time>2026-05-01T08:38:11.974Z</time></trkpt><trkpt lat="45.67855186273343" lon="12.84992410458097"><ele>-4.75</ele><time>2026-05-01T08:38:12.974Z</time></trkpt><trkpt lat="45.67869363652607" lon="12.849866030439262"><ele>-5.0</ele><time>2026-05-01T08:38:13.974Z</time></trkpt><trkpt lat="45.678836305417406" lon="12.849809396006213"><ele>-5.333333333333334</ele><time>2026-05-01T08:38:14.974Z</time></trkpt><trkpt lat="45.67898179441427" lon="12.849747213497334"><ele>-5.666666666666667</ele><time>2026-05-01T08:38:15.974Z</time></trkpt><trkpt lat="45.67912980888712" lon="12.849685260031695"><ele>-6.0</ele><time>2026-05-01T08:38:16.974Z</time></trkpt><trkpt lat="45.679278962511646" lon="12.84962251255518"><ele>-6.0</ele><time>2026-05-01T08:38:17.974Z</time></trkpt><trkpt lat="45.67943133793137" lon="12.849556873774084"><ele>-6.0</ele><time>2026-05-01T08:38:18.974Z</time></trkpt><trkpt lat="45.67958332143958" lon="12.849490801572998"><ele>-6.0</ele><time>2026-05-01T08:38:19.974Z</time></trkpt><trkpt lat="45.67973652416958" lon="12.849425326625422"><ele>-5.666666666666667</ele><time>2026-05-01T08:38:20.974Z</time></trkpt><trkpt lat="45.679893706285256" lon="12.849357018383579"><ele>-5.333333333333334</ele><time>2026-05-01T08:38:21.974Z</time></trkpt><trkpt lat="45.680052004485674" lon="12.84928987111645"><ele>-5.0</ele><time>2026-05-01T08:38:22.974Z</time></trkpt><trkpt lat="45.6802101309599" lon="12.849223960455229"><ele>-5.333333333333334</ele><time>2026-05-01T08:38:23.974Z</time></trkpt><trkpt lat="45.68036969940167" lon="12.849159381638856"><ele>-5.666666666666667</ele><time>2026-05-01T08:38:24.974Z</time></trkpt><trkpt lat="45.68052708038246" lon="12.849095208430695"><ele>-6.0</ele><time>2026-05-01T08:38:25.974Z</time></trkpt><trkpt lat="45.68068701815029" lon="12.849027441994277"><ele>-6.0</ele><time>2026-05-01T08:38:26.974Z</time></trkpt><trkpt lat="45.680846029138024" lon="12.84896319525992"><ele>-6.0</ele><time>2026-05-01T08:38:27.974Z</time></trkpt><trkpt lat="45.68100507210767" lon="12.848895658028288"><ele>-6.0</ele><time>2026-05-01T08:38:28.974Z</time></trkpt><trkpt lat="45.681163074351936" lon="12.848833141335213"><ele>-6.0</ele><time>2026-05-01T08:38:29.974Z</time></trkpt><trkpt lat="45.68131944938246" lon="12.848771982218732"><ele>-6.0</ele><time>2026-05-01T08:38:30.974Z</time></trkpt><trkpt lat="45.681478830177376" lon="12.848700826892278"><ele>-6.0</ele><time>2026-05-01T08:38:31.974Z</time></trkpt><trkpt lat="45.681636046191315" lon="12.848636308229256"><ele>-6.0</ele><time>2026-05-01T08:38:32.974Z</time></trkpt><trkpt lat="45.68179215832168" lon="12.848573056009593"><ele>-6.0</ele><time>2026-05-01T08:38:33.974Z</time></trkpt><trkpt lat="45.68195075611503" lon="12.848505829225237"><ele>-6.0</ele><time>2026-05-01T08:38:34.974Z</time></trkpt><trkpt lat="45.6821093463091" lon="12.848438769534768"><ele>-5.0</ele><time>2026-05-01T08:38:35.974Z</time></trkpt><trkpt lat="45.68226646981873" lon="12.84837294979024"><ele>-4.0</ele><time>2026-05-01T08:38:36.974Z</time></trkpt><trkpt lat="45.682424932836724" lon="12.848305495342137"><ele>-3.0</ele><time>2026-05-01T08:38:37.974Z</time></trkpt><trkpt lat="45.68258347778308" lon="12.848236963233045"><ele>-3.0</ele><time>2026-05-01T08:38:38.974Z</time></trkpt><trkpt lat="45.68274305930652" lon="12.848167153364484"><ele>-3.0</ele><time>2026-05-01T08:38:39.974Z</time></trkpt><trkpt lat="45.68290231745784" lon="12.848101570359447"><ele>-3.0</ele><time>2026-05-01T08:38:40.974Z</time></trkpt><trkpt lat="45.68306601948865" lon="12.848031211489348"><ele>-3.333333333333333</ele><time>2026-05-01T08:38:41.974Z</time></trkpt><trkpt lat="45.68322622590103" lon="12.847966166796057"><ele>-3.6666666666666665</ele><time>2026-05-01T08:38:42.974Z</time></trkpt><trkpt lat="45.68338332127207" lon="12.847903601724434"><ele>-4.0</ele><time>2026-05-01T08:38:43.975Z</time></trkpt><trkpt lat="45.68354138512012" lon="12.847844705755193"><ele>-4.333333333333333</ele><time>2026-05-01T08:38:44.975Z</time></trkpt><trkpt lat="45.68369787993821" lon="12.84778855998859"><ele>-4.666666666666667</ele><time>2026-05-01T08:38:45.975Z</time></trkpt><trkpt lat="45.683852090221144" lon="12.847724046382892"><ele>-5.0</ele><time>2026-05-01T08:38:46.975Z</time></trkpt><trkpt lat="45.684006629548705" lon="12.847659962973536"><ele>-5.0</ele><time>2026-05-01T08:38:47.974Z</time></trkpt><trkpt lat="45.68416554506111" lon="12.847594460171106"><ele>-5.0</ele><time>2026-05-01T08:38:48.974Z</time></trkpt><trkpt lat="45.68432224778004" lon="12.847525527751406"><ele>-5.0</ele><time>2026-05-01T08:38:49.974Z</time></trkpt><trkpt lat="45.684475400618155" lon="12.847466541489478"><ele>-4.666666666666667</ele><time>2026-05-01T08:38:50.974Z</time></trkpt><trkpt lat="45.684630171508395" lon="12.847402780678063"><ele>-4.333333333333333</ele><time>2026-05-01T08:38:51.974Z</time></trkpt><trkpt lat="45.68478816556596" lon="12.847335329308912"><ele>-4.0</ele><time>2026-05-01T08:38:52.975Z</time></trkpt><trkpt lat="45.684945913058804" lon="12.847267559805813"><ele>-4.0</ele><time>2026-05-01T08:38:53.974Z</time></trkpt><trkpt lat="45.685105926677274" lon="12.847195731361333"><ele>-4.0</ele><time>2026-05-01T08:38:54.974Z</time></trkpt><trkpt lat="45.685268394682765" lon="12.847116751347807"><ele>-4.0</ele><time>2026-05-01T08:38:55.974Z</time></trkpt><trkpt lat="45.68543350599613" lon="12.847038698842491"><ele>-4.0</ele><time>2026-05-01T08:38:56.975Z</time></trkpt><trkpt lat="45.68559429033083" lon="12.846958859685223"><ele>-4.0</ele><time>2026-05-01T08:38:57.975Z</time></trkpt><trkpt lat="45.68575153650392" lon="12.846869757787402"><ele>-4.0</ele><time>2026-05-01T08:38:58.974Z</time></trkpt><trkpt lat="45.685901765337" lon="12.846770411456188"><ele>-4.0</ele><time>2026-05-01T08:38:59.974Z</time></trkpt><trkpt lat="45.6860447385201" lon="12.846651685073127"><ele>-4.0</ele><time>2026-05-01T08:39:00.974Z</time></trkpt><trkpt lat="45.68618226732109" lon="12.846517962372033"><ele>-4.0</ele><time>2026-05-01T08:39:01.974Z</time></trkpt><trkpt lat="45.686313292708775" lon="12.846369505433541"><ele>-3.6666666666666665</ele><time>2026-05-01T08:39:02.974Z</time></trkpt><trkpt lat="45.686432898657394" lon="12.846209632247907"><ele>-3.333333333333333</ele><time>2026-05-01T08:39:03.974Z</time></trkpt><trkpt lat="45.68654211282442" lon="12.846038479431725"><ele>-3.0</ele><time>2026-05-01T08:39:04.974Z</time></trkpt><trkpt lat="45.6866455931921" lon="12.845857072434542"><ele>-3.333333333333333</ele><time>2026-05-01T08:39:05.974Z</time></trkpt><trkpt lat="45.68675048527445" lon="12.845679736750725"><ele>-3.6666666666666665</ele><time>2026-05-01T08:39:06.974Z</time></trkpt><trkpt lat="45.68684922124824" lon="12.845511615034091"><ele>-4.0</ele><time>2026-05-01T08:39:07.974Z</time></trkpt><trkpt lat="45.68694749865122" lon="12.845355997092833"><ele>-4.0</ele><time>2026-05-01T08:39:08.974Z</time></trkpt><trkpt lat="45.687038074975135" lon="12.845202843773528"><ele>-4.0</ele><time>2026-05-01T08:39:09.974Z</time></trkpt><trkpt lat="45.687121615382964" lon="12.845063928440949"><ele>-4.0</ele><time>2026-05-01T08:39:10.974Z</time></trkpt><trkpt lat="45.68718652097953" lon="12.84494610103528"><ele>-4.0</ele><time>2026-05-01T08:39:11.974Z</time></trkpt><trkpt lat="45.68723448330258" lon="12.84485649375173"><ele>-3.8000000000000003</ele><time>2026-05-01T08:39:12.974Z</time></trkpt><trkpt lat="45.687276938043915" lon="12.844785342689178"><ele>-3.6000000000000005</ele><time>2026-05-01T08:39:13.974Z</time></trkpt><trkpt lat="45.68733549542387" lon="12.844683182873462"><ele>-3.4</ele><time>2026-05-01T08:39:15.974Z</time></trkpt><trkpt lat="45.68748458749783" lon="12.844684229108791"><ele>-3.2</ele><time>2026-05-01T08:39:17.974Z</time></trkpt><trkpt lat="45.68756553862884" lon="12.844683099362573"><ele>-3.0</ele><time>2026-05-01T08:39:18.974Z</time></trkpt><trkpt lat="45.68765825190046" lon="12.844692549965426"><ele>-3.0</ele><time>2026-05-01T08:39:19.974Z</time></trkpt><trkpt lat="45.687759019621694" lon="12.844699252228049"><ele>-3.0</ele><time>2026-05-01T08:39:20.974Z</time></trkpt><trkpt lat="45.68786813564398" lon="12.844695500014259"><ele>-3.0</ele><time>2026-05-01T08:39:21.974Z</time></trkpt><trkpt lat="45.6879846041718" lon="12.84469158120582"><ele>-3.0</ele><time>2026-05-01T08:39:22.974Z</time></trkpt><trkpt lat="45.68810709906904" lon="12.844690498348164"><ele>-3.0</ele><time>2026-05-01T08:39:23.974Z</time></trkpt><trkpt lat="45.688237191256015" lon="12.844692769140863"><ele>-3.25</ele><time>2026-05-01T08:39:24.974Z</time></trkpt><trkpt lat="45.68837228960654" lon="12.844712768184573"><ele>-3.5</ele><time>2026-05-01T08:39:25.974Z</time></trkpt><trkpt lat="45.68851329156719" lon="12.844714841150024"><ele>-3.75</ele><time>2026-05-01T08:39:26.974Z</time></trkpt><trkpt lat="45.68865820931898" lon="12.844715581638923"><ele>-4.0</ele><time>2026-05-01T08:39:27.974Z</time></trkpt><trkpt lat="45.68880419754526" lon="12.844712619225938"><ele>-3.5</ele><time>2026-05-01T08:39:28.974Z</time></trkpt><trkpt lat="45.688950850971864" lon="12.844714259855376"><ele>-3.0</ele><time>2026-05-01T08:39:29.974Z</time></trkpt><trkpt lat="45.68910190661426" lon="12.844716184170808"><ele>-2.5</ele><time>2026-05-01T08:39:30.974Z</time></trkpt><trkpt lat="45.68925368499032" lon="12.84471907070841"><ele>-2.0</ele><time>2026-05-01T08:39:31.974Z</time></trkpt><trkpt lat="45.68940699122147" lon="12.844722752113798"><ele>-1.75</ele><time>2026-05-01T08:39:32.974Z</time></trkpt><trkpt lat="45.68955715667703" lon="12.844724904018507"><ele>-1.5</ele><time>2026-05-01T08:39:33.974Z</time></trkpt><trkpt lat="45.689698787336376" lon="12.844724486106408"><ele>-1.25</ele><time>2026-05-01T08:39:34.974Z</time></trkpt><trkpt lat="45.68983794782839" lon="12.84472576165456"><ele>-1.0</ele><time>2026-05-01T08:39:35.974Z</time></trkpt><trkpt lat="45.68996815615041" lon="12.844725872237158"><ele>-1.0</ele><time>2026-05-01T08:39:36.974Z</time></trkpt><trkpt lat="45.690098726398816" lon="12.844733679559354"><ele>-1.0</ele><time>2026-05-01T08:39:37.974Z</time></trkpt><trkpt lat="45.69023538580186" lon="12.844743324188055"><ele>-1.0</ele><time>2026-05-01T08:39:38.974Z</time></trkpt><trkpt lat="45.69037575720827" lon="12.844751270773754"><ele>-1.0</ele><time>2026-05-01T08:39:39.974Z</time></trkpt><trkpt lat="45.69051318233365" lon="12.844757313337004"><ele>-1.25</ele><time>2026-05-01T08:39:40.974Z</time></trkpt><trkpt lat="45.69065399026647" lon="12.84476818668652"><ele>-1.5</ele><time>2026-05-01T08:39:41.974Z</time></trkpt><trkpt lat="45.69079653941401" lon="12.844782408007429"><ele>-1.75</ele><time>2026-05-01T08:39:42.974Z</time></trkpt><trkpt lat="45.69094177786287" lon="12.84479667847404"><ele>-2.0</ele><time>2026-05-01T08:39:43.974Z</time></trkpt><trkpt lat="45.691090784681506" lon="12.844807248020249"><ele>-1.75</ele><time>2026-05-01T08:39:44.974Z</time></trkpt><trkpt lat="45.69123694814928" lon="12.844819626102794"><ele>-1.5</ele><time>2026-05-01T08:39:45.974Z</time></trkpt><trkpt lat="45.6913750724003" lon="12.84483037763432"><ele>-1.25</ele><time>2026-05-01T08:39:46.974Z</time></trkpt><trkpt lat="45.69150649686311" lon="12.844840592434052"><ele>-1.0</ele><time>2026-05-01T08:39:47.974Z</time></trkpt><trkpt lat="45.691623295144055" lon="12.844844593543058"><ele>-0.9999999999999999</ele><time>2026-05-01T08:39:48.974Z</time></trkpt><trkpt lat="45.691727839307696" lon="12.844847630842262"><ele>-1.0</ele><time>2026-05-01T08:39:49.974Z</time></trkpt><trkpt lat="45.69182012811428" lon="12.844854354868747"><ele>-1.0</ele><time>2026-05-01T08:39:50.974Z</time></trkpt><trkpt lat="45.69190067148615" lon="12.844859022038174"><ele>-1.0</ele><time>2026-05-01T08:39:51.974Z</time></trkpt><trkpt lat="45.691970277208235" lon="12.844865006027511"><ele>-0.9999999999999999</ele><time>2026-05-01T08:39:52.974Z</time></trkpt><trkpt lat="45.69205613454936" lon="12.844864684592052"><ele>-1.0</ele><time>2026-05-01T08:39:54.974Z</time></trkpt><trkpt lat="45.692091418768364" lon="12.844940313025083"><ele>-0.9999999999999999</ele><time>2026-05-01T08:39:58.974Z</time></trkpt><trkpt lat="45.69203252632062" lon="12.844993169917137"><ele>-1.0</ele><time>2026-05-01T08:40:02.974Z</time></trkpt><trkpt lat="45.69196904334437" lon="12.845018956709652"><ele>-1.0</ele><time>2026-05-01T08:40:13.974Z</time></trkpt><trkpt lat="45.69189278233313" lon="12.845049482411227"><ele>-1.0</ele><time>2026-05-01T08:40:15.973Z</time></trkpt><trkpt lat="45.691798926666245" lon="12.84506971667507"><ele>-0.9999999999999999</ele><time>2026-05-01T08:40:17.973Z</time></trkpt><trkpt lat="45.69168529254831" lon="12.845086729060203"><ele>-1.0</ele><time>2026-05-01T08:40:19.973Z</time></trkpt><trkpt lat="45.691619133660396" lon="12.845096544482926"><ele>-1.0</ele><time>2026-05-01T08:40:20.973Z</time></trkpt><trkpt lat="45.691550858608096" lon="12.845106035886943"><ele>-0.9999999999999999</ele><time>2026-05-01T08:40:21.973Z</time></trkpt><trkpt lat="45.69147949029417" lon="12.845114313670932"><ele>-1.0</ele><time>2026-05-01T08:40:22.973Z</time></trkpt><trkpt lat="45.691406384550234" lon="12.845122792975333"><ele>-1.0</ele><time>2026-05-01T08:40:23.973Z</time></trkpt><trkpt lat="45.691332144953165" lon="12.845131403788608"><ele>-0.9999999999999999</ele><time>2026-05-01T08:40:24.973Z</time></trkpt><trkpt lat="45.69125963510199" lon="12.84513981397552"><ele>-1.0</ele><time>2026-05-01T08:40:25.973Z</time></trkpt><trkpt lat="45.69118863395996" lon="12.84514804917044"><ele>-1.0</ele><time>2026-05-01T08:40:26.973Z</time></trkpt><trkpt lat="45.69111422622924" lon="12.845156679486577"><ele>-1.2857142857142856</ele><time>2026-05-01T08:40:27.973Z</time></trkpt><trkpt lat="45.69104239606438" lon="12.845164120324144"><ele>-1.5714285714285712</ele><time>2026-05-01T08:40:28.973Z</time></trkpt><trkpt lat="45.69096793545925" lon="12.845171217395263"><ele>-1.857142857142857</ele><time>2026-05-01T08:40:29.973Z</time></trkpt><trkpt lat="45.690892765595486" lon="12.845178382070047"><ele>-2.142857142857143</ele><time>2026-05-01T08:40:30.973Z</time></trkpt><trkpt lat="45.69082375541784" lon="12.84520800805767"><ele>-2.4285714285714284</ele><time>2026-05-01T08:40:31.973Z</time></trkpt><trkpt lat="45.690748402003095" lon="12.845202369212792"><ele>-2.714285714285714</ele><time>2026-05-01T08:40:32.973Z</time></trkpt><trkpt lat="45.690675469678645" lon="12.845210359635661"><ele>-3.0</ele><time>2026-05-01T08:40:33.973Z</time></trkpt><trkpt lat="45.69060368127624" lon="12.845221346759077"><ele>-3.0</ele><time>2026-05-01T08:40:34.973Z</time></trkpt><trkpt lat="45.69048405783266" lon="12.845239576142479"><ele>-3.0</ele><time>2026-05-01T08:40:36.973Z</time></trkpt><trkpt lat="45.69039750828913" lon="12.84525862874112"><ele>-3.0</ele><time>2026-05-01T08:40:38.973Z</time></trkpt><trkpt lat="45.690327573796644" lon="12.845319625446036"><ele>-3.0</ele><time>2026-05-01T08:40:40.973Z</time></trkpt><trkpt lat="45.69028176705305" lon="12.845422121688497"><ele>-3.0</ele><time>2026-05-01T08:40:42.973Z</time></trkpt><trkpt lat="45.69027018912873" lon="12.84558237524858"><ele>-3.0</ele><time>2026-05-01T08:40:44.973Z</time></trkpt><trkpt lat="45.69027050070313" lon="12.845682718521747"><ele>-3.0</ele><time>2026-05-01T08:40:45.973Z</time></trkpt><trkpt lat="45.69027083430753" lon="12.845795539642104"><ele>-3.0</ele><time>2026-05-01T08:40:46.973Z</time></trkpt><trkpt lat="45.69027215018088" lon="12.845911264709416"><ele>-3.0</ele><time>2026-05-01T08:40:47.973Z</time></trkpt><trkpt lat="45.69027024522602" lon="12.846030390529206"><ele>-3.0</ele><time>2026-05-01T08:40:48.973Z</time></trkpt><trkpt lat="45.690270784361296" lon="12.846158766396583"><ele>-3.0</ele><time>2026-05-01T08:40:49.974Z</time></trkpt><trkpt lat="45.69027197684515" lon="12.84629260221546"><ele>-3.0</ele><time>2026-05-01T08:40:50.974Z</time></trkpt><trkpt lat="45.69027113700571" lon="12.846425449048363"><ele>-3.0</ele><time>2026-05-01T08:40:51.974Z</time></trkpt><trkpt lat="45.6902691366514" lon="12.846559509706596"><ele>-3.0</ele><time>2026-05-01T08:40:52.974Z</time></trkpt><trkpt lat="45.6902671383631" lon="12.846697826673473"><ele>-3.0</ele><time>2026-05-01T08:40:53.974Z</time></trkpt><trkpt lat="45.690267551196946" lon="12.846843464886023"><ele>-3.0</ele><time>2026-05-01T08:40:54.974Z</time></trkpt><trkpt lat="45.69026832263039" lon="12.84698636337248"><ele>-3.0</ele><time>2026-05-01T08:40:55.975Z</time></trkpt><trkpt lat="45.69027160845212" lon="12.84714439319757"><ele>-3.0</ele><time>2026-05-01T08:40:56.974Z</time></trkpt><trkpt lat="45.690270844574286" lon="12.847300197842669"><ele>-3.0</ele><time>2026-05-01T08:40:57.974Z</time></trkpt><trkpt lat="45.69025054420912" lon="12.847457316120666"><ele>-3.0</ele><time>2026-05-01T08:40:58.974Z</time></trkpt><trkpt lat="45.690248036917225" lon="12.847609786222062"><ele>-3.0</ele><time>2026-05-01T08:40:59.974Z</time></trkpt><trkpt lat="45.69024699156832" lon="12.847760842911981"><ele>-3.0</ele><time>2026-05-01T08:41:00.974Z</time></trkpt><trkpt lat="45.69024860782633" lon="12.847908198303555"><ele>-3.0</ele><time>2026-05-01T08:41:01.974Z</time></trkpt><trkpt lat="45.69024935215992" lon="12.848047368573644"><ele>-3.0</ele><time>2026-05-01T08:41:02.974Z</time></trkpt><trkpt lat="45.690248604957105" lon="12.848182011711787"><ele>-3.0</ele><time>2026-05-01T08:41:03.974Z</time></trkpt><trkpt lat="45.690249364559655" lon="12.848319449353022"><ele>-3.0</ele><time>2026-05-01T08:41:04.974Z</time></trkpt><trkpt lat="45.69025395070349" lon="12.848462308000455"><ele>-3.2</ele><time>2026-05-01T08:41:05.974Z</time></trkpt><trkpt lat="45.69026392565047" lon="12.848608436632063"><ele>-3.4</ele><time>2026-05-01T08:41:06.974Z</time></trkpt><trkpt lat="45.690266724961575" lon="12.848745252331957"><ele>-3.6000000000000005</ele><time>2026-05-01T08:41:07.974Z</time></trkpt><trkpt lat="45.69027103642564" lon="12.848883146080098"><ele>-3.8000000000000003</ele><time>2026-05-01T08:41:08.974Z</time></trkpt><trkpt lat="45.690281518995555" lon="12.849025379326852"><ele>-4.0</ele><time>2026-05-01T08:41:09.974Z</time></trkpt><trkpt lat="45.69029285733289" lon="12.849166335037356"><ele>-3.6</ele><time>2026-05-01T08:41:10.974Z</time></trkpt><trkpt lat="45.690300878405345" lon="12.849303166430213"><ele>-3.2</ele><time>2026-05-01T08:41:11.974Z</time></trkpt><trkpt lat="45.6903021445273" lon="12.849431636249369"><ele>-2.8000000000000003</ele><time>2026-05-01T08:41:12.974Z</time></trkpt><trkpt lat="45.690307907363895" lon="12.8495616146817"><ele>-2.4000000000000004</ele><time>2026-05-01T08:41:13.974Z</time></trkpt><trkpt lat="45.69031551633952" lon="12.849699528897098"><ele>-2.0</ele><time>2026-05-01T08:41:14.974Z</time></trkpt><trkpt lat="45.69032466642042" lon="12.849846160096543"><ele>-2.0</ele><time>2026-05-01T08:41:15.974Z</time></trkpt><trkpt lat="45.690330008851156" lon="12.849985144340929"><ele>-2.0</ele><time>2026-05-01T08:41:16.974Z</time></trkpt><trkpt lat="45.690336688623965" lon="12.850125914152892"><ele>-2.0</ele><time>2026-05-01T08:41:17.974Z</time></trkpt><trkpt lat="45.69034177484181" lon="12.850268021010713"><ele>-2.0</ele><time>2026-05-01T08:41:18.974Z</time></trkpt><trkpt lat="45.69035127846177" lon="12.85041466151738"><ele>-2.0</ele><time>2026-05-01T08:41:19.974Z</time></trkpt><trkpt lat="45.69035959640341" lon="12.850563301331249"><ele>-2.0</ele><time>2026-05-01T08:41:20.974Z</time></trkpt><trkpt lat="45.690367528594706" lon="12.850713381575904"><ele>-2.0</ele><time>2026-05-01T08:41:21.974Z</time></trkpt><trkpt lat="45.69037348824595" lon="12.850864899801843"><ele>-2.0</ele><time>2026-05-01T08:41:22.974Z</time></trkpt><trkpt lat="45.690379181477454" lon="12.851018087422593"><ele>-2.0</ele><time>2026-05-01T08:41:23.974Z</time></trkpt><trkpt lat="45.69038853273667" lon="12.85117416338426"><ele>-2.0</ele><time>2026-05-01T08:41:24.974Z</time></trkpt><trkpt lat="45.69039569164549" lon="12.851327456607443"><ele>-2.2</ele><time>2026-05-01T08:41:25.974Z</time></trkpt><trkpt lat="45.690403784259026" lon="12.851477980998474"><ele>-2.4000000000000004</ele><time>2026-05-01T08:41:26.974Z</time></trkpt><trkpt lat="45.69040786942477" lon="12.85162136269532"><ele>-2.5999999999999996</ele><time>2026-05-01T08:41:27.974Z</time></trkpt><trkpt lat="45.69041468169439" lon="12.851770878019181"><ele>-2.8</ele><time>2026-05-01T08:41:28.974Z</time></trkpt><trkpt lat="45.69042138449109" lon="12.851914228573182"><ele>-3.0</ele><time>2026-05-01T08:41:29.974Z</time></trkpt><trkpt lat="45.69042953064101" lon="12.852056797662556"><ele>-3.0</ele><time>2026-05-01T08:41:30.974Z</time></trkpt><trkpt lat="45.69043397842377" lon="12.85219077575302"><ele>-3.0</ele><time>2026-05-01T08:41:31.974Z</time></trkpt><trkpt lat="45.69043921289734" lon="12.852329578965934"><ele>-3.0</ele><time>2026-05-01T08:41:32.974Z</time></trkpt><trkpt lat="45.69044537063395" lon="12.852473955516686"><ele>-3.0</ele><time>2026-05-01T08:41:33.974Z</time></trkpt><trkpt lat="45.6904525745614" lon="12.85262154855794"><ele>-3.0</ele><time>2026-05-01T08:41:34.974Z</time></trkpt><trkpt lat="45.69045951583408" lon="12.852776380181918"><ele>-3.0</ele><time>2026-05-01T08:41:35.974Z</time></trkpt><trkpt lat="45.690464463153084" lon="12.85292763310609"><ele>-3.0</ele><time>2026-05-01T08:41:36.973Z</time></trkpt><trkpt lat="45.69047270864355" lon="12.853072543863787"><ele>-3.0</ele><time>2026-05-01T08:41:37.973Z</time></trkpt><trkpt lat="45.69047744924771" lon="12.853214946921208"><ele>-3.0</ele><time>2026-05-01T08:41:38.973Z</time></trkpt><trkpt lat="45.690484293045685" lon="12.853350015456014"><ele>-3.0</ele><time>2026-05-01T08:41:39.973Z</time></trkpt><trkpt lat="45.69046980238307" lon="12.853472455407111"><ele>-3.1666666666666665</ele><time>2026-05-01T08:41:40.973Z</time></trkpt><trkpt lat="45.69047234701871" lon="12.853584144852675"><ele>-3.333333333333333</ele><time>2026-05-01T08:41:41.973Z</time></trkpt><trkpt lat="45.69047265703509" lon="12.853690018864993"><ele>-3.5</ele><time>2026-05-01T08:41:42.973Z</time></trkpt><trkpt lat="45.69046607650382" lon="12.853792108597775"><ele>-3.6666666666666665</ele><time>2026-05-01T08:41:43.973Z</time></trkpt><trkpt lat="45.690453028579654" lon="12.853911967719243"><ele>-3.833333333333333</ele><time>2026-05-01T08:41:44.973Z</time></trkpt><trkpt lat="45.69043886196339" lon="12.854037238583858"><ele>-4.0</ele><time>2026-05-01T08:41:45.973Z</time></trkpt><trkpt lat="45.69042416894248" lon="12.854165158729334"><ele>-3.6666666666666665</ele><time>2026-05-01T08:41:46.973Z</time></trkpt><trkpt lat="45.69040381700392" lon="12.85429378667186"><ele>-3.333333333333333</ele><time>2026-05-01T08:41:47.973Z</time></trkpt><trkpt lat="45.69038750227488" lon="12.854422486014306"><ele>-3.0</ele><time>2026-05-01T08:41:48.973Z</time></trkpt><trkpt lat="45.69036940467741" lon="12.854546428190407"><ele>-2.6666666666666665</ele><time>2026-05-01T08:41:49.973Z</time></trkpt><trkpt lat="45.69035465475394" lon="12.854673085263098"><ele>-2.333333333333333</ele><time>2026-05-01T08:41:50.973Z</time></trkpt><trkpt lat="45.69034214934499" lon="12.854792590516363"><ele>-2.0</ele><time>2026-05-01T08:41:51.973Z</time></trkpt><trkpt lat="45.69032532165062" lon="12.854907691865009"><ele>-1.9999999999999998</ele><time>2026-05-01T08:41:52.973Z</time></trkpt><trkpt lat="45.69031286069133" lon="12.855027963116557"><ele>-2.0</ele><time>2026-05-01T08:41:53.973Z</time></trkpt><trkpt lat="45.69030299495535" lon="12.855145748302188"><ele>-2.0</ele><time>2026-05-01T08:41:54.973Z</time></trkpt><trkpt lat="45.690300959342416" lon="12.855256663794762"><ele>-2.0</ele><time>2026-05-01T08:41:55.973Z</time></trkpt><trkpt lat="45.690311205432735" lon="12.855372192765502"><ele>-1.9999999999999998</ele><time>2026-05-01T08:41:56.973Z</time></trkpt><trkpt lat="45.69032475757117" lon="12.855489576842425"><ele>-2.0</ele><time>2026-05-01T08:41:57.973Z</time></trkpt><trkpt lat="45.690346733901436" lon="12.855610128814995"><ele>-2.2</ele><time>2026-05-01T08:41:58.973Z</time></trkpt><trkpt lat="45.690371926726634" lon="12.85573288264387"><ele>-2.4000000000000004</ele><time>2026-05-01T08:41:59.973Z</time></trkpt><trkpt lat="45.690390911768624" lon="12.855858190832288"><ele>-2.5999999999999996</ele><time>2026-05-01T08:42:00.973Z</time></trkpt><trkpt lat="45.69040994313982" lon="12.855987918386308"><ele>-2.8</ele><time>2026-05-01T08:42:01.973Z</time></trkpt><trkpt lat="45.690446635519756" lon="12.85613205275899"><ele>-3.0</ele><time>2026-05-01T08:42:02.973Z</time></trkpt><trkpt lat="45.69047750581144" lon="12.856279881915613"><ele>-3.4</ele><time>2026-05-01T08:42:03.973Z</time></trkpt><trkpt lat="45.69050821036639" lon="12.856424775475965"><ele>-3.8</ele><time>2026-05-01T08:42:04.973Z</time></trkpt><trkpt lat="45.6905364625528" lon="12.856565153555696"><ele>-4.2</ele><time>2026-05-01T08:42:05.973Z</time></trkpt><trkpt lat="45.690560409728356" lon="12.856697755641552"><ele>-4.6</ele><time>2026-05-01T08:42:06.973Z</time></trkpt><trkpt lat="45.690584142786484" lon="12.856813951455424"><ele>-5.0</ele><time>2026-05-01T08:42:07.973Z</time></trkpt><trkpt lat="45.690611636608345" lon="12.856925703754746"><ele>-5.0</ele><time>2026-05-01T08:42:08.973Z</time></trkpt><trkpt lat="45.690637562203506" lon="12.857033982795077"><ele>-5.0</ele><time>2026-05-01T08:42:09.973Z</time></trkpt><trkpt lat="45.69066711454464" lon="12.857145879259203"><ele>-5.0</ele><time>2026-05-01T08:42:10.973Z</time></trkpt><trkpt lat="45.69069044123807" lon="12.857258979496306"><ele>-5.0</ele><time>2026-05-01T08:42:11.973Z</time></trkpt><trkpt lat="45.69071676914302" lon="12.85737822089258"><ele>-5.0</ele><time>2026-05-01T08:42:12.973Z</time></trkpt><trkpt lat="45.690742053196146" lon="12.857501623196875"><ele>-5.0</ele><time>2026-05-01T08:42:13.973Z</time></trkpt><trkpt lat="45.69076123010685" lon="12.85762579524932"><ele>-5.0</ele><time>2026-05-01T08:42:14.973Z</time></trkpt><trkpt lat="45.69078247848554" lon="12.857753196032867"><ele>-5.0</ele><time>2026-05-01T08:42:15.973Z</time></trkpt><trkpt lat="45.690802187847844" lon="12.857876923045298"><ele>-5.0</ele><time>2026-05-01T08:42:16.973Z</time></trkpt><trkpt lat="45.690821224112035" lon="12.857991271544241"><ele>-5.0</ele><time>2026-05-01T08:42:17.973Z</time></trkpt><trkpt lat="45.69083217629547" lon="12.858095613108715"><ele>-5.0</ele><time>2026-05-01T08:42:18.973Z</time></trkpt><trkpt lat="45.690811073761935" lon="12.858191489518891"><ele>-5.0</ele><time>2026-05-01T08:42:19.973Z</time></trkpt><trkpt lat="45.69076869607518" lon="12.858349443995893"><ele>-5.0</ele><time>2026-05-01T08:42:21.973Z</time></trkpt><trkpt lat="45.69072369133274" lon="12.858427946158468"><ele>-5.0</ele><time>2026-05-01T08:42:22.973Z</time></trkpt><trkpt lat="45.690669248101386" lon="12.858504453709106"><ele>-5.0</ele><time>2026-05-01T08:42:23.973Z</time></trkpt><trkpt lat="45.69061206160886" lon="12.858587458018881"><ele>-5.0</ele><time>2026-05-01T08:42:24.973Z</time></trkpt><trkpt lat="45.69055798228556" lon="12.858664171254311"><ele>-5.0</ele><time>2026-05-01T08:42:25.973Z</time></trkpt><trkpt lat="45.690502812111475" lon="12.858741471407846"><ele>-5.0</ele><time>2026-05-01T08:42:26.973Z</time></trkpt><trkpt lat="45.69044929733088" lon="12.858809880920298"><ele>-4.666666666666667</ele><time>2026-05-01T08:42:27.973Z</time></trkpt><trkpt lat="45.690401204008445" lon="12.85887020349069"><ele>-4.333333333333334</ele><time>2026-05-01T08:42:28.973Z</time></trkpt><trkpt lat="45.69033733066803" lon="12.85897798792753"><ele>-4.0</ele><time>2026-05-01T08:42:30.973Z</time></trkpt><trkpt lat="45.69028364322463" lon="12.859055749142762"><ele>-3.666666666666667</ele><time>2026-05-01T08:42:32.973Z</time></trkpt><trkpt lat="45.69025388297955" lon="12.859151935839755"><ele>-3.3333333333333335</ele><time>2026-05-01T08:42:35.973Z</time></trkpt><trkpt lat="45.69022545583249" lon="12.859260142884636"><ele>-3.0</ele><time>2026-05-01T08:42:37.973Z</time></trkpt><trkpt lat="45.690216402314384" lon="12.859414003177964"><ele>-2.8</ele><time>2026-05-01T08:42:39.973Z</time></trkpt><trkpt lat="45.690206317650635" lon="12.859589874765474"><ele>-2.5999999999999996</ele><time>2026-05-01T08:42:41.973Z</time></trkpt><trkpt lat="45.690225658017816" lon="12.85977098880764"><ele>-2.4000000000000004</ele><time>2026-05-01T08:42:43.973Z</time></trkpt><trkpt lat="45.69022262805593" lon="12.859918952937832"><ele>-2.2</ele><time>2026-05-01T08:42:45.973Z</time></trkpt><trkpt lat="45.690231875772064" lon="12.860016489889764"><ele>-2.0</ele><time>2026-05-01T08:42:47.973Z</time></trkpt><trkpt lat="45.69036170520497" lon="12.860062836521745"><ele>-1.9999999999999998</ele><time>2026-05-01T08:42:52.972Z</time></trkpt><trkpt lat="45.69045095932273" lon="12.859968377577859"><ele>-2.0</ele><time>2026-05-01T08:42:54.972Z</time></trkpt><trkpt lat="45.690499973729864" lon="12.859911173945704"><ele>-2.0</ele><time>2026-05-01T08:42:55.974Z</time></trkpt><trkpt lat="45.690552397243856" lon="12.859847925761207"><ele>-2.0</ele><time>2026-05-01T08:42:56.973Z</time></trkpt><trkpt lat="45.69060175354142" lon="12.85975615047671"><ele>-1.9999999999999998</ele><time>2026-05-01T08:42:57.973Z</time></trkpt><trkpt lat="45.69066423419673" lon="12.859680330572548"><ele>-2.0</ele><time>2026-05-01T08:42:58.974Z</time></trkpt><trkpt lat="45.69072519745123" lon="12.859598795107212"><ele>-2.0</ele><time>2026-05-01T08:42:59.974Z</time></trkpt><trkpt lat="45.69079063062872" lon="12.859514252976602"><ele>-2.0</ele><time>2026-05-01T08:43:00.974Z</time></trkpt><trkpt lat="45.690858290448055" lon="12.85942638803804"><ele>-2.0</ele><time>2026-05-01T08:43:01.974Z</time></trkpt><trkpt lat="45.690927110568985" lon="12.859334245324249"><ele>-2.0</ele><time>2026-05-01T08:43:02.974Z</time></trkpt><trkpt lat="45.69099909324605" lon="12.85923775581337"><ele>-2.0</ele><time>2026-05-01T08:43:03.974Z</time></trkpt><trkpt lat="45.69107218616638" lon="12.859141801296918"><ele>-2.2</ele><time>2026-05-01T08:43:04.974Z</time></trkpt><trkpt lat="45.691143794671426" lon="12.859045230790196"><ele>-2.4000000000000004</ele><time>2026-05-01T08:43:05.973Z</time></trkpt><trkpt lat="45.691216336710006" lon="12.858952307235722"><ele>-2.5999999999999996</ele><time>2026-05-01T08:43:06.973Z</time></trkpt><trkpt lat="45.6912882627319" lon="12.858862417295795"><ele>-2.8</ele><time>2026-05-01T08:43:07.974Z</time></trkpt><trkpt lat="45.69136001623304" lon="12.858773346899207"><ele>-3.0</ele><time>2026-05-01T08:43:08.973Z</time></trkpt><trkpt lat="45.69143298795547" lon="12.858682525592906"><ele>-3.0</ele><time>2026-05-01T08:43:09.973Z</time></trkpt><trkpt lat="45.691510272737816" lon="12.85858389553737"><ele>-3.0</ele><time>2026-05-01T08:43:10.973Z</time></trkpt><trkpt lat="45.69158659290898" lon="12.858484381798371"><ele>-3.0</ele><time>2026-05-01T08:43:11.973Z</time></trkpt><trkpt lat="45.69166312794011" lon="12.85838226974744"><ele>-3.0</ele><time>2026-05-01T08:43:12.973Z</time></trkpt><trkpt lat="45.6917392093936" lon="12.858278152972169"><ele>-3.0</ele><time>2026-05-01T08:43:13.973Z</time></trkpt><trkpt lat="45.6918138575909" lon="12.858171983178023"><ele>-3.0</ele><time>2026-05-01T08:43:14.973Z</time></trkpt><trkpt lat="45.69188861022477" lon="12.858069419167283"><ele>-3.0</ele><time>2026-05-01T08:43:15.973Z</time></trkpt><trkpt lat="45.69196393684925" lon="12.85796411240888"><ele>-3.0</ele><time>2026-05-01T08:43:16.973Z</time></trkpt><trkpt lat="45.692038732072724" lon="12.85786173457628"><ele>-3.0</ele><time>2026-05-01T08:43:17.973Z</time></trkpt><trkpt lat="45.69211678909758" lon="12.857764239723329"><ele>-3.0</ele><time>2026-05-01T08:43:18.973Z</time></trkpt><trkpt lat="45.692193423524614" lon="12.857666724573885"><ele>-3.2</ele><time>2026-05-01T08:43:19.973Z</time></trkpt><trkpt lat="45.692267550408275" lon="12.857572081356613"><ele>-3.4</ele><time>2026-05-01T08:43:20.973Z</time></trkpt><trkpt lat="45.69234127247669" lon="12.857478864382115"><ele>-3.6000000000000005</ele><time>2026-05-01T08:43:21.973Z</time></trkpt><trkpt lat="45.69241570732882" lon="12.857392605636143"><ele>-3.8000000000000003</ele><time>2026-05-01T08:43:22.973Z</time></trkpt><trkpt lat="45.69248793607211" lon="12.857303013156857"><ele>-4.0</ele><time>2026-05-01T08:43:23.973Z</time></trkpt><trkpt lat="45.692557314870804" lon="12.857206003626004"><ele>-4.0</ele><time>2026-05-01T08:43:24.973Z</time></trkpt><trkpt lat="45.69262859623218" lon="12.857107742302588"><ele>-4.0</ele><time>2026-05-01T08:43:25.973Z</time></trkpt><trkpt lat="45.69270017297647" lon="12.8570115965485"><ele>-4.0</ele><time>2026-05-01T08:43:26.973Z</time></trkpt><trkpt lat="45.69277123194591" lon="12.856913598762839"><ele>-4.0</ele><time>2026-05-01T08:43:27.973Z</time></trkpt><trkpt lat="45.69285344300129" lon="12.856835823060157"><ele>-4.0</ele><time>2026-05-01T08:43:28.973Z</time></trkpt><trkpt lat="45.69292920034818" lon="12.85674207607419"><ele>-3.8000000000000003</ele><time>2026-05-01T08:43:29.973Z</time></trkpt><trkpt lat="45.69300395510679" lon="12.856650117386147"><ele>-3.6000000000000005</ele><time>2026-05-01T08:43:30.973Z</time></trkpt><trkpt lat="45.69308069495707" lon="12.85655645380323"><ele>-3.4</ele><time>2026-05-01T08:43:31.973Z</time></trkpt><trkpt lat="45.693157765447914" lon="12.856462386684754"><ele>-3.2</ele><time>2026-05-01T08:43:32.973Z</time></trkpt><trkpt lat="45.69323305727929" lon="12.85637049044422"><ele>-3.0</ele><time>2026-05-01T08:43:33.973Z</time></trkpt><trkpt lat="45.69330879805824" lon="12.856278046293628"><ele>-3.0</ele><time>2026-05-01T08:43:34.973Z</time></trkpt><trkpt lat="45.69337467191613" lon="12.856166955499777"><ele>-3.0</ele><time>2026-05-01T08:43:35.973Z</time></trkpt><trkpt lat="45.69345455376102" lon="12.85607846647216"><ele>-3.0</ele><time>2026-05-01T08:43:36.973Z</time></trkpt><trkpt lat="45.69353185827959" lon="12.85598761732529"><ele>-3.0</ele><time>2026-05-01T08:43:37.973Z</time></trkpt><trkpt lat="45.693607736720736" lon="12.855893897725222"><ele>-3.0</ele><time>2026-05-01T08:43:38.973Z</time></trkpt><trkpt lat="45.693685435627174" lon="12.855796632914059"><ele>-3.5999999999999996</ele><time>2026-05-01T08:43:39.973Z</time></trkpt><trkpt lat="45.69376358276455" lon="12.855697209625259"><ele>-4.199999999999999</ele><time>2026-05-01T08:43:40.973Z</time></trkpt><trkpt lat="45.69384041012936" lon="12.85559764944783"><ele>-4.8</ele><time>2026-05-01T08:43:41.973Z</time></trkpt><trkpt lat="45.69391874291084" lon="12.855498545413722"><ele>-5.3999999999999995</ele><time>2026-05-01T08:43:42.973Z</time></trkpt><trkpt lat="45.693995391471255" lon="12.855398354277403"><ele>-6.0</ele><time>2026-05-01T08:43:43.973Z</time></trkpt><trkpt lat="45.694072231356046" lon="12.85529930429131"><ele>-6.0</ele><time>2026-05-01T08:43:44.973Z</time></trkpt><trkpt lat="45.69415032097486" lon="12.855198281335467"><ele>-6.0</ele><time>2026-05-01T08:43:45.973Z</time></trkpt><trkpt lat="45.69422362579793" lon="12.8550949232734"><ele>-6.0</ele><time>2026-05-01T08:43:46.973Z</time></trkpt><trkpt lat="45.69430009179329" lon="12.854989994531909"><ele>-6.0</ele><time>2026-05-01T08:43:47.973Z</time></trkpt><trkpt lat="45.69437776127666" lon="12.854888043610273"><ele>-6.0</ele><time>2026-05-01T08:43:48.973Z</time></trkpt><trkpt lat="45.694454538160784" lon="12.854787174537066"><ele>-5.3999999999999995</ele><time>2026-05-01T08:43:49.973Z</time></trkpt><trkpt lat="45.694543776442984" lon="12.854702820455636"><ele>-4.8</ele><time>2026-05-01T08:43:50.973Z</time></trkpt><trkpt lat="45.69462338042163" lon="12.85460139715068"><ele>-4.199999999999999</ele><time>2026-05-01T08:43:51.973Z</time></trkpt><trkpt lat="45.69470416031173" lon="12.854498475592166"><ele>-3.5999999999999996</ele><time>2026-05-01T08:43:52.973Z</time></trkpt><trkpt lat="45.69478414298537" lon="12.854396569674568"><ele>-3.0</ele><time>2026-05-01T08:43:53.973Z</time></trkpt><trkpt lat="45.69485119601063" lon="12.85428211744698"><ele>-3.0</ele><time>2026-05-01T08:43:54.973Z</time></trkpt><trkpt lat="45.69492894066882" lon="12.854187264200242"><ele>-3.0</ele><time>2026-05-01T08:43:55.973Z</time></trkpt><trkpt lat="45.695006890392214" lon="12.854087010818297"><ele>-3.0</ele><time>2026-05-01T08:43:56.973Z</time></trkpt><trkpt lat="45.69508499635774" lon="12.853977738382497"><ele>-3.0</ele><time>2026-05-01T08:43:57.973Z</time></trkpt><trkpt lat="45.695162466106694" lon="12.853874714425585"><ele>-3.0</ele><time>2026-05-01T08:43:58.973Z</time></trkpt><trkpt lat="45.69524210240451" lon="12.853773485137072"><ele>-3.2</ele><time>2026-05-01T08:43:59.973Z</time></trkpt><trkpt lat="45.6953214534243" lon="12.853671264180305"><ele>-3.4</ele><time>2026-05-01T08:44:00.973Z</time></trkpt><trkpt lat="45.69540440399873" lon="12.853572034360367"><ele>-3.6000000000000005</ele><time>2026-05-01T08:44:01.973Z</time></trkpt><trkpt lat="45.69548739219602" lon="12.853469877991662"><ele>-3.8000000000000003</ele><time>2026-05-01T08:44:02.973Z</time></trkpt><trkpt lat="45.69557047474054" lon="12.85336260939529"><ele>-4.0</ele><time>2026-05-01T08:44:03.973Z</time></trkpt><trkpt lat="45.69564860315396" lon="12.853242039596342"><ele>-3.6</ele><time>2026-05-01T08:44:04.973Z</time></trkpt><trkpt lat="45.69573076808075" lon="12.853130244863008"><ele>-3.2</ele><time>2026-05-01T08:44:05.973Z</time></trkpt><trkpt lat="45.695823325335816" lon="12.853039958431804"><ele>-2.8000000000000003</ele><time>2026-05-01T08:44:06.973Z</time></trkpt><trkpt lat="45.69590498269377" lon="12.852934357343258"><ele>-2.4000000000000004</ele><time>2026-05-01T08:44:07.973Z</time></trkpt><trkpt lat="45.69598744132559" lon="12.852828751872613"><ele>-2.0</ele><time>2026-05-01T08:44:08.973Z</time></trkpt><trkpt lat="45.69606943365914" lon="12.852723743593552"><ele>-1.4000000000000001</ele><time>2026-05-01T08:44:09.973Z</time></trkpt><trkpt lat="45.69615233770289" lon="12.85261756764305"><ele>-0.8000000000000002</ele><time>2026-05-01T08:44:10.973Z</time></trkpt><trkpt lat="45.696235795244114" lon="12.852510682793074"><ele>-0.19999999999999996</ele><time>2026-05-01T08:44:11.973Z</time></trkpt><trkpt lat="45.69631775383479" lon="12.852405717677247"><ele>0.4</ele><time>2026-05-01T08:44:12.973Z</time></trkpt><trkpt lat="45.69640170957482" lon="12.852298194856028"><ele>1.0</ele><time>2026-05-01T08:44:13.973Z</time></trkpt><trkpt lat="45.69648632930313" lon="12.85218982162768"><ele>1.0</ele><time>2026-05-01T08:44:14.973Z</time></trkpt><trkpt lat="45.69657046168439" lon="12.85208207253508"><ele>1.0</ele><time>2026-05-01T08:44:15.973Z</time></trkpt><trkpt lat="45.69665398606356" lon="12.851975103490995"><ele>1.0</ele><time>2026-05-01T08:44:16.973Z</time></trkpt><trkpt lat="45.69672519852244" lon="12.85185422362386"><ele>1.0</ele><time>2026-05-01T08:44:17.973Z</time></trkpt><trkpt lat="45.69680789808776" lon="12.851749747316093"><ele>1.0</ele><time>2026-05-01T08:44:18.973Z</time></trkpt><trkpt lat="45.69689061971915" lon="12.851643462412001"><ele>1.0</ele><time>2026-05-01T08:44:19.973Z</time></trkpt><trkpt lat="45.696974518763916" lon="12.85153690819591"><ele>1.0</ele><time>2026-05-01T08:44:20.973Z</time></trkpt><trkpt lat="45.6970663260566" lon="12.851448830394661"><ele>1.0</ele><time>2026-05-01T08:44:21.973Z</time></trkpt><trkpt lat="45.69714639599193" lon="12.851346986396132"><ele>1.0</ele><time>2026-05-01T08:44:22.973Z</time></trkpt><trkpt lat="45.697221776222406" lon="12.851251107505679"><ele>1.0</ele><time>2026-05-01T08:44:23.973Z</time></trkpt><trkpt lat="45.69728611779822" lon="12.851145711268485"><ele>1.0</ele><time>2026-05-01T08:44:24.972Z</time></trkpt><trkpt lat="45.69735541156169" lon="12.851060068489144"><ele>1.0</ele><time>2026-05-01T08:44:25.972Z</time></trkpt><trkpt lat="45.69742108734432" lon="12.850977456067467"><ele>1.0</ele><time>2026-05-01T08:44:26.972Z</time></trkpt><trkpt lat="45.69754388669943" lon="12.85082132923549"><ele>1.0</ele><time>2026-05-01T08:44:28.972Z</time></trkpt><trkpt lat="45.69760798269629" lon="12.85073746087885"><ele>1.0</ele><time>2026-05-01T08:44:29.972Z</time></trkpt><trkpt lat="45.69767568662353" lon="12.850652128159846"><ele>0.6666666666666666</ele><time>2026-05-01T08:44:30.972Z</time></trkpt><trkpt lat="45.697739867841584" lon="12.850570188173323"><ele>0.3333333333333333</ele><time>2026-05-01T08:44:31.972Z</time></trkpt><trkpt lat="45.697811337767575" lon="12.850503967434939"><ele>0.0</ele><time>2026-05-01T08:44:32.972Z</time></trkpt><trkpt lat="45.69786473478825" lon="12.850436766974914"><ele>-0.3333333333333333</ele><time>2026-05-01T08:44:33.972Z</time></trkpt><trkpt lat="45.69791516992964" lon="12.850373294594378"><ele>-0.6666666666666666</ele><time>2026-05-01T08:44:34.972Z</time></trkpt><trkpt lat="45.69796456815042" lon="12.850312265589137"><ele>-1.0</ele><time>2026-05-01T08:44:35.972Z</time></trkpt><trkpt lat="45.69802487238961" lon="12.850216109383275"><ele>-0.9999999999999999</ele><time>2026-05-01T08:44:37.972Z</time></trkpt><trkpt lat="45.6980809602319" lon="12.850166840849928"><ele>-1.0</ele><time>2026-05-01T08:44:39.972Z</time></trkpt><trkpt lat="45.69818392860292" lon="12.850292789627096"><ele>-1.0</ele><time>2026-05-01T08:44:42.972Z</time></trkpt><trkpt lat="45.69823834323352" lon="12.850361003719394"><ele>-1.0</ele><time>2026-05-01T08:44:43.972Z</time></trkpt><trkpt lat="45.698281967991775" lon="12.850458129772674"><ele>-0.9999999999999999</ele><time>2026-05-01T08:44:44.972Z</time></trkpt><trkpt lat="45.69833213196451" lon="12.850564768728848"><ele>-1.0</ele><time>2026-05-01T08:44:45.972Z</time></trkpt><trkpt lat="45.698389448212616" lon="12.850677218947066"><ele>-1.0</ele><time>2026-05-01T08:44:46.972Z</time></trkpt><trkpt lat="45.6984577394535" lon="12.850796423559675"><ele>-1.0</ele><time>2026-05-01T08:44:47.972Z</time></trkpt><trkpt lat="45.698527446958806" lon="12.850927338415788"><ele>-1.0</ele><time>2026-05-01T08:44:48.972Z</time></trkpt><trkpt lat="45.69859658871986" lon="12.85106734212646"><ele>-1.0</ele><time>2026-05-01T08:44:49.972Z</time></trkpt><trkpt lat="45.6986718012659" lon="12.851211271142148"><ele>-1.0</ele><time>2026-05-01T08:44:50.972Z</time></trkpt><trkpt lat="45.6987494568417" lon="12.851361073119698"><ele>-1.0</ele><time>2026-05-01T08:44:51.972Z</time></trkpt><trkpt lat="45.69883106924629" lon="12.851512420557706"><ele>-1.0</ele><time>2026-05-01T08:44:52.972Z</time></trkpt><trkpt lat="45.69891240252086" lon="12.851668651430092"><ele>-1.0</ele><time>2026-05-01T08:44:53.972Z</time></trkpt><trkpt lat="45.69899753463103" lon="12.851831634378753"><ele>-0.5</ele><time>2026-05-01T08:44:54.972Z</time></trkpt><trkpt lat="45.699083163635635" lon="12.85199597748596"><ele>0.0</ele><time>2026-05-01T08:44:55.972Z</time></trkpt><trkpt lat="45.699170102710646" lon="12.852160023614617"><ele>0.5</ele><time>2026-05-01T08:44:56.972Z</time></trkpt><trkpt lat="45.69925954339071" lon="12.852334022572407"><ele>1.0</ele><time>2026-05-01T08:44:57.972Z</time></trkpt><trkpt lat="45.69935288457639" lon="12.852510739470253"><ele>0.3333333333333333</ele><time>2026-05-01T08:44:58.972Z</time></trkpt><trkpt lat="45.69944658459851" lon="12.852686927545705"><ele>-0.3333333333333333</ele><time>2026-05-01T08:44:59.972Z</time></trkpt><trkpt lat="45.6995399007193" lon="12.852864538696272"><ele>-1.0</ele><time>2026-05-01T08:45:00.972Z</time></trkpt><trkpt lat="45.699632153135326" lon="12.853045691114131"><ele>-1.0</ele><time>2026-05-01T08:45:01.974Z</time></trkpt><trkpt lat="45.699726794587775" lon="12.853223925695742"><ele>-1.0</ele><time>2026-05-01T08:45:02.974Z</time></trkpt><trkpt lat="45.69982258222751" lon="12.85340396582434"><ele>-1.0</ele><time>2026-05-01T08:45:03.974Z</time></trkpt><trkpt lat="45.69991693233813" lon="12.853585727382741"><ele>-0.3333333333333333</ele><time>2026-05-01T08:45:04.974Z</time></trkpt><trkpt lat="45.700012817044204" lon="12.853770591903556"><ele>0.3333333333333333</ele><time>2026-05-01T08:45:05.973Z</time></trkpt><trkpt lat="45.70010864964079" lon="12.85395163141302"><ele>1.0</ele><time>2026-05-01T08:45:06.973Z</time></trkpt><trkpt lat="45.70020131791288" lon="12.854134562401276"><ele>0.6666666666666666</ele><time>2026-05-01T08:45:07.974Z</time></trkpt><trkpt lat="45.70029835588408" lon="12.854321083571042"><ele>0.3333333333333333</ele><time>2026-05-01T08:45:08.973Z</time></trkpt><trkpt lat="45.700395639664166" lon="12.854504716056562"><ele>0.0</ele><time>2026-05-01T08:45:09.973Z</time></trkpt><trkpt lat="45.700494118487214" lon="12.854691818714551"><ele>0.0</ele><time>2026-05-01T08:45:10.973Z</time></trkpt><trkpt lat="45.70059659803535" lon="12.854878845618677"><ele>0.0</ele><time>2026-05-01T08:45:11.974Z</time></trkpt><trkpt lat="45.700698428638624" lon="12.855067064336263"><ele>0.0</ele><time>2026-05-01T08:45:12.973Z</time></trkpt><trkpt lat="45.7007992270362" lon="12.855254395746291"><ele>-0.3333333333333333</ele><time>2026-05-01T08:45:13.974Z</time></trkpt><trkpt lat="45.70090373682943" lon="12.855443995433472"><ele>-0.6666666666666666</ele><time>2026-05-01T08:45:14.974Z</time></trkpt><trkpt lat="45.701003054323564" lon="12.855638138391628"><ele>-1.0</ele><time>2026-05-01T08:45:15.973Z</time></trkpt><trkpt lat="45.701102908577916" lon="12.855833248569397"><ele>-1.0</ele><time>2026-05-01T08:45:16.973Z</time></trkpt><trkpt lat="45.701196455498454" lon="12.85602780163211"><ele>-1.0</ele><time>2026-05-01T08:45:17.973Z</time></trkpt><trkpt lat="45.701290188872" lon="12.856226869466681"><ele>-1.0</ele><time>2026-05-01T08:45:18.973Z</time></trkpt><trkpt lat="45.701378012836756" lon="12.856429421071402"><ele>-1.0</ele><time>2026-05-01T08:45:19.973Z</time></trkpt><trkpt lat="45.70146498011274" lon="12.85663283477404"><ele>-1.0</ele><time>2026-05-01T08:45:20.973Z</time></trkpt><trkpt lat="45.7015482448114" lon="12.85683158574587"><ele>-1.0</ele><time>2026-05-01T08:45:21.973Z</time></trkpt><trkpt lat="45.70162656150602" lon="12.857034685935984"><ele>-1.3333333333333333</ele><time>2026-05-01T08:45:22.973Z</time></trkpt><trkpt lat="45.70170041272232" lon="12.85723879023562"><ele>-1.6666666666666665</ele><time>2026-05-01T08:45:23.973Z</time></trkpt><trkpt lat="45.7017681483391" lon="12.857442274855007"><ele>-2.0</ele><time>2026-05-01T08:45:24.973Z</time></trkpt><trkpt lat="45.70182857126106" lon="12.857637628600564"><ele>-2.25</ele><time>2026-05-01T08:45:25.973Z</time></trkpt><trkpt lat="45.70188603383193" lon="12.85782151317574"><ele>-2.5</ele><time>2026-05-01T08:45:26.973Z</time></trkpt><trkpt lat="45.70194023902301" lon="12.857994931167866"><ele>-2.75</ele><time>2026-05-01T08:45:27.973Z</time></trkpt><trkpt lat="45.70198922486551" lon="12.858160739213124"><ele>-3.0</ele><time>2026-05-01T08:45:28.973Z</time></trkpt><trkpt lat="45.702036596564824" lon="12.858324798791598"><ele>-2.75</ele><time>2026-05-01T08:45:29.973Z</time></trkpt><trkpt lat="45.70208271599274" lon="12.858482808579152"><ele>-2.5</ele><time>2026-05-01T08:45:30.973Z</time></trkpt><trkpt lat="45.70212651838371" lon="12.858636800904833"><ele>-2.25</ele><time>2026-05-01T08:45:31.973Z</time></trkpt><trkpt lat="45.70216954950401" lon="12.858787964134416"><ele>-2.0</ele><time>2026-05-01T08:45:32.973Z</time></trkpt><trkpt lat="45.702213619424185" lon="12.858943974908819"><ele>-2.0</ele><time>2026-05-01T08:45:33.973Z</time></trkpt><trkpt lat="45.70225688821309" lon="12.859098895987007"><ele>-2.0</ele><time>2026-05-01T08:45:34.973Z</time></trkpt><trkpt lat="45.702301159835" lon="12.859256244425858"><ele>-2.0</ele><time>2026-05-01T08:45:35.973Z</time></trkpt><trkpt lat="45.702345816955926" lon="12.85941566852219"><ele>-2.0</ele><time>2026-05-01T08:45:36.973Z</time></trkpt><trkpt lat="45.70238719726138" lon="12.859569144499941"><ele>-2.0</ele><time>2026-05-01T08:45:37.973Z</time></trkpt><trkpt lat="45.70242708642845" lon="12.859713260810592"><ele>-2.0</ele><time>2026-05-01T08:45:38.973Z</time></trkpt><trkpt lat="45.702462965969175" lon="12.859853997843848"><ele>-2.0</ele><time>2026-05-01T08:45:39.973Z</time></trkpt><trkpt lat="45.70250039593182" lon="12.85998851147969"><ele>-2.0</ele><time>2026-05-01T08:45:40.973Z</time></trkpt><trkpt lat="45.702536904799814" lon="12.860118281535184"><ele>-2.0</ele><time>2026-05-01T08:45:41.973Z</time></trkpt><trkpt lat="45.70257399693001" lon="12.860245594158359"><ele>-2.0</ele><time>2026-05-01T08:45:42.973Z</time></trkpt><trkpt lat="45.702607163544556" lon="12.860367356885217"><ele>-2.0</ele><time>2026-05-01T08:45:43.973Z</time></trkpt><trkpt lat="45.702641342072646" lon="12.860487568047464"><ele>-2.0</ele><time>2026-05-01T08:45:44.973Z</time></trkpt><trkpt lat="45.702677580730914" lon="12.860612261780174"><ele>-2.0</ele><time>2026-05-01T08:45:45.973Z</time></trkpt><trkpt lat="45.702714045315545" lon="12.860741352683227"><ele>-2.0</ele><time>2026-05-01T08:45:46.973Z</time></trkpt><trkpt lat="45.70274974999695" lon="12.86087560469546"><ele>-2.4000000000000004</ele><time>2026-05-01T08:45:47.973Z</time></trkpt><trkpt lat="45.70278797548317" lon="12.86101631622224"><ele>-2.8000000000000003</ele><time>2026-05-01T08:45:48.973Z</time></trkpt><trkpt lat="45.70282809299716" lon="12.861160067710586"><ele>-3.2</ele><time>2026-05-01T08:45:49.973Z</time></trkpt><trkpt lat="45.70286985469689" lon="12.861308276042962"><ele>-3.6</ele><time>2026-05-01T08:45:50.973Z</time></trkpt><trkpt lat="45.702910838697576" lon="12.861456583299072"><ele>-4.0</ele><time>2026-05-01T08:45:51.973Z</time></trkpt><trkpt lat="45.70295331328451" lon="12.861607131804877"><ele>-4.0</ele><time>2026-05-01T08:45:52.973Z</time></trkpt><trkpt lat="45.70299467389499" lon="12.861757294407369"><ele>-4.0</ele><time>2026-05-01T08:45:53.973Z</time></trkpt><trkpt lat="45.703036489566095" lon="12.86190734342009"><ele>-4.0</ele><time>2026-05-01T08:45:54.973Z</time></trkpt><trkpt lat="45.703076687196415" lon="12.862052584122628"><ele>-4.0</ele><time>2026-05-01T08:45:55.973Z</time></trkpt><trkpt lat="45.703115564393606" lon="12.86219229601448"><ele>-4.0</ele><time>2026-05-01T08:45:56.973Z</time></trkpt><trkpt lat="45.703151891582415" lon="12.86232277292561"><ele>-3.833333333333333</ele><time>2026-05-01T08:45:57.973Z</time></trkpt><trkpt lat="45.70318627106438" lon="12.862447294409634"><ele>-3.6666666666666665</ele><time>2026-05-01T08:45:58.973Z</time></trkpt><trkpt lat="45.70321942239145" lon="12.862564819242673"><ele>-3.5</ele><time>2026-05-01T08:45:59.973Z</time></trkpt><trkpt lat="45.703250562719354" lon="12.862676666085356"><ele>-3.333333333333333</ele><time>2026-05-01T08:46:00.973Z</time></trkpt><trkpt lat="45.70328204362972" lon="12.862785118571994"><ele>-3.1666666666666665</ele><time>2026-05-01T08:46:01.973Z</time></trkpt><trkpt lat="45.7033146883263" lon="12.86289179789665"><ele>-3.0</ele><time>2026-05-01T08:46:02.973Z</time></trkpt><trkpt lat="45.70334587907619" lon="12.862998716545126"><ele>-2.8333333333333335</ele><time>2026-05-01T08:46:03.973Z</time></trkpt><trkpt lat="45.7033752521937" lon="12.863103926677054"><ele>-2.6666666666666665</ele><time>2026-05-01T08:46:04.973Z</time></trkpt><trkpt lat="45.70340667859896" lon="12.86321247157437"><ele>-2.5</ele><time>2026-05-01T08:46:05.973Z</time></trkpt><trkpt lat="45.70343910525111" lon="12.863326239097843"><ele>-2.333333333333333</ele><time>2026-05-01T08:46:06.973Z</time></trkpt><trkpt lat="45.703473654357225" lon="12.863448360554614"><ele>-2.1666666666666665</ele><time>2026-05-01T08:46:07.973Z</time></trkpt><trkpt lat="45.703511403475204" lon="12.863576226613096"><ele>-2.0</ele><time>2026-05-01T08:46:08.973Z</time></trkpt><trkpt lat="45.70354980769226" lon="12.86371433241311"><ele>-2.2</ele><time>2026-05-01T08:46:09.973Z</time></trkpt><trkpt lat="45.70358962068204" lon="12.86386081299347"><ele>-2.4000000000000004</ele><time>2026-05-01T08:46:10.973Z</time></trkpt><trkpt lat="45.70363008755527" lon="12.864009756044341"><ele>-2.5999999999999996</ele><time>2026-05-01T08:46:11.973Z</time></trkpt><trkpt lat="45.703668537922695" lon="12.86414795511111"><ele>-2.8</ele><time>2026-05-01T08:46:12.973Z</time></trkpt><trkpt lat="45.703709046340954" lon="12.864288616474019"><ele>-3.0</ele><time>2026-05-01T08:46:13.973Z</time></trkpt><trkpt lat="45.70374798316071" lon="12.864429713110281"><ele>-2.6</ele><time>2026-05-01T08:46:14.973Z</time></trkpt><trkpt lat="45.70378674020475" lon="12.864570279878695"><ele>-2.1999999999999997</ele><time>2026-05-01T08:46:15.973Z</time></trkpt><trkpt lat="45.70382314120196" lon="12.864706169898785"><ele>-1.8</ele><time>2026-05-01T08:46:16.973Z</time></trkpt><trkpt lat="45.70385722172592" lon="12.864834438579967"><ele>-1.4</ele><time>2026-05-01T08:46:17.973Z</time></trkpt><trkpt lat="45.70389054163261" lon="12.864949279660717"><ele>-1.0</ele><time>2026-05-01T08:46:18.973Z</time></trkpt><trkpt lat="45.70392294889449" lon="12.865053999382704"><ele>-1.1666666666666665</ele><time>2026-05-01T08:46:19.973Z</time></trkpt><trkpt lat="45.70394959193514" lon="12.865151823490185"><ele>-1.3333333333333333</ele><time>2026-05-01T08:46:20.973Z</time></trkpt><trkpt lat="45.70397810145863" lon="12.86526123513787"><ele>-1.5</ele><time>2026-05-01T08:46:22.973Z</time></trkpt><trkpt lat="45.70400199237945" lon="12.865374216159548"><ele>-1.6666666666666665</ele><time>2026-05-01T08:46:26.973Z</time></trkpt><trkpt lat="45.704031835545244" lon="12.865476352378337"><ele>-1.8333333333333333</ele><time>2026-05-01T08:46:29.973Z</time></trkpt><trkpt lat="45.70406136924866" lon="12.865578975437474"><ele>-2.0</ele><time>2026-05-01T08:46:31.973Z</time></trkpt><trkpt lat="45.704099535776336" lon="12.86573283362192"><ele>-1.9999999999999998</ele><time>2026-05-01T08:46:33.972Z</time></trkpt><trkpt lat="45.70412640692728" lon="12.865823250753483"><ele>-2.0</ele><time>2026-05-01T08:46:34.972Z</time></trkpt><trkpt lat="45.70415443589714" lon="12.865927498559575"><ele>-2.0</ele><time>2026-05-01T08:46:35.972Z</time></trkpt><trkpt lat="45.70418680796174" lon="12.866041955523658"><ele>-2.0</ele><time>2026-05-01T08:46:36.972Z</time></trkpt><trkpt lat="45.70422104474214" lon="12.866165124446225"><ele>-1.9999999999999998</ele><time>2026-05-01T08:46:37.972Z</time></trkpt><trkpt lat="45.70426396787561" lon="12.866296926266108"><ele>-2.0</ele><time>2026-05-01T08:46:38.972Z</time></trkpt><trkpt lat="45.70430542079726" lon="12.866435695750875"><ele>-2.2</ele><time>2026-05-01T08:46:39.972Z</time></trkpt><trkpt lat="45.704340590780234" lon="12.8665855229829"><ele>-2.4000000000000004</ele><time>2026-05-01T08:46:40.972Z</time></trkpt><trkpt lat="45.704376990199165" lon="12.866728072097949"><ele>-2.5999999999999996</ele><time>2026-05-01T08:46:41.972Z</time></trkpt><trkpt lat="45.70441424650431" lon="12.866877542638823"><ele>-2.8</ele><time>2026-05-01T08:46:42.972Z</time></trkpt><trkpt lat="45.704454354104314" lon="12.867022378200298"><ele>-3.0</ele><time>2026-05-01T08:46:43.972Z</time></trkpt><trkpt lat="45.7044918353774" lon="12.867141302648687"><ele>-3.1666666666666665</ele><time>2026-05-01T08:46:44.972Z</time></trkpt><trkpt lat="45.70452008373333" lon="12.867237684168092"><ele>-3.333333333333333</ele><time>2026-05-01T08:46:45.972Z</time></trkpt><trkpt lat="45.70453898560348" lon="12.867385162220243"><ele>-3.5</ele><time>2026-05-01T08:46:47.972Z</time></trkpt><trkpt lat="45.70450420627614" lon="12.867461475222804"><ele>-3.6666666666666665</ele><time>2026-05-01T08:46:48.972Z</time></trkpt><trkpt lat="45.70443545661506" lon="12.867479335693185"><ele>-3.833333333333333</ele><time>2026-05-01T08:46:49.972Z</time></trkpt><trkpt lat="45.70436075368488" lon="12.867520000638525"><ele>-4.0</ele><time>2026-05-01T08:46:50.972Z</time></trkpt><trkpt lat="45.70428121211151" lon="12.867586914695975"><ele>-3.0</ele><time>2026-05-01T08:46:51.972Z</time></trkpt><trkpt lat="45.7042024892107" lon="12.867669234729078"><ele>-2.0000000000000004</ele><time>2026-05-01T08:46:52.972Z</time></trkpt><trkpt lat="45.70413645299933" lon="12.86778971111862"><ele>-1.0</ele><time>2026-05-01T08:46:53.972Z</time></trkpt><trkpt lat="45.704090963113195" lon="12.867936089114862"><ele>0.0</ele><time>2026-05-01T08:46:54.972Z</time></trkpt><trkpt lat="45.704057490251685" lon="12.868086827189115"><ele>1.0</ele><time>2026-05-01T08:46:55.972Z</time></trkpt><trkpt lat="45.70402558975919" lon="12.868249059134287"><ele>1.0</ele><time>2026-05-01T08:46:56.972Z</time></trkpt><trkpt lat="45.7039946017332" lon="12.868417501685968"><ele>1.0</ele><time>2026-05-01T08:46:57.972Z</time></trkpt><trkpt lat="45.703964199443526" lon="12.868587224655784"><ele>1.0</ele><time>2026-05-01T08:46:58.972Z</time></trkpt><trkpt lat="45.70393395279706" lon="12.868756853490044"><ele>1.0</ele><time>2026-05-01T08:46:59.972Z</time></trkpt><trkpt lat="45.70390302372764" lon="12.868926991433511"><ele>1.75</ele><time>2026-05-01T08:47:00.972Z</time></trkpt><trkpt lat="45.70387138500219" lon="12.869098802157572"><ele>2.5</ele><time>2026-05-01T08:47:01.972Z</time></trkpt><trkpt lat="45.70383939637051" lon="12.869272513102532"><ele>3.25</ele><time>2026-05-01T08:47:02.972Z</time></trkpt><trkpt lat="45.703819567237204" lon="12.869451433400984"><ele>4.0</ele><time>2026-05-01T08:47:03.972Z</time></trkpt><trkpt lat="45.70375836873913" lon="12.869611418960956"><ele>4.0</ele><time>2026-05-01T08:47:04.972Z</time></trkpt><trkpt lat="45.70371362482013" lon="12.869780958301087"><ele>4.0</ele><time>2026-05-01T08:47:05.972Z</time></trkpt><trkpt lat="45.7036293471194" lon="12.869923065234685"><ele>4.0</ele><time>2026-05-01T08:47:06.972Z</time></trkpt><trkpt lat="45.70356573465175" lon="12.870082062687487"><ele>4.0</ele><time>2026-05-01T08:47:07.973Z</time></trkpt><trkpt lat="45.703485897022055" lon="12.87022526197188"><ele>2.75</ele><time>2026-05-01T08:47:08.973Z</time></trkpt><trkpt lat="45.70339762339616" lon="12.870355141795214"><ele>1.5</ele><time>2026-05-01T08:47:09.973Z</time></trkpt><trkpt lat="45.703316429401696" lon="12.870501610103487"><ele>0.25</ele><time>2026-05-01T08:47:10.973Z</time></trkpt><trkpt lat="45.703234444725645" lon="12.870648450682708"><ele>-1.0</ele><time>2026-05-01T08:47:11.972Z</time></trkpt><trkpt lat="45.703151038013324" lon="12.870792393386173"><ele>-1.5</ele><time>2026-05-01T08:47:12.972Z</time></trkpt><trkpt lat="45.7030656036603" lon="12.870942831422374"><ele>-2.0</ele><time>2026-05-01T08:47:13.973Z</time></trkpt><trkpt lat="45.702973946727106" lon="12.871089231493777"><ele>-2.5</ele><time>2026-05-01T08:47:14.973Z</time></trkpt><trkpt lat="45.70288077506089" lon="12.871228250494068"><ele>-3.0</ele><time>2026-05-01T08:47:15.972Z</time></trkpt><trkpt lat="45.70278636231654" lon="12.871364392818984"><ele>-3.0</ele><time>2026-05-01T08:47:16.973Z</time></trkpt><trkpt lat="45.702693566175384" lon="12.871501859156911"><ele>-3.0</ele><time>2026-05-01T08:47:17.973Z</time></trkpt><trkpt lat="45.70260409318171" lon="12.871631360449749"><ele>-3.0</ele><time>2026-05-01T08:47:18.973Z</time></trkpt><trkpt lat="45.70251498419215" lon="12.87175151971268"><ele>-3.0</ele><time>2026-05-01T08:47:19.973Z</time></trkpt><trkpt lat="45.702435997191586" lon="12.871866006603616"><ele>-3.25</ele><time>2026-05-01T08:47:20.972Z</time></trkpt><trkpt lat="45.70234817717827" lon="12.871966890133892"><ele>-3.5</ele><time>2026-05-01T08:47:21.972Z</time></trkpt><trkpt lat="45.70225764434535" lon="12.872044238595679"><ele>-3.75</ele><time>2026-05-01T08:47:22.972Z</time></trkpt><trkpt lat="45.70215346227798" lon="12.872129459010619"><ele>-4.0</ele><time>2026-05-01T08:47:23.972Z</time></trkpt><trkpt lat="45.70204894045598" lon="12.872217667827677"><ele>-4.0</ele><time>2026-05-01T08:47:24.972Z</time></trkpt><trkpt lat="45.701940270532084" lon="12.872288025412061"><ele>-4.0</ele><time>2026-05-01T08:47:25.972Z</time></trkpt><trkpt lat="45.701833455984186" lon="12.872353592087514"><ele>-4.0</ele><time>2026-05-01T08:47:26.972Z</time></trkpt><trkpt lat="45.7017260803714" lon="12.872409452055551"><ele>-4.0</ele><time>2026-05-01T08:47:27.972Z</time></trkpt><trkpt lat="45.701619553527706" lon="12.872462440704147"><ele>-3.8000000000000003</ele><time>2026-05-01T08:47:28.972Z</time></trkpt><trkpt lat="45.7015185807864" lon="12.872514026618346"><ele>-3.6000000000000005</ele><time>2026-05-01T08:47:29.972Z</time></trkpt><trkpt lat="45.70140931428413" lon="12.872531530629086"><ele>-3.4</ele><time>2026-05-01T08:47:30.972Z</time></trkpt><trkpt lat="45.70130415162402" lon="12.87256938652909"><ele>-3.2</ele><time>2026-05-01T08:47:31.972Z</time></trkpt><trkpt lat="45.70120039943567" lon="12.872604737354276"><ele>-3.0</ele><time>2026-05-01T08:47:32.972Z</time></trkpt><trkpt lat="45.70110404131748" lon="12.872639421124017"><ele>-3.0</ele><time>2026-05-01T08:47:33.972Z</time></trkpt><trkpt lat="45.70101474813795" lon="12.872666249001215"><ele>-3.0</ele><time>2026-05-01T08:47:34.972Z</time></trkpt><trkpt lat="45.70094743223363" lon="12.872687580868908"><ele>-3.0</ele><time>2026-05-01T08:47:35.972Z</time></trkpt><trkpt lat="45.70087434707477" lon="12.87270842905192"><ele>-3.0</ele><time>2026-05-01T08:47:37.972Z</time></trkpt><trkpt lat="45.70081101802223" lon="12.87273937501068"><ele>-3.0</ele><time>2026-05-01T08:47:45.972Z</time></trkpt><trkpt lat="45.700825614855894" lon="12.872916709079169"><ele>-3.0</ele><time>2026-05-01T08:47:47.972Z</time></trkpt><trkpt lat="45.70084672767592" lon="12.873003414268446"><ele>-3.0</ele><time>2026-05-01T08:47:48.972Z</time></trkpt><trkpt lat="45.7008474886444" lon="12.87310079750227"><ele>-3.0</ele><time>2026-05-01T08:47:49.972Z</time></trkpt><trkpt lat="45.70086513046972" lon="12.873209811813506"><ele>-3.0</ele><time>2026-05-01T08:47:50.972Z</time></trkpt><trkpt lat="45.700884338746185" lon="12.873328505773445"><ele>-3.0</ele><time>2026-05-01T08:47:51.972Z</time></trkpt><trkpt lat="45.700922109852044" lon="12.873456429550146"><ele>-3.0</ele><time>2026-05-01T08:47:52.972Z</time></trkpt><trkpt lat="45.700941369656576" lon="12.87359421745417"><ele>-3.0</ele><time>2026-05-01T08:47:53.972Z</time></trkpt><trkpt lat="45.70095301143652" lon="12.873744053947435"><ele>-3.0</ele><time>2026-05-01T08:47:54.972Z</time></trkpt><trkpt lat="45.700975206618914" lon="12.873901595548306"><ele>-3.0</ele><time>2026-05-01T08:47:55.972Z</time></trkpt><trkpt lat="45.701005381980195" lon="12.874056116071769"><ele>-3.0</ele><time>2026-05-01T08:47:56.972Z</time></trkpt><trkpt lat="45.70105050793004" lon="12.874206998965427"><ele>-3.0</ele><time>2026-05-01T08:47:57.972Z</time></trkpt><trkpt lat="45.70110104381273" lon="12.874359110927307"><ele>-3.0</ele><time>2026-05-01T08:47:58.972Z</time></trkpt><trkpt lat="45.70116427431188" lon="12.874514076640201"><ele>-3.0</ele><time>2026-05-01T08:47:59.972Z</time></trkpt><trkpt lat="45.701224859469775" lon="12.8746683056236"><ele>-3.0</ele><time>2026-05-01T08:48:00.972Z</time></trkpt><trkpt lat="45.70128539411885" lon="12.874831197973325"><ele>-3.0</ele><time>2026-05-01T08:48:01.972Z</time></trkpt><trkpt lat="45.70134036057754" lon="12.875003408390242"><ele>-3.5</ele><time>2026-05-01T08:48:02.972Z</time></trkpt><trkpt lat="45.701398276753196" lon="12.875175134425891"><ele>-4.0</ele><time>2026-05-01T08:48:03.972Z</time></trkpt><trkpt lat="45.70145946645281" lon="12.875351261726411"><ele>-4.5</ele><time>2026-05-01T08:48:04.972Z</time></trkpt><trkpt lat="45.70152182979066" lon="12.875527996763287"><ele>-5.0</ele><time>2026-05-01T08:48:05.972Z</time></trkpt><trkpt lat="45.701583068136635" lon="12.87570649438128"><ele>-5.0</ele><time>2026-05-01T08:48:06.972Z</time></trkpt><trkpt lat="45.701643259220376" lon="12.875885637600758"><ele>-5.0</ele><time>2026-05-01T08:48:07.972Z</time></trkpt><trkpt lat="45.70170202131827" lon="12.87606507169633"><ele>-5.0</ele><time>2026-05-01T08:48:08.972Z</time></trkpt><trkpt lat="45.70175863361249" lon="12.876246124428295"><ele>-5.0</ele><time>2026-05-01T08:48:09.972Z</time></trkpt><trkpt lat="45.70181587344338" lon="12.876427009043438"><ele>-4.75</ele><time>2026-05-01T08:48:10.972Z</time></trkpt><trkpt lat="45.70187420727956" lon="12.876610311333787"><ele>-4.5</ele><time>2026-05-01T08:48:11.972Z</time></trkpt><trkpt lat="45.70193873880783" lon="12.876791503127063"><ele>-4.25</ele><time>2026-05-01T08:48:12.972Z</time></trkpt><trkpt lat="45.70200491525465" lon="12.876974742089748"><ele>-4.0</ele><time>2026-05-01T08:48:13.972Z</time></trkpt><trkpt lat="45.70207413675228" lon="12.877158594759527"><ele>-4.0</ele><time>2026-05-01T08:48:14.972Z</time></trkpt><trkpt lat="45.70214700120071" lon="12.87734506748863"><ele>-4.0</ele><time>2026-05-01T08:48:15.972Z</time></trkpt><trkpt lat="45.70221636160377" lon="12.877530987504416"><ele>-4.0</ele><time>2026-05-01T08:48:16.972Z</time></trkpt><trkpt lat="45.70228743392388" lon="12.877717697614733"><ele>-4.0</ele><time>2026-05-01T08:48:17.972Z</time></trkpt><trkpt lat="45.70235871526527" lon="12.877902343769202"><ele>-4.0</ele><time>2026-05-01T08:48:18.972Z</time></trkpt><trkpt lat="45.70243074368227" lon="12.878089582415384"><ele>-4.0</ele><time>2026-05-01T08:48:19.972Z</time></trkpt><trkpt lat="45.70250365687307" lon="12.87827844030143"><ele>-4.0</ele><time>2026-05-01T08:48:20.972Z</time></trkpt><trkpt lat="45.702576075735124" lon="12.878467544465137"><ele>-4.0</ele><time>2026-05-01T08:48:21.972Z</time></trkpt><trkpt lat="45.70264871620942" lon="12.87865846008066"><ele>-4.0</ele><time>2026-05-01T08:48:22.972Z</time></trkpt><trkpt lat="45.70272393520436" lon="12.878850586882777"><ele>-4.0</ele><time>2026-05-01T08:48:23.972Z</time></trkpt><trkpt lat="45.70279772528883" lon="12.879045911947799"><ele>-3.333333333333333</ele><time>2026-05-01T08:48:24.972Z</time></trkpt><trkpt lat="45.70287283029191" lon="12.879243537869495"><ele>-2.6666666666666665</ele><time>2026-05-01T08:48:25.972Z</time></trkpt><trkpt lat="45.70294568096101" lon="12.8794415954717"><ele>-2.0</ele><time>2026-05-01T08:48:26.972Z</time></trkpt><trkpt lat="45.70302001246448" lon="12.879635265013942"><ele>-2.0</ele><time>2026-05-01T08:48:27.972Z</time></trkpt><trkpt lat="45.70309164218464" lon="12.879820714207584"><ele>-2.0</ele><time>2026-05-01T08:48:28.972Z</time></trkpt><trkpt lat="45.70316111448851" lon="12.880001009177409"><ele>-2.0</ele><time>2026-05-01T08:48:29.972Z</time></trkpt><trkpt lat="45.70323002626372" lon="12.880178259775839"><ele>-2.0</ele><time>2026-05-01T08:48:30.972Z</time></trkpt><trkpt lat="45.70329245559639" lon="12.880362975975453"><ele>-2.0</ele><time>2026-05-01T08:48:31.972Z</time></trkpt><trkpt lat="45.70335093569043" lon="12.880551805900787"><ele>-2.0</ele><time>2026-05-01T08:48:32.972Z</time></trkpt><trkpt lat="45.70340067432548" lon="12.880749838273305"><ele>-2.0</ele><time>2026-05-01T08:48:33.972Z</time></trkpt><trkpt lat="45.70344682015103" lon="12.880949837948956"><ele>-2.0</ele><time>2026-05-01T08:48:34.971Z</time></trkpt><trkpt lat="45.70347661979246" lon="12.8811496966557"><ele>-2.0</ele><time>2026-05-01T08:48:35.971Z</time></trkpt><trkpt lat="45.70352314392131" lon="12.881323403216937"><ele>-2.0</ele><time>2026-05-01T08:48:36.971Z</time></trkpt><trkpt lat="45.703569275022055" lon="12.881476691228377"><ele>-2.0</ele><time>2026-05-01T08:48:37.971Z</time></trkpt><trkpt lat="45.70361407514046" lon="12.881621265234555"><ele>-2.0</ele><time>2026-05-01T08:48:38.971Z</time></trkpt><trkpt lat="45.70365667635482" lon="12.88173688253825"><ele>-2.0</ele><time>2026-05-01T08:48:39.971Z</time></trkpt><trkpt lat="45.7036970282657" lon="12.881832688938326"><ele>-1.9999999999999998</ele><time>2026-05-01T08:48:40.971Z</time></trkpt><trkpt lat="45.70374027125051" lon="12.881969448753775"><ele>-2.0</ele><time>2026-05-01T08:48:42.971Z</time></trkpt><trkpt lat="45.7037228231435" lon="12.882124621276681"><ele>-2.0</ele><time>2026-05-01T08:48:44.971Z</time></trkpt><trkpt lat="45.70369314476515" lon="12.882209865819"><ele>-2.0</ele><time>2026-05-01T08:48:45.971Z</time></trkpt><trkpt lat="45.703658296443656" lon="12.88230833741856"><ele>-1.9999999999999998</ele><time>2026-05-01T08:48:46.971Z</time></trkpt><trkpt lat="45.70361823976862" lon="12.882418544193946"><ele>-2.0</ele><time>2026-05-01T08:48:47.971Z</time></trkpt><trkpt lat="45.7035745323221" lon="12.88253266917553"><ele>-1.8</ele><time>2026-05-01T08:48:48.971Z</time></trkpt><trkpt lat="45.703527722203724" lon="12.882651902178456"><ele>-1.6</ele><time>2026-05-01T08:48:49.971Z</time></trkpt><trkpt lat="45.70348510241749" lon="12.882778057981831"><ele>-1.4000000000000001</ele><time>2026-05-01T08:48:50.971Z</time></trkpt><trkpt lat="45.70344079186358" lon="12.88291993336882"><ele>-1.2000000000000002</ele><time>2026-05-01T08:48:51.971Z</time></trkpt><trkpt lat="45.70338646502914" lon="12.8830619241241"><ele>-1.0</ele><time>2026-05-01T08:48:52.971Z</time></trkpt><trkpt lat="45.70332787211496" lon="12.883207984871285"><ele>-1.0</ele><time>2026-05-01T08:48:53.971Z</time></trkpt><trkpt lat="45.7032557731683" lon="12.883345443108176"><ele>-1.0</ele><time>2026-05-01T08:48:54.971Z</time></trkpt><trkpt lat="45.703196078550675" lon="12.883497694647657"><ele>-1.0</ele><time>2026-05-01T08:48:55.971Z</time></trkpt><trkpt lat="45.70314153062409" lon="12.88365747538853"><ele>-1.0</ele><time>2026-05-01T08:48:56.971Z</time></trkpt><trkpt lat="45.703085897596374" lon="12.883819548135872"><ele>-1.0</ele><time>2026-05-01T08:48:57.971Z</time></trkpt><trkpt lat="45.70302800760091" lon="12.883984294984508"><ele>-1.0</ele><time>2026-05-01T08:48:58.971Z</time></trkpt><trkpt lat="45.70296453612379" lon="12.884150277012616"><ele>-1.0</ele><time>2026-05-01T08:48:59.971Z</time></trkpt><trkpt lat="45.702903003921776" lon="12.884310459950976"><ele>-1.0</ele><time>2026-05-01T08:49:00.971Z</time></trkpt><trkpt lat="45.7028481375395" lon="12.884464938332139"><ele>-1.5</ele><time>2026-05-01T08:49:01.971Z</time></trkpt><trkpt lat="45.7027943886943" lon="12.884597692027606"><ele>-2.0</ele><time>2026-05-01T08:49:02.971Z</time></trkpt><trkpt lat="45.7027377216865" lon="12.884734633517347"><ele>-2.5</ele><time>2026-05-01T08:49:03.971Z</time></trkpt><trkpt lat="45.702680357295904" lon="12.8848887236155"><ele>-3.0</ele><time>2026-05-01T08:49:04.971Z</time></trkpt><trkpt lat="45.70262200967764" lon="12.885049995096905"><ele>-3.25</ele><time>2026-05-01T08:49:05.971Z</time></trkpt><trkpt lat="45.70255815854852" lon="12.885215370670554"><ele>-3.5</ele><time>2026-05-01T08:49:06.971Z</time></trkpt><trkpt lat="45.70249599352303" lon="12.885390205485612"><ele>-3.75</ele><time>2026-05-01T08:49:07.971Z</time></trkpt><trkpt lat="45.70242991405958" lon="12.885565373314277"><ele>-4.0</ele><time>2026-05-01T08:49:08.971Z</time></trkpt><trkpt lat="45.70236641104708" lon="12.885738609490913"><ele>-4.0</ele><time>2026-05-01T08:49:09.971Z</time></trkpt><trkpt lat="45.70230414056017" lon="12.885905932498114"><ele>-4.0</ele><time>2026-05-01T08:49:10.971Z</time></trkpt><trkpt lat="45.70223859143326" lon="12.886077473319697"><ele>-4.0</ele><time>2026-05-01T08:49:11.971Z</time></trkpt><trkpt lat="45.7021754499804" lon="12.88625063358718"><ele>-4.0</ele><time>2026-05-01T08:49:12.971Z</time></trkpt><trkpt lat="45.70211281533707" lon="12.886421378478916"><ele>-4.0</ele><time>2026-05-01T08:49:13.973Z</time></trkpt><trkpt lat="45.70204463371773" lon="12.886592245445105"><ele>-4.0</ele><time>2026-05-01T08:49:14.972Z</time></trkpt><trkpt lat="45.70198063326763" lon="12.886764117127628"><ele>-4.0</ele><time>2026-05-01T08:49:15.972Z</time></trkpt><trkpt lat="45.701916373384805" lon="12.886939080236864"><ele>-4.0</ele><time>2026-05-01T08:49:16.973Z</time></trkpt><trkpt lat="45.701856214444874" lon="12.887113121784536"><ele>-4.25</ele><time>2026-05-01T08:49:17.973Z</time></trkpt><trkpt lat="45.701795134632164" lon="12.887292172514272"><ele>-4.5</ele><time>2026-05-01T08:49:18.973Z</time></trkpt><trkpt lat="45.70173163973157" lon="12.887469159461602"><ele>-4.75</ele><time>2026-05-01T08:49:19.973Z</time></trkpt><trkpt lat="45.70166219630774" lon="12.887645154128338"><ele>-5.0</ele><time>2026-05-01T08:49:20.972Z</time></trkpt><trkpt lat="45.70159003796632" lon="12.88781820594269"><ele>-5.0</ele><time>2026-05-01T08:49:21.972Z</time></trkpt><trkpt lat="45.701522047757045" lon="12.887996517776875"><ele>-5.0</ele><time>2026-05-01T08:49:22.972Z</time></trkpt><trkpt lat="45.70145204510583" lon="12.888180163886283"><ele>-5.0</ele><time>2026-05-01T08:49:23.973Z</time></trkpt><trkpt lat="45.70138981486852" lon="12.888360577564931"><ele>-5.0</ele><time>2026-05-01T08:49:24.973Z</time></trkpt><trkpt lat="45.701322588456144" lon="12.888540095756051"><ele>-5.0</ele><time>2026-05-01T08:49:25.972Z</time></trkpt><trkpt lat="45.70125431982972" lon="12.888718886208833"><ele>-5.0</ele><time>2026-05-01T08:49:26.972Z</time></trkpt><trkpt lat="45.70118759158346" lon="12.888894893603334"><ele>-5.0</ele><time>2026-05-01T08:49:27.972Z</time></trkpt><trkpt lat="45.701117803546786" lon="12.889073728149588"><ele>-5.0</ele><time>2026-05-01T08:49:28.972Z</time></trkpt><trkpt lat="45.701054049098154" lon="12.889239875900767"><ele>-4.75</ele><time>2026-05-01T08:49:29.972Z</time></trkpt><trkpt lat="45.70099319223404" lon="12.889410035722603"><ele>-4.5</ele><time>2026-05-01T08:49:30.972Z</time></trkpt><trkpt lat="45.70093288149262" lon="12.889582928342415"><ele>-4.25</ele><time>2026-05-01T08:49:31.972Z</time></trkpt><trkpt lat="45.70087032926229" lon="12.889758010793297"><ele>-4.0</ele><time>2026-05-01T08:49:32.972Z</time></trkpt><trkpt lat="45.70080807524427" lon="12.889939165050416"><ele>-3.75</ele><time>2026-05-01T08:49:33.972Z</time></trkpt><trkpt lat="45.70074606211693" lon="12.890126812264208"><ele>-3.5</ele><time>2026-05-01T08:49:34.972Z</time></trkpt><trkpt lat="45.70068774876122" lon="12.890317881015546"><ele>-3.25</ele><time>2026-05-01T08:49:35.972Z</time></trkpt><trkpt lat="45.70063294253337" lon="12.890512184506587"><ele>-3.0</ele><time>2026-05-01T08:49:36.972Z</time></trkpt><trkpt lat="45.70058079684085" lon="12.890708679473475"><ele>-3.0</ele><time>2026-05-01T08:49:37.972Z</time></trkpt><trkpt lat="45.700527929371134" lon="12.890902810612905"><ele>-3.0</ele><time>2026-05-01T08:49:38.972Z</time></trkpt><trkpt lat="45.700474082135955" lon="12.891095876413507"><ele>-3.0</ele><time>2026-05-01T08:49:39.972Z</time></trkpt><trkpt lat="45.70041803615481" lon="12.891292252642582"><ele>-3.0</ele><time>2026-05-01T08:49:40.972Z</time></trkpt><trkpt lat="45.700361132570244" lon="12.891485011256863"><ele>-2.6666666666666665</ele><time>2026-05-01T08:49:41.972Z</time></trkpt><trkpt lat="45.700305187172425" lon="12.891681033957958"><ele>-2.333333333333333</ele><time>2026-05-01T08:49:42.972Z</time></trkpt><trkpt lat="45.70019076675571" lon="12.892076220590967"><ele>-2.0</ele><time>2026-05-01T08:49:44.972Z</time></trkpt><trkpt lat="45.700133273352485" lon="12.892277378646845"><ele>-2.6666666666666665</ele><time>2026-05-01T08:49:45.972Z</time></trkpt><trkpt lat="45.700075434921295" lon="12.89247751624474"><ele>-3.333333333333333</ele><time>2026-05-01T08:49:46.972Z</time></trkpt><trkpt lat="45.70001653501829" lon="12.892674764664836"><ele>-4.0</ele><time>2026-05-01T08:49:47.972Z</time></trkpt><trkpt lat="45.69996020996936" lon="12.89288157018036"><ele>-4.0</ele><time>2026-05-01T08:49:48.972Z</time></trkpt><trkpt lat="45.6999011145742" lon="12.893088712503099"><ele>-4.0</ele><time>2026-05-01T08:49:49.972Z</time></trkpt><trkpt lat="45.699842193913284" lon="12.893294531640699"><ele>-4.0</ele><time>2026-05-01T08:49:50.972Z</time></trkpt><trkpt lat="45.69978190604141" lon="12.893506224912223"><ele>-4.333333333333333</ele><time>2026-05-01T08:49:51.972Z</time></trkpt><trkpt lat="45.69972477577125" lon="12.893716134950363"><ele>-4.666666666666667</ele><time>2026-05-01T08:49:52.971Z</time></trkpt><trkpt lat="45.699666296920476" lon="12.89392119858025"><ele>-5.0</ele><time>2026-05-01T08:49:53.971Z</time></trkpt><trkpt lat="45.699608688100504" lon="12.894128956854928"><ele>-5.0</ele><time>2026-05-01T08:49:54.971Z</time></trkpt><trkpt lat="45.699549802562615" lon="12.894335571498358"><ele>-5.0</ele><time>2026-05-01T08:49:55.971Z</time></trkpt><trkpt lat="45.69948862269211" lon="12.894538675784949"><ele>-5.0</ele><time>2026-05-01T08:49:56.971Z</time></trkpt><trkpt lat="45.699432551644186" lon="12.894746596796127"><ele>-5.0</ele><time>2026-05-01T08:49:57.971Z</time></trkpt><trkpt lat="45.69937745869673" lon="12.894947722436127"><ele>-5.0</ele><time>2026-05-01T08:49:58.971Z</time></trkpt><trkpt lat="45.69932351990267" lon="12.895146813512822"><ele>-5.0</ele><time>2026-05-01T08:49:59.971Z</time></trkpt><trkpt lat="45.69926867326753" lon="12.895349438291323"><ele>-3.666666666666667</ele><time>2026-05-01T08:50:00.971Z</time></trkpt><trkpt lat="45.69921289681595" lon="12.89554874897767"><ele>-2.3333333333333335</ele><time>2026-05-01T08:50:01.971Z</time></trkpt><trkpt lat="45.699154505666776" lon="12.895746657548694"><ele>-1.0</ele><time>2026-05-01T08:50:02.971Z</time></trkpt><trkpt lat="45.699099307662614" lon="12.895948818656459"><ele>-0.3333333333333333</ele><time>2026-05-01T08:50:03.971Z</time></trkpt><trkpt lat="45.69904506301455" lon="12.896147890173976"><ele>0.3333333333333333</ele><time>2026-05-01T08:50:04.971Z</time></trkpt><trkpt lat="45.69899006867837" lon="12.896350973741015"><ele>1.0</ele><time>2026-05-01T08:50:05.971Z</time></trkpt><trkpt lat="45.69892766297417" lon="12.89654857633237"><ele>1.0</ele><time>2026-05-01T08:50:06.971Z</time></trkpt><trkpt lat="45.69887246687968" lon="12.896751468504172"><ele>1.0</ele><time>2026-05-01T08:50:07.971Z</time></trkpt><trkpt lat="45.69881726591456" lon="12.896957255580016"><ele>1.0</ele><time>2026-05-01T08:50:08.971Z</time></trkpt><trkpt lat="45.69875137964461" lon="12.897153222337783"><ele>1.0</ele><time>2026-05-01T08:50:09.971Z</time></trkpt><trkpt lat="45.69869346387319" lon="12.897350038176576"><ele>1.0</ele><time>2026-05-01T08:50:10.971Z</time></trkpt><trkpt lat="45.698644091732625" lon="12.897552713910844"><ele>1.0</ele><time>2026-05-01T08:50:11.971Z</time></trkpt><trkpt lat="45.69858680812312" lon="12.897753123062705"><ele>1.0</ele><time>2026-05-01T08:50:12.971Z</time></trkpt><trkpt lat="45.69853321157604" lon="12.897957204557866"><ele>1.0</ele><time>2026-05-01T08:50:13.971Z</time></trkpt><trkpt lat="45.698480041996206" lon="12.898159275681987"><ele>1.0</ele><time>2026-05-01T08:50:14.971Z</time></trkpt><trkpt lat="45.69842226058279" lon="12.898361666771228"><ele>0.5</ele><time>2026-05-01T08:50:15.971Z</time></trkpt><trkpt lat="45.69836791306898" lon="12.898561790392705"><ele>0.0</ele><time>2026-05-01T08:50:16.971Z</time></trkpt><trkpt lat="45.69829851226043" lon="12.898751140773486"><ele>-0.5</ele><time>2026-05-01T08:50:17.971Z</time></trkpt><trkpt lat="45.69824805121646" lon="12.898951680846737"><ele>-1.0</ele><time>2026-05-01T08:50:18.971Z</time></trkpt><trkpt lat="45.69821607920252" lon="12.899164987788344"><ele>-1.25</ele><time>2026-05-01T08:50:19.971Z</time></trkpt><trkpt lat="45.698191442909014" lon="12.899387780923611"><ele>-1.5</ele><time>2026-05-01T08:50:20.971Z</time></trkpt><trkpt lat="45.698183966540846" lon="12.899592301470586"><ele>-1.75</ele><time>2026-05-01T08:50:21.971Z</time></trkpt><trkpt lat="45.698183325405026" lon="12.89979711526152"><ele>-2.0</ele><time>2026-05-01T08:50:22.971Z</time></trkpt><trkpt lat="45.69818619633664" lon="12.90000823095441"><ele>-2.0</ele><time>2026-05-01T08:50:23.971Z</time></trkpt><trkpt lat="45.698178098099774" lon="12.900219713720574"><ele>-2.0</ele><time>2026-05-01T08:50:24.971Z</time></trkpt><trkpt lat="45.698183606559226" lon="12.900428619538152"><ele>-2.0</ele><time>2026-05-01T08:50:25.971Z</time></trkpt><trkpt lat="45.698189401958395" lon="12.900636165471042"><ele>-2.0</ele><time>2026-05-01T08:50:26.971Z</time></trkpt><trkpt lat="45.69819529256153" lon="12.900847120827208"><ele>-1.5</ele><time>2026-05-01T08:50:27.971Z</time></trkpt><trkpt lat="45.69820070795541" lon="12.901057864936707"><ele>-1.0</ele><time>2026-05-01T08:50:28.971Z</time></trkpt><trkpt lat="45.69820485837807" lon="12.9012675054383"><ele>-0.5</ele><time>2026-05-01T08:50:29.971Z</time></trkpt><trkpt lat="45.698208996594836" lon="12.901476529383816"><ele>0.0</ele><time>2026-05-01T08:50:30.971Z</time></trkpt><trkpt lat="45.698212645027326" lon="12.901686324186109"><ele>0.0</ele><time>2026-05-01T08:50:31.971Z</time></trkpt><trkpt lat="45.69821632660373" lon="12.901897775950733"><ele>0.0</ele><time>2026-05-01T08:50:32.971Z</time></trkpt><trkpt lat="45.69822001659617" lon="12.902109711102916"><ele>0.0</ele><time>2026-05-01T08:50:33.971Z</time></trkpt><trkpt lat="45.698224959295466" lon="12.902325524670886"><ele>0.0</ele><time>2026-05-01T08:50:34.971Z</time></trkpt><trkpt lat="45.6982456455981" lon="12.902543118144996"><ele>-0.6666666666666666</ele><time>2026-05-01T08:50:35.971Z</time></trkpt><trkpt lat="45.698246125985015" lon="12.902762881687496"><ele>-1.3333333333333333</ele><time>2026-05-01T08:50:36.971Z</time></trkpt><trkpt lat="45.698243549195304" lon="12.902981298746788"><ele>-2.0</ele><time>2026-05-01T08:50:37.971Z</time></trkpt><trkpt lat="45.698231848487026" lon="12.903200984683933"><ele>-2.0</ele><time>2026-05-01T08:50:38.971Z</time></trkpt><trkpt lat="45.69819519848931" lon="12.903422031299131"><ele>-2.0</ele><time>2026-05-01T08:50:39.971Z</time></trkpt><trkpt lat="45.698182993327045" lon="12.903645999977048"><ele>-2.0</ele><time>2026-05-01T08:50:40.971Z</time></trkpt><trkpt lat="45.698154826309974" lon="12.903864129610445"><ele>-2.0</ele><time>2026-05-01T08:50:41.971Z</time></trkpt><trkpt lat="45.698127435637375" lon="12.904088496585569"><ele>-2.0</ele><time>2026-05-01T08:50:42.971Z</time></trkpt><trkpt lat="45.698101044132265" lon="12.904314133235363"><ele>-2.0</ele><time>2026-05-01T08:50:43.971Z</time></trkpt><trkpt lat="45.698057075248535" lon="12.904534873398848"><ele>-2.0</ele><time>2026-05-01T08:50:44.971Z</time></trkpt><trkpt lat="45.69802935163479" lon="12.904759620658945"><ele>-2.0</ele><time>2026-05-01T08:50:45.971Z</time></trkpt><trkpt lat="45.698006017764406" lon="12.904985838839568"><ele>-2.0</ele><time>2026-05-01T08:50:46.971Z</time></trkpt><trkpt lat="45.69799809852281" lon="12.90520856208424"><ele>-2.0</ele><time>2026-05-01T08:50:47.971Z</time></trkpt><trkpt lat="45.69798118071781" lon="12.905426986659728"><ele>-2.0</ele><time>2026-05-01T08:50:48.971Z</time></trkpt><trkpt lat="45.69798407182887" lon="12.905646309993731"><ele>-2.0</ele><time>2026-05-01T08:50:49.971Z</time></trkpt><trkpt lat="45.69800471786704" lon="12.905864276277855"><ele>-2.0</ele><time>2026-05-01T08:50:50.971Z</time></trkpt><trkpt lat="45.698036957908236" lon="12.906083002493522"><ele>-2.0</ele><time>2026-05-01T08:50:51.971Z</time></trkpt><trkpt lat="45.69807194189026" lon="12.906300567357542"><ele>-2.0</ele><time>2026-05-01T08:50:52.971Z</time></trkpt><trkpt lat="45.69810944257443" lon="12.906522049509217"><ele>-1.6666666666666665</ele><time>2026-05-01T08:50:53.971Z</time></trkpt><trkpt lat="45.69814866628493" lon="12.906745268990054"><ele>-1.3333333333333333</ele><time>2026-05-01T08:50:54.971Z</time></trkpt><trkpt lat="45.698190132163965" lon="12.906968081646085"><ele>-1.0</ele><time>2026-05-01T08:50:55.971Z</time></trkpt><trkpt lat="45.69823331954789" lon="12.907190084387395"><ele>-1.0</ele><time>2026-05-01T08:50:56.971Z</time></trkpt><trkpt lat="45.69827487723444" lon="12.907409206111677"><ele>-1.0</ele><time>2026-05-01T08:50:57.971Z</time></trkpt><trkpt lat="45.698315406775414" lon="12.90762562602879"><ele>-1.0</ele><time>2026-05-01T08:50:58.971Z</time></trkpt><trkpt lat="45.698356749501315" lon="12.907843339988725"><ele>-1.3333333333333333</ele><time>2026-05-01T08:50:59.971Z</time></trkpt><trkpt lat="45.698394230273486" lon="12.908060184921014"><ele>-1.6666666666666665</ele><time>2026-05-01T08:51:00.971Z</time></trkpt><trkpt lat="45.69843239750575" lon="12.908277821976586"><ele>-2.0</ele><time>2026-05-01T08:51:01.971Z</time></trkpt><trkpt lat="45.69847099393389" lon="12.908492641955714"><ele>-2.0</ele><time>2026-05-01T08:51:02.971Z</time></trkpt><trkpt lat="45.69850956465089" lon="12.90870771417161"><ele>-2.0</ele><time>2026-05-01T08:51:03.971Z</time></trkpt><trkpt lat="45.69854959189274" lon="12.90892294348736"><ele>-2.0</ele><time>2026-05-01T08:51:04.971Z</time></trkpt><trkpt lat="45.698589804284794" lon="12.90913375043603"><ele>-2.0</ele><time>2026-05-01T08:51:05.971Z</time></trkpt><trkpt lat="45.69863176864479" lon="12.909341481892435"><ele>-2.0</ele><time>2026-05-01T08:51:06.971Z</time></trkpt><trkpt lat="45.69867988046477" lon="12.909551646912805"><ele>-2.0</ele><time>2026-05-01T08:51:07.971Z</time></trkpt><trkpt lat="45.69873211740853" lon="12.909760837133122"><ele>-2.0</ele><time>2026-05-01T08:51:08.971Z</time></trkpt><trkpt lat="45.69878800835603" lon="12.909970209339242"><ele>-2.0</ele><time>2026-05-01T08:51:09.97Z</time></trkpt><trkpt lat="45.69885261282109" lon="12.910174175287878"><ele>-2.0</ele><time>2026-05-01T08:51:10.97Z</time></trkpt><trkpt lat="45.69892045722887" lon="12.910378325255696"><ele>-2.0</ele><time>2026-05-01T08:51:11.97Z</time></trkpt><trkpt lat="45.69898467799485" lon="12.910586256241716"><ele>-2.0</ele><time>2026-05-01T08:51:12.97Z</time></trkpt><trkpt lat="45.699051659925956" lon="12.910787451084449"><ele>-2.0</ele><time>2026-05-01T08:51:13.97Z</time></trkpt><trkpt lat="45.699117251236466" lon="12.910987331827855"><ele>-1.6666666666666665</ele><time>2026-05-01T08:51:14.97Z</time></trkpt><trkpt lat="45.69918771470507" lon="12.911183089264345"><ele>-1.3333333333333333</ele><time>2026-05-01T08:51:15.97Z</time></trkpt><trkpt lat="45.69926316640269" lon="12.911381386516423"><ele>-1.0</ele><time>2026-05-01T08:51:16.97Z</time></trkpt><trkpt lat="45.699340269284505" lon="12.911573995996825"><ele>-1.6666666666666665</ele><time>2026-05-01T08:51:17.97Z</time></trkpt><trkpt lat="45.699426311247315" lon="12.911759762349401"><ele>-2.3333333333333335</ele><time>2026-05-01T08:51:18.97Z</time></trkpt><trkpt lat="45.699517596411816" lon="12.911942529831927"><ele>-3.0</ele><time>2026-05-01T08:51:19.972Z</time></trkpt><trkpt lat="45.69960669840554" lon="12.912123658303186"><ele>-3.0</ele><time>2026-05-01T08:51:20.972Z</time></trkpt><trkpt lat="45.69969664241578" lon="12.912305402992768"><ele>-3.0</ele><time>2026-05-01T08:51:21.972Z</time></trkpt><trkpt lat="45.69978406219259" lon="12.91249166248295"><ele>-3.0</ele><time>2026-05-01T08:51:22.972Z</time></trkpt><trkpt lat="45.69985732436331" lon="12.91268851402689"><ele>-2.6666666666666665</ele><time>2026-05-01T08:51:23.971Z</time></trkpt><trkpt lat="45.69991817722234" lon="12.912899657693952"><ele>-2.333333333333333</ele><time>2026-05-01T08:51:24.971Z</time></trkpt><trkpt lat="45.69997930058287" lon="12.913108912904956"><ele>-2.0</ele><time>2026-05-01T08:51:25.972Z</time></trkpt><trkpt lat="45.700056669351525" lon="12.91330430796254"><ele>-2.0</ele><time>2026-05-01T08:51:26.972Z</time></trkpt><trkpt lat="45.70013638686469" lon="12.91350048715179"><ele>-2.0</ele><time>2026-05-01T08:51:27.972Z</time></trkpt><trkpt lat="45.700202877518606" lon="12.913707838401224"><ele>-2.0</ele><time>2026-05-01T08:51:28.972Z</time></trkpt><trkpt lat="45.70025463476204" lon="12.913920885950454"><ele>-2.0</ele><time>2026-05-01T08:51:29.972Z</time></trkpt><trkpt lat="45.700279755699576" lon="12.914143802349203"><ele>-2.0</ele><time>2026-05-01T08:51:30.972Z</time></trkpt><trkpt lat="45.70028822882151" lon="12.914371343343372"><ele>-2.0</ele><time>2026-05-01T08:51:31.971Z</time></trkpt><trkpt lat="45.70029735978336" lon="12.9145948740515"><ele>-2.0</ele><time>2026-05-01T08:51:32.972Z</time></trkpt><trkpt lat="45.700296930932716" lon="12.914821730879641"><ele>-2.0</ele><time>2026-05-01T08:51:33.972Z</time></trkpt><trkpt lat="45.70030426684028" lon="12.91504578740306"><ele>-2.0</ele><time>2026-05-01T08:51:34.972Z</time></trkpt><trkpt lat="45.70030987034183" lon="12.915274781981115"><ele>-2.0</ele><time>2026-05-01T08:51:35.972Z</time></trkpt><trkpt lat="45.70031486800622" lon="12.915502539647582"><ele>-2.0</ele><time>2026-05-01T08:51:36.972Z</time></trkpt><trkpt lat="45.700323188245704" lon="12.915732425924007"><ele>-2.0</ele><time>2026-05-01T08:51:37.972Z</time></trkpt><trkpt lat="45.70033133759698" lon="12.91596172963692"><ele>-2.0</ele><time>2026-05-01T08:51:38.972Z</time></trkpt><trkpt lat="45.700341657179905" lon="12.916191036653982"><ele>-2.0</ele><time>2026-05-01T08:51:39.972Z</time></trkpt><trkpt lat="45.70035546953209" lon="12.916415593343785"><ele>-2.0</ele><time>2026-05-01T08:51:40.972Z</time></trkpt><trkpt lat="45.700372621203314" lon="12.916628189637647"><ele>-2.25</ele><time>2026-05-01T08:51:41.972Z</time></trkpt><trkpt lat="45.70039477232121" lon="12.91684161814851"><ele>-2.5</ele><time>2026-05-01T08:51:42.972Z</time></trkpt><trkpt lat="45.700419833174195" lon="12.917052846423271"><ele>-2.75</ele><time>2026-05-01T08:51:43.972Z</time></trkpt><trkpt lat="45.700449609285066" lon="12.917256310578672"><ele>-3.0</ele><time>2026-05-01T08:51:44.972Z</time></trkpt><trkpt lat="45.70047855973324" lon="12.917442450132954"><ele>-3.0</ele><time>2026-05-01T08:51:45.972Z</time></trkpt><trkpt lat="45.70050813983271" lon="12.917614291035251"><ele>-3.0</ele><time>2026-05-01T08:51:46.972Z</time></trkpt><trkpt lat="45.70053700017479" lon="12.91776307590219"><ele>-3.0</ele><time>2026-05-01T08:51:47.972Z</time></trkpt><trkpt lat="45.70056143235428" lon="12.917882517614496"><ele>-3.0</ele><time>2026-05-01T08:51:48.972Z</time></trkpt><trkpt lat="45.70057775587021" lon="12.917980091091492"><ele>-3.0</ele><time>2026-05-01T08:51:49.972Z</time></trkpt><trkpt lat="45.70056559567175" lon="12.918142185983582"><ele>-3.0</ele><time>2026-05-01T08:51:51.971Z</time></trkpt><trkpt lat="45.70052815849278" lon="12.918225568843232"><ele>-3.0</ele><time>2026-05-01T08:51:52.971Z</time></trkpt><trkpt lat="45.70047295683145" lon="12.918313358347183"><ele>-3.0</ele><time>2026-05-01T08:51:53.971Z</time></trkpt><trkpt lat="45.70040377417614" lon="12.918395923257766"><ele>-3.0</ele><time>2026-05-01T08:51:54.971Z</time></trkpt><trkpt lat="45.7003229451952" lon="12.918485226140922"><ele>-3.0</ele><time>2026-05-01T08:51:55.971Z</time></trkpt><trkpt lat="45.70023625812051" lon="12.918586057225692"><ele>-2.75</ele><time>2026-05-01T08:51:56.971Z</time></trkpt><trkpt lat="45.70013590524262" lon="12.918679852307092"><ele>-2.5</ele><time>2026-05-01T08:51:57.971Z</time></trkpt><trkpt lat="45.700030466651945" lon="12.918775525646844"><ele>-2.25</ele><time>2026-05-01T08:51:58.971Z</time></trkpt><trkpt lat="45.69993430546582" lon="12.918900865810164"><ele>-2.0</ele><time>2026-05-01T08:51:59.971Z</time></trkpt><trkpt lat="45.69982914229069" lon="12.919016309374276"><ele>-2.0</ele><time>2026-05-01T08:52:00.971Z</time></trkpt><trkpt lat="45.69971995771579" lon="12.919140876170768"><ele>-2.0</ele><time>2026-05-01T08:52:01.971Z</time></trkpt><trkpt lat="45.69961276058251" lon="12.919265674163343"><ele>-2.0</ele><time>2026-05-01T08:52:02.971Z</time></trkpt><trkpt lat="45.69950526501132" lon="12.919399730191492"><ele>-2.0</ele><time>2026-05-01T08:52:03.971Z</time></trkpt><trkpt lat="45.69940091824401" lon="12.919543959183788"><ele>-2.0</ele><time>2026-05-01T08:52:04.971Z</time></trkpt><trkpt lat="45.69929900141006" lon="12.919694452686105"><ele>-2.0</ele><time>2026-05-01T08:52:05.971Z</time></trkpt><trkpt lat="45.69919803884112" lon="12.919836186993974"><ele>-2.0</ele><time>2026-05-01T08:52:06.971Z</time></trkpt><trkpt lat="45.6990974505513" lon="12.919972502571062"><ele>-2.0</ele><time>2026-05-01T08:52:07.971Z</time></trkpt><trkpt lat="45.698988664734586" lon="12.920086183104418"><ele>-2.0</ele><time>2026-05-01T08:52:08.971Z</time></trkpt><trkpt lat="45.69889520692752" lon="12.92021794396127"><ele>-2.0</ele><time>2026-05-01T08:52:09.971Z</time></trkpt><trkpt lat="45.69878211433794" lon="12.920317579395224"><ele>-2.0</ele><time>2026-05-01T08:52:10.971Z</time></trkpt><trkpt lat="45.6986592607737" lon="12.920398560346888"><ele>-2.0</ele><time>2026-05-01T08:52:11.971Z</time></trkpt><trkpt lat="45.69853133700852" lon="12.920457847731123"><ele>-2.0</ele><time>2026-05-01T08:52:12.971Z</time></trkpt><trkpt lat="45.698400537054056" lon="12.920513486092602"><ele>-2.0</ele><time>2026-05-01T08:52:13.971Z</time></trkpt><trkpt lat="45.698276737573636" lon="12.92058961466166"><ele>-2.0</ele><time>2026-05-01T08:52:14.971Z</time></trkpt><trkpt lat="45.69816045104743" lon="12.92071038913404"><ele>-2.0</ele><time>2026-05-01T08:52:15.971Z</time></trkpt><trkpt lat="45.698056891649074" lon="12.92084096654548"><ele>-2.0</ele><time>2026-05-01T08:52:16.971Z</time></trkpt><trkpt lat="45.697963288252424" lon="12.920968926280018"><ele>-2.0</ele><time>2026-05-01T08:52:17.971Z</time></trkpt><trkpt lat="45.69786827027051" lon="12.921099218253289"><ele>-2.0</ele><time>2026-05-01T08:52:18.971Z</time></trkpt><trkpt lat="45.69776631954853" lon="12.921212742118785"><ele>-2.0</ele><time>2026-05-01T08:52:19.971Z</time></trkpt><trkpt lat="45.69766216738433" lon="12.921325023918811"><ele>-1.8</ele><time>2026-05-01T08:52:20.971Z</time></trkpt><trkpt lat="45.69756258520563" lon="12.921428874746217"><ele>-1.6</ele><time>2026-05-01T08:52:21.971Z</time></trkpt><trkpt lat="45.697462512753354" lon="12.921526869926774"><ele>-1.4000000000000001</ele><time>2026-05-01T08:52:22.971Z</time></trkpt><trkpt lat="45.697375636438736" lon="12.921614935144083"><ele>-1.2000000000000002</ele><time>2026-05-01T08:52:23.971Z</time></trkpt><trkpt lat="45.69729248799119" lon="12.92167033108963"><ele>-1.0</ele><time>2026-05-01T08:52:24.971Z</time></trkpt><trkpt lat="45.69724357499197" lon="12.921751298740842"><ele>-1.0</ele><time>2026-05-01T08:52:25.971Z</time></trkpt><trkpt lat="45.69718860207253" lon="12.921820415691837"><ele>-1.0</ele><time>2026-05-01T08:52:27.971Z</time></trkpt><trkpt lat="45.6971101700861" lon="12.921720831675731"><ele>-1.0</ele><time>2026-05-01T08:52:29.971Z</time></trkpt><trkpt lat="45.69703275427325" lon="12.921575412884957"><ele>-1.0</ele><time>2026-05-01T08:52:31.971Z</time></trkpt><trkpt lat="45.696990093623704" lon="12.921479004619462"><ele>-1.0</ele><time>2026-05-01T08:52:32.971Z</time></trkpt><trkpt lat="45.69695648226709" lon="12.921355758087685"><ele>-1.0</ele><time>2026-05-01T08:52:33.971Z</time></trkpt><trkpt lat="45.696906692489115" lon="12.921228300582674"><ele>-1.0</ele><time>2026-05-01T08:52:34.971Z</time></trkpt><trkpt lat="45.6968509054429" lon="12.921099000990065"><ele>-1.0</ele><time>2026-05-01T08:52:35.971Z</time></trkpt><trkpt lat="45.696792627969295" lon="12.920962014220446"><ele>-1.0</ele><time>2026-05-01T08:52:36.971Z</time></trkpt><trkpt lat="45.696727933218554" lon="12.92081729289019"><ele>-1.0</ele><time>2026-05-01T08:52:37.971Z</time></trkpt><trkpt lat="45.69666204625011" lon="12.9206669285559"><ele>-1.25</ele><time>2026-05-01T08:52:38.971Z</time></trkpt><trkpt lat="45.69659253989806" lon="12.92051397104015"><ele>-1.5</ele><time>2026-05-01T08:52:39.971Z</time></trkpt><trkpt lat="45.69652296171522" lon="12.920351043208575"><ele>-1.75</ele><time>2026-05-01T08:52:40.971Z</time></trkpt><trkpt lat="45.69646556792368" lon="12.920180271330802"><ele>-2.0</ele><time>2026-05-01T08:52:41.971Z</time></trkpt><trkpt lat="45.696394399412206" lon="12.920011126621874"><ele>-2.0</ele><time>2026-05-01T08:52:42.971Z</time></trkpt><trkpt lat="45.696320998852485" lon="12.919838414309762"><ele>-2.0</ele><time>2026-05-01T08:52:43.971Z</time></trkpt><trkpt lat="45.6962471425753" lon="12.919662743620936"><ele>-2.0</ele><time>2026-05-01T08:52:44.971Z</time></trkpt><trkpt lat="45.69617173001062" lon="12.919483709573965"><ele>-2.0</ele><time>2026-05-01T08:52:45.971Z</time></trkpt><trkpt lat="45.69609352923558" lon="12.919307121706387"><ele>-2.0</ele><time>2026-05-01T08:52:46.971Z</time></trkpt><trkpt lat="45.69601510845356" lon="12.919138422230816"><ele>-2.0</ele><time>2026-05-01T08:52:47.971Z</time></trkpt><trkpt lat="45.69595101007574" lon="12.918976974793758"><ele>-2.0</ele><time>2026-05-01T08:52:48.971Z</time></trkpt><trkpt lat="45.69589112256751" lon="12.918826252149197"><ele>-2.0</ele><time>2026-05-01T08:52:49.971Z</time></trkpt><trkpt lat="45.69583474235625" lon="12.91868804185856"><ele>-1.9999999999999998</ele><time>2026-05-01T08:52:50.971Z</time></trkpt><trkpt lat="45.69578558484353" lon="12.918573754159434"><ele>-2.0</ele><time>2026-05-01T08:52:51.971Z</time></trkpt><trkpt lat="45.69574810950365" lon="12.91849735386367"><ele>-2.0</ele><time>2026-05-01T08:52:52.971Z</time></trkpt><trkpt lat="45.695673087949345" lon="12.918459885748126"><ele>-2.0</ele><time>2026-05-01T08:52:55.971Z</time></trkpt><trkpt lat="45.69560426956695" lon="12.918414536782365"><ele>-1.9999999999999998</ele><time>2026-05-01T08:52:57.971Z</time></trkpt><trkpt lat="45.69550956285398" lon="12.918519391074408"><ele>-2.0</ele><time>2026-05-01T08:52:58.971Z</time></trkpt><trkpt lat="45.69543333232577" lon="12.918511977653303"><ele>-2.0</ele><time>2026-05-01T08:52:59.971Z</time></trkpt><trkpt lat="45.6953497760647" lon="12.918532793688858"><ele>-2.0</ele><time>2026-05-01T08:53:00.971Z</time></trkpt><trkpt lat="45.69526166628271" lon="12.918557715834163"><ele>-2.0</ele><time>2026-05-01T08:53:01.971Z</time></trkpt><trkpt lat="45.695178888753745" lon="12.918594486953033"><ele>-2.0</ele><time>2026-05-01T08:53:02.971Z</time></trkpt><trkpt lat="45.6950875659647" lon="12.918616665474714"><ele>-2.0</ele><time>2026-05-01T08:53:03.971Z</time></trkpt><trkpt lat="45.694990722402544" lon="12.91864122833188"><ele>-2.2</ele><time>2026-05-01T08:53:04.971Z</time></trkpt><trkpt lat="45.694889088105135" lon="12.918667239135114"><ele>-2.4000000000000004</ele><time>2026-05-01T08:53:05.971Z</time></trkpt><trkpt lat="45.69478257749449" lon="12.918691611476875"><ele>-2.5999999999999996</ele><time>2026-05-01T08:53:06.971Z</time></trkpt><trkpt lat="45.69467248365303" lon="12.918719692436333"><ele>-2.8</ele><time>2026-05-01T08:53:07.97Z</time></trkpt><trkpt lat="45.6945607888752" lon="12.918748848413165"><ele>-3.0</ele><time>2026-05-01T08:53:08.97Z</time></trkpt><trkpt lat="45.69445150459637" lon="12.918758600086514"><ele>-2.75</ele><time>2026-05-01T08:53:09.97Z</time></trkpt><trkpt lat="45.694340560354426" lon="12.918784170748527"><ele>-2.5</ele><time>2026-05-01T08:53:10.97Z</time></trkpt><trkpt lat="45.69422889538065" lon="12.918812920367271"><ele>-2.25</ele><time>2026-05-01T08:53:11.97Z</time></trkpt><trkpt lat="45.694115562658176" lon="12.918841812293554"><ele>-2.0</ele><time>2026-05-01T08:53:12.97Z</time></trkpt><trkpt lat="45.69400448345165" lon="12.918869051758229"><ele>-2.0</ele><time>2026-05-01T08:53:13.97Z</time></trkpt><trkpt lat="45.69389289715772" lon="12.918896128443839"><ele>-2.0</ele><time>2026-05-01T08:53:14.97Z</time></trkpt><trkpt lat="45.69378032498257" lon="12.918922992596544"><ele>-2.0</ele><time>2026-05-01T08:53:15.97Z</time></trkpt><trkpt lat="45.69366401534202" lon="12.918945122017941"><ele>-2.0</ele><time>2026-05-01T08:53:16.97Z</time></trkpt><trkpt lat="45.693549337649856" lon="12.918968336881319"><ele>-1.75</ele><time>2026-05-01T08:53:17.97Z</time></trkpt><trkpt lat="45.69343429057885" lon="12.918997774623334"><ele>-1.5</ele><time>2026-05-01T08:53:18.97Z</time></trkpt><trkpt lat="45.693320402986764" lon="12.919027490134956"><ele>-1.25</ele><time>2026-05-01T08:53:19.97Z</time></trkpt><trkpt lat="45.69320475550106" lon="12.919057150072987"><ele>-1.0</ele><time>2026-05-01T08:53:20.97Z</time></trkpt><trkpt lat="45.69308801669542" lon="12.919086331096473"><ele>-1.0</ele><time>2026-05-01T08:53:21.97Z</time></trkpt><trkpt lat="45.69297281894749" lon="12.91911778806602"><ele>-1.0</ele><time>2026-05-01T08:53:22.97Z</time></trkpt><trkpt lat="45.69286173212836" lon="12.919143719089181"><ele>-1.0</ele><time>2026-05-01T08:53:23.97Z</time></trkpt><trkpt lat="45.692744941590945" lon="12.919175435113695"><ele>-1.0</ele><time>2026-05-01T08:53:24.97Z</time></trkpt><trkpt lat="45.692630718879045" lon="12.919207869685192"><ele>-1.25</ele><time>2026-05-01T08:53:25.972Z</time></trkpt><trkpt lat="45.69251771131242" lon="12.919237980729912"><ele>-1.5</ele><time>2026-05-01T08:53:26.971Z</time></trkpt><trkpt lat="45.69240254064277" lon="12.919266491143656"><ele>-1.75</ele><time>2026-05-01T08:53:27.971Z</time></trkpt><trkpt lat="45.6922874094155" lon="12.919292371848679"><ele>-2.0</ele><time>2026-05-01T08:53:28.971Z</time></trkpt><trkpt lat="45.69216730924093" lon="12.919324585008452"><ele>-2.0</ele><time>2026-05-01T08:53:29.971Z</time></trkpt><trkpt lat="45.69205441059353" lon="12.91934784603259"><ele>-2.0</ele><time>2026-05-01T08:53:30.971Z</time></trkpt><trkpt lat="45.69193778002716" lon="12.919378621842915"><ele>-2.0</ele><time>2026-05-01T08:53:31.972Z</time></trkpt><trkpt lat="45.691820993033566" lon="12.91940719784968"><ele>-2.0</ele><time>2026-05-01T08:53:32.972Z</time></trkpt><trkpt lat="45.69170306027786" lon="12.919438621533622"><ele>-1.75</ele><time>2026-05-01T08:53:33.972Z</time></trkpt><trkpt lat="45.69158276341702" lon="12.919469057107634"><ele>-1.5</ele><time>2026-05-01T08:53:34.972Z</time></trkpt><trkpt lat="45.691459780974235" lon="12.91950029545342"><ele>-1.25</ele><time>2026-05-01T08:53:35.972Z</time></trkpt><trkpt lat="45.691336644153274" lon="12.919528995641794"><ele>-1.0</ele><time>2026-05-01T08:53:36.972Z</time></trkpt><trkpt lat="45.6912120994186" lon="12.919561126654095"><ele>-1.75</ele><time>2026-05-01T08:53:37.972Z</time></trkpt><trkpt lat="45.6910881252075" lon="12.91959250639166"><ele>-2.5</ele><time>2026-05-01T08:53:38.972Z</time></trkpt><trkpt lat="45.69096481499957" lon="12.919599484716723"><ele>-3.25</ele><time>2026-05-01T08:53:39.972Z</time></trkpt><trkpt lat="45.690836582690956" lon="12.919635829597897"><ele>-4.0</ele><time>2026-05-01T08:53:40.972Z</time></trkpt><trkpt lat="45.690711085649674" lon="12.919659019251556"><ele>-4.0</ele><time>2026-05-01T08:53:41.972Z</time></trkpt><trkpt lat="45.69058131789583" lon="12.9196963787397"><ele>-4.0</ele><time>2026-05-01T08:53:42.973Z</time></trkpt><trkpt lat="45.690448417444465" lon="12.919728412120843"><ele>-4.0</ele><time>2026-05-01T08:53:43.973Z</time></trkpt><trkpt lat="45.69031788786295" lon="12.919759027738563"><ele>-4.0</ele><time>2026-05-01T08:53:44.973Z</time></trkpt><trkpt lat="45.690179301263676" lon="12.91979265542164"><ele>-3.75</ele><time>2026-05-01T08:53:45.973Z</time></trkpt><trkpt lat="45.69003950190006" lon="12.919828894846294"><ele>-3.5</ele><time>2026-05-01T08:53:46.973Z</time></trkpt><trkpt lat="45.68990446625647" lon="12.919864996892208"><ele>-3.25</ele><time>2026-05-01T08:53:47.973Z</time></trkpt><trkpt lat="45.689773955453624" lon="12.919894038074473"><ele>-3.0</ele><time>2026-05-01T08:53:48.973Z</time></trkpt><trkpt lat="45.68964337902087" lon="12.919923107667502"><ele>-3.0</ele><time>2026-05-01T08:53:49.973Z</time></trkpt><trkpt lat="45.689514073685864" lon="12.91995560079193"><ele>-3.0</ele><time>2026-05-01T08:53:50.973Z</time></trkpt><trkpt lat="45.6893827507938" lon="12.919989983242665"><ele>-3.0</ele><time>2026-05-01T08:53:51.973Z</time></trkpt><trkpt lat="45.689249726322544" lon="12.920025128725769"><ele>-3.0</ele><time>2026-05-01T08:53:52.973Z</time></trkpt><trkpt lat="45.689120370091885" lon="12.920057653459956"><ele>-3.0</ele><time>2026-05-01T08:53:53.973Z</time></trkpt><trkpt lat="45.68898881411953" lon="12.92009111290665"><ele>-3.0</ele><time>2026-05-01T08:53:54.973Z</time></trkpt><trkpt lat="45.68885412810801" lon="12.920125841929794"><ele>-3.0</ele><time>2026-05-01T08:53:55.973Z</time></trkpt><trkpt lat="45.68871700636984" lon="12.920163208042839"><ele>-3.0</ele><time>2026-05-01T08:53:56.973Z</time></trkpt><trkpt lat="45.68858156246076" lon="12.92019950996609"><ele>-3.0</ele><time>2026-05-01T08:53:57.974Z</time></trkpt><trkpt lat="45.688447135316196" lon="12.92022686757425"><ele>-3.0</ele><time>2026-05-01T08:53:58.974Z</time></trkpt><trkpt lat="45.68831535609125" lon="12.920258093779164"><ele>-3.0</ele><time>2026-05-01T08:53:59.974Z</time></trkpt><trkpt lat="45.6881945842523" lon="12.920286837501525"><ele>-3.0</ele><time>2026-05-01T08:54:00.974Z</time></trkpt><trkpt lat="45.6880766786928" lon="12.920322935840634"><ele>-3.0</ele><time>2026-05-01T08:54:01.974Z</time></trkpt><trkpt lat="45.68796363529116" lon="12.92035372128958"><ele>-3.0</ele><time>2026-05-01T08:54:02.974Z</time></trkpt><trkpt lat="45.687857990722165" lon="12.920374072451132"><ele>-3.0</ele><time>2026-05-01T08:54:03.974Z</time></trkpt><trkpt lat="45.687762574946106" lon="12.92038933526658"><ele>-3.0</ele><time>2026-05-01T08:54:04.974Z</time></trkpt><trkpt lat="45.68766719976338" lon="12.920412454786446"><ele>-3.0</ele><time>2026-05-01T08:54:05.974Z</time></trkpt><trkpt lat="45.6875743984049" lon="12.92043601815995"><ele>-3.0</ele><time>2026-05-01T08:54:06.974Z</time></trkpt><trkpt lat="45.68747627788229" lon="12.92046395186116"><ele>-3.0</ele><time>2026-05-01T08:54:07.974Z</time></trkpt><trkpt lat="45.68737768334058" lon="12.920489845999118"><ele>-3.0</ele><time>2026-05-01T08:54:08.974Z</time></trkpt><trkpt lat="45.68727641025664" lon="12.920516649349672"><ele>-3.0</ele><time>2026-05-01T08:54:09.974Z</time></trkpt><trkpt lat="45.68717489445523" lon="12.920540334926812"><ele>-3.0</ele><time>2026-05-01T08:54:10.974Z</time></trkpt><trkpt lat="45.68707000955755" lon="12.92056359651352"><ele>-3.0</ele><time>2026-05-01T08:54:11.974Z</time></trkpt><trkpt lat="45.68696535812673" lon="12.920587256276837"><ele>-3.0</ele><time>2026-05-01T08:54:12.974Z</time></trkpt><trkpt lat="45.686860726301205" lon="12.92061463588367"><ele>-3.0</ele><time>2026-05-01T08:54:13.974Z</time></trkpt><trkpt lat="45.68675681346995" lon="12.920639742399997"><ele>-3.0</ele><time>2026-05-01T08:54:14.974Z</time></trkpt><trkpt lat="45.686646241440776" lon="12.920644899517717"><ele>-3.0</ele><time>2026-05-01T08:54:15.974Z</time></trkpt><trkpt lat="45.686545102230674" lon="12.9206645094855"><ele>-3.0</ele><time>2026-05-01T08:54:16.974Z</time></trkpt><trkpt lat="45.68645410203702" lon="12.92068125542021"><ele>-3.0</ele><time>2026-05-01T08:54:17.974Z</time></trkpt><trkpt lat="45.68636648557393" lon="12.920697397339396"><ele>-3.0</ele><time>2026-05-01T08:54:18.974Z</time></trkpt><trkpt lat="45.68629506813006" lon="12.920711674916822"><ele>-3.0</ele><time>2026-05-01T08:54:19.974Z</time></trkpt><trkpt lat="45.68623138541694" lon="12.92072616622858"><ele>-3.0</ele><time>2026-05-01T08:54:20.974Z</time></trkpt><trkpt lat="45.68614236551576" lon="12.920769401102726"><ele>-3.0</ele><time>2026-05-01T08:54:22.974Z</time></trkpt><trkpt lat="45.68607707937132" lon="12.920796240454495"><ele>-3.0</ele><time>2026-05-01T08:54:24.974Z</time></trkpt><trkpt lat="45.68602678038759" lon="12.920868755511922"><ele>-3.0</ele><time>2026-05-01T08:54:27.974Z</time></trkpt><trkpt lat="45.68600265639979" lon="12.920970117092944"><ele>-3.0</ele><time>2026-05-01T08:54:29.974Z</time></trkpt><trkpt lat="45.68603951281607" lon="12.921059130674506"><ele>-3.0</ele><time>2026-05-01T08:54:30.974Z</time></trkpt><trkpt lat="45.68605305097686" lon="12.92119925367542"><ele>-3.0</ele><time>2026-05-01T08:54:32.974Z</time></trkpt><trkpt lat="45.686072748355855" lon="12.92137391502164"><ele>-3.0</ele><time>2026-05-01T08:54:34.974Z</time></trkpt><trkpt lat="45.686095692890234" lon="12.921556925567835"><ele>-3.0</ele><time>2026-05-01T08:54:36.974Z</time></trkpt><trkpt lat="45.686106787704574" lon="12.921659389422969"><ele>-3.0</ele><time>2026-05-01T08:54:37.974Z</time></trkpt><trkpt lat="45.68611905624059" lon="12.921772495790925"><ele>-3.0</ele><time>2026-05-01T08:54:38.974Z</time></trkpt><trkpt lat="45.68613006291475" lon="12.921891320761224"><ele>-3.0</ele><time>2026-05-01T08:54:39.974Z</time></trkpt><trkpt lat="45.68614608120697" lon="12.922014214836803"><ele>-3.0</ele><time>2026-05-01T08:54:40.974Z</time></trkpt><trkpt lat="45.68615841382885" lon="12.922136547410798"><ele>-3.0</ele><time>2026-05-01T08:54:41.974Z</time></trkpt><trkpt lat="45.68617291234649" lon="12.922261635688722"><ele>-2.8333333333333335</ele><time>2026-05-01T08:54:42.974Z</time></trkpt><trkpt lat="45.68618525227093" lon="12.922387090284692"><ele>-2.6666666666666665</ele><time>2026-05-01T08:54:43.974Z</time></trkpt><trkpt lat="45.686199226576754" lon="12.922510977445192"><ele>-2.5</ele><time>2026-05-01T08:54:44.974Z</time></trkpt><trkpt lat="45.68621750817881" lon="12.92263195090093"><ele>-2.333333333333333</ele><time>2026-05-01T08:54:45.974Z</time></trkpt><trkpt lat="45.6862307406" lon="12.922756481111614"><ele>-2.1666666666666665</ele><time>2026-05-01T08:54:46.974Z</time></trkpt><trkpt lat="45.68624401207827" lon="12.922879356315212"><ele>-2.0</ele><time>2026-05-01T08:54:47.974Z</time></trkpt><trkpt lat="45.68626115463368" lon="12.92300299264647"><ele>-1.8</ele><time>2026-05-01T08:54:48.974Z</time></trkpt><trkpt lat="45.68627765021046" lon="12.923131829362417"><ele>-1.6</ele><time>2026-05-01T08:54:49.974Z</time></trkpt><trkpt lat="45.68629543036153" lon="12.92326373742099"><ele>-1.4000000000000001</ele><time>2026-05-01T08:54:50.974Z</time></trkpt><trkpt lat="45.6863121373387" lon="12.923401122666865"><ele>-1.2000000000000002</ele><time>2026-05-01T08:54:51.974Z</time></trkpt><trkpt lat="45.686331612791506" lon="12.923549017888044"><ele>-1.0</ele><time>2026-05-01T08:54:52.974Z</time></trkpt><trkpt lat="45.68634829910377" lon="12.92370407978544"><ele>-1.0</ele><time>2026-05-01T08:54:53.973Z</time></trkpt><trkpt lat="45.68636377988671" lon="12.92385847280535"><ele>-1.0</ele><time>2026-05-01T08:54:54.973Z</time></trkpt><trkpt lat="45.686383354813444" lon="12.924008717779866"><ele>-1.0</ele><time>2026-05-01T08:54:55.973Z</time></trkpt><trkpt lat="45.686402659342804" lon="12.924160219706176"><ele>-1.0</ele><time>2026-05-01T08:54:56.973Z</time></trkpt><trkpt lat="45.68641878854759" lon="12.924309331200309"><ele>-1.0</ele><time>2026-05-01T08:54:57.973Z</time></trkpt><trkpt lat="45.68643739254332" lon="12.924461409049545"><ele>-1.2000000000000002</ele><time>2026-05-01T08:54:58.973Z</time></trkpt><trkpt lat="45.68645486003995" lon="12.924616908394455"><ele>-1.4000000000000001</ele><time>2026-05-01T08:54:59.973Z</time></trkpt><trkpt lat="45.68647409212244" lon="12.924769612039052"><ele>-1.6</ele><time>2026-05-01T08:55:00.973Z</time></trkpt><trkpt lat="45.68649156172342" lon="12.924917217589394"><ele>-1.8</ele><time>2026-05-01T08:55:01.973Z</time></trkpt><trkpt lat="45.686508416277505" lon="12.925053577881165"><ele>-2.0</ele><time>2026-05-01T08:55:02.973Z</time></trkpt><trkpt lat="45.68652491551034" lon="12.925173784164226"><ele>-1.9999999999999998</ele><time>2026-05-01T08:55:03.973Z</time></trkpt><trkpt lat="45.68655349823954" lon="12.925286205946287"><ele>-2.0</ele><time>2026-05-01T08:55:04.973Z</time></trkpt><trkpt lat="45.686585502180904" lon="12.925388384035276"><ele>-2.0</ele><time>2026-05-01T08:55:05.973Z</time></trkpt><trkpt lat="45.68662781156492" lon="12.925484010825794"><ele>-2.0</ele><time>2026-05-01T08:55:06.973Z</time></trkpt><trkpt lat="45.686687117585514" lon="12.925569922091956"><ele>-1.9999999999999998</ele><time>2026-05-01T08:55:07.973Z</time></trkpt><trkpt lat="45.68674436526634" lon="12.925654872328433"><ele>-2.0</ele><time>2026-05-01T08:55:08.973Z</time></trkpt><trkpt lat="45.68681627762659" lon="12.925725848711622"><ele>-1.9999999999999998</ele><time>2026-05-01T08:55:09.973Z</time></trkpt><trkpt lat="45.68689246357183" lon="12.92579455715847"><ele>-2.0</ele><time>2026-05-01T08:55:10.973Z</time></trkpt><trkpt lat="45.68696978916489" lon="12.925861603515253"><ele>-2.0</ele><time>2026-05-01T08:55:11.973Z</time></trkpt><trkpt lat="45.6870441648019" lon="12.925932752629079"><ele>-2.0</ele><time>2026-05-01T08:55:12.973Z</time></trkpt><trkpt lat="45.68711091558792" lon="12.926011486085908"><ele>-1.9999999999999998</ele><time>2026-05-01T08:55:13.973Z</time></trkpt><trkpt lat="45.687166622158735" lon="12.926100152581704"><ele>-2.0</ele><time>2026-05-01T08:55:14.973Z</time></trkpt><trkpt lat="45.68720914709748" lon="12.926194759691876"><ele>-2.0</ele><time>2026-05-01T08:55:15.973Z</time></trkpt><trkpt lat="45.68724258225918" lon="12.926296134679415"><ele>-2.0</ele><time>2026-05-01T08:55:16.973Z</time></trkpt><trkpt lat="45.68726671165717" lon="12.926414764858427"><ele>-2.0</ele><time>2026-05-01T08:55:17.973Z</time></trkpt><trkpt lat="45.68728028192264" lon="12.926543041554272"><ele>-2.0</ele><time>2026-05-01T08:55:18.973Z</time></trkpt><trkpt lat="45.687284539828944" lon="12.926684559527608"><ele>-2.0</ele><time>2026-05-01T08:55:19.973Z</time></trkpt><trkpt lat="45.687285415194694" lon="12.926832701439075"><ele>-2.0</ele><time>2026-05-01T08:55:20.973Z</time></trkpt><trkpt lat="45.68728505306943" lon="12.926985107599867"><ele>-2.0</ele><time>2026-05-01T08:55:21.973Z</time></trkpt><trkpt lat="45.6872823338986" lon="12.927136978067516"><ele>-2.0</ele><time>2026-05-01T08:55:22.973Z</time></trkpt><trkpt lat="45.6872806309313" lon="12.92729207468807"><ele>-2.0</ele><time>2026-05-01T08:55:23.973Z</time></trkpt><trkpt lat="45.68727789754439" lon="12.927447812403928"><ele>-2.0</ele><time>2026-05-01T08:55:24.973Z</time></trkpt><trkpt lat="45.68727645719137" lon="12.92760440061596"><ele>-2.0</ele><time>2026-05-01T08:55:25.973Z</time></trkpt><trkpt lat="45.68727685057731" lon="12.927754389608829"><ele>-2.0</ele><time>2026-05-01T08:55:26.973Z</time></trkpt><trkpt lat="45.6872764251415" lon="12.927901932040044"><ele>-2.0</ele><time>2026-05-01T08:55:27.973Z</time></trkpt><trkpt lat="45.68727539146504" lon="12.928046141932706"><ele>-2.0</ele><time>2026-05-01T08:55:28.973Z</time></trkpt><trkpt lat="45.687275612817004" lon="12.92819217881254"><ele>-2.0</ele><time>2026-05-01T08:55:29.973Z</time></trkpt><trkpt lat="45.6872753597487" lon="12.928345281958501"><ele>-2.2</ele><time>2026-05-01T08:55:30.973Z</time></trkpt><trkpt lat="45.68727415474342" lon="12.928498624373518"><ele>-2.4000000000000004</ele><time>2026-05-01T08:55:31.975Z</time></trkpt><trkpt lat="45.687275262458925" lon="12.92864722519229"><ele>-2.5999999999999996</ele><time>2026-05-01T08:55:32.975Z</time></trkpt><trkpt lat="45.68727567618506" lon="12.928796001131484"><ele>-2.8</ele><time>2026-05-01T08:55:33.975Z</time></trkpt><trkpt lat="45.68727569772833" lon="12.928949365845286"><ele>-3.0</ele><time>2026-05-01T08:55:34.975Z</time></trkpt><trkpt lat="45.687275892830854" lon="12.929102175749566"><ele>-2.8</ele><time>2026-05-01T08:55:35.974Z</time></trkpt><trkpt lat="45.68727607700908" lon="12.929255934962715"><ele>-2.5999999999999996</ele><time>2026-05-01T08:55:36.974Z</time></trkpt><trkpt lat="45.68727457262586" lon="12.929406362050695"><ele>-2.4000000000000004</ele><time>2026-05-01T08:55:37.974Z</time></trkpt><trkpt lat="45.68727288793928" lon="12.92955441794269"><ele>-2.2</ele><time>2026-05-01T08:55:38.974Z</time></trkpt><trkpt lat="45.68727377486819" lon="12.92970297170456"><ele>-2.0</ele><time>2026-05-01T08:55:39.974Z</time></trkpt><trkpt lat="45.687274062836764" lon="12.929849537277056"><ele>-2.0</ele><time>2026-05-01T08:55:40.974Z</time></trkpt><trkpt lat="45.687274131614956" lon="12.93000050929388"><ele>-2.0</ele><time>2026-05-01T08:55:41.974Z</time></trkpt><trkpt lat="45.687272590954414" lon="12.930150582124195"><ele>-2.0</ele><time>2026-05-01T08:55:42.974Z</time></trkpt><trkpt lat="45.68727125341813" lon="12.930299579364624"><ele>-2.0</ele><time>2026-05-01T08:55:43.974Z</time></trkpt><trkpt lat="45.6872697655951" lon="12.930448696045856"><ele>-2.0</ele><time>2026-05-01T08:55:44.974Z</time></trkpt><trkpt lat="45.68727012787705" lon="12.930593551889489"><ele>-1.9999999999999998</ele><time>2026-05-01T08:55:45.974Z</time></trkpt><trkpt lat="45.68726957534565" lon="12.93073328654032"><ele>-2.0</ele><time>2026-05-01T08:55:46.974Z</time></trkpt><trkpt lat="45.68726931650055" lon="12.93085561550756"><ele>-2.0</ele><time>2026-05-01T08:55:47.974Z</time></trkpt><trkpt lat="45.68726837444665" lon="12.930968406292642"><ele>-2.0</ele><time>2026-05-01T08:55:48.974Z</time></trkpt><trkpt lat="45.68726851230648" lon="12.931066210774144"><ele>-1.9999999999999998</ele><time>2026-05-01T08:55:49.974Z</time></trkpt><trkpt lat="45.68727156637083" lon="12.931203579447713"><ele>-2.0</ele><time>2026-05-01T08:55:51.974Z</time></trkpt><trkpt lat="45.68724675247705" lon="12.93129636384105"><ele>-2.0</ele><time>2026-05-01T08:55:55.974Z</time></trkpt><trkpt lat="45.68714527536249" lon="12.931270752185954"><ele>-2.0</ele><time>2026-05-01T08:55:57.974Z</time></trkpt><trkpt lat="45.68703827087119" lon="12.931293079735719"><ele>-2.0</ele><time>2026-05-01T08:55:59.974Z</time></trkpt><trkpt lat="45.68692989780372" lon="12.93128487853238"><ele>-2.0</ele><time>2026-05-01T08:56:01.974Z</time></trkpt><trkpt lat="45.68679937916992" lon="12.931283074199673"><ele>-1.6666666666666665</ele><time>2026-05-01T08:56:03.974Z</time></trkpt><trkpt lat="45.68672675721879" lon="12.931283035035536"><ele>-1.3333333333333333</ele><time>2026-05-01T08:56:04.974Z</time></trkpt><trkpt lat="45.68665688596283" lon="12.931283855370054"><ele>-1.0</ele><time>2026-05-01T08:56:05.974Z</time></trkpt><trkpt lat="45.68658388358713" lon="12.931288236257018"><ele>-0.6666666666666666</ele><time>2026-05-01T08:56:06.974Z</time></trkpt><trkpt lat="45.68651077276688" lon="12.931288846614311"><ele>-0.3333333333333333</ele><time>2026-05-01T08:56:07.974Z</time></trkpt><trkpt lat="45.686431673620355" lon="12.931286717568295"><ele>0.0</ele><time>2026-05-01T08:56:08.974Z</time></trkpt><trkpt lat="45.686345179932026" lon="12.931286531448443"><ele>0.0</ele><time>2026-05-01T08:56:09.974Z</time></trkpt><trkpt lat="45.686255794889085" lon="12.931288402915076"><ele>0.0</ele><time>2026-05-01T08:56:10.974Z</time></trkpt><trkpt lat="45.686167016825685" lon="12.931291667051708"><ele>0.0</ele><time>2026-05-01T08:56:11.974Z</time></trkpt><trkpt lat="45.686073641574396" lon="12.931291097195215"><ele>0.0</ele><time>2026-05-01T08:56:12.974Z</time></trkpt><trkpt lat="45.68598210151068" lon="12.9312894817142"><ele>0.0</ele><time>2026-05-01T08:56:13.974Z</time></trkpt><trkpt lat="45.68588558323787" lon="12.931290712614485"><ele>0.0</ele><time>2026-05-01T08:56:14.974Z</time></trkpt><trkpt lat="45.685790232948285" lon="12.93126800950768"><ele>0.0</ele><time>2026-05-01T08:56:15.974Z</time></trkpt><trkpt lat="45.68569360262179" lon="12.93129125471334"><ele>0.0</ele><time>2026-05-01T08:56:16.974Z</time></trkpt><trkpt lat="45.685590961444454" lon="12.931289131156477"><ele>0.0</ele><time>2026-05-01T08:56:17.974Z</time></trkpt><trkpt lat="45.68548368784183" lon="12.931289855874311"><ele>0.0</ele><time>2026-05-01T08:56:18.974Z</time></trkpt><trkpt lat="45.6853734861671" lon="12.931290198275608"><ele>0.0</ele><time>2026-05-01T08:56:19.974Z</time></trkpt><trkpt lat="45.685262638890904" lon="12.93128688340865"><ele>0.0</ele><time>2026-05-01T08:56:20.974Z</time></trkpt><trkpt lat="45.68515071947719" lon="12.931286591421102"><ele>0.0</ele><time>2026-05-01T08:56:21.974Z</time></trkpt><trkpt lat="45.68505036406995" lon="12.931265780492664"><ele>0.0</ele><time>2026-05-01T08:56:22.974Z</time></trkpt><trkpt lat="45.68494491979546" lon="12.9312642124937"><ele>0.0</ele><time>2026-05-01T08:56:23.974Z</time></trkpt><trkpt lat="45.68484093216111" lon="12.931263271425408"><ele>-0.4</ele><time>2026-05-01T08:56:24.974Z</time></trkpt><trkpt lat="45.68473766486281" lon="12.931265013142898"><ele>-0.8</ele><time>2026-05-01T08:56:25.973Z</time></trkpt><trkpt lat="45.68463726849848" lon="12.931264016146283"><ele>-1.2000000000000002</ele><time>2026-05-01T08:56:26.973Z</time></trkpt><trkpt lat="45.684534433047894" lon="12.931264418431821"><ele>-1.6</ele><time>2026-05-01T08:56:27.973Z</time></trkpt><trkpt lat="45.68442971055535" lon="12.93126625422807"><ele>-2.0</ele><time>2026-05-01T08:56:28.973Z</time></trkpt><trkpt lat="45.68432500696297" lon="12.931267938623954"><ele>-2.0</ele><time>2026-05-01T08:56:29.973Z</time></trkpt><trkpt lat="45.6842153417537" lon="12.931269264560795"><ele>-2.0</ele><time>2026-05-01T08:56:30.973Z</time></trkpt><trkpt lat="45.6841109421885" lon="12.931267911435388"><ele>-2.0</ele><time>2026-05-01T08:56:31.973Z</time></trkpt><trkpt lat="45.68400709541519" lon="12.931268920068563"><ele>-2.0</ele><time>2026-05-01T08:56:32.973Z</time></trkpt><trkpt lat="45.68389788199844" lon="12.93126883153373"><ele>-2.0</ele><time>2026-05-01T08:56:33.973Z</time></trkpt><trkpt lat="45.68379503664065" lon="12.931265785976654"><ele>-2.0</ele><time>2026-05-01T08:56:34.973Z</time></trkpt><trkpt lat="45.683692695557625" lon="12.931266771719807"><ele>-2.0</ele><time>2026-05-01T08:56:35.973Z</time></trkpt><trkpt lat="45.683592614187766" lon="12.931265797046235"><ele>-2.0</ele><time>2026-05-01T08:56:36.973Z</time></trkpt><trkpt lat="45.683487766478926" lon="12.931268021238123"><ele>-2.0</ele><time>2026-05-01T08:56:37.973Z</time></trkpt><trkpt lat="45.68338480021727" lon="12.931265505873888"><ele>-2.0</ele><time>2026-05-01T08:56:38.973Z</time></trkpt><trkpt lat="45.68328051846702" lon="12.931262846220823"><ele>-1.4000000000000001</ele><time>2026-05-01T08:56:39.973Z</time></trkpt><trkpt lat="45.6831732308286" lon="12.931262692763488"><ele>-0.8000000000000002</ele><time>2026-05-01T08:56:40.973Z</time></trkpt><trkpt lat="45.68306895334706" lon="12.931258291075103"><ele>-0.19999999999999996</ele><time>2026-05-01T08:56:41.973Z</time></trkpt><trkpt lat="45.68296464106458" lon="12.931259718190983"><ele>0.4</ele><time>2026-05-01T08:56:42.973Z</time></trkpt><trkpt lat="45.68285634353596" lon="12.931260460272942"><ele>1.0</ele><time>2026-05-01T08:56:43.973Z</time></trkpt><trkpt lat="45.68274952239566" lon="12.93125989505113"><ele>1.0</ele><time>2026-05-01T08:56:44.973Z</time></trkpt><trkpt lat="45.682639562915796" lon="12.931261311632376"><ele>1.0</ele><time>2026-05-01T08:56:45.973Z</time></trkpt><trkpt lat="45.68252799454223" lon="12.9312623479935"><ele>1.0</ele><time>2026-05-01T08:56:46.973Z</time></trkpt><trkpt lat="45.6824234158237" lon="12.931265871727895"><ele>1.0</ele><time>2026-05-01T08:56:47.973Z</time></trkpt><trkpt lat="45.68231379916834" lon="12.931264800296761"><ele>1.0</ele><time>2026-05-01T08:56:48.973Z</time></trkpt><trkpt lat="45.68220490128022" lon="12.931244528677247"><ele>1.0</ele><time>2026-05-01T08:56:49.973Z</time></trkpt><trkpt lat="45.68209827805361" lon="12.931241253347954"><ele>1.0</ele><time>2026-05-01T08:56:50.973Z</time></trkpt><trkpt lat="45.68199089438715" lon="12.931243050097398"><ele>1.0</ele><time>2026-05-01T08:56:51.973Z</time></trkpt><trkpt lat="45.681881696008595" lon="12.931243399040419"><ele>1.0</ele><time>2026-05-01T08:56:52.973Z</time></trkpt><trkpt lat="45.68177107089884" lon="12.931243706644846"><ele>1.0</ele><time>2026-05-01T08:56:53.973Z</time></trkpt><trkpt lat="45.681658664589456" lon="12.931246737990016"><ele>0.25</ele><time>2026-05-01T08:56:54.973Z</time></trkpt><trkpt lat="45.68154465677266" lon="12.931249014173067"><ele>-0.5</ele><time>2026-05-01T08:56:55.973Z</time></trkpt><trkpt lat="45.68142951176073" lon="12.931252425035494"><ele>-1.25</ele><time>2026-05-01T08:56:56.973Z</time></trkpt><trkpt lat="45.68131361041599" lon="12.931255025603543"><ele>-2.0</ele><time>2026-05-01T08:56:57.973Z</time></trkpt><trkpt lat="45.6811968768805" lon="12.931257857952575"><ele>-2.4000000000000004</ele><time>2026-05-01T08:56:58.973Z</time></trkpt><trkpt lat="45.6810832294017" lon="12.931259523610949"><ele>-2.8000000000000003</ele><time>2026-05-01T08:56:59.973Z</time></trkpt><trkpt lat="45.68097311798838" lon="12.931262219765234"><ele>-3.2</ele><time>2026-05-01T08:57:00.973Z</time></trkpt><trkpt lat="45.68086150987095" lon="12.931261738370544"><ele>-3.6</ele><time>2026-05-01T08:57:01.973Z</time></trkpt><trkpt lat="45.68075062976555" lon="12.931257884686746"><ele>-4.0</ele><time>2026-05-01T08:57:02.973Z</time></trkpt><trkpt lat="45.68064049429204" lon="12.931256356301699"><ele>-4.0</ele><time>2026-05-01T08:57:03.973Z</time></trkpt><trkpt lat="45.68053156619455" lon="12.93125575163765"><ele>-4.0</ele><time>2026-05-01T08:57:04.973Z</time></trkpt><trkpt lat="45.68042016351706" lon="12.931255871558191"><ele>-4.0</ele><time>2026-05-01T08:57:05.973Z</time></trkpt><trkpt lat="45.680308041946105" lon="12.93125533149765"><ele>-4.0</ele><time>2026-05-01T08:57:06.973Z</time></trkpt><trkpt lat="45.68019518512264" lon="12.931255452619874"><ele>-4.0</ele><time>2026-05-01T08:57:07.973Z</time></trkpt><trkpt lat="45.68008124171814" lon="12.931258012219496"><ele>-3.6</ele><time>2026-05-01T08:57:08.973Z</time></trkpt><trkpt lat="45.679967908779666" lon="12.931257591057513"><ele>-3.2</ele><time>2026-05-01T08:57:09.973Z</time></trkpt><trkpt lat="45.67985576947738" lon="12.931255438886453"><ele>-2.8000000000000003</ele><time>2026-05-01T08:57:10.973Z</time></trkpt><trkpt lat="45.679744922667126" lon="12.931253397192279"><ele>-2.4000000000000004</ele><time>2026-05-01T08:57:11.973Z</time></trkpt><trkpt lat="45.67963227678069" lon="12.931253657576098"><ele>-2.0</ele><time>2026-05-01T08:57:12.973Z</time></trkpt><trkpt lat="45.67951885169512" lon="12.931255115260878"><ele>-2.25</ele><time>2026-05-01T08:57:13.973Z</time></trkpt><trkpt lat="45.67940971704375" lon="12.931235527046976"><ele>-2.5</ele><time>2026-05-01T08:57:14.973Z</time></trkpt><trkpt lat="45.67929474588536" lon="12.93123533287521"><ele>-2.75</ele><time>2026-05-01T08:57:15.973Z</time></trkpt><trkpt lat="45.679178492093776" lon="12.931235309377751"><ele>-3.0</ele><time>2026-05-01T08:57:16.973Z</time></trkpt><trkpt lat="45.6790629441543" lon="12.931236324532556"><ele>-3.0</ele><time>2026-05-01T08:57:17.973Z</time></trkpt><trkpt lat="45.678948482160095" lon="12.931237037890174"><ele>-3.0</ele><time>2026-05-01T08:57:18.973Z</time></trkpt><trkpt lat="45.67883604371724" lon="12.931239358893432"><ele>-3.0</ele><time>2026-05-01T08:57:19.973Z</time></trkpt><trkpt lat="45.678727756811305" lon="12.93123839074493"><ele>-3.0</ele><time>2026-05-01T08:57:20.973Z</time></trkpt><trkpt lat="45.678625516666926" lon="12.931236243534078"><ele>-3.0</ele><time>2026-05-01T08:57:21.973Z</time></trkpt><trkpt lat="45.67852895658439" lon="12.931231431976412"><ele>-2.6</ele><time>2026-05-01T08:57:22.973Z</time></trkpt><trkpt lat="45.678437052412725" lon="12.931237691486878"><ele>-2.1999999999999997</ele><time>2026-05-01T08:57:23.973Z</time></trkpt><trkpt lat="45.6783511683531" lon="12.931238895063917"><ele>-1.8</ele><time>2026-05-01T08:57:24.973Z</time></trkpt><trkpt lat="45.67827326036755" lon="12.931240367939175"><ele>-1.4</ele><time>2026-05-01T08:57:25.973Z</time></trkpt><trkpt lat="45.67815266811066" lon="12.931235534401333"><ele>-1.0</ele><time>2026-05-01T08:57:27.973Z</time></trkpt><trkpt lat="45.67804084853731" lon="12.931236615092377"><ele>-0.9999999999999999</ele><time>2026-05-01T08:57:29.973Z</time></trkpt><trkpt lat="45.67795073337549" lon="12.931207626988037"><ele>-1.0</ele><time>2026-05-01T08:57:31.973Z</time></trkpt><trkpt lat="45.677875886676574" lon="12.931138212354186"><ele>-1.0</ele><time>2026-05-01T08:57:33.973Z</time></trkpt><trkpt lat="45.67781529278885" lon="12.931010877477366"><ele>-1.0</ele><time>2026-05-01T08:57:35.973Z</time></trkpt><trkpt lat="45.6777818985263" lon="12.930928023095102"><ele>-0.9999999999999999</ele><time>2026-05-01T08:57:36.973Z</time></trkpt><trkpt lat="45.67774705230064" lon="12.93084109028195"><ele>-1.0</ele><time>2026-05-01T08:57:37.974Z</time></trkpt><trkpt lat="45.677714670335575" lon="12.930749197931885"><ele>-1.3333333333333333</ele><time>2026-05-01T08:57:38.974Z</time></trkpt><trkpt lat="45.67768573263528" lon="12.930653339299418"><ele>-1.6666666666666665</ele><time>2026-05-01T08:57:39.974Z</time></trkpt><trkpt lat="45.677657400006595" lon="12.930555100671002"><ele>-2.0</ele><time>2026-05-01T08:57:40.974Z</time></trkpt><trkpt lat="45.67763137911538" lon="12.930457405795082"><ele>-2.3333333333333335</ele><time>2026-05-01T08:57:41.974Z</time></trkpt><trkpt lat="45.67761160393377" lon="12.93034921616862"><ele>-2.6666666666666665</ele><time>2026-05-01T08:57:42.974Z</time></trkpt><trkpt lat="45.6775966319646" lon="12.930239613305648"><ele>-3.0</ele><time>2026-05-01T08:57:43.974Z</time></trkpt><trkpt lat="45.67758380312978" lon="12.930131656803672"><ele>-2.6</ele><time>2026-05-01T08:57:44.974Z</time></trkpt><trkpt lat="45.677590374812276" lon="12.930018997716687"><ele>-2.1999999999999997</ele><time>2026-05-01T08:57:45.974Z</time></trkpt><trkpt lat="45.6775759007047" lon="12.929921577480739"><ele>-1.8</ele><time>2026-05-01T08:57:46.974Z</time></trkpt><trkpt lat="45.67753620670853" lon="12.929749946063362"><ele>-1.4</ele><time>2026-05-01T08:57:48.974Z</time></trkpt><trkpt lat="45.67750829154813" lon="12.929667520696128"><ele>-1.0</ele><time>2026-05-01T08:57:49.974Z</time></trkpt><trkpt lat="45.67744281718872" lon="12.929535895959061"><ele>-1.0</ele><time>2026-05-01T08:57:51.974Z</time></trkpt><trkpt lat="45.67736603637974" lon="12.929440972945754"><ele>-1.0</ele><time>2026-05-01T08:57:53.974Z</time></trkpt><trkpt lat="45.67726810422865" lon="12.929366216083459"><ele>-1.0</ele><time>2026-05-01T08:57:55.974Z</time></trkpt><trkpt lat="45.67715007532895" lon="12.929361074368904"><ele>-1.0</ele><time>2026-05-01T08:57:57.974Z</time></trkpt><trkpt lat="45.67708156834256" lon="12.929347053654228"><ele>-1.0</ele><time>2026-05-01T08:57:58.974Z</time></trkpt><trkpt lat="45.67701224606713" lon="12.929311474151875"><ele>-1.1666666666666665</ele><time>2026-05-01T08:57:59.974Z</time></trkpt><trkpt lat="45.676931645200334" lon="12.929297109664567"><ele>-1.3333333333333333</ele><time>2026-05-01T08:58:00.974Z</time></trkpt><trkpt lat="45.67685259199466" lon="12.929282937039785"><ele>-1.5</ele><time>2026-05-01T08:58:01.974Z</time></trkpt><trkpt lat="45.67677273623895" lon="12.929267847200004"><ele>-1.6666666666666665</ele><time>2026-05-01T08:58:02.974Z</time></trkpt><trkpt lat="45.67669187577166" lon="12.929249762379776"><ele>-1.8333333333333333</ele><time>2026-05-01T08:58:03.974Z</time></trkpt><trkpt lat="45.67660811510596" lon="12.929235215068863"><ele>-2.0</ele><time>2026-05-01T08:58:04.974Z</time></trkpt><trkpt lat="45.67652238392063" lon="12.929215779614312"><ele>-1.6666666666666665</ele><time>2026-05-01T08:58:05.974Z</time></trkpt><trkpt lat="45.67643944964266" lon="12.929194113575099"><ele>-1.3333333333333333</ele><time>2026-05-01T08:58:06.974Z</time></trkpt><trkpt lat="45.67635712457236" lon="12.92917216308769"><ele>-1.0</ele><time>2026-05-01T08:58:07.973Z</time></trkpt><trkpt lat="45.676274175578044" lon="12.929152681239698"><ele>-0.6666666666666666</ele><time>2026-05-01T08:58:08.973Z</time></trkpt><trkpt lat="45.67618902969201" lon="12.929133822202802"><ele>-0.3333333333333333</ele><time>2026-05-01T08:58:09.973Z</time></trkpt><trkpt lat="45.67609941126184" lon="12.929113599108684"><ele>0.0</ele><time>2026-05-01T08:58:10.973Z</time></trkpt><trkpt lat="45.676009678608054" lon="12.929095053883206"><ele>0.0</ele><time>2026-05-01T08:58:11.973Z</time></trkpt><trkpt lat="45.675917153349396" lon="12.929070925301085"><ele>0.0</ele><time>2026-05-01T08:58:12.973Z</time></trkpt><trkpt lat="45.67582209753491" lon="12.929046298863442"><ele>0.0</ele><time>2026-05-01T08:58:13.973Z</time></trkpt><trkpt lat="45.675726281825106" lon="12.929022359979497"><ele>0.0</ele><time>2026-05-01T08:58:14.973Z</time></trkpt><trkpt lat="45.675632716220214" lon="12.92899916008235"><ele>0.0</ele><time>2026-05-01T08:58:15.973Z</time></trkpt><trkpt lat="45.67553361322234" lon="12.928984064689653"><ele>0.0</ele><time>2026-05-01T08:58:16.973Z</time></trkpt><trkpt lat="45.6754412677161" lon="12.92894136547015"><ele>0.0</ele><time>2026-05-01T08:58:17.973Z</time></trkpt><trkpt lat="45.67534364832379" lon="12.928920605655767"><ele>0.0</ele><time>2026-05-01T08:58:18.973Z</time></trkpt><trkpt lat="45.675245339742894" lon="12.928902709060734"><ele>0.0</ele><time>2026-05-01T08:58:19.973Z</time></trkpt><trkpt lat="45.67514375539982" lon="12.928880547814272"><ele>0.0</ele><time>2026-05-01T08:58:20.973Z</time></trkpt><trkpt lat="45.67504096898105" lon="12.928859186573511"><ele>-0.4</ele><time>2026-05-01T08:58:21.973Z</time></trkpt><trkpt lat="45.674931362908865" lon="12.92883732507262"><ele>-0.8</ele><time>2026-05-01T08:58:22.973Z</time></trkpt><trkpt lat="45.67482858988672" lon="12.928810763167212"><ele>-1.2000000000000002</ele><time>2026-05-01T08:58:23.973Z</time></trkpt><trkpt lat="45.674722905956" lon="12.928788907110974"><ele>-1.6</ele><time>2026-05-01T08:58:24.973Z</time></trkpt><trkpt lat="45.67461288784345" lon="12.92876155069776"><ele>-2.0</ele><time>2026-05-01T08:58:25.973Z</time></trkpt><trkpt lat="45.67450115831926" lon="12.928736593114444"><ele>-2.2</ele><time>2026-05-01T08:58:26.973Z</time></trkpt><trkpt lat="45.67438935088138" lon="12.9287179299899"><ele>-2.4000000000000004</ele><time>2026-05-01T08:58:27.973Z</time></trkpt><trkpt lat="45.67427810642793" lon="12.928696220231087"><ele>-2.5999999999999996</ele><time>2026-05-01T08:58:28.973Z</time></trkpt><trkpt lat="45.67416690955884" lon="12.928677572312749"><ele>-2.8</ele><time>2026-05-01T08:58:29.973Z</time></trkpt><trkpt lat="45.6740551676946" lon="12.928658218625895"><ele>-3.0</ele><time>2026-05-01T08:58:30.973Z</time></trkpt><trkpt lat="45.673939820362506" lon="12.928635393559315"><ele>-3.0</ele><time>2026-05-01T08:58:31.973Z</time></trkpt><trkpt lat="45.67382841737129" lon="12.928618522131833"><ele>-3.0</ele><time>2026-05-01T08:58:32.973Z</time></trkpt><trkpt lat="45.67371695184727" lon="12.928578750572086"><ele>-3.0</ele><time>2026-05-01T08:58:33.973Z</time></trkpt><trkpt lat="45.67360384612418" lon="12.928562461666889"><ele>-3.0</ele><time>2026-05-01T08:58:34.973Z</time></trkpt><trkpt lat="45.673493713875814" lon="12.92854865323495"><ele>-2.8</ele><time>2026-05-01T08:58:35.973Z</time></trkpt><trkpt lat="45.67338533517496" lon="12.928540439568076"><ele>-2.5999999999999996</ele><time>2026-05-01T08:58:36.973Z</time></trkpt><trkpt lat="45.673276215106014" lon="12.92854038547043"><ele>-2.4000000000000004</ele><time>2026-05-01T08:58:37.973Z</time></trkpt><trkpt lat="45.673167810802816" lon="12.92854321248886"><ele>-2.2</ele><time>2026-05-01T08:58:38.973Z</time></trkpt><trkpt lat="45.67305793005873" lon="12.928558969030414"><ele>-2.0</ele><time>2026-05-01T08:58:39.973Z</time></trkpt><trkpt lat="45.6729503876991" lon="12.928569702190684"><ele>-2.0</ele><time>2026-05-01T08:58:40.973Z</time></trkpt><trkpt lat="45.672841974318985" lon="12.928583535798678"><ele>-2.0</ele><time>2026-05-01T08:58:41.973Z</time></trkpt><trkpt lat="45.67273469599732" lon="12.928600723069357"><ele>-2.0</ele><time>2026-05-01T08:58:42.973Z</time></trkpt><trkpt lat="45.6726303612321" lon="12.928616872453212"><ele>-2.0</ele><time>2026-05-01T08:58:43.973Z</time></trkpt><trkpt lat="45.67252635207553" lon="12.928634369133148"><ele>-2.0</ele><time>2026-05-01T08:58:44.973Z</time></trkpt><trkpt lat="45.67242475498475" lon="12.928653232405964"><ele>-1.6</ele><time>2026-05-01T08:58:45.973Z</time></trkpt><trkpt lat="45.672321592072464" lon="12.928678364692777"><ele>-1.2000000000000002</ele><time>2026-05-01T08:58:46.973Z</time></trkpt><trkpt lat="45.672217344525635" lon="12.928706866687314"><ele>-0.8</ele><time>2026-05-01T08:58:47.973Z</time></trkpt><trkpt lat="45.672112682912065" lon="12.928737400396173"><ele>-0.4</ele><time>2026-05-01T08:58:48.973Z</time></trkpt><trkpt lat="45.67200361039752" lon="12.928746260742887"><ele>0.0</ele><time>2026-05-01T08:58:49.973Z</time></trkpt><trkpt lat="45.67190154725491" lon="12.928789028943383"><ele>0.0</ele><time>2026-05-01T08:58:50.973Z</time></trkpt><trkpt lat="45.67179440314934" lon="12.928826972394532"><ele>0.0</ele><time>2026-05-01T08:58:51.973Z</time></trkpt><trkpt lat="45.671691636051534" lon="12.928856282949612"><ele>0.0</ele><time>2026-05-01T08:58:52.973Z</time></trkpt><trkpt lat="45.67159750905013" lon="12.928881409583873"><ele>0.0</ele><time>2026-05-01T08:58:53.973Z</time></trkpt><trkpt lat="45.67150258869655" lon="12.928906463947605"><ele>0.0</ele><time>2026-05-01T08:58:54.973Z</time></trkpt><trkpt lat="45.67141675496958" lon="12.92893043894355"><ele>0.0</ele><time>2026-05-01T08:58:55.973Z</time></trkpt><trkpt lat="45.67134117190479" lon="12.928948025573852"><ele>0.0</ele><time>2026-05-01T08:58:56.973Z</time></trkpt><trkpt lat="45.67126380100344" lon="12.928972359170748"><ele>0.0</ele><time>2026-05-01T08:58:57.973Z</time></trkpt><trkpt lat="45.67118983799412" lon="12.928994288403526"><ele>0.0</ele><time>2026-05-01T08:58:58.973Z</time></trkpt><trkpt lat="45.671116754569006" lon="12.929010875751178"><ele>0.0</ele><time>2026-05-01T08:58:59.973Z</time></trkpt><trkpt lat="45.67104467324317" lon="12.929029356358656"><ele>0.0</ele><time>2026-05-01T08:59:00.973Z</time></trkpt><trkpt lat="45.67093183751301" lon="12.929029107531823"><ele>0.16666666666666666</ele><time>2026-05-01T08:59:02.973Z</time></trkpt><trkpt lat="45.670831375469795" lon="12.929027649759163"><ele>0.3333333333333333</ele><time>2026-05-01T08:59:04.973Z</time></trkpt><trkpt lat="45.670704806454445" lon="12.928998245832098"><ele>0.5</ele><time>2026-05-01T08:59:06.973Z</time></trkpt><trkpt lat="45.67063652245703" lon="12.928979479382596"><ele>0.6666666666666666</ele><time>2026-05-01T08:59:07.973Z</time></trkpt><trkpt lat="45.67056674548815" lon="12.928963933628934"><ele>0.8333333333333333</ele><time>2026-05-01T08:59:08.973Z</time></trkpt><trkpt lat="45.67049700550353" lon="12.92893967908383"><ele>1.0</ele><time>2026-05-01T08:59:09.973Z</time></trkpt><trkpt lat="45.67042460621479" lon="12.928908761687033"><ele>1.0</ele><time>2026-05-01T08:59:10.973Z</time></trkpt><trkpt lat="45.67034804314402" lon="12.92888904893395"><ele>1.0</ele><time>2026-05-01T08:59:11.973Z</time></trkpt><trkpt lat="45.670270529246096" lon="12.92886777720643"><ele>1.0</ele><time>2026-05-01T08:59:12.973Z</time></trkpt><trkpt lat="45.670197785299024" lon="12.928851065381702"><ele>1.0</ele><time>2026-05-01T08:59:13.973Z</time></trkpt><trkpt lat="45.67007849609907" lon="12.928820474712793"><ele>1.0</ele><time>2026-05-01T08:59:15.973Z</time></trkpt><trkpt lat="45.66997372924306" lon="12.92880348300031"><ele>0.8333333333333333</ele><time>2026-05-01T08:59:17.973Z</time></trkpt><trkpt lat="45.66988804347319" lon="12.928784580356364"><ele>0.6666666666666666</ele><time>2026-05-01T08:59:19.973Z</time></trkpt><trkpt lat="45.66982433289087" lon="12.928787955449707"><ele>0.5</ele><time>2026-05-01T08:59:21.973Z</time></trkpt><trkpt lat="45.66976724102961" lon="12.928742891914881"><ele>0.3333333333333333</ele><time>2026-05-01T08:59:23.973Z</time></trkpt><trkpt lat="45.66970401358876" lon="12.928709258864792"><ele>0.16666666666666666</ele><time>2026-05-01T08:59:25.973Z</time></trkpt><trkpt lat="45.66963471168007" lon="12.928657139238412"><ele>0.0</ele><time>2026-05-01T08:59:28.972Z</time></trkpt><trkpt lat="45.6695399928105" lon="12.928734042271712"><ele>0.0</ele><time>2026-05-01T09:00:07.974Z</time></trkpt><trkpt lat="45.669475709380706" lon="12.928752143835064"><ele>0.0</ele><time>2026-05-01T09:00:10.973Z</time></trkpt><trkpt lat="45.66941180139472" lon="12.92876022741822"><ele>0.0</ele><time>2026-05-01T09:00:13.973Z</time></trkpt><trkpt lat="45.66931616004971" lon="12.928774609626885"><ele>0.0</ele><time>2026-05-01T09:00:16.973Z</time></trkpt><trkpt lat="45.669234858547334" lon="12.92878921599187"><ele>0.0</ele><time>2026-05-01T09:00:18.973Z</time></trkpt><trkpt lat="45.66916322511542" lon="12.92881938303133"><ele>0.0</ele><time>2026-05-01T09:00:20.973Z</time></trkpt><trkpt lat="45.66909118747741" lon="12.928824427975869"><ele>-0.3333333333333333</ele><time>2026-05-01T09:00:22.973Z</time></trkpt><trkpt lat="45.66900612619811" lon="12.928813345423029"><ele>-0.6666666666666666</ele><time>2026-05-01T09:00:24.973Z</time></trkpt><trkpt lat="45.66892218098941" lon="12.928802117805194"><ele>-1.0</ele><time>2026-05-01T09:00:26.973Z</time></trkpt><trkpt lat="45.668839285841464" lon="12.928783795250656"><ele>-1.3333333333333333</ele><time>2026-05-01T09:00:28.973Z</time></trkpt><trkpt lat="45.6687498277145" lon="12.928767182571107"><ele>-1.6666666666666665</ele><time>2026-05-01T09:00:30.973Z</time></trkpt><trkpt lat="45.6686788757735" lon="12.928763880093898"><ele>-2.0</ele><time>2026-05-01T09:00:32.973Z</time></trkpt><trkpt lat="45.66860205228909" lon="12.928748207656898"><ele>-2.1666666666666665</ele><time>2026-05-01T09:00:34.973Z</time></trkpt><trkpt lat="45.66851942114343" lon="12.928733874075851"><ele>-2.333333333333333</ele><time>2026-05-01T09:00:36.973Z</time></trkpt><trkpt lat="45.66844923603663" lon="12.92870536327958"><ele>-2.5</ele><time>2026-05-01T09:00:38.973Z</time></trkpt><trkpt lat="45.668364920819805" lon="12.928659146992395"><ele>-2.6666666666666665</ele><time>2026-05-01T09:00:40.973Z</time></trkpt><trkpt lat="45.668284599400955" lon="12.928619517576834"><ele>-2.8333333333333335</ele><time>2026-05-01T09:00:42.973Z</time></trkpt><trkpt lat="45.6682149902023" lon="12.92857108540747"><ele>-3.0</ele><time>2026-05-01T09:00:44.973Z</time></trkpt><trkpt lat="45.66813452951625" lon="12.928518199720207"><ele>-3.0</ele><time>2026-05-01T09:00:46.973Z</time></trkpt><trkpt lat="45.66806399165206" lon="12.928448881790338"><ele>-3.0</ele><time>2026-05-01T09:00:48.973Z</time></trkpt><trkpt lat="45.66799743466218" lon="12.92835371154378"><ele>-3.0</ele><time>2026-05-01T09:00:50.973Z</time></trkpt><trkpt lat="45.667931488036814" lon="12.928244921627515"><ele>-3.0</ele><time>2026-05-01T09:00:52.973Z</time></trkpt><trkpt lat="45.66787143834923" lon="12.928112329164211"><ele>-3.0</ele><time>2026-05-01T09:00:54.973Z</time></trkpt><trkpt lat="45.66781518510062" lon="12.927991832704514"><ele>-2.6</ele><time>2026-05-01T09:00:56.973Z</time></trkpt><trkpt lat="45.6677441116153" lon="12.927868931523413"><ele>-2.1999999999999997</ele><time>2026-05-01T09:00:58.973Z</time></trkpt><trkpt lat="45.66766657133371" lon="12.92775461882718"><ele>-1.8</ele><time>2026-05-01T09:01:00.973Z</time></trkpt><trkpt lat="45.667572526835954" lon="12.927683399221053"><ele>-1.4</ele><time>2026-05-01T09:01:02.973Z</time></trkpt><trkpt lat="45.667486174780514" lon="12.927664263328147"><ele>-1.0</ele><time>2026-05-01T09:01:04.973Z</time></trkpt><trkpt lat="45.66741279337215" lon="12.927720462430228"><ele>-1.0</ele><time>2026-05-01T09:01:08.973Z</time></trkpt><trkpt lat="45.667365116678674" lon="12.927823899057818"><ele>-1.0</ele><time>2026-05-01T09:01:16.973Z</time></trkpt><trkpt lat="45.66733725699129" lon="12.927948573133232"><ele>-1.0</ele><time>2026-05-01T09:01:18.973Z</time></trkpt><trkpt lat="45.667301454661775" lon="12.928090324453237"><ele>-1.0</ele><time>2026-05-01T09:01:20.973Z</time></trkpt><trkpt lat="45.6672741843437" lon="12.928210340182355"><ele>-1.0</ele><time>2026-05-01T09:01:22.973Z</time></trkpt><trkpt lat="45.667229809550925" lon="12.928350190532518"><ele>-1.4</ele><time>2026-05-01T09:01:24.973Z</time></trkpt><trkpt lat="45.66719178805654" lon="12.928503482991477"><ele>-1.8</ele><time>2026-05-01T09:01:26.973Z</time></trkpt><trkpt lat="45.66715861702727" lon="12.92866950249237"><ele>-2.1999999999999997</ele><time>2026-05-01T09:01:28.973Z</time></trkpt><trkpt lat="45.66713884811953" lon="12.928845016295442"><ele>-2.6</ele><time>2026-05-01T09:01:30.972Z</time></trkpt><trkpt lat="45.66713381106809" lon="12.928940583564742"><ele>-3.0</ele><time>2026-05-01T09:01:31.972Z</time></trkpt><trkpt lat="45.667151438178955" lon="12.929094049914061"><ele>-3.2</ele><time>2026-05-01T09:01:33.972Z</time></trkpt><trkpt lat="45.66719751040859" lon="12.929241830111058"><ele>-3.4</ele><time>2026-05-01T09:01:35.972Z</time></trkpt><trkpt lat="45.66726141460256" lon="12.929383356776786"><ele>-3.6000000000000005</ele><time>2026-05-01T09:01:37.972Z</time></trkpt><trkpt lat="45.66735313094881" lon="12.929504805866397"><ele>-3.8000000000000003</ele><time>2026-05-01T09:01:39.972Z</time></trkpt><trkpt lat="45.667412145843166" lon="12.929565239653448"><ele>-4.0</ele><time>2026-05-01T09:01:40.972Z</time></trkpt><trkpt lat="45.66748479830385" lon="12.929667047325827"><ele>-3.9999999999999996</ele><time>2026-05-01T09:01:42.972Z</time></trkpt><trkpt lat="45.66750515994535" lon="12.929797047872063"><ele>-4.0</ele><time>2026-05-01T09:01:44.972Z</time></trkpt><trkpt lat="45.66744410130037" lon="12.92991687687663"><ele>-4.0</ele><time>2026-05-01T09:01:46.972Z</time></trkpt><trkpt lat="45.66739683552964" lon="12.929990621756074"><ele>-4.0</ele><time>2026-05-01T09:01:47.972Z</time></trkpt><trkpt lat="45.6673524759722" lon="12.930062583519693"><ele>-3.9999999999999996</ele><time>2026-05-01T09:01:48.973Z</time></trkpt><trkpt lat="45.667313430538385" lon="12.930142540302802"><ele>-4.0</ele><time>2026-05-01T09:01:49.973Z</time></trkpt><trkpt lat="45.66726507701588" lon="12.930225457104742"><ele>-3.9999999999999996</ele><time>2026-05-01T09:01:50.973Z</time></trkpt><trkpt lat="45.667216656568094" lon="12.9303139751356"><ele>-4.0</ele><time>2026-05-01T09:01:51.974Z</time></trkpt><trkpt lat="45.66717217491696" lon="12.930398444932619"><ele>-4.0</ele><time>2026-05-01T09:01:52.973Z</time></trkpt><trkpt lat="45.66712161151048" lon="12.93048646030901"><ele>-4.0</ele><time>2026-05-01T09:01:53.973Z</time></trkpt><trkpt lat="45.667070022848904" lon="12.930576371451586"><ele>-3.9999999999999996</ele><time>2026-05-01T09:01:54.973Z</time></trkpt><trkpt lat="45.667018855002524" lon="12.930665125407511"><ele>-4.0</ele><time>2026-05-01T09:01:55.973Z</time></trkpt><trkpt lat="45.66696863552738" lon="12.930755859542156"><ele>-3.833333333333333</ele><time>2026-05-01T09:01:56.973Z</time></trkpt><trkpt lat="45.66692145020739" lon="12.930849249214413"><ele>-3.6666666666666665</ele><time>2026-05-01T09:01:57.973Z</time></trkpt><trkpt lat="45.66687467594763" lon="12.930943856234707"><ele>-3.5</ele><time>2026-05-01T09:01:58.973Z</time></trkpt><trkpt lat="45.666831929826344" lon="12.931039239607156"><ele>-3.333333333333333</ele><time>2026-05-01T09:01:59.973Z</time></trkpt><trkpt lat="45.666792729201674" lon="12.931139841819961"><ele>-3.1666666666666665</ele><time>2026-05-01T09:02:00.973Z</time></trkpt><trkpt lat="45.666758376982344" lon="12.931247849996792"><ele>-3.0</ele><time>2026-05-01T09:02:01.973Z</time></trkpt><trkpt lat="45.66671539087217" lon="12.931349061911506"><ele>-3.0</ele><time>2026-05-01T09:02:02.973Z</time></trkpt><trkpt lat="45.66667317085847" lon="12.931450401388231"><ele>-3.0</ele><time>2026-05-01T09:02:03.973Z</time></trkpt><trkpt lat="45.666634034396786" lon="12.93155823820758"><ele>-3.0</ele><time>2026-05-01T09:02:04.973Z</time></trkpt><trkpt lat="45.666594621635944" lon="12.931666051922246"><ele>-3.0</ele><time>2026-05-01T09:02:05.973Z</time></trkpt><trkpt lat="45.66655497587969" lon="12.931771953843715"><ele>-3.0</ele><time>2026-05-01T09:02:06.973Z</time></trkpt><trkpt lat="45.66651690237339" lon="12.931878595443395"><ele>-3.0</ele><time>2026-05-01T09:02:07.973Z</time></trkpt><trkpt lat="45.666475529125336" lon="12.93198222883323"><ele>-3.0</ele><time>2026-05-01T09:02:08.973Z</time></trkpt><trkpt lat="45.66643339892511" lon="12.932091500258913"><ele>-3.0</ele><time>2026-05-01T09:02:09.973Z</time></trkpt><trkpt lat="45.666397246594585" lon="12.932205677565383"><ele>-3.0</ele><time>2026-05-01T09:02:10.973Z</time></trkpt><trkpt lat="45.666374755115534" lon="12.932327564185908"><ele>-3.0</ele><time>2026-05-01T09:02:11.973Z</time></trkpt><trkpt lat="45.66636296719643" lon="12.932449366753135"><ele>-3.0</ele><time>2026-05-01T09:02:12.973Z</time></trkpt><trkpt lat="45.666362361251686" lon="12.932579267333374"><ele>-3.0</ele><time>2026-05-01T09:02:13.973Z</time></trkpt><trkpt lat="45.66635933552413" lon="12.9327057015972"><ele>-2.8</ele><time>2026-05-01T09:02:14.973Z</time></trkpt><trkpt lat="45.66635427958865" lon="12.932839278000671"><ele>-2.5999999999999996</ele><time>2026-05-01T09:02:15.973Z</time></trkpt><trkpt lat="45.66635253287496" lon="12.932988900970285"><ele>-2.4000000000000004</ele><time>2026-05-01T09:02:16.973Z</time></trkpt><trkpt lat="45.66634767008595" lon="12.933162044718532"><ele>-2.2</ele><time>2026-05-01T09:02:17.973Z</time></trkpt><trkpt lat="45.66634210138297" lon="12.933346940936936"><ele>-2.0</ele><time>2026-05-01T09:02:18.973Z</time></trkpt><trkpt lat="45.66633780542302" lon="12.933523006193534"><ele>-2.0</ele><time>2026-05-01T09:02:19.973Z</time></trkpt><trkpt lat="45.66633275818029" lon="12.933686108912125"><ele>-2.0</ele><time>2026-05-01T09:02:20.973Z</time></trkpt><trkpt lat="45.666323171364176" lon="12.933842852952628"><ele>-2.0</ele><time>2026-05-01T09:02:21.973Z</time></trkpt><trkpt lat="45.666319096192616" lon="12.933985299760863"><ele>-2.0</ele><time>2026-05-01T09:02:22.973Z</time></trkpt><trkpt lat="45.66631733851953" lon="12.934119692250581"><ele>-2.0</ele><time>2026-05-01T09:02:23.973Z</time></trkpt><trkpt lat="45.66632746762738" lon="12.934230649069988"><ele>-2.333333333333333</ele><time>2026-05-01T09:02:24.973Z</time></trkpt><trkpt lat="45.66634637766182" lon="12.934341263954755"><ele>-2.6666666666666665</ele><time>2026-05-01T09:02:25.973Z</time></trkpt><trkpt lat="45.666382786810054" lon="12.93444555485276"><ele>-3.0</ele><time>2026-05-01T09:02:26.973Z</time></trkpt><trkpt lat="45.666427988965104" lon="12.934538418510185"><ele>-3.333333333333333</ele><time>2026-05-01T09:02:27.973Z</time></trkpt><trkpt lat="45.6664839111355" lon="12.934628345196003"><ele>-3.6666666666666665</ele><time>2026-05-01T09:02:28.973Z</time></trkpt><trkpt lat="45.66652450860295" lon="12.934705893063224"><ele>-4.0</ele><time>2026-05-01T09:02:29.973Z</time></trkpt><trkpt lat="45.666554220520275" lon="12.934817292660679"><ele>-4.0</ele><time>2026-05-01T09:02:31.973Z</time></trkpt><trkpt lat="45.666504890520855" lon="12.934921372782945"><ele>-4.0</ele><time>2026-05-01T09:02:34.973Z</time></trkpt><trkpt lat="45.66640108144536" lon="12.934969035584507"><ele>-4.0</ele><time>2026-05-01T09:02:36.973Z</time></trkpt><trkpt lat="45.66632076492044" lon="12.934996101786709"><ele>-4.0</ele><time>2026-05-01T09:02:37.973Z</time></trkpt><trkpt lat="45.666240384639295" lon="12.935016430633349"><ele>-4.0</ele><time>2026-05-01T09:02:38.973Z</time></trkpt><trkpt lat="45.66614521230384" lon="12.935048694865989"><ele>-3.8000000000000003</ele><time>2026-05-01T09:02:39.973Z</time></trkpt><trkpt lat="45.66604819790853" lon="12.935068693349022"><ele>-3.6000000000000005</ele><time>2026-05-01T09:02:40.973Z</time></trkpt><trkpt lat="45.66593337676663" lon="12.935096918165529"><ele>-3.4</ele><time>2026-05-01T09:02:41.973Z</time></trkpt><trkpt lat="45.665826965879845" lon="12.935106789617052"><ele>-3.2</ele><time>2026-05-01T09:02:42.973Z</time></trkpt><trkpt lat="45.6657129914763" lon="12.935103836596921"><ele>-3.0</ele><time>2026-05-01T09:02:43.973Z</time></trkpt><trkpt lat="45.665604351612835" lon="12.935103212567592"><ele>-3.0</ele><time>2026-05-01T09:02:44.973Z</time></trkpt><trkpt lat="45.66548408129052" lon="12.93511173331381"><ele>-3.0</ele><time>2026-05-01T09:02:45.973Z</time></trkpt><trkpt lat="45.665371415432155" lon="12.935125209465685"><ele>-3.0</ele><time>2026-05-01T09:02:46.973Z</time></trkpt><trkpt lat="45.66525344225049" lon="12.935146936628039"><ele>-3.0</ele><time>2026-05-01T09:02:47.972Z</time></trkpt><trkpt lat="45.66513706369725" lon="12.935160273690078"><ele>-3.0</ele><time>2026-05-01T09:02:48.972Z</time></trkpt><trkpt lat="45.665015988763294" lon="12.93517426029595"><ele>-3.0</ele><time>2026-05-01T09:02:49.972Z</time></trkpt><trkpt lat="45.66489657173696" lon="12.935187542498298"><ele>-3.0</ele><time>2026-05-01T09:02:50.972Z</time></trkpt><trkpt lat="45.66477121089514" lon="12.935197680397792"><ele>-3.0</ele><time>2026-05-01T09:02:51.972Z</time></trkpt><trkpt lat="45.664644739515616" lon="12.935196850660459"><ele>-3.0</ele><time>2026-05-01T09:02:52.972Z</time></trkpt><trkpt lat="45.66451836286597" lon="12.935188277562839"><ele>-3.0</ele><time>2026-05-01T09:02:53.972Z</time></trkpt><trkpt lat="45.66439048313733" lon="12.935167627747283"><ele>-3.0</ele><time>2026-05-01T09:02:54.972Z</time></trkpt><trkpt lat="45.66425890773893" lon="12.935153427867803"><ele>-3.0</ele><time>2026-05-01T09:02:55.972Z</time></trkpt><trkpt lat="45.664140800891445" lon="12.935134379002147"><ele>-3.0</ele><time>2026-05-01T09:02:56.972Z</time></trkpt><trkpt lat="45.66404160949865" lon="12.935124672797924"><ele>-3.0</ele><time>2026-05-01T09:02:57.972Z</time></trkpt><trkpt lat="45.663964170720774" lon="12.935123181502862"><ele>-3.0</ele><time>2026-05-01T09:02:58.972Z</time></trkpt><trkpt lat="45.663871656071166" lon="12.935173390816834"><ele>-3.0</ele><time>2026-05-01T09:03:00.972Z</time></trkpt><trkpt lat="45.6638362546338" lon="12.935318508694039"><ele>-3.0</ele><time>2026-05-01T09:03:02.972Z</time></trkpt><trkpt lat="45.66384301518839" lon="12.93540864298562"><ele>-3.0</ele><time>2026-05-01T09:03:03.972Z</time></trkpt><trkpt lat="45.66384149634357" lon="12.935522827087526"><ele>-3.0</ele><time>2026-05-01T09:03:04.972Z</time></trkpt><trkpt lat="45.6638390681781" lon="12.935650534687506"><ele>-3.0</ele><time>2026-05-01T09:03:05.972Z</time></trkpt><trkpt lat="45.663838712791495" lon="12.93578206566394"><ele>-3.0</ele><time>2026-05-01T09:03:06.972Z</time></trkpt><trkpt lat="45.66384018883143" lon="12.935927481290285"><ele>-3.0</ele><time>2026-05-01T09:03:07.972Z</time></trkpt><trkpt lat="45.663840787537126" lon="12.936085500672068"><ele>-3.0</ele><time>2026-05-01T09:03:08.972Z</time></trkpt><trkpt lat="45.66384224100166" lon="12.936247700756214"><ele>-3.0</ele><time>2026-05-01T09:03:09.972Z</time></trkpt><trkpt lat="45.66383996194327" lon="12.936411821964368"><ele>-3.0</ele><time>2026-05-01T09:03:10.972Z</time></trkpt><trkpt lat="45.66384070874564" lon="12.936580660604932"><ele>-3.0</ele><time>2026-05-01T09:03:11.972Z</time></trkpt><trkpt lat="45.66383884498866" lon="12.936747572678831"><ele>-3.0</ele><time>2026-05-01T09:03:12.972Z</time></trkpt><trkpt lat="45.66384148066586" lon="12.936895293371204"><ele>-3.0</ele><time>2026-05-01T09:03:13.972Z</time></trkpt><trkpt lat="45.66384137457178" lon="12.937020685918556"><ele>-3.0</ele><time>2026-05-01T09:03:14.972Z</time></trkpt><trkpt lat="45.663839385996894" lon="12.937145777764528"><ele>-3.0</ele><time>2026-05-01T09:03:15.972Z</time></trkpt><trkpt lat="45.663840343124434" lon="12.937281317950168"><ele>-3.0</ele><time>2026-05-01T09:03:16.972Z</time></trkpt><trkpt lat="45.66384069099699" lon="12.937413540549752"><ele>-3.0</ele><time>2026-05-01T09:03:17.972Z</time></trkpt><trkpt lat="45.663837959524685" lon="12.937542914405862"><ele>-3.0</ele><time>2026-05-01T09:03:18.972Z</time></trkpt><trkpt lat="45.66383859871366" lon="12.937664429760257"><ele>-3.0</ele><time>2026-05-01T09:03:19.972Z</time></trkpt><trkpt lat="45.663837987616674" lon="12.937783312097315"><ele>-3.0</ele><time>2026-05-01T09:03:20.972Z</time></trkpt><trkpt lat="45.66383344042756" lon="12.937902735307969"><ele>-3.0</ele><time>2026-05-01T09:03:21.972Z</time></trkpt><trkpt lat="45.66382637886388" lon="12.938012802007282"><ele>-3.0</ele><time>2026-05-01T09:03:22.972Z</time></trkpt><trkpt lat="45.66381845836682" lon="12.938124510762853"><ele>-3.0</ele><time>2026-05-01T09:03:23.972Z</time></trkpt><trkpt lat="45.66380865228804" lon="12.938233899437472"><ele>-3.0</ele><time>2026-05-01T09:03:24.972Z</time></trkpt><trkpt lat="45.66380444808854" lon="12.93833975443834"><ele>-3.0</ele><time>2026-05-01T09:03:25.972Z</time></trkpt><trkpt lat="45.66380897937907" lon="12.938443057624635"><ele>-3.0</ele><time>2026-05-01T09:03:26.972Z</time></trkpt><trkpt lat="45.6638155801969" lon="12.938545938074592"><ele>-3.0</ele><time>2026-05-01T09:03:27.972Z</time></trkpt><trkpt lat="45.66382355076488" lon="12.93865548161729"><ele>-3.0</ele><time>2026-05-01T09:03:28.972Z</time></trkpt><trkpt lat="45.66383352781529" lon="12.938766620240878"><ele>-3.0</ele><time>2026-05-01T09:03:29.972Z</time></trkpt><trkpt lat="45.66383714783484" lon="12.93888505388885"><ele>-3.0</ele><time>2026-05-01T09:03:30.972Z</time></trkpt><trkpt lat="45.66383788770629" lon="12.939003745377507"><ele>-3.0</ele><time>2026-05-01T09:03:31.972Z</time></trkpt><trkpt lat="45.66383464679979" lon="12.93911344632264"><ele>-3.0</ele><time>2026-05-01T09:03:32.972Z</time></trkpt><trkpt lat="45.663833733996505" lon="12.939203882786765"><ele>-3.0</ele><time>2026-05-01T09:03:33.972Z</time></trkpt><trkpt lat="45.66383558101255" lon="12.93930145730035"><ele>-3.0</ele><time>2026-05-01T09:03:35.972Z</time></trkpt><trkpt lat="45.66385167567674" lon="12.939150285052273"><ele>-3.0</ele><time>2026-05-01T09:04:19.972Z</time></trkpt><trkpt lat="45.66385124985197" lon="12.939055612774139"><ele>-3.0</ele><time>2026-05-01T09:04:20.972Z</time></trkpt><trkpt lat="45.66384970894889" lon="12.938962203100283"><ele>-3.0</ele><time>2026-05-01T09:04:21.972Z</time></trkpt><trkpt lat="45.663830235370426" lon="12.938798777776592"><ele>-3.0</ele><time>2026-05-01T09:04:23.972Z</time></trkpt><trkpt lat="45.66382243596617" lon="12.938652175445641"><ele>-3.0</ele><time>2026-05-01T09:04:25.972Z</time></trkpt><trkpt lat="45.66381593187331" lon="12.938503026039784"><ele>-3.0</ele><time>2026-05-01T09:04:27.972Z</time></trkpt><trkpt lat="45.66381343666587" lon="12.938352839397439"><ele>-3.0</ele><time>2026-05-01T09:04:29.972Z</time></trkpt><trkpt lat="45.663814775530675" lon="12.938252183230844"><ele>-3.0</ele><time>2026-05-01T09:04:30.972Z</time></trkpt><trkpt lat="45.66382471953882" lon="12.93814635313515"><ele>-3.0</ele><time>2026-05-01T09:04:31.972Z</time></trkpt><trkpt lat="45.66382674338596" lon="12.938047002202254"><ele>-3.0</ele><time>2026-05-01T09:04:32.972Z</time></trkpt><trkpt lat="45.66383896295291" lon="12.937951379133505"><ele>-3.0</ele><time>2026-05-01T09:04:33.972Z</time></trkpt><trkpt lat="45.663846269549516" lon="12.937820129527148"><ele>-3.0</ele><time>2026-05-01T09:04:34.972Z</time></trkpt><trkpt lat="45.66385129497236" lon="12.93767394908487"><ele>-3.0</ele><time>2026-05-01T09:04:35.972Z</time></trkpt><trkpt lat="45.66385413285919" lon="12.937511318112728"><ele>-3.0</ele><time>2026-05-01T09:04:36.972Z</time></trkpt><trkpt lat="45.66385154284622" lon="12.937339462079683"><ele>-3.0</ele><time>2026-05-01T09:04:37.972Z</time></trkpt><trkpt lat="45.66385061655921" lon="12.937158729895343"><ele>-3.0</ele><time>2026-05-01T09:04:38.972Z</time></trkpt><trkpt lat="45.66385152477733" lon="12.936976791030224"><ele>-3.0</ele><time>2026-05-01T09:04:39.972Z</time></trkpt><trkpt lat="45.66385109530414" lon="12.936781225435379"><ele>-3.0</ele><time>2026-05-01T09:04:40.972Z</time></trkpt><trkpt lat="45.66385172331786" lon="12.93660822032156"><ele>-3.0</ele><time>2026-05-01T09:04:41.972Z</time></trkpt><trkpt lat="45.663853031397345" lon="12.936445961463397"><ele>-3.0</ele><time>2026-05-01T09:04:42.972Z</time></trkpt><trkpt lat="45.663852528215955" lon="12.936287750342649"><ele>-3.0</ele><time>2026-05-01T09:04:43.972Z</time></trkpt><trkpt lat="45.66385401413348" lon="12.936121125216616"><ele>-3.0</ele><time>2026-05-01T09:04:44.972Z</time></trkpt><trkpt lat="45.66385254105911" lon="12.935954584957829"><ele>-3.0</ele><time>2026-05-01T09:04:45.972Z</time></trkpt><trkpt lat="45.66385298429064" lon="12.93581045775866"><ele>-3.0</ele><time>2026-05-01T09:04:46.972Z</time></trkpt><trkpt lat="45.663853405628295" lon="12.935690052820501"><ele>-3.0</ele><time>2026-05-01T09:04:47.972Z</time></trkpt><trkpt lat="45.66385113838358" lon="12.93557036374881"><ele>-3.0</ele><time>2026-05-01T09:04:48.972Z</time></trkpt><trkpt lat="45.6638520091462" lon="12.935468637606862"><ele>-3.0</ele><time>2026-05-01T09:04:49.972Z</time></trkpt><trkpt lat="45.6638498369789" lon="12.935378040785233"><ele>-3.0</ele><time>2026-05-01T09:04:50.972Z</time></trkpt><trkpt lat="45.66385967230281" lon="12.935258064730341"><ele>-3.0</ele><time>2026-05-01T09:04:52.972Z</time></trkpt><trkpt lat="45.6638600824224" lon="12.935146242050246"><ele>-3.0</ele><time>2026-05-01T09:05:03.972Z</time></trkpt><trkpt lat="45.66362938217284" lon="12.935177057728321"><ele>-2.8333333333333335</ele><time>2026-05-01T09:05:06.972Z</time></trkpt><trkpt lat="45.66356290099289" lon="12.93520769903599"><ele>-2.6666666666666665</ele><time>2026-05-01T09:05:07.972Z</time></trkpt><trkpt lat="45.66350089705557" lon="12.93524337924402"><ele>-2.5</ele><time>2026-05-01T09:05:08.972Z</time></trkpt><trkpt lat="45.66338916171685" lon="12.93531468121167"><ele>-2.333333333333333</ele><time>2026-05-01T09:05:10.972Z</time></trkpt><trkpt lat="45.66328805139576" lon="12.935414321864732"><ele>-2.1666666666666665</ele><time>2026-05-01T09:05:12.972Z</time></trkpt><trkpt lat="45.663239826634694" lon="12.935474857845094"><ele>-2.0</ele><time>2026-05-01T09:05:13.972Z</time></trkpt><trkpt lat="45.66318535258875" lon="12.935542232551972"><ele>-1.9999999999999998</ele><time>2026-05-01T09:05:14.971Z</time></trkpt><trkpt lat="45.663130813092216" lon="12.935614348801254"><ele>-2.0</ele><time>2026-05-01T09:05:15.971Z</time></trkpt><trkpt lat="45.66307306067433" lon="12.935687354222345"><ele>-2.0</ele><time>2026-05-01T09:05:16.971Z</time></trkpt><trkpt lat="45.6630129247482" lon="12.935767757143653"><ele>-2.0</ele><time>2026-05-01T09:05:17.971Z</time></trkpt><trkpt lat="45.66295428969605" lon="12.935836573972304"><ele>-1.9999999999999998</ele><time>2026-05-01T09:05:18.971Z</time></trkpt><trkpt lat="45.66289781573864" lon="12.935906097290356"><ele>-2.0</ele><time>2026-05-01T09:05:19.971Z</time></trkpt><trkpt lat="45.66283826089876" lon="12.935979325889226"><ele>-1.9999999999999998</ele><time>2026-05-01T09:05:20.971Z</time></trkpt><trkpt lat="45.66278402224854" lon="12.93604283105175"><ele>-2.0</ele><time>2026-05-01T09:05:21.971Z</time></trkpt><trkpt lat="45.66271876108251" lon="12.936111322681933"><ele>-2.0</ele><time>2026-05-01T09:05:22.971Z</time></trkpt><trkpt lat="45.66265386024928" lon="12.93617553862358"><ele>-2.0</ele><time>2026-05-01T09:05:23.971Z</time></trkpt><trkpt lat="45.66258438286887" lon="12.936239146482645"><ele>-1.9999999999999998</ele><time>2026-05-01T09:05:24.971Z</time></trkpt><trkpt lat="45.66251647486381" lon="12.936294582445672"><ele>-2.0</ele><time>2026-05-01T09:05:25.971Z</time></trkpt><trkpt lat="45.66244800176891" lon="12.936342698076718"><ele>-2.333333333333333</ele><time>2026-05-01T09:05:26.971Z</time></trkpt><trkpt lat="45.66237549633684" lon="12.93639014827457"><ele>-2.6666666666666665</ele><time>2026-05-01T09:05:27.971Z</time></trkpt><trkpt lat="45.66230278623713" lon="12.93643307535962"><ele>-3.0</ele><time>2026-05-01T09:05:28.971Z</time></trkpt><trkpt lat="45.66223382478512" lon="12.936477483565115"><ele>-3.333333333333333</ele><time>2026-05-01T09:05:29.971Z</time></trkpt><trkpt lat="45.66216193926692" lon="12.936533989508716"><ele>-3.6666666666666665</ele><time>2026-05-01T09:05:30.971Z</time></trkpt><trkpt lat="45.662090938233305" lon="12.936585756304114"><ele>-4.0</ele><time>2026-05-01T09:05:31.971Z</time></trkpt><trkpt lat="45.6620245211152" lon="12.936648103365526"><ele>-3.9999999999999996</ele><time>2026-05-01T09:05:32.971Z</time></trkpt><trkpt lat="45.66196517076711" lon="12.93670969076833"><ele>-4.0</ele><time>2026-05-01T09:05:33.971Z</time></trkpt><trkpt lat="45.66190490714203" lon="12.936783995057809"><ele>-4.0</ele><time>2026-05-01T09:05:34.971Z</time></trkpt><trkpt lat="45.66185393126561" lon="12.936863558652506"><ele>-4.0</ele><time>2026-05-01T09:05:35.971Z</time></trkpt><trkpt lat="45.66181393070375" lon="12.936943162859736"><ele>-3.9999999999999996</ele><time>2026-05-01T09:05:36.971Z</time></trkpt><trkpt lat="45.66178212577957" lon="12.937041370450306"><ele>-4.0</ele><time>2026-05-01T09:05:37.971Z</time></trkpt><trkpt lat="45.66174693582519" lon="12.93715525533903"><ele>-3.833333333333333</ele><time>2026-05-01T09:05:38.971Z</time></trkpt><trkpt lat="45.66171755205098" lon="12.937270978174158"><ele>-3.6666666666666665</ele><time>2026-05-01T09:05:39.971Z</time></trkpt><trkpt lat="45.661694039753456" lon="12.937370772879685"><ele>-3.5</ele><time>2026-05-01T09:05:40.971Z</time></trkpt><trkpt lat="45.661663164350784" lon="12.93745863771916"><ele>-3.333333333333333</ele><time>2026-05-01T09:05:41.971Z</time></trkpt><trkpt lat="45.66162587528761" lon="12.937562144881202"><ele>-3.1666666666666665</ele><time>2026-05-01T09:05:42.971Z</time></trkpt><trkpt lat="45.661581459533764" lon="12.937672214500859"><ele>-3.0</ele><time>2026-05-01T09:05:43.971Z</time></trkpt><trkpt lat="45.661541609198665" lon="12.937761856622991"><ele>-2.8333333333333335</ele><time>2026-05-01T09:05:44.971Z</time></trkpt><trkpt lat="45.66150317680098" lon="12.937835706770645"><ele>-2.6666666666666665</ele><time>2026-05-01T09:05:45.971Z</time></trkpt><trkpt lat="45.66146321931578" lon="12.937914929075593"><ele>-2.5</ele><time>2026-05-01T09:05:46.971Z</time></trkpt><trkpt lat="45.6614211605825" lon="12.937985736042343"><ele>-2.333333333333333</ele><time>2026-05-01T09:05:47.971Z</time></trkpt><trkpt lat="45.6613308991658" lon="12.938084065439241"><ele>-2.1666666666666665</ele><time>2026-05-01T09:05:49.971Z</time></trkpt><trkpt lat="45.66127058743886" lon="12.938131541439171"><ele>-2.0</ele><time>2026-05-01T09:05:50.971Z</time></trkpt><trkpt lat="45.6612059057017" lon="12.93819157191458"><ele>-1.9999999999999998</ele><time>2026-05-01T09:05:51.971Z</time></trkpt><trkpt lat="45.66114846868945" lon="12.93824933569874"><ele>-2.0</ele><time>2026-05-01T09:05:52.971Z</time></trkpt><trkpt lat="45.66104972416606" lon="12.938378186867435"><ele>-2.0</ele><time>2026-05-01T09:05:54.971Z</time></trkpt><trkpt lat="45.66099696506032" lon="12.938448481222993"><ele>-2.0</ele><time>2026-05-01T09:05:55.971Z</time></trkpt><trkpt lat="45.660949956324636" lon="12.938532039712857"><ele>-1.9999999999999998</ele><time>2026-05-01T09:05:56.971Z</time></trkpt><trkpt lat="45.66091505096355" lon="12.938616700707808"><ele>-2.0</ele><time>2026-05-01T09:05:57.971Z</time></trkpt><trkpt lat="45.660881366832285" lon="12.938709964215008"><ele>-1.9999999999999998</ele><time>2026-05-01T09:05:58.971Z</time></trkpt><trkpt lat="45.66084516030827" lon="12.938806289623928"><ele>-2.0</ele><time>2026-05-01T09:05:59.972Z</time></trkpt><trkpt lat="45.66080963692193" lon="12.93888361335237"><ele>-2.0</ele><time>2026-05-01T09:06:00.972Z</time></trkpt><trkpt lat="45.66071692778298" lon="12.93899058252583"><ele>-2.0</ele><time>2026-05-01T09:06:02.973Z</time></trkpt><trkpt lat="45.66065213193635" lon="12.939037218022486"><ele>-1.9999999999999998</ele><time>2026-05-01T09:06:03.972Z</time></trkpt><trkpt lat="45.66058517479638" lon="12.939073035294534"><ele>-2.0</ele><time>2026-05-01T09:06:04.972Z</time></trkpt><trkpt lat="45.66051645619587" lon="12.939101601007813"><ele>-2.0</ele><time>2026-05-01T09:06:05.972Z</time></trkpt><trkpt lat="45.66045003795552" lon="12.939134477798923"><ele>-1.9999999999999998</ele><time>2026-05-01T09:06:06.973Z</time></trkpt><trkpt lat="45.66037920427644" lon="12.939168568124916"><ele>-2.0</ele><time>2026-05-01T09:06:07.973Z</time></trkpt><trkpt lat="45.66031404706361" lon="12.939192643451182"><ele>-2.0</ele><time>2026-05-01T09:06:08.973Z</time></trkpt><trkpt lat="45.660248202157696" lon="12.939211765717522"><ele>-1.9999999999999998</ele><time>2026-05-01T09:06:09.972Z</time></trkpt><trkpt lat="45.66018270275589" lon="12.939216515235326"><ele>-2.0</ele><time>2026-05-01T09:06:10.972Z</time></trkpt><trkpt lat="45.66011377407106" lon="12.9392015154581"><ele>-2.0</ele><time>2026-05-01T09:06:11.972Z</time></trkpt><trkpt lat="45.6600409451392" lon="12.939179448500841"><ele>-1.9999999999999998</ele><time>2026-05-01T09:06:12.972Z</time></trkpt><trkpt lat="45.659970044382376" lon="12.939143794462444"><ele>-2.0</ele><time>2026-05-01T09:06:13.972Z</time></trkpt><trkpt lat="45.65989895962157" lon="12.939094884314878"><ele>-2.0</ele><time>2026-05-01T09:06:14.972Z</time></trkpt><trkpt lat="45.65982713951279" lon="12.93904079572894"><ele>-2.0</ele><time>2026-05-01T09:06:15.972Z</time></trkpt><trkpt lat="45.659753370958505" lon="12.938977117791636"><ele>-1.9999999999999998</ele><time>2026-05-01T09:06:16.972Z</time></trkpt><trkpt lat="45.65968142292304" lon="12.938913570634561"><ele>-2.0</ele><time>2026-05-01T09:06:17.972Z</time></trkpt><trkpt lat="45.659612293359984" lon="12.938855048323042"><ele>-1.9999999999999998</ele><time>2026-05-01T09:06:18.972Z</time></trkpt><trkpt lat="45.6595442355428" lon="12.938802913452413"><ele>-2.0</ele><time>2026-05-01T09:06:19.972Z</time></trkpt><trkpt lat="45.65947864111124" lon="12.938749098487799"><ele>-2.0</ele><time>2026-05-01T09:06:20.972Z</time></trkpt><trkpt lat="45.6593858879355" lon="12.938677422912328"><ele>-2.0</ele><time>2026-05-01T09:06:22.972Z</time></trkpt><trkpt lat="45.65931886360461" lon="12.938626429437965"><ele>-1.9999999999999998</ele><time>2026-05-01T09:06:24.972Z</time></trkpt><trkpt lat="45.65929149198651" lon="12.93850253587278"><ele>-2.0</ele><time>2026-05-01T09:06:26.972Z</time></trkpt><trkpt lat="45.65932622304538" lon="12.938411314442762"><ele>-1.9999999999999998</ele><time>2026-05-01T09:06:27.972Z</time></trkpt><trkpt lat="45.65932662955275" lon="12.938308543356184"><ele>-2.0</ele><time>2026-05-01T09:06:28.972Z</time></trkpt><trkpt lat="45.65931283892366" lon="12.938197677949022"><ele>-2.0</ele><time>2026-05-01T09:06:29.972Z</time></trkpt><trkpt lat="45.65932888145423" lon="12.938075982902411"><ele>-2.0</ele><time>2026-05-01T09:06:30.972Z</time></trkpt><trkpt lat="45.65932659080284" lon="12.937983058908518"><ele>-1.9999999999999998</ele><time>2026-05-01T09:06:31.972Z</time></trkpt><trkpt lat="45.659266111269275" lon="12.937884068476865"><ele>-2.0</ele><time>2026-05-01T09:06:34.972Z</time></trkpt><trkpt lat="45.6591809562111" lon="12.937870559458606"><ele>-2.0</ele><time>2026-05-01T09:06:36.972Z</time></trkpt><trkpt lat="45.65930805037833" lon="12.937883928095703"><ele>-2.0</ele><time>2026-05-01T09:06:37.972Z</time></trkpt><trkpt lat="45.65911335505441" lon="12.937748719661185"><ele>-2.0</ele><time>2026-05-01T09:06:38.972Z</time></trkpt><trkpt lat="45.65905653361" lon="12.937706224115521"><ele>-2.0</ele><time>2026-05-01T09:06:39.972Z</time></trkpt><trkpt lat="45.65894753168617" lon="12.937624703811574"><ele>-2.0</ele><time>2026-05-01T09:06:41.972Z</time></trkpt><trkpt lat="45.65888693892859" lon="12.93757938786009"><ele>-2.0</ele><time>2026-05-01T09:06:42.972Z</time></trkpt><trkpt lat="45.6586878095588" lon="12.937904936177906"><ele>-2.0</ele><time>2026-05-01T09:06:43.972Z</time></trkpt><trkpt lat="45.65861331107066" lon="12.937906042250129"><ele>-2.0</ele><time>2026-05-01T09:06:44.972Z</time></trkpt><trkpt lat="45.65853803111732" lon="12.937902662199106"><ele>-2.1666666666666665</ele><time>2026-05-01T09:06:45.972Z</time></trkpt><trkpt lat="45.658465232699484" lon="12.937900160570578"><ele>-2.333333333333333</ele><time>2026-05-01T09:06:46.972Z</time></trkpt><trkpt lat="45.65839335843865" lon="12.937902360996707"><ele>-2.5</ele><time>2026-05-01T09:06:47.972Z</time></trkpt><trkpt lat="45.658317154463404" lon="12.937895443996265"><ele>-2.6666666666666665</ele><time>2026-05-01T09:06:48.972Z</time></trkpt><trkpt lat="45.65823209831506" lon="12.937892121427884"><ele>-2.8333333333333335</ele><time>2026-05-01T09:06:49.972Z</time></trkpt><trkpt lat="45.65814963563878" lon="12.937891164048507"><ele>-3.0</ele><time>2026-05-01T09:06:50.972Z</time></trkpt><trkpt lat="45.65806500728858" lon="12.937891436986003"><ele>-3.0</ele><time>2026-05-01T09:06:51.972Z</time></trkpt><trkpt lat="45.65798952059976" lon="12.937891799115206"><ele>-3.0</ele><time>2026-05-01T09:06:52.972Z</time></trkpt><trkpt lat="45.65790652608612" lon="12.93788374962672"><ele>-3.0</ele><time>2026-05-01T09:06:53.972Z</time></trkpt><trkpt lat="45.657830354382185" lon="12.93788618250712"><ele>-3.0</ele><time>2026-05-01T09:06:54.972Z</time></trkpt><trkpt lat="45.65774839012279" lon="12.937889011747908"><ele>-3.0</ele><time>2026-05-01T09:06:55.972Z</time></trkpt><trkpt lat="45.65766604350061" lon="12.937885119536794"><ele>-3.0</ele><time>2026-05-01T09:06:56.972Z</time></trkpt><trkpt lat="45.657585519130535" lon="12.937887522899974"><ele>-2.8333333333333335</ele><time>2026-05-01T09:06:57.972Z</time></trkpt><trkpt lat="45.657497550346825" lon="12.937895272540343"><ele>-2.6666666666666665</ele><time>2026-05-01T09:06:58.972Z</time></trkpt><trkpt lat="45.65741023302851" lon="12.937901899550786"><ele>-2.5</ele><time>2026-05-01T09:06:59.972Z</time></trkpt><trkpt lat="45.657323548913816" lon="12.937901335554628"><ele>-2.333333333333333</ele><time>2026-05-01T09:07:00.971Z</time></trkpt><trkpt lat="45.657236241574736" lon="12.937896865586996"><ele>-2.1666666666666665</ele><time>2026-05-01T09:07:01.971Z</time></trkpt><trkpt lat="45.657147889675514" lon="12.937887746021218"><ele>-2.0</ele><time>2026-05-01T09:07:02.971Z</time></trkpt><trkpt lat="45.657056138634715" lon="12.93789232288326"><ele>-2.0</ele><time>2026-05-01T09:07:03.971Z</time></trkpt><trkpt lat="45.656963932468464" lon="12.937896807550734"><ele>-2.0</ele><time>2026-05-01T09:07:04.971Z</time></trkpt><trkpt lat="45.65686476091653" lon="12.937898411022099"><ele>-2.0</ele><time>2026-05-01T09:07:05.971Z</time></trkpt><trkpt lat="45.65676703093139" lon="12.937893963431113"><ele>-2.0</ele><time>2026-05-01T09:07:06.971Z</time></trkpt><trkpt lat="45.656661765155384" lon="12.937902168919937"><ele>-2.0</ele><time>2026-05-01T09:07:07.971Z</time></trkpt><trkpt lat="45.65655664546754" lon="12.937901173257938"><ele>-1.8</ele><time>2026-05-01T09:07:08.971Z</time></trkpt><trkpt lat="45.65645788828314" lon="12.937897828955695"><ele>-1.6</ele><time>2026-05-01T09:07:09.971Z</time></trkpt><trkpt lat="45.65636152436933" lon="12.937896091268406"><ele>-1.4000000000000001</ele><time>2026-05-01T09:07:10.971Z</time></trkpt><trkpt lat="45.65627145345411" lon="12.9379000110259"><ele>-1.2000000000000002</ele><time>2026-05-01T09:07:11.971Z</time></trkpt><trkpt lat="45.65617735432663" lon="12.937906363276161"><ele>-1.0</ele><time>2026-05-01T09:07:12.971Z</time></trkpt><trkpt lat="45.65608446633607" lon="12.937907872449317"><ele>-0.9999999999999999</ele><time>2026-05-01T09:07:13.971Z</time></trkpt><trkpt lat="45.65598898423266" lon="12.937899426036205"><ele>-1.0</ele><time>2026-05-01T09:07:14.971Z</time></trkpt><trkpt lat="45.65590671188128" lon="12.937888895342175"><ele>-1.0</ele><time>2026-05-01T09:07:15.971Z</time></trkpt><trkpt lat="45.655840091581325" lon="12.937884358241043"><ele>-1.0</ele><time>2026-05-01T09:07:16.971Z</time></trkpt><trkpt lat="45.65571900151377" lon="12.937862463518758"><ele>-0.9999999999999999</ele><time>2026-05-01T09:07:18.971Z</time></trkpt><trkpt lat="45.65565226218497" lon="12.937832526177743"><ele>-1.0</ele><time>2026-05-01T09:07:19.971Z</time></trkpt><trkpt lat="45.65557408469541" lon="12.937787333399157"><ele>-0.9999999999999999</ele><time>2026-05-01T09:07:20.971Z</time></trkpt><trkpt lat="45.65549654152479" lon="12.937736837643472"><ele>-1.0</ele><time>2026-05-01T09:07:21.971Z</time></trkpt><trkpt lat="45.65542017667008" lon="12.937685767353896"><ele>-1.0</ele><time>2026-05-01T09:07:22.971Z</time></trkpt><trkpt lat="45.65534856337844" lon="12.937641659303234"><ele>-1.0</ele><time>2026-05-01T09:07:23.971Z</time></trkpt><trkpt lat="45.65527703910016" lon="12.937595783462735"><ele>-0.9999999999999999</ele><time>2026-05-01T09:07:24.971Z</time></trkpt><trkpt lat="45.655201338903" lon="12.93755103712621"><ele>-1.0</ele><time>2026-05-01T09:07:25.971Z</time></trkpt><trkpt lat="45.65512294595371" lon="12.937504208426976"><ele>-1.3333333333333333</ele><time>2026-05-01T09:07:26.971Z</time></trkpt><trkpt lat="45.65505011153701" lon="12.93746220694393"><ele>-1.6666666666666665</ele><time>2026-05-01T09:07:27.971Z</time></trkpt><trkpt lat="45.65497921191419" lon="12.93741665381543"><ele>-2.0</ele><time>2026-05-01T09:07:28.971Z</time></trkpt><trkpt lat="45.65491126181811" lon="12.937371008872551"><ele>-2.3333333333333335</ele><time>2026-05-01T09:07:29.971Z</time></trkpt><trkpt lat="45.65485074235877" lon="12.937314317555696"><ele>-2.6666666666666665</ele><time>2026-05-01T09:07:30.971Z</time></trkpt><trkpt lat="45.65479371187009" lon="12.937242979399139"><ele>-3.0</ele><time>2026-05-01T09:07:31.971Z</time></trkpt><trkpt lat="45.65474397632777" lon="12.937159364899463"><ele>-3.0</ele><time>2026-05-01T09:07:32.971Z</time></trkpt><trkpt lat="45.65470123863579" lon="12.937073278011246"><ele>-3.0</ele><time>2026-05-01T09:07:33.971Z</time></trkpt><trkpt lat="45.65467056661676" lon="12.936974819724586"><ele>-3.0</ele><time>2026-05-01T09:07:34.971Z</time></trkpt><trkpt lat="45.65464979349257" lon="12.936868243200214"><ele>-3.0</ele><time>2026-05-01T09:07:35.971Z</time></trkpt><trkpt lat="45.654647497701134" lon="12.936760955351607"><ele>-3.0</ele><time>2026-05-01T09:07:36.971Z</time></trkpt><trkpt lat="45.65465613799892" lon="12.936645823854095"><ele>-3.0</ele><time>2026-05-01T09:07:37.971Z</time></trkpt><trkpt lat="45.65467241610007" lon="12.936530728170737"><ele>-3.0</ele><time>2026-05-01T09:07:38.971Z</time></trkpt><trkpt lat="45.65469177568261" lon="12.936413048412497"><ele>-3.0</ele><time>2026-05-01T09:07:39.971Z</time></trkpt><trkpt lat="45.65470748468902" lon="12.93629999503372"><ele>-3.0</ele><time>2026-05-01T09:07:40.971Z</time></trkpt><trkpt lat="45.654723831866505" lon="12.93618251584111"><ele>-3.0</ele><time>2026-05-01T09:07:41.971Z</time></trkpt><trkpt lat="45.65474214337426" lon="12.936067622890612"><ele>-3.0</ele><time>2026-05-01T09:07:42.971Z</time></trkpt><trkpt lat="45.65476087289319" lon="12.935960053195132"><ele>-3.0</ele><time>2026-05-01T09:07:43.971Z</time></trkpt><trkpt lat="45.65478349564573" lon="12.935832210765913"><ele>-3.0</ele><time>2026-05-01T09:07:44.971Z</time></trkpt><trkpt lat="45.65480313108982" lon="12.935709697148637"><ele>-3.0</ele><time>2026-05-01T09:07:45.971Z</time></trkpt><trkpt lat="45.654825736413244" lon="12.935589090405278"><ele>-3.0</ele><time>2026-05-01T09:07:46.971Z</time></trkpt><trkpt lat="45.65484207950717" lon="12.935474548877988"><ele>-3.0</ele><time>2026-05-01T09:07:47.971Z</time></trkpt><trkpt lat="45.65485687090116" lon="12.935359709470019"><ele>-3.0</ele><time>2026-05-01T09:07:48.971Z</time></trkpt><trkpt lat="45.65487206441856" lon="12.935239031498774"><ele>-3.0</ele><time>2026-05-01T09:07:49.971Z</time></trkpt><trkpt lat="45.654886582347274" lon="12.935116545176552"><ele>-2.8</ele><time>2026-05-01T09:07:50.971Z</time></trkpt><trkpt lat="45.65490150659923" lon="12.934992082886842"><ele>-2.5999999999999996</ele><time>2026-05-01T09:07:51.971Z</time></trkpt><trkpt lat="45.65492061264733" lon="12.934862238814832"><ele>-2.4000000000000004</ele><time>2026-05-01T09:07:52.971Z</time></trkpt><trkpt lat="45.65493498867869" lon="12.934741469409216"><ele>-2.2</ele><time>2026-05-01T09:07:53.971Z</time></trkpt><trkpt lat="45.654945754969326" lon="12.93460873273573"><ele>-2.0</ele><time>2026-05-01T09:07:54.971Z</time></trkpt><trkpt lat="45.65495150214063" lon="12.93447820468084"><ele>-1.9999999999999998</ele><time>2026-05-01T09:07:55.971Z</time></trkpt><trkpt lat="45.65495403900918" lon="12.934357359568557"><ele>-2.0</ele><time>2026-05-01T09:07:56.971Z</time></trkpt><trkpt lat="45.65495995758123" lon="12.934239804432977"><ele>-2.0</ele><time>2026-05-01T09:07:57.971Z</time></trkpt><trkpt lat="45.65495264505916" lon="12.934116583424366"><ele>-2.0</ele><time>2026-05-01T09:07:58.971Z</time></trkpt><trkpt lat="45.654936681672055" lon="12.933981311749196"><ele>-1.9999999999999998</ele><time>2026-05-01T09:07:59.971Z</time></trkpt><trkpt lat="45.65491747931001" lon="12.933850222330497"><ele>-2.0</ele><time>2026-05-01T09:08:00.971Z</time></trkpt><trkpt lat="45.654896327486455" lon="12.93372616165008"><ele>-2.1666666666666665</ele><time>2026-05-01T09:08:01.971Z</time></trkpt><trkpt lat="45.654873421023325" lon="12.933604367028087"><ele>-2.333333333333333</ele><time>2026-05-01T09:08:02.971Z</time></trkpt><trkpt lat="45.65484694307657" lon="12.933483273297137"><ele>-2.5</ele><time>2026-05-01T09:08:03.971Z</time></trkpt><trkpt lat="45.654814986620856" lon="12.93336343497351"><ele>-2.6666666666666665</ele><time>2026-05-01T09:08:04.971Z</time></trkpt><trkpt lat="45.65477842833721" lon="12.93324450556835"><ele>-2.8333333333333335</ele><time>2026-05-01T09:08:05.972Z</time></trkpt><trkpt lat="45.65474342086674" lon="12.933135384386496"><ele>-3.0</ele><time>2026-05-01T09:08:06.972Z</time></trkpt><trkpt lat="45.65470536408066" lon="12.933032139196289"><ele>-3.0</ele><time>2026-05-01T09:08:07.972Z</time></trkpt><trkpt lat="45.65466386668387" lon="12.932928356873933"><ele>-3.0</ele><time>2026-05-01T09:08:08.972Z</time></trkpt><trkpt lat="45.654623511555684" lon="12.932825672381988"><ele>-3.0</ele><time>2026-05-01T09:08:09.972Z</time></trkpt><trkpt lat="45.654582959738434" lon="12.932732598252219"><ele>-3.0</ele><time>2026-05-01T09:08:10.972Z</time></trkpt><trkpt lat="45.65453549575821" lon="12.932639267389405"><ele>-3.0</ele><time>2026-05-01T09:08:11.972Z</time></trkpt><trkpt lat="45.65448266081893" lon="12.932551670354435"><ele>-3.0</ele><time>2026-05-01T09:08:12.971Z</time></trkpt><trkpt lat="45.65442480054031" lon="12.932467112094658"><ele>-3.0</ele><time>2026-05-01T09:08:13.971Z</time></trkpt><trkpt lat="45.654370549972285" lon="12.932388082384369"><ele>-3.0</ele><time>2026-05-01T09:08:14.972Z</time></trkpt><trkpt lat="45.6543162016104" lon="12.932310657539269"><ele>-3.0</ele><time>2026-05-01T09:08:15.971Z</time></trkpt><trkpt lat="45.6542569593594" lon="12.932226996723413"><ele>-3.0</ele><time>2026-05-01T09:08:16.971Z</time></trkpt><trkpt lat="45.65419739109392" lon="12.932147964708221"><ele>-3.0</ele><time>2026-05-01T09:08:17.972Z</time></trkpt><trkpt lat="45.65413418732751" lon="12.932072157801093"><ele>-3.0</ele><time>2026-05-01T09:08:18.971Z</time></trkpt><trkpt lat="45.65406130915067" lon="12.932008509849094"><ele>-3.0</ele><time>2026-05-01T09:08:19.971Z</time></trkpt><trkpt lat="45.65397930523505" lon="12.93195691403738"><ele>-3.0</ele><time>2026-05-01T09:08:20.971Z</time></trkpt><trkpt lat="45.65389334115413" lon="12.931917536178565"><ele>-3.0</ele><time>2026-05-01T09:08:21.971Z</time></trkpt><trkpt lat="45.65380453358731" lon="12.931877353195366"><ele>-3.0</ele><time>2026-05-01T09:08:22.971Z</time></trkpt><trkpt lat="45.65371681879658" lon="12.93184888104866"><ele>-3.0</ele><time>2026-05-01T09:08:23.971Z</time></trkpt><trkpt lat="45.65363455860878" lon="12.93182728855423"><ele>-3.0</ele><time>2026-05-01T09:08:24.971Z</time></trkpt><trkpt lat="45.65355305534445" lon="12.931793705454655"><ele>-2.8333333333333335</ele><time>2026-05-01T09:08:25.971Z</time></trkpt><trkpt lat="45.65347198530398" lon="12.931760714267869"><ele>-2.6666666666666665</ele><time>2026-05-01T09:08:26.971Z</time></trkpt><trkpt lat="45.65339486338728" lon="12.931714835833395"><ele>-2.5</ele><time>2026-05-01T09:08:27.971Z</time></trkpt><trkpt lat="45.65331555487893" lon="12.931670614804554"><ele>-2.333333333333333</ele><time>2026-05-01T09:08:28.971Z</time></trkpt><trkpt lat="45.6532503262252" lon="12.931634142479366"><ele>-2.1666666666666665</ele><time>2026-05-01T09:08:29.971Z</time></trkpt><trkpt lat="45.65316727290768" lon="12.931556695415674"><ele>-2.0</ele><time>2026-05-01T09:08:31.971Z</time></trkpt><trkpt lat="45.653173755305" lon="12.931459537665578"><ele>-2.0</ele><time>2026-05-01T09:08:34.971Z</time></trkpt><trkpt lat="45.65321277730796" lon="12.931343316859374"><ele>-2.0</ele><time>2026-05-01T09:08:52.971Z</time></trkpt><trkpt lat="45.65327262495363" lon="12.931196199300393"><ele>-2.0</ele><time>2026-05-01T09:08:54.971Z</time></trkpt><trkpt lat="45.65335032677569" lon="12.931043168620311"><ele>-2.0</ele><time>2026-05-01T09:08:56.971Z</time></trkpt><trkpt lat="45.653391922773615" lon="12.930956434688845"><ele>-2.0</ele><time>2026-05-01T09:08:57.971Z</time></trkpt><trkpt lat="45.65343993670651" lon="12.930868870748164"><ele>-2.1666666666666665</ele><time>2026-05-01T09:08:58.971Z</time></trkpt><trkpt lat="45.65349012969649" lon="12.930773734416233"><ele>-2.333333333333333</ele><time>2026-05-01T09:08:59.971Z</time></trkpt><trkpt lat="45.65354272800492" lon="12.930671664679995"><ele>-2.5</ele><time>2026-05-01T09:09:00.971Z</time></trkpt><trkpt lat="45.653590861219826" lon="12.930563870383352"><ele>-2.6666666666666665</ele><time>2026-05-01T09:09:01.971Z</time></trkpt><trkpt lat="45.65364438154053" lon="12.93045328371553"><ele>-2.8333333333333335</ele><time>2026-05-01T09:09:02.971Z</time></trkpt><trkpt lat="45.653695685831245" lon="12.93034555087186"><ele>-3.0</ele><time>2026-05-01T09:09:03.971Z</time></trkpt><trkpt lat="45.65374618823127" lon="12.930240735503812"><ele>-3.0</ele><time>2026-05-01T09:09:04.971Z</time></trkpt><trkpt lat="45.65379162800276" lon="12.930133067984999"><ele>-3.0</ele><time>2026-05-01T09:09:05.971Z</time></trkpt><trkpt lat="45.65383615168101" lon="12.930023058897245"><ele>-3.0</ele><time>2026-05-01T09:09:06.971Z</time></trkpt><trkpt lat="45.65388026572196" lon="12.929911798667087"><ele>-3.0</ele><time>2026-05-01T09:09:07.971Z</time></trkpt><trkpt lat="45.65392286911619" lon="12.92979800120718"><ele>-3.0</ele><time>2026-05-01T09:09:08.971Z</time></trkpt><trkpt lat="45.65396443525603" lon="12.929680200371303"><ele>-3.0</ele><time>2026-05-01T09:09:09.971Z</time></trkpt><trkpt lat="45.65400594848775" lon="12.929559616378931"><ele>-2.8</ele><time>2026-05-01T09:09:10.971Z</time></trkpt><trkpt lat="45.65404992461613" lon="12.929444674232592"><ele>-2.5999999999999996</ele><time>2026-05-01T09:09:11.971Z</time></trkpt><trkpt lat="45.65409423337213" lon="12.929328629379722"><ele>-2.4000000000000004</ele><time>2026-05-01T09:09:12.971Z</time></trkpt><trkpt lat="45.654134734716415" lon="12.929211183584222"><ele>-2.2</ele><time>2026-05-01T09:09:13.971Z</time></trkpt><trkpt lat="45.65417748312628" lon="12.929086417001212"><ele>-2.0</ele><time>2026-05-01T09:09:14.971Z</time></trkpt><trkpt lat="45.654214122088995" lon="12.928968978964047"><ele>-2.0</ele><time>2026-05-01T09:09:15.971Z</time></trkpt><trkpt lat="45.654248300964504" lon="12.928848981317588"><ele>-2.0</ele><time>2026-05-01T09:09:16.971Z</time></trkpt><trkpt lat="45.65428667835653" lon="12.928727206423568"><ele>-2.0</ele><time>2026-05-01T09:09:17.971Z</time></trkpt><trkpt lat="45.65432494282018" lon="12.928606219027433"><ele>-2.0</ele><time>2026-05-01T09:09:18.971Z</time></trkpt><trkpt lat="45.65436616250497" lon="12.928476650641942"><ele>-2.0</ele><time>2026-05-01T09:09:19.971Z</time></trkpt><trkpt lat="45.65440734020894" lon="12.92834881756661"><ele>-2.2</ele><time>2026-05-01T09:09:20.971Z</time></trkpt><trkpt lat="45.6544508284999" lon="12.928220563061972"><ele>-2.4000000000000004</ele><time>2026-05-01T09:09:21.971Z</time></trkpt><trkpt lat="45.654495341775394" lon="12.92808364322173"><ele>-2.5999999999999996</ele><time>2026-05-01T09:09:22.971Z</time></trkpt><trkpt lat="45.65454413162229" lon="12.927950398448328"><ele>-2.8</ele><time>2026-05-01T09:09:23.971Z</time></trkpt><trkpt lat="45.6545968421891" lon="12.927810418742563"><ele>-3.0</ele><time>2026-05-01T09:09:24.971Z</time></trkpt><trkpt lat="45.65464239659716" lon="12.92766340273266"><ele>-3.2</ele><time>2026-05-01T09:09:25.971Z</time></trkpt><trkpt lat="45.6546838216559" lon="12.927515335284014"><ele>-3.4</ele><time>2026-05-01T09:09:26.971Z</time></trkpt><trkpt lat="45.65472184514866" lon="12.927363481103402"><ele>-3.6000000000000005</ele><time>2026-05-01T09:09:27.971Z</time></trkpt><trkpt lat="45.65475857229208" lon="12.927213278341359"><ele>-3.8000000000000003</ele><time>2026-05-01T09:09:28.971Z</time></trkpt><trkpt lat="45.65478492388757" lon="12.927069461298679"><ele>-4.0</ele><time>2026-05-01T09:09:29.971Z</time></trkpt><trkpt lat="45.65479842231323" lon="12.9269076273266"><ele>-4.0</ele><time>2026-05-01T09:09:30.971Z</time></trkpt><trkpt lat="45.65480180577063" lon="12.926735797101301"><ele>-4.0</ele><time>2026-05-01T09:09:31.971Z</time></trkpt><trkpt lat="45.65480197722444" lon="12.926571731438315"><ele>-4.0</ele><time>2026-05-01T09:09:32.971Z</time></trkpt><trkpt lat="45.65479262042787" lon="12.926402748434763"><ele>-4.0</ele><time>2026-05-01T09:09:33.971Z</time></trkpt><trkpt lat="45.654774813736026" lon="12.926235283812987"><ele>-4.0</ele><time>2026-05-01T09:09:34.971Z</time></trkpt><trkpt lat="45.65474956724774" lon="12.92605952070883"><ele>-4.0</ele><time>2026-05-01T09:09:35.971Z</time></trkpt><trkpt lat="45.65472586031954" lon="12.92588711362894"><ele>-4.0</ele><time>2026-05-01T09:09:36.97Z</time></trkpt><trkpt lat="45.654695506987935" lon="12.925712368907993"><ele>-4.0</ele><time>2026-05-01T09:09:37.97Z</time></trkpt><trkpt lat="45.654664867759976" lon="12.925547883093182"><ele>-3.8000000000000003</ele><time>2026-05-01T09:09:38.97Z</time></trkpt><trkpt lat="45.654637095436776" lon="12.92540446031494"><ele>-3.6000000000000005</ele><time>2026-05-01T09:09:39.97Z</time></trkpt><trkpt lat="45.65460814530808" lon="12.92529395308849"><ele>-3.4</ele><time>2026-05-01T09:09:40.97Z</time></trkpt><trkpt lat="45.654586055560266" lon="12.92519257187657"><ele>-3.2</ele><time>2026-05-01T09:09:41.97Z</time></trkpt><trkpt lat="45.65455378299007" lon="12.92502868112381"><ele>-3.0</ele><time>2026-05-01T09:09:43.97Z</time></trkpt><trkpt lat="45.65451517820346" lon="12.924844917999186"><ele>-3.0</ele><time>2026-05-01T09:09:45.97Z</time></trkpt><trkpt lat="45.654503328086655" lon="12.924731172934596"><ele>-3.0</ele><time>2026-05-01T09:09:46.97Z</time></trkpt><trkpt lat="45.65449038383849" lon="12.92461668844157"><ele>-3.0</ele><time>2026-05-01T09:09:47.97Z</time></trkpt><trkpt lat="45.65448516948301" lon="12.924504553161668"><ele>-3.0</ele><time>2026-05-01T09:09:48.97Z</time></trkpt><trkpt lat="45.65448055438341" lon="12.924388508116563"><ele>-3.0</ele><time>2026-05-01T09:09:49.97Z</time></trkpt><trkpt lat="45.65447922934734" lon="12.924277300820506"><ele>-3.0</ele><time>2026-05-01T09:09:50.97Z</time></trkpt><trkpt lat="45.65447816160664" lon="12.924159748021884"><ele>-2.9999999999999996</ele><time>2026-05-01T09:09:51.97Z</time></trkpt><trkpt lat="45.65447769097702" lon="12.924054819541839"><ele>-3.0</ele><time>2026-05-01T09:09:52.97Z</time></trkpt><trkpt lat="45.65448308357581" lon="12.923940579953696"><ele>-3.0</ele><time>2026-05-01T09:09:53.97Z</time></trkpt><trkpt lat="45.654488081786475" lon="12.923827094732504"><ele>-3.0</ele><time>2026-05-01T09:09:54.97Z</time></trkpt><trkpt lat="45.6545061641187" lon="12.923726908327557"><ele>-3.0</ele><time>2026-05-01T09:09:55.97Z</time></trkpt><trkpt lat="45.65452489359054" lon="12.923620937692709"><ele>-2.9999999999999996</ele><time>2026-05-01T09:09:56.97Z</time></trkpt><trkpt lat="45.65454864789927" lon="12.923534106929813"><ele>-3.0</ele><time>2026-05-01T09:09:57.97Z</time></trkpt><trkpt lat="45.65461385455101" lon="12.923383868357268"><ele>-3.0</ele><time>2026-05-01T09:09:59.97Z</time></trkpt><trkpt lat="45.65466546306344" lon="12.923315529294548"><ele>-3.0</ele><time>2026-05-01T09:10:00.97Z</time></trkpt><trkpt lat="45.654720965214125" lon="12.923253531538126"><ele>-3.0</ele><time>2026-05-01T09:10:01.97Z</time></trkpt><trkpt lat="45.65477943825815" lon="12.923214090560318"><ele>-3.0</ele><time>2026-05-01T09:10:02.97Z</time></trkpt><trkpt lat="45.65489352209421" lon="12.923178235333525"><ele>-3.0</ele><time>2026-05-01T09:10:04.97Z</time></trkpt><trkpt lat="45.654949429763434" lon="12.923071183557866"><ele>-3.0</ele><time>2026-05-01T09:10:06.97Z</time></trkpt><trkpt lat="45.654951821521884" lon="12.922917812449636"><ele>-2.9999999999999996</ele><time>2026-05-01T09:10:08.97Z</time></trkpt><trkpt lat="45.65491028822126" lon="12.922839964780401"><ele>-3.0</ele><time>2026-05-01T09:10:10.97Z</time></trkpt><trkpt lat="45.65484663553739" lon="12.922847086117795"><ele>-3.0</ele><time>2026-05-01T09:10:12.972Z</time></trkpt><trkpt lat="45.65479116669209" lon="12.922931694709165"><ele>-3.0</ele><time>2026-05-01T09:10:14.972Z</time></trkpt><trkpt lat="45.65475625387353" lon="12.923016149109007"><ele>-3.0</ele><time>2026-05-01T09:10:15.972Z</time></trkpt><trkpt lat="45.65470791593348" lon="12.923075771449982"><ele>-2.9999999999999996</ele><time>2026-05-01T09:10:16.972Z</time></trkpt><trkpt lat="45.65464276266924" lon="12.923122663433288"><ele>-3.0</ele><time>2026-05-01T09:10:17.972Z</time></trkpt><trkpt lat="45.654568685801756" lon="12.923185730704418"><ele>-3.0</ele><time>2026-05-01T09:10:18.972Z</time></trkpt><trkpt lat="45.65450938686913" lon="12.923265770020164"><ele>-3.0</ele><time>2026-05-01T09:10:19.972Z</time></trkpt><trkpt lat="45.654462359573714" lon="12.923374582803163"><ele>-3.0</ele><time>2026-05-01T09:10:20.973Z</time></trkpt><trkpt lat="45.65442243141038" lon="12.92350357230326"><ele>-3.0</ele><time>2026-05-01T09:10:21.972Z</time></trkpt><trkpt lat="45.65439078058341" lon="12.923627551875057"><ele>-3.0</ele><time>2026-05-01T09:10:22.972Z</time></trkpt><trkpt lat="45.654369544934376" lon="12.923755449558064"><ele>-3.0</ele><time>2026-05-01T09:10:23.973Z</time></trkpt><trkpt lat="45.65435381419172" lon="12.92388391457338"><ele>-3.0</ele><time>2026-05-01T09:10:24.972Z</time></trkpt><trkpt lat="45.654350814825484" lon="12.92400757072457"><ele>-3.0</ele><time>2026-05-01T09:10:25.972Z</time></trkpt><trkpt lat="45.6543458169069" lon="12.92415346687306"><ele>-3.0</ele><time>2026-05-01T09:10:26.972Z</time></trkpt><trkpt lat="45.654343762247855" lon="12.92430048084759"><ele>-3.0</ele><time>2026-05-01T09:10:27.972Z</time></trkpt><trkpt lat="45.65434715654475" lon="12.92444607569067"><ele>-2.8</ele><time>2026-05-01T09:10:28.973Z</time></trkpt><trkpt lat="45.65435434973826" lon="12.924588776644336"><ele>-2.5999999999999996</ele><time>2026-05-01T09:10:29.973Z</time></trkpt><trkpt lat="45.65436369335969" lon="12.92472977699471"><ele>-2.4000000000000004</ele><time>2026-05-01T09:10:30.973Z</time></trkpt><trkpt lat="45.65438253869451" lon="12.924869610994104"><ele>-2.2</ele><time>2026-05-01T09:10:31.973Z</time></trkpt><trkpt lat="45.654401027715316" lon="12.925006700616176"><ele>-2.0</ele><time>2026-05-01T09:10:32.973Z</time></trkpt><trkpt lat="45.65442326878785" lon="12.92514319344205"><ele>-2.0</ele><time>2026-05-01T09:10:33.973Z</time></trkpt><trkpt lat="45.65444502862525" lon="12.925275172445904"><ele>-2.0</ele><time>2026-05-01T09:10:34.973Z</time></trkpt><trkpt lat="45.654474348210385" lon="12.925402292363001"><ele>-2.0</ele><time>2026-05-01T09:10:35.973Z</time></trkpt><trkpt lat="45.65450371691203" lon="12.925530950407953"><ele>-2.0</ele><time>2026-05-01T09:10:36.973Z</time></trkpt><trkpt lat="45.65453304604176" lon="12.925664413317417"><ele>-2.0</ele><time>2026-05-01T09:10:37.973Z</time></trkpt><trkpt lat="45.654565739630264" lon="12.925798288644483"><ele>-2.4000000000000004</ele><time>2026-05-01T09:10:38.973Z</time></trkpt><trkpt lat="45.65459030565216" lon="12.925933657442586"><ele>-2.8000000000000003</ele><time>2026-05-01T09:10:39.973Z</time></trkpt><trkpt lat="45.65461042416941" lon="12.926066723183721"><ele>-3.2</ele><time>2026-05-01T09:10:40.973Z</time></trkpt><trkpt lat="45.65462986221799" lon="12.926201989444246"><ele>-3.6</ele><time>2026-05-01T09:10:41.973Z</time></trkpt><trkpt lat="45.654644794961456" lon="12.92634018138221"><ele>-4.0</ele><time>2026-05-01T09:10:42.973Z</time></trkpt><trkpt lat="45.65465443228246" lon="12.926482681536536"><ele>-4.0</ele><time>2026-05-01T09:10:43.973Z</time></trkpt><trkpt lat="45.65466718475477" lon="12.926625372334486"><ele>-4.0</ele><time>2026-05-01T09:10:44.973Z</time></trkpt><trkpt lat="45.65467223277188" lon="12.92676953736686"><ele>-4.0</ele><time>2026-05-01T09:10:45.973Z</time></trkpt><trkpt lat="45.654667355321024" lon="12.926912531614533"><ele>-4.0</ele><time>2026-05-01T09:10:46.973Z</time></trkpt><trkpt lat="45.654648742070265" lon="12.927055584660316"><ele>-4.0</ele><time>2026-05-01T09:10:47.973Z</time></trkpt><trkpt lat="45.65462110976362" lon="12.92719651712753"><ele>-4.0</ele><time>2026-05-01T09:10:48.973Z</time></trkpt><trkpt lat="45.65458500274373" lon="12.92733117069041"><ele>-4.0</ele><time>2026-05-01T09:10:49.973Z</time></trkpt><trkpt lat="45.654546284316446" lon="12.92747418914907"><ele>-4.0</ele><time>2026-05-01T09:10:50.973Z</time></trkpt><trkpt lat="45.65449639741294" lon="12.927628197875437"><ele>-4.0</ele><time>2026-05-01T09:10:51.973Z</time></trkpt><trkpt lat="45.654444713950625" lon="12.927791238248005"><ele>-3.75</ele><time>2026-05-01T09:10:52.973Z</time></trkpt><trkpt lat="45.6543914839271" lon="12.927950994850763"><ele>-3.5</ele><time>2026-05-01T09:10:53.973Z</time></trkpt><trkpt lat="45.65434781828275" lon="12.928084274656644"><ele>-3.25</ele><time>2026-05-01T09:10:54.973Z</time></trkpt><trkpt lat="45.654293765725704" lon="12.928222318059083"><ele>-3.0</ele><time>2026-05-01T09:10:55.973Z</time></trkpt><trkpt lat="45.6542453327771" lon="12.928367741032142"><ele>-2.75</ele><time>2026-05-01T09:10:56.973Z</time></trkpt><trkpt lat="45.65419760429556" lon="12.928513035046228"><ele>-2.5</ele><time>2026-05-01T09:10:57.973Z</time></trkpt><trkpt lat="45.65415077920883" lon="12.928657490216303"><ele>-2.25</ele><time>2026-05-01T09:10:58.973Z</time></trkpt><trkpt lat="45.654103092651035" lon="12.928806792995287"><ele>-2.0</ele><time>2026-05-01T09:10:59.973Z</time></trkpt><trkpt lat="45.65405410688624" lon="12.928953169893596"><ele>-2.0</ele><time>2026-05-01T09:11:00.973Z</time></trkpt><trkpt lat="45.65400661311895" lon="12.92909779263962"><ele>-2.0</ele><time>2026-05-01T09:11:01.973Z</time></trkpt><trkpt lat="45.65395403707918" lon="12.929249038673843"><ele>-2.0</ele><time>2026-05-01T09:11:02.973Z</time></trkpt><trkpt lat="45.65390060985124" lon="12.929401718840742"><ele>-2.0</ele><time>2026-05-01T09:11:03.973Z</time></trkpt><trkpt lat="45.65384591215266" lon="12.929549781812428"><ele>-2.0</ele><time>2026-05-01T09:11:04.973Z</time></trkpt><trkpt lat="45.65379523202308" lon="12.929699294037237"><ele>-2.0</ele><time>2026-05-01T09:11:05.973Z</time></trkpt><trkpt lat="45.65374038663267" lon="12.929845639087214"><ele>-2.0</ele><time>2026-05-01T09:11:06.973Z</time></trkpt><trkpt lat="45.65367760039819" lon="12.929999028171004"><ele>-2.0</ele><time>2026-05-01T09:11:07.973Z</time></trkpt><trkpt lat="45.653607975894495" lon="12.930160813997219"><ele>-2.25</ele><time>2026-05-01T09:11:08.973Z</time></trkpt><trkpt lat="45.653541265088066" lon="12.93031990756598"><ele>-2.5</ele><time>2026-05-01T09:11:09.973Z</time></trkpt><trkpt lat="45.65346314126656" lon="12.930472393581676"><ele>-2.75</ele><time>2026-05-01T09:11:10.973Z</time></trkpt><trkpt lat="45.65338651471401" lon="12.9306231464664"><ele>-3.0</ele><time>2026-05-01T09:11:11.973Z</time></trkpt><trkpt lat="45.65331622340926" lon="12.930761624535666"><ele>-3.0</ele><time>2026-05-01T09:11:12.973Z</time></trkpt><trkpt lat="45.65325685622765" lon="12.930878670189886"><ele>-3.0</ele><time>2026-05-01T09:11:13.973Z</time></trkpt><trkpt lat="45.65320519788819" lon="12.930981344138953"><ele>-3.0</ele><time>2026-05-01T09:11:14.972Z</time></trkpt><trkpt lat="45.653153288473064" lon="12.931086761520529"><ele>-3.0</ele><time>2026-05-01T09:11:15.972Z</time></trkpt><trkpt lat="45.65309947133955" lon="12.93119693623237"><ele>-3.0</ele><time>2026-05-01T09:11:16.972Z</time></trkpt><trkpt lat="45.653041448214545" lon="12.931286166325181"><ele>-3.0</ele><time>2026-05-01T09:11:17.972Z</time></trkpt><trkpt lat="45.652984202278866" lon="12.93136418545789"><ele>-3.0</ele><time>2026-05-01T09:11:18.972Z</time></trkpt><trkpt lat="45.65291151104669" lon="12.9314211355331"><ele>-3.0</ele><time>2026-05-01T09:11:19.972Z</time></trkpt><trkpt lat="45.65282818357279" lon="12.931475074673482"><ele>-3.0</ele><time>2026-05-01T09:11:20.972Z</time></trkpt><trkpt lat="45.65274387819215" lon="12.931510997516378"><ele>-3.0</ele><time>2026-05-01T09:11:21.972Z</time></trkpt><trkpt lat="45.65265752387958" lon="12.931545925345072"><ele>-3.0</ele><time>2026-05-01T09:11:22.972Z</time></trkpt><trkpt lat="45.65258394645837" lon="12.93157693326558"><ele>-3.0</ele><time>2026-05-01T09:11:23.972Z</time></trkpt><trkpt lat="45.652522036843415" lon="12.931607603161162"><ele>-3.0</ele><time>2026-05-01T09:11:24.972Z</time></trkpt><trkpt lat="45.65240393126818" lon="12.931576734742553"><ele>-3.0</ele><time>2026-05-01T09:11:26.972Z</time></trkpt><trkpt lat="45.65233810031526" lon="12.931502520919501"><ele>-3.0</ele><time>2026-05-01T09:11:27.972Z</time></trkpt><trkpt lat="45.65227582378563" lon="12.931429122093677"><ele>-3.0</ele><time>2026-05-01T09:11:28.972Z</time></trkpt><trkpt lat="45.65221116108061" lon="12.931391152640861"><ele>-3.0</ele><time>2026-05-01T09:11:29.972Z</time></trkpt><trkpt lat="45.65214825481115" lon="12.931386423370157"><ele>-3.0</ele><time>2026-05-01T09:11:30.972Z</time></trkpt><trkpt lat="45.6520761341116" lon="12.931429284671848"><ele>-3.0</ele><time>2026-05-01T09:11:32.972Z</time></trkpt><trkpt lat="45.65203469351333" lon="12.93150825745697"><ele>-3.0</ele><time>2026-05-01T09:11:34.972Z</time></trkpt><trkpt lat="45.65197825360613" lon="12.93165736621344"><ele>-3.0</ele><time>2026-05-01T09:11:36.972Z</time></trkpt><trkpt lat="45.651939211174636" lon="12.931742535065474"><ele>-3.0</ele><time>2026-05-01T09:11:37.972Z</time></trkpt><trkpt lat="45.651908543334514" lon="12.931843034273859"><ele>-3.0</ele><time>2026-05-01T09:11:38.972Z</time></trkpt><trkpt lat="45.65186771001332" lon="12.931932784033183"><ele>-2.8333333333333335</ele><time>2026-05-01T09:11:39.972Z</time></trkpt><trkpt lat="45.651821380904416" lon="12.932023829936"><ele>-2.6666666666666665</ele><time>2026-05-01T09:11:40.972Z</time></trkpt><trkpt lat="45.65177296914566" lon="12.932111310006794"><ele>-2.5</ele><time>2026-05-01T09:11:41.972Z</time></trkpt><trkpt lat="45.65172117928318" lon="12.932204293742915"><ele>-2.333333333333333</ele><time>2026-05-01T09:11:42.972Z</time></trkpt><trkpt lat="45.65167500650542" lon="12.932301367600944"><ele>-2.1666666666666665</ele><time>2026-05-01T09:11:43.972Z</time></trkpt><trkpt lat="45.651635885788394" lon="12.932388754327281"><ele>-2.0</ele><time>2026-05-01T09:11:44.972Z</time></trkpt><trkpt lat="45.65160203548751" lon="12.932471236753981"><ele>-2.0</ele><time>2026-05-01T09:11:45.972Z</time></trkpt><trkpt lat="45.651564403782935" lon="12.932626573973192"><ele>-2.0</ele><time>2026-05-01T09:11:47.972Z</time></trkpt><trkpt lat="45.65156155815682" lon="12.932796120440539"><ele>-2.0</ele><time>2026-05-01T09:11:49.972Z</time></trkpt><trkpt lat="45.65159183500054" lon="12.932951324855344"><ele>-2.0</ele><time>2026-05-01T09:11:51.972Z</time></trkpt><trkpt lat="45.65162077949129" lon="12.933036200196"><ele>-2.0</ele><time>2026-05-01T09:11:52.972Z</time></trkpt><trkpt lat="45.651655961593455" lon="12.93313012614655"><ele>-1.9999999999999998</ele><time>2026-05-01T09:11:53.972Z</time></trkpt><trkpt lat="45.65169258716812" lon="12.93321877682135"><ele>-2.0</ele><time>2026-05-01T09:11:54.972Z</time></trkpt><trkpt lat="45.65173397466674" lon="12.933294315845075"><ele>-2.0</ele><time>2026-05-01T09:11:55.972Z</time></trkpt><trkpt lat="45.651818691978306" lon="12.93344080116112"><ele>-2.0</ele><time>2026-05-01T09:11:57.972Z</time></trkpt><trkpt lat="45.65186764893115" lon="12.93351376699035"><ele>-1.9999999999999998</ele><time>2026-05-01T09:11:58.972Z</time></trkpt><trkpt lat="45.65190558998372" lon="12.933594093618742"><ele>-2.0</ele><time>2026-05-01T09:11:59.972Z</time></trkpt><trkpt lat="45.651927979130875" lon="12.933679425992429"><ele>-1.8333333333333333</ele><time>2026-05-01T09:12:00.972Z</time></trkpt><trkpt lat="45.65192538514601" lon="12.933820552717412"><ele>-1.6666666666666665</ele><time>2026-05-01T09:12:02.972Z</time></trkpt><trkpt lat="45.651876085000474" lon="12.933941638563512"><ele>-1.5</ele><time>2026-05-01T09:12:04.972Z</time></trkpt><trkpt lat="45.65184378466965" lon="12.934019143649284"><ele>-1.3333333333333333</ele><time>2026-05-01T09:12:05.972Z</time></trkpt><trkpt lat="45.6518017224061" lon="12.93409989554717"><ele>-1.1666666666666665</ele><time>2026-05-01T09:12:06.972Z</time></trkpt><trkpt lat="45.6517540494026" lon="12.93419855621693"><ele>-1.0</ele><time>2026-05-01T09:12:07.972Z</time></trkpt><trkpt lat="45.65170609133434" lon="12.93430799530666"><ele>-1.0</ele><time>2026-05-01T09:12:08.972Z</time></trkpt><trkpt lat="45.651650739912235" lon="12.934419393582958"><ele>-1.0</ele><time>2026-05-01T09:12:09.972Z</time></trkpt><trkpt lat="45.651595393748" lon="12.934540286851787"><ele>-1.0</ele><time>2026-05-01T09:12:10.972Z</time></trkpt><trkpt lat="45.65154085845372" lon="12.934658693830423"><ele>-1.0</ele><time>2026-05-01T09:12:11.972Z</time></trkpt><trkpt lat="45.65148185824461" lon="12.934779501135012"><ele>-1.0</ele><time>2026-05-01T09:12:12.972Z</time></trkpt><trkpt lat="45.65142309832701" lon="12.934907386173485"><ele>-1.0</ele><time>2026-05-01T09:12:13.972Z</time></trkpt><trkpt lat="45.65136407396351" lon="12.935036663644233"><ele>-1.0</ele><time>2026-05-01T09:12:14.972Z</time></trkpt><trkpt lat="45.65130454692609" lon="12.935166429888966"><ele>-1.0</ele><time>2026-05-01T09:12:15.972Z</time></trkpt><trkpt lat="45.651244815559416" lon="12.935295217932387"><ele>-1.0</ele><time>2026-05-01T09:12:16.972Z</time></trkpt><trkpt lat="45.65118488983715" lon="12.935425998577383"><ele>-1.0</ele><time>2026-05-01T09:12:17.973Z</time></trkpt><trkpt lat="45.65110267112247" lon="12.935535685116466"><ele>-1.0</ele><time>2026-05-01T09:12:18.972Z</time></trkpt><trkpt lat="45.65104236204731" lon="12.935665671146676"><ele>-1.0</ele><time>2026-05-01T09:12:19.972Z</time></trkpt><trkpt lat="45.65098234559549" lon="12.935794772141598"><ele>-1.0</ele><time>2026-05-01T09:12:20.972Z</time></trkpt><trkpt lat="45.65091726343836" lon="12.935934180716844"><ele>-1.0</ele><time>2026-05-01T09:12:21.973Z</time></trkpt><trkpt lat="45.65085557274446" lon="12.936065678805479"><ele>-1.0</ele><time>2026-05-01T09:12:22.973Z</time></trkpt><trkpt lat="45.6507983205358" lon="12.936187715933528"><ele>-1.0</ele><time>2026-05-01T09:12:23.973Z</time></trkpt><trkpt lat="45.650738119417" lon="12.936316038884405"><ele>-1.0</ele><time>2026-05-01T09:12:24.973Z</time></trkpt><trkpt lat="45.65067760259343" lon="12.936445034779931"><ele>-1.0</ele><time>2026-05-01T09:12:25.973Z</time></trkpt><trkpt lat="45.65062958940684" lon="12.936586926207491"><ele>-1.0</ele><time>2026-05-01T09:12:26.973Z</time></trkpt><trkpt lat="45.65055636906588" lon="12.936698914039917"><ele>-1.0</ele><time>2026-05-01T09:12:27.973Z</time></trkpt><trkpt lat="45.65048875733218" lon="12.93681610993765"><ele>-1.2000000000000002</ele><time>2026-05-01T09:12:28.972Z</time></trkpt><trkpt lat="45.650413045630536" lon="12.936933111356343"><ele>-1.4000000000000001</ele><time>2026-05-01T09:12:29.973Z</time></trkpt><trkpt lat="45.650337629161676" lon="12.937042991895494"><ele>-1.6</ele><time>2026-05-01T09:12:30.973Z</time></trkpt><trkpt lat="45.65024824000268" lon="12.937139394373348"><ele>-1.8</ele><time>2026-05-01T09:12:31.973Z</time></trkpt><trkpt lat="45.65017796321743" lon="12.937265635342717"><ele>-2.0</ele><time>2026-05-01T09:12:32.973Z</time></trkpt><trkpt lat="45.650090672330556" lon="12.937363478365915"><ele>-2.0</ele><time>2026-05-01T09:12:33.973Z</time></trkpt><trkpt lat="45.65001309247069" lon="12.937472356877677"><ele>-2.0</ele><time>2026-05-01T09:12:34.973Z</time></trkpt><trkpt lat="45.64993613373874" lon="12.937580399769184"><ele>-2.0</ele><time>2026-05-01T09:12:35.973Z</time></trkpt><trkpt lat="45.64985777714721" lon="12.937682718533942"><ele>-2.0</ele><time>2026-05-01T09:12:36.973Z</time></trkpt><trkpt lat="45.649783349476635" lon="12.937782943898862"><ele>-2.0</ele><time>2026-05-01T09:12:37.973Z</time></trkpt><trkpt lat="45.64971742590165" lon="12.937878486870222"><ele>-2.1666666666666665</ele><time>2026-05-01T09:12:38.973Z</time></trkpt><trkpt lat="45.64965421534784" lon="12.937960711093652"><ele>-2.333333333333333</ele><time>2026-05-01T09:12:39.973Z</time></trkpt><trkpt lat="45.64961286890556" lon="12.93806612463944"><ele>-2.5</ele><time>2026-05-01T09:12:40.973Z</time></trkpt><trkpt lat="45.64958007472743" lon="12.938173442318194"><ele>-2.6666666666666665</ele><time>2026-05-01T09:12:41.973Z</time></trkpt><trkpt lat="45.649554108917656" lon="12.93828256746221"><ele>-2.8333333333333335</ele><time>2026-05-01T09:12:42.973Z</time></trkpt><trkpt lat="45.64954123885749" lon="12.938402379128085"><ele>-3.0</ele><time>2026-05-01T09:12:43.973Z</time></trkpt><trkpt lat="45.64953474477179" lon="12.938518149465123"><ele>-3.0</ele><time>2026-05-01T09:12:44.972Z</time></trkpt><trkpt lat="45.649532283725364" lon="12.9386426941471"><ele>-3.0</ele><time>2026-05-01T09:12:45.972Z</time></trkpt><trkpt lat="45.649532811710024" lon="12.938774186405277"><ele>-3.0</ele><time>2026-05-01T09:12:46.972Z</time></trkpt><trkpt lat="45.64953327673717" lon="12.938922919785163"><ele>-3.0</ele><time>2026-05-01T09:12:47.972Z</time></trkpt><trkpt lat="45.64953314593017" lon="12.939067241826823"><ele>-3.0</ele><time>2026-05-01T09:12:48.972Z</time></trkpt><trkpt lat="45.64953239544438" lon="12.939218461644707"><ele>-2.75</ele><time>2026-05-01T09:12:49.972Z</time></trkpt><trkpt lat="45.64953138250995" lon="12.939374141884421"><ele>-2.5</ele><time>2026-05-01T09:12:50.972Z</time></trkpt><trkpt lat="45.64953336527424" lon="12.939538000031597"><ele>-2.25</ele><time>2026-05-01T09:12:51.972Z</time></trkpt><trkpt lat="45.64953303197955" lon="12.939700328729472"><ele>-2.0</ele><time>2026-05-01T09:12:52.972Z</time></trkpt><trkpt lat="45.64953227474128" lon="12.939869650513153"><ele>-2.0</ele><time>2026-05-01T09:12:53.972Z</time></trkpt><trkpt lat="45.64953482099353" lon="12.940040405612235"><ele>-2.0</ele><time>2026-05-01T09:12:54.972Z</time></trkpt><trkpt lat="45.649538249679225" lon="12.940213884534248"><ele>-2.0</ele><time>2026-05-01T09:12:55.972Z</time></trkpt><trkpt lat="45.64954034057649" lon="12.94038628029662"><ele>-2.0</ele><time>2026-05-01T09:12:56.972Z</time></trkpt><trkpt lat="45.649541914473495" lon="12.940554465622895"><ele>-2.25</ele><time>2026-05-01T09:12:57.972Z</time></trkpt><trkpt lat="45.64954227608098" lon="12.940722316287678"><ele>-2.5</ele><time>2026-05-01T09:12:58.972Z</time></trkpt><trkpt lat="45.64953887103542" lon="12.940885186868679"><ele>-2.75</ele><time>2026-05-01T09:12:59.972Z</time></trkpt><trkpt lat="45.64953809584215" lon="12.94104850958014"><ele>-3.0</ele><time>2026-05-01T09:13:00.972Z</time></trkpt><trkpt lat="45.64953826938682" lon="12.941208251978805"><ele>-3.0</ele><time>2026-05-01T09:13:01.972Z</time></trkpt><trkpt lat="45.64953661423084" lon="12.941367943373267"><ele>-3.0</ele><time>2026-05-01T09:13:02.972Z</time></trkpt><trkpt lat="45.64953349196132" lon="12.94152699654951"><ele>-3.0</ele><time>2026-05-01T09:13:03.972Z</time></trkpt><trkpt lat="45.64953024093837" lon="12.941681485051745"><ele>-3.0</ele><time>2026-05-01T09:13:04.972Z</time></trkpt><trkpt lat="45.64953108201019" lon="12.941833448182393"><ele>-3.0</ele><time>2026-05-01T09:13:05.972Z</time></trkpt><trkpt lat="45.64953953896607" lon="12.941990600852526"><ele>-2.8</ele><time>2026-05-01T09:13:06.972Z</time></trkpt><trkpt lat="45.64953952824147" lon="12.942144620155425"><ele>-2.5999999999999996</ele><time>2026-05-01T09:13:07.972Z</time></trkpt><trkpt lat="45.64954025273082" lon="12.942302013202438"><ele>-2.4000000000000004</ele><time>2026-05-01T09:13:08.972Z</time></trkpt><trkpt lat="45.64952645350844" lon="12.942456377168943"><ele>-2.2</ele><time>2026-05-01T09:13:09.972Z</time></trkpt><trkpt lat="45.64952492680051" lon="12.942618767698743"><ele>-2.0</ele><time>2026-05-01T09:13:10.972Z</time></trkpt><trkpt lat="45.64952467799297" lon="12.942780506677016"><ele>-2.0</ele><time>2026-05-01T09:13:11.972Z</time></trkpt><trkpt lat="45.649524715605295" lon="12.942943030199196"><ele>-2.0</ele><time>2026-05-01T09:13:12.972Z</time></trkpt><trkpt lat="45.64952613472266" lon="12.943111520706921"><ele>-2.0</ele><time>2026-05-01T09:13:13.972Z</time></trkpt><trkpt lat="45.64952817021746" lon="12.943282702584332"><ele>-2.0</ele><time>2026-05-01T09:13:14.972Z</time></trkpt><trkpt lat="45.649530245541" lon="12.943456361701145"><ele>-2.25</ele><time>2026-05-01T09:13:15.972Z</time></trkpt><trkpt lat="45.64952947983172" lon="12.943632598053822"><ele>-2.5</ele><time>2026-05-01T09:13:16.972Z</time></trkpt><trkpt lat="45.64953117659008" lon="12.943809240447333"><ele>-2.75</ele><time>2026-05-01T09:13:17.972Z</time></trkpt><trkpt lat="45.64953214125658" lon="12.943987756499402"><ele>-3.0</ele><time>2026-05-01T09:13:18.972Z</time></trkpt><trkpt lat="45.64951617058932" lon="12.944163520481373"><ele>-3.0</ele><time>2026-05-01T09:13:19.972Z</time></trkpt><trkpt lat="45.649515441592584" lon="12.944343379033153"><ele>-3.0</ele><time>2026-05-01T09:13:20.972Z</time></trkpt><trkpt lat="45.64951419204492" lon="12.944523248952624"><ele>-3.0</ele><time>2026-05-01T09:13:21.972Z</time></trkpt><trkpt lat="45.64951449961833" lon="12.944704283495716"><ele>-3.0</ele><time>2026-05-01T09:13:22.972Z</time></trkpt><trkpt lat="45.6495168257916" lon="12.944889287704516"><ele>-2.75</ele><time>2026-05-01T09:13:23.972Z</time></trkpt><trkpt lat="45.64951922485984" lon="12.94507212854486"><ele>-2.5</ele><time>2026-05-01T09:13:24.972Z</time></trkpt><trkpt lat="45.64952169579199" lon="12.945249258103372"><ele>-2.25</ele><time>2026-05-01T09:13:25.972Z</time></trkpt><trkpt lat="45.64952177508454" lon="12.945425736334192"><ele>-2.0</ele><time>2026-05-01T09:13:26.972Z</time></trkpt><trkpt lat="45.64952113940782" lon="12.945602695177682"><ele>-2.0</ele><time>2026-05-01T09:13:27.972Z</time></trkpt><trkpt lat="45.64951980955971" lon="12.945768739914035"><ele>-2.0</ele><time>2026-05-01T09:13:28.972Z</time></trkpt><trkpt lat="45.64951938270218" lon="12.945928243053393"><ele>-2.0</ele><time>2026-05-01T09:13:29.972Z</time></trkpt><trkpt lat="45.64951677126813" lon="12.94608769456796"><ele>-2.0</ele><time>2026-05-01T09:13:30.972Z</time></trkpt><trkpt lat="45.649514389829015" lon="12.946247977250001"><ele>-1.9999999999999998</ele><time>2026-05-01T09:13:31.972Z</time></trkpt><trkpt lat="45.64951179114011" lon="12.946402097780986"><ele>-2.0</ele><time>2026-05-01T09:13:32.972Z</time></trkpt><trkpt lat="45.64950788634152" lon="12.946546103195576"><ele>-2.0</ele><time>2026-05-01T09:13:33.972Z</time></trkpt><trkpt lat="45.64949284709941" lon="12.946668895576206"><ele>-2.0</ele><time>2026-05-01T09:13:34.972Z</time></trkpt><trkpt lat="45.64948681138287" lon="12.946779883211812"><ele>-1.9999999999999998</ele><time>2026-05-01T09:13:35.972Z</time></trkpt><trkpt lat="45.64948403583371" lon="12.946873746658046"><ele>-2.0</ele><time>2026-05-01T09:13:36.972Z</time></trkpt><trkpt lat="45.64948402608737" lon="12.94702569516892"><ele>-2.0</ele><time>2026-05-01T09:13:38.972Z</time></trkpt><trkpt lat="45.649487294836064" lon="12.947132590342592"><ele>-2.0</ele><time>2026-05-01T09:13:41.972Z</time></trkpt><trkpt lat="45.64949321839918" lon="12.94724044423737"><ele>-2.0</ele><time>2026-05-01T09:15:06.972Z</time></trkpt><trkpt lat="45.64938848901337" lon="12.947159445493257"><ele>-2.0</ele><time>2026-05-01T09:15:07.972Z</time></trkpt><trkpt lat="45.649268357925415" lon="12.947158314373048"><ele>-2.0</ele><time>2026-05-01T09:15:09.972Z</time></trkpt><trkpt lat="45.64920355595392" lon="12.947157704217384"><ele>-2.1666666666666665</ele><time>2026-05-01T09:15:10.972Z</time></trkpt><trkpt lat="45.64913105712462" lon="12.947180259304089"><ele>-2.333333333333333</ele><time>2026-05-01T09:15:11.972Z</time></trkpt><trkpt lat="45.64905036403072" lon="12.947178798289821"><ele>-2.5</ele><time>2026-05-01T09:15:12.972Z</time></trkpt><trkpt lat="45.64896086912907" lon="12.94716187499168"><ele>-2.6666666666666665</ele><time>2026-05-01T09:15:13.972Z</time></trkpt><trkpt lat="45.64886352811286" lon="12.947160086071552"><ele>-2.8333333333333335</ele><time>2026-05-01T09:15:14.972Z</time></trkpt><trkpt lat="45.64876270793612" lon="12.947155717850418"><ele>-3.0</ele><time>2026-05-01T09:15:15.972Z</time></trkpt><trkpt lat="45.64865503767695" lon="12.947152373906148"><ele>-3.0</ele><time>2026-05-01T09:15:16.972Z</time></trkpt><trkpt lat="45.64854264528889" lon="12.94715142503968"><ele>-3.0</ele><time>2026-05-01T09:15:17.972Z</time></trkpt><trkpt lat="45.64842325191033" lon="12.94715251752761"><ele>-3.0</ele><time>2026-05-01T09:15:18.972Z</time></trkpt><trkpt lat="45.64830033591113" lon="12.947156166244875"><ele>-3.0</ele><time>2026-05-01T09:15:19.972Z</time></trkpt><trkpt lat="45.64817649111316" lon="12.947159031673358"><ele>-3.0</ele><time>2026-05-01T09:15:20.972Z</time></trkpt><trkpt lat="45.64805132831379" lon="12.947158592589076"><ele>-3.0</ele><time>2026-05-01T09:15:21.972Z</time></trkpt><trkpt lat="45.647921542567104" lon="12.94715755522465"><ele>-3.0</ele><time>2026-05-01T09:15:22.972Z</time></trkpt><trkpt lat="45.64778594530769" lon="12.947159321194013"><ele>-3.0</ele><time>2026-05-01T09:15:23.972Z</time></trkpt><trkpt lat="45.64764762798536" lon="12.947156913392405"><ele>-3.25</ele><time>2026-05-01T09:15:24.972Z</time></trkpt><trkpt lat="45.6475066730128" lon="12.947157850432522"><ele>-3.5</ele><time>2026-05-01T09:15:25.972Z</time></trkpt><trkpt lat="45.64736179044891" lon="12.947137290058537"><ele>-3.75</ele><time>2026-05-01T09:15:26.972Z</time></trkpt><trkpt lat="45.64721883899775" lon="12.947136048308488"><ele>-4.0</ele><time>2026-05-01T09:15:27.972Z</time></trkpt><trkpt lat="45.647070211689005" lon="12.947136565631705"><ele>-3.6666666666666665</ele><time>2026-05-01T09:15:28.972Z</time></trkpt><trkpt lat="45.646919294896946" lon="12.947135231901825"><ele>-3.333333333333333</ele><time>2026-05-01T09:15:29.972Z</time></trkpt><trkpt lat="45.646767193352744" lon="12.947132677196034"><ele>-3.0</ele><time>2026-05-01T09:15:30.972Z</time></trkpt><trkpt lat="45.64661398667262" lon="12.947130838967077"><ele>-3.0</ele><time>2026-05-01T09:15:31.972Z</time></trkpt><trkpt lat="45.64646064795257" lon="12.947129659167116"><ele>-3.0</ele><time>2026-05-01T09:15:32.972Z</time></trkpt><trkpt lat="45.646310908544656" lon="12.947133034178856"><ele>-3.0</ele><time>2026-05-01T09:15:33.972Z</time></trkpt><trkpt lat="45.64616124249562" lon="12.947136861976636"><ele>-3.0</ele><time>2026-05-01T09:15:34.972Z</time></trkpt><trkpt lat="45.6460101515576" lon="12.947137026746026"><ele>-3.0</ele><time>2026-05-01T09:15:35.972Z</time></trkpt><trkpt lat="45.64586074443056" lon="12.947134082723139"><ele>-3.0</ele><time>2026-05-01T09:15:36.972Z</time></trkpt><trkpt lat="45.6457087957827" lon="12.947130908991571"><ele>-3.0</ele><time>2026-05-01T09:15:37.972Z</time></trkpt><trkpt lat="45.64556229597679" lon="12.947129670819189"><ele>-3.0</ele><time>2026-05-01T09:15:38.971Z</time></trkpt><trkpt lat="45.64542495031673" lon="12.947129450081556"><ele>-3.0</ele><time>2026-05-01T09:15:39.971Z</time></trkpt><trkpt lat="45.64529086556511" lon="12.947128164870746"><ele>-3.0</ele><time>2026-05-01T09:15:40.971Z</time></trkpt><trkpt lat="45.64515845803558" lon="12.947126705894648"><ele>-2.5</ele><time>2026-05-01T09:15:41.971Z</time></trkpt><trkpt lat="45.645031633525576" lon="12.947126061905198"><ele>-2.0</ele><time>2026-05-01T09:15:42.971Z</time></trkpt><trkpt lat="45.64490565999069" lon="12.947124256579263"><ele>-1.5</ele><time>2026-05-01T09:15:43.971Z</time></trkpt><trkpt lat="45.64477931603913" lon="12.947122222489472"><ele>-1.0</ele><time>2026-05-01T09:15:44.971Z</time></trkpt><trkpt lat="45.64465213345022" lon="12.947120967366537"><ele>-1.0</ele><time>2026-05-01T09:15:45.971Z</time></trkpt><trkpt lat="45.644522818829394" lon="12.947120118396725"><ele>-1.0</ele><time>2026-05-01T09:15:46.971Z</time></trkpt><trkpt lat="45.64439508609287" lon="12.947123221943059"><ele>-1.0</ele><time>2026-05-01T09:15:47.971Z</time></trkpt><trkpt lat="45.64426948357178" lon="12.947125526508195"><ele>-1.0</ele><time>2026-05-01T09:15:48.971Z</time></trkpt><trkpt lat="45.644145652922624" lon="12.947124856331396"><ele>-1.0</ele><time>2026-05-01T09:15:49.971Z</time></trkpt><trkpt lat="45.644025437501796" lon="12.947126539241342"><ele>-1.0</ele><time>2026-05-01T09:15:50.971Z</time></trkpt><trkpt lat="45.6439046331388" lon="12.947128241107631"><ele>-1.0</ele><time>2026-05-01T09:15:51.971Z</time></trkpt><trkpt lat="45.64377908818914" lon="12.947105576230125"><ele>-1.0</ele><time>2026-05-01T09:15:52.971Z</time></trkpt><trkpt lat="45.643650585398895" lon="12.947108799266893"><ele>-1.25</ele><time>2026-05-01T09:15:53.971Z</time></trkpt><trkpt lat="45.643519558218124" lon="12.947109440997103"><ele>-1.5</ele><time>2026-05-01T09:15:54.971Z</time></trkpt><trkpt lat="45.64339607599834" lon="12.947106026961496"><ele>-1.75</ele><time>2026-05-01T09:15:55.971Z</time></trkpt><trkpt lat="45.643278768248095" lon="12.947100666729332"><ele>-2.0</ele><time>2026-05-01T09:15:56.971Z</time></trkpt><trkpt lat="45.64317104147849" lon="12.947094622358726"><ele>-2.0</ele><time>2026-05-01T09:15:57.971Z</time></trkpt><trkpt lat="45.64307565800921" lon="12.947094526221044"><ele>-2.0</ele><time>2026-05-01T09:15:58.971Z</time></trkpt><trkpt lat="45.642992606937504" lon="12.947094897057061"><ele>-2.0</ele><time>2026-05-01T09:15:59.971Z</time></trkpt><trkpt lat="45.64288916663357" lon="12.947095030695984"><ele>-2.0</ele><time>2026-05-01T09:16:01.971Z</time></trkpt><trkpt lat="45.6428105802649" lon="12.947093763205917"><ele>-2.0</ele><time>2026-05-01T09:16:04.971Z</time></trkpt><trkpt lat="45.642801912769485" lon="12.947443040357118"><ele>-1.6666666666666665</ele><time>2026-05-01T09:16:09.971Z</time></trkpt><trkpt lat="45.64280141776543" lon="12.947548256814068"><ele>-1.3333333333333333</ele><time>2026-05-01T09:16:10.971Z</time></trkpt><trkpt lat="45.64280118500558" lon="12.947663144830306"><ele>-1.0</ele><time>2026-05-01T09:16:11.971Z</time></trkpt><trkpt lat="45.64279964385342" lon="12.947783232480548"><ele>-0.6666666666666666</ele><time>2026-05-01T09:16:12.971Z</time></trkpt><trkpt lat="45.64280205853784" lon="12.947914375874076"><ele>-0.3333333333333333</ele><time>2026-05-01T09:16:13.971Z</time></trkpt><trkpt lat="45.64280313546737" lon="12.948047169982058"><ele>0.0</ele><time>2026-05-01T09:16:14.971Z</time></trkpt><trkpt lat="45.64280373783117" lon="12.948184204207436"><ele>0.0</ele><time>2026-05-01T09:16:15.971Z</time></trkpt><trkpt lat="45.642801483979525" lon="12.948325207522156"><ele>0.0</ele><time>2026-05-01T09:16:16.971Z</time></trkpt><trkpt lat="45.64280001331392" lon="12.948472703185756"><ele>0.0</ele><time>2026-05-01T09:16:17.971Z</time></trkpt><trkpt lat="45.64280062719155" lon="12.948616687630551"><ele>0.0</ele><time>2026-05-01T09:16:18.971Z</time></trkpt><trkpt lat="45.64280093124607" lon="12.948763064381298"><ele>0.0</ele><time>2026-05-01T09:16:19.971Z</time></trkpt><trkpt lat="45.64280080754439" lon="12.948911911050038"><ele>-0.2</ele><time>2026-05-01T09:16:20.971Z</time></trkpt><trkpt lat="45.64280244625405" lon="12.949066542419953"><ele>-0.4</ele><time>2026-05-01T09:16:21.971Z</time></trkpt><trkpt lat="45.64280287092295" lon="12.949223601958225"><ele>-0.6000000000000001</ele><time>2026-05-01T09:16:22.971Z</time></trkpt><trkpt lat="45.642804749001286" lon="12.949374956316346"><ele>-0.8</ele><time>2026-05-01T09:16:23.971Z</time></trkpt><trkpt lat="45.64280562868119" lon="12.949533920323011"><ele>-1.0</ele><time>2026-05-01T09:16:24.971Z</time></trkpt><trkpt lat="45.64280861617184" lon="12.949695049921857"><ele>-1.25</ele><time>2026-05-01T09:16:25.971Z</time></trkpt><trkpt lat="45.64280696646373" lon="12.949853138768386"><ele>-1.5</ele><time>2026-05-01T09:16:26.971Z</time></trkpt><trkpt lat="45.64280499683005" lon="12.950008733018878"><ele>-1.75</ele><time>2026-05-01T09:16:27.971Z</time></trkpt><trkpt lat="45.64280569761753" lon="12.950176515466774"><ele>-2.0</ele><time>2026-05-01T09:16:28.971Z</time></trkpt><trkpt lat="45.642807019070325" lon="12.950343108498885"><ele>-2.0</ele><time>2026-05-01T09:16:29.972Z</time></trkpt><trkpt lat="45.64280729576851" lon="12.950511663105873"><ele>-2.0</ele><time>2026-05-01T09:16:30.972Z</time></trkpt><trkpt lat="45.642802397583985" lon="12.950685717836937"><ele>-2.0</ele><time>2026-05-01T09:16:31.972Z</time></trkpt><trkpt lat="45.642799603944795" lon="12.95085831563394"><ele>-2.0</ele><time>2026-05-01T09:16:32.972Z</time></trkpt><trkpt lat="45.64279985424615" lon="12.9510370097391"><ele>-2.0</ele><time>2026-05-01T09:16:33.973Z</time></trkpt><trkpt lat="45.64279884963932" lon="12.951219267717232"><ele>-2.0</ele><time>2026-05-01T09:16:34.973Z</time></trkpt><trkpt lat="45.642798626304305" lon="12.951402986982938"><ele>-2.0</ele><time>2026-05-01T09:16:35.973Z</time></trkpt><trkpt lat="45.642802288968696" lon="12.951587336959301"><ele>-2.0</ele><time>2026-05-01T09:16:36.972Z</time></trkpt><trkpt lat="45.642802186474086" lon="12.951771303216853"><ele>-2.0</ele><time>2026-05-01T09:16:37.972Z</time></trkpt><trkpt lat="45.642802371658306" lon="12.95194956017371"><ele>-2.0</ele><time>2026-05-01T09:16:38.973Z</time></trkpt><trkpt lat="45.64280228423128" lon="12.952126238592955"><ele>-2.0</ele><time>2026-05-01T09:16:39.972Z</time></trkpt><trkpt lat="45.642803792955235" lon="12.952312123420697"><ele>-2.0</ele><time>2026-05-01T09:16:40.972Z</time></trkpt><trkpt lat="45.642801168822785" lon="12.952486080207763"><ele>-2.0</ele><time>2026-05-01T09:16:41.972Z</time></trkpt><trkpt lat="45.64279870125627" lon="12.952664910767407"><ele>-2.0</ele><time>2026-05-01T09:16:42.972Z</time></trkpt><trkpt lat="45.6427985623599" lon="12.952841055656528"><ele>-2.0</ele><time>2026-05-01T09:16:43.972Z</time></trkpt><trkpt lat="45.64279661345241" lon="12.953009811044444"><ele>-2.0</ele><time>2026-05-01T09:16:44.972Z</time></trkpt><trkpt lat="45.64279492463975" lon="12.953173939299509"><ele>-2.0</ele><time>2026-05-01T09:16:45.972Z</time></trkpt><trkpt lat="45.64279635176973" lon="12.953331641815527"><ele>-2.0</ele><time>2026-05-01T09:16:46.972Z</time></trkpt><trkpt lat="45.64279397153407" lon="12.9534758157566"><ele>-2.0</ele><time>2026-05-01T09:16:47.972Z</time></trkpt><trkpt lat="45.642789666038965" lon="12.9536230760898"><ele>-2.0</ele><time>2026-05-01T09:16:48.972Z</time></trkpt><trkpt lat="45.642781777974314" lon="12.953767245847867"><ele>-2.0</ele><time>2026-05-01T09:16:49.972Z</time></trkpt><trkpt lat="45.642783246816904" lon="12.953911416644399"><ele>-2.0</ele><time>2026-05-01T09:16:50.972Z</time></trkpt><trkpt lat="45.64278653278278" lon="12.954054705858281"><ele>-2.0</ele><time>2026-05-01T09:16:51.972Z</time></trkpt><trkpt lat="45.64278898733835" lon="12.95419712961112"><ele>-2.0</ele><time>2026-05-01T09:16:52.972Z</time></trkpt><trkpt lat="45.642794410415924" lon="12.954351415596465"><ele>-2.0</ele><time>2026-05-01T09:16:53.972Z</time></trkpt><trkpt lat="45.64279628646217" lon="12.954496850052992"><ele>-2.0</ele><time>2026-05-01T09:16:54.972Z</time></trkpt><trkpt lat="45.64280565652578" lon="12.954647443100477"><ele>-2.0</ele><time>2026-05-01T09:16:55.972Z</time></trkpt><trkpt lat="45.64281422040014" lon="12.9547920488304"><ele>-2.0</ele><time>2026-05-01T09:16:56.972Z</time></trkpt><trkpt lat="45.64282476383973" lon="12.95492972666356"><ele>-2.0</ele><time>2026-05-01T09:16:57.972Z</time></trkpt><trkpt lat="45.64283763858208" lon="12.955053913716762"><ele>-2.0</ele><time>2026-05-01T09:16:58.972Z</time></trkpt><trkpt lat="45.64285991361709" lon="12.955178844461958"><ele>-2.0</ele><time>2026-05-01T09:16:59.972Z</time></trkpt><trkpt lat="45.64288610382263" lon="12.955310102394039"><ele>-2.0</ele><time>2026-05-01T09:17:00.972Z</time></trkpt><trkpt lat="45.64292449355589" lon="12.955444953126268"><ele>-2.0</ele><time>2026-05-01T09:17:01.972Z</time></trkpt><trkpt lat="45.64296802982669" lon="12.955570521953213"><ele>-2.0</ele><time>2026-05-01T09:17:02.972Z</time></trkpt><trkpt lat="45.643016013717734" lon="12.955710714891023"><ele>-2.0</ele><time>2026-05-01T09:17:03.972Z</time></trkpt><trkpt lat="45.64304386533836" lon="12.95586085872376"><ele>-2.0</ele><time>2026-05-01T09:17:04.972Z</time></trkpt><trkpt lat="45.64305538277541" lon="12.956018658673687"><ele>-2.5</ele><time>2026-05-01T09:17:05.972Z</time></trkpt><trkpt lat="45.64305893212835" lon="12.956179553880096"><ele>-3.0</ele><time>2026-05-01T09:17:06.972Z</time></trkpt><trkpt lat="45.643056939829435" lon="12.956342826140178"><ele>-3.5</ele><time>2026-05-01T09:17:07.972Z</time></trkpt><trkpt lat="45.64305514550491" lon="12.956517123942248"><ele>-4.0</ele><time>2026-05-01T09:17:08.972Z</time></trkpt><trkpt lat="45.643053489822954" lon="12.956688400754519"><ele>-3.75</ele><time>2026-05-01T09:17:09.972Z</time></trkpt><trkpt lat="45.64305356591565" lon="12.956875205495784"><ele>-3.5</ele><time>2026-05-01T09:17:10.972Z</time></trkpt><trkpt lat="45.64305364672687" lon="12.957064494517097"><ele>-3.25</ele><time>2026-05-01T09:17:11.972Z</time></trkpt><trkpt lat="45.64305249260345" lon="12.957260148937806"><ele>-3.0</ele><time>2026-05-01T09:17:12.972Z</time></trkpt><trkpt lat="45.64305519295187" lon="12.957462911367008"><ele>-2.75</ele><time>2026-05-01T09:17:13.972Z</time></trkpt><trkpt lat="45.6430546007205" lon="12.957669806924553"><ele>-2.5</ele><time>2026-05-01T09:17:14.972Z</time></trkpt><trkpt lat="45.64305687324101" lon="12.957877049820967"><ele>-2.25</ele><time>2026-05-01T09:17:15.972Z</time></trkpt><trkpt lat="45.643057007998586" lon="12.958081958749949"><ele>-2.0</ele><time>2026-05-01T09:17:16.972Z</time></trkpt><trkpt lat="45.64305550518434" lon="12.958284313294472"><ele>-2.0</ele><time>2026-05-01T09:17:17.972Z</time></trkpt><trkpt lat="45.643055569746664" lon="12.95849122976911"><ele>-2.0</ele><time>2026-05-01T09:17:18.972Z</time></trkpt><trkpt lat="45.64306417730947" lon="12.958699468701242"><ele>-2.0</ele><time>2026-05-01T09:17:19.972Z</time></trkpt><trkpt lat="45.64306791218893" lon="12.958901481098652"><ele>-2.0</ele><time>2026-05-01T09:17:20.972Z</time></trkpt><trkpt lat="45.64306594708676" lon="12.9591042878166"><ele>-2.25</ele><time>2026-05-01T09:17:21.972Z</time></trkpt><trkpt lat="45.6430644025537" lon="12.95930873091625"><ele>-2.5</ele><time>2026-05-01T09:17:22.972Z</time></trkpt><trkpt lat="45.64306583243415" lon="12.959518398417185"><ele>-2.75</ele><time>2026-05-01T09:17:23.972Z</time></trkpt><trkpt lat="45.64306542436192" lon="12.959725974443414"><ele>-3.0</ele><time>2026-05-01T09:17:24.972Z</time></trkpt><trkpt lat="45.64306812529421" lon="12.959936609583899"><ele>-3.0</ele><time>2026-05-01T09:17:25.972Z</time></trkpt><trkpt lat="45.64306885563513" lon="12.96015056130047"><ele>-3.0</ele><time>2026-05-01T09:17:26.972Z</time></trkpt><trkpt lat="45.643071377470875" lon="12.96036412207904"><ele>-3.0</ele><time>2026-05-01T09:17:27.972Z</time></trkpt><trkpt lat="45.64307333502801" lon="12.960579310635055"><ele>-3.0</ele><time>2026-05-01T09:17:28.972Z</time></trkpt><trkpt lat="45.64307320903003" lon="12.960791469842949"><ele>-2.75</ele><time>2026-05-01T09:17:29.972Z</time></trkpt><trkpt lat="45.6430751447322" lon="12.961002246232159"><ele>-2.5</ele><time>2026-05-01T09:17:30.972Z</time></trkpt><trkpt lat="45.643074656592255" lon="12.961221790242666"><ele>-2.25</ele><time>2026-05-01T09:17:31.972Z</time></trkpt><trkpt lat="45.64307336494128" lon="12.961431702796212"><ele>-2.0</ele><time>2026-05-01T09:17:32.972Z</time></trkpt><trkpt lat="45.643071948954116" lon="12.961649350512804"><ele>-2.0</ele><time>2026-05-01T09:17:33.972Z</time></trkpt><trkpt lat="45.64307654585962" lon="12.961869348866598"><ele>-2.0</ele><time>2026-05-01T09:17:34.972Z</time></trkpt><trkpt lat="45.643079550187394" lon="12.962079531430408"><ele>-2.0</ele><time>2026-05-01T09:17:35.972Z</time></trkpt><trkpt lat="45.64308062182657" lon="12.962292813710212"><ele>-2.0</ele><time>2026-05-01T09:17:36.972Z</time></trkpt><trkpt lat="45.64308241885949" lon="12.962503700492473"><ele>-2.0</ele><time>2026-05-01T09:17:37.972Z</time></trkpt><trkpt lat="45.6430841376916" lon="12.96271804525182"><ele>-2.0</ele><time>2026-05-01T09:17:38.972Z</time></trkpt><trkpt lat="45.64308673469793" lon="12.962931385274606"><ele>-2.0</ele><time>2026-05-01T09:17:39.971Z</time></trkpt><trkpt lat="45.643086276020725" lon="12.963135773214704"><ele>-2.0</ele><time>2026-05-01T09:17:40.971Z</time></trkpt><trkpt lat="45.64309113969354" lon="12.963340287173835"><ele>-2.0</ele><time>2026-05-01T09:17:41.971Z</time></trkpt><trkpt lat="45.64309933019336" lon="12.963528850846174"><ele>-2.0</ele><time>2026-05-01T09:17:42.971Z</time></trkpt><trkpt lat="45.64311563075557" lon="12.96370115562964"><ele>-2.0</ele><time>2026-05-01T09:17:43.971Z</time></trkpt><trkpt lat="45.64313864075468" lon="12.963854607458392"><ele>-2.0</ele><time>2026-05-01T09:17:44.971Z</time></trkpt><trkpt lat="45.64316232812089" lon="12.964015059805327"><ele>-2.0</ele><time>2026-05-01T09:17:45.971Z</time></trkpt><trkpt lat="45.643191053389174" lon="12.964171814541384"><ele>-2.0</ele><time>2026-05-01T09:17:46.971Z</time></trkpt><trkpt lat="45.64322759465977" lon="12.964337779179704"><ele>-2.0</ele><time>2026-05-01T09:17:47.971Z</time></trkpt><trkpt lat="45.6432661641206" lon="12.964521335239843"><ele>-2.0</ele><time>2026-05-01T09:17:48.971Z</time></trkpt><trkpt lat="45.64329776256323" lon="12.964725284528564"><ele>-2.0</ele><time>2026-05-01T09:17:49.971Z</time></trkpt><trkpt lat="45.643329777788715" lon="12.964888676645609"><ele>-2.0</ele><time>2026-05-01T09:17:50.971Z</time></trkpt><trkpt lat="45.64335320955896" lon="12.965033909576823"><ele>-2.0</ele><time>2026-05-01T09:17:51.971Z</time></trkpt><trkpt lat="45.643378168093186" lon="12.965179012853582"><ele>-2.0</ele><time>2026-05-01T09:17:52.971Z</time></trkpt><trkpt lat="45.643403688920074" lon="12.965328846485205"><ele>-2.0</ele><time>2026-05-01T09:17:53.971Z</time></trkpt><trkpt lat="45.643427318206705" lon="12.965481074273395"><ele>-2.0</ele><time>2026-05-01T09:17:54.971Z</time></trkpt><trkpt lat="45.6434503040878" lon="12.965628600595219"><ele>-2.0</ele><time>2026-05-01T09:17:55.971Z</time></trkpt><trkpt lat="45.643470441795074" lon="12.96576137660722"><ele>-2.0</ele><time>2026-05-01T09:17:56.971Z</time></trkpt><trkpt lat="45.64348385764595" lon="12.965886774979369"><ele>-2.1666666666666665</ele><time>2026-05-01T09:17:57.971Z</time></trkpt><trkpt lat="45.643487964027806" lon="12.966003280048746"><ele>-2.333333333333333</ele><time>2026-05-01T09:17:58.971Z</time></trkpt><trkpt lat="45.643487049823975" lon="12.96612748349922"><ele>-2.5</ele><time>2026-05-01T09:17:59.971Z</time></trkpt><trkpt lat="45.64348204308937" lon="12.966246533311049"><ele>-2.6666666666666665</ele><time>2026-05-01T09:18:00.971Z</time></trkpt><trkpt lat="45.643478412233165" lon="12.966337458384334"><ele>-2.8333333333333335</ele><time>2026-05-01T09:18:01.971Z</time></trkpt><trkpt lat="45.6434594110227" lon="12.966511514415195"><ele>-3.0</ele><time>2026-05-01T09:18:03.971Z</time></trkpt><trkpt lat="45.64344102552416" lon="12.96660679987254"><ele>-2.8</ele><time>2026-05-01T09:18:04.971Z</time></trkpt><trkpt lat="45.64341396484624" lon="12.966712066760804"><ele>-2.5999999999999996</ele><time>2026-05-01T09:18:05.971Z</time></trkpt><trkpt lat="45.64338138962984" lon="12.966824719245064"><ele>-2.4000000000000004</ele><time>2026-05-01T09:18:06.971Z</time></trkpt><trkpt lat="45.64334267929179" lon="12.966946503539631"><ele>-2.2</ele><time>2026-05-01T09:18:07.971Z</time></trkpt><trkpt lat="45.643298319895" lon="12.967074417058143"><ele>-2.0</ele><time>2026-05-01T09:18:08.971Z</time></trkpt><trkpt lat="45.64325673749248" lon="12.967213274981495"><ele>-1.9999999999999998</ele><time>2026-05-01T09:18:09.971Z</time></trkpt><trkpt lat="45.64320561587754" lon="12.967328711012517"><ele>-2.0</ele><time>2026-05-01T09:18:10.971Z</time></trkpt><trkpt lat="45.643170666921584" lon="12.967425310663245"><ele>-2.0</ele><time>2026-05-01T09:18:11.971Z</time></trkpt><trkpt lat="45.64313095443935" lon="12.967519458508358"><ele>-2.0</ele><time>2026-05-01T09:18:12.971Z</time></trkpt><trkpt lat="45.6430854023478" lon="12.9676355943608"><ele>-1.9999999999999998</ele><time>2026-05-01T09:18:13.971Z</time></trkpt><trkpt lat="45.64303467571062" lon="12.967761217978037"><ele>-2.0</ele><time>2026-05-01T09:18:14.971Z</time></trkpt><trkpt lat="45.6429860411312" lon="12.967896234140047"><ele>-2.0</ele><time>2026-05-01T09:18:15.971Z</time></trkpt><trkpt lat="45.64293750799396" lon="12.968035914186267"><ele>-2.0</ele><time>2026-05-01T09:18:16.971Z</time></trkpt><trkpt lat="45.6428871436799" lon="12.96818035782686"><ele>-2.0</ele><time>2026-05-01T09:18:17.971Z</time></trkpt><trkpt lat="45.642838324751985" lon="12.968326381979322"><ele>-2.0</ele><time>2026-05-01T09:18:18.971Z</time></trkpt><trkpt lat="45.64278318434445" lon="12.96846751880199"><ele>-2.0</ele><time>2026-05-01T09:18:19.971Z</time></trkpt><trkpt lat="45.64272851944742" lon="12.968608842499862"><ele>-2.2</ele><time>2026-05-01T09:18:20.971Z</time></trkpt><trkpt lat="45.64268087740881" lon="12.968763932506896"><ele>-2.4000000000000004</ele><time>2026-05-01T09:18:21.971Z</time></trkpt><trkpt lat="45.642626192274825" lon="12.968908875292357"><ele>-2.5999999999999996</ele><time>2026-05-01T09:18:22.971Z</time></trkpt><trkpt lat="45.64257229513192" lon="12.969042310479866"><ele>-2.8</ele><time>2026-05-01T09:18:23.971Z</time></trkpt><trkpt lat="45.64251858976974" lon="12.969176277874258"><ele>-3.0</ele><time>2026-05-01T09:18:24.971Z</time></trkpt><trkpt lat="45.6424656105689" lon="12.96931045560359"><ele>-2.6666666666666665</ele><time>2026-05-01T09:18:25.971Z</time></trkpt><trkpt lat="45.642417945628495" lon="12.969431926887507"><ele>-2.3333333333333335</ele><time>2026-05-01T09:18:26.971Z</time></trkpt><trkpt lat="45.642379345450905" lon="12.969541143542717"><ele>-2.0</ele><time>2026-05-01T09:18:27.971Z</time></trkpt><trkpt lat="45.64235336895868" lon="12.969643664601266"><ele>-1.6666666666666665</ele><time>2026-05-01T09:18:28.971Z</time></trkpt><trkpt lat="45.642336461864154" lon="12.969749368929975"><ele>-1.3333333333333333</ele><time>2026-05-01T09:18:29.971Z</time></trkpt><trkpt lat="45.64234721788546" lon="12.9698525427353"><ele>-1.0</ele><time>2026-05-01T09:18:30.971Z</time></trkpt><trkpt lat="45.642370730352354" lon="12.969965830487846"><ele>-0.6000000000000001</ele><time>2026-05-01T09:18:31.971Z</time></trkpt><trkpt lat="45.64241469267524" lon="12.970082803143812"><ele>-0.20000000000000007</ele><time>2026-05-01T09:18:32.971Z</time></trkpt><trkpt lat="45.64246448791832" lon="12.97021967202218"><ele>0.20000000000000007</ele><time>2026-05-01T09:18:33.971Z</time></trkpt><trkpt lat="45.64251795879995" lon="12.970352648546825"><ele>0.6000000000000001</ele><time>2026-05-01T09:18:34.972Z</time></trkpt><trkpt lat="45.64256774281304" lon="12.97048866025707"><ele>1.0</ele><time>2026-05-01T09:18:35.972Z</time></trkpt><trkpt lat="45.642618897760016" lon="12.97062202494088"><ele>1.0</ele><time>2026-05-01T09:18:36.972Z</time></trkpt><trkpt lat="45.64266437530293" lon="12.970745521917383"><ele>1.0</ele><time>2026-05-01T09:18:37.972Z</time></trkpt><trkpt lat="45.642702579626885" lon="12.970876731105637"><ele>1.0</ele><time>2026-05-01T09:18:38.972Z</time></trkpt><trkpt lat="45.64274438794646" lon="12.971012026551303"><ele>1.0</ele><time>2026-05-01T09:18:39.972Z</time></trkpt><trkpt lat="45.64277887675302" lon="12.971155350573964"><ele>1.0</ele><time>2026-05-01T09:18:40.972Z</time></trkpt><trkpt lat="45.64279993520532" lon="12.97129303152442"><ele>0.6000000000000001</ele><time>2026-05-01T09:18:41.972Z</time></trkpt><trkpt lat="45.6428288291795" lon="12.971446904284456"><ele>0.20000000000000007</ele><time>2026-05-01T09:18:42.972Z</time></trkpt><trkpt lat="45.642855759672045" lon="12.971601815499065"><ele>-0.20000000000000007</ele><time>2026-05-01T09:18:43.972Z</time></trkpt><trkpt lat="45.64287567492548" lon="12.971751526887731"><ele>-0.6000000000000001</ele><time>2026-05-01T09:18:44.972Z</time></trkpt><trkpt lat="45.64289682940614" lon="12.971897686925749"><ele>-1.0</ele><time>2026-05-01T09:18:45.972Z</time></trkpt><trkpt lat="45.64291875233506" lon="12.972032632733788"><ele>-0.9999999999999999</ele><time>2026-05-01T09:18:46.972Z</time></trkpt><trkpt lat="45.64293847955095" lon="12.972146063316206"><ele>-1.0</ele><time>2026-05-01T09:18:47.972Z</time></trkpt><trkpt lat="45.642960433918994" lon="12.97225150083899"><ele>-1.0</ele><time>2026-05-01T09:18:48.972Z</time></trkpt><trkpt lat="45.643005151664035" lon="12.972342758841235"><ele>-1.0</ele><time>2026-05-01T09:18:50.972Z</time></trkpt><trkpt lat="45.64311944399537" lon="12.972370739424449"><ele>-0.9999999999999999</ele><time>2026-05-01T09:18:52.972Z</time></trkpt><trkpt lat="45.64318732039777" lon="12.97237833386764"><ele>-1.0</ele><time>2026-05-01T09:18:53.972Z</time></trkpt><trkpt lat="45.643260398861145" lon="12.97238636210656"><ele>-0.9999999999999999</ele><time>2026-05-01T09:18:54.972Z</time></trkpt><trkpt lat="45.64333579267146" lon="12.972397460280126"><ele>-1.0</ele><time>2026-05-01T09:18:55.972Z</time></trkpt><trkpt lat="45.64340767831665" lon="12.972410669510056"><ele>-1.0</ele><time>2026-05-01T09:18:56.972Z</time></trkpt><trkpt lat="45.643486248784775" lon="12.972423939066909"><ele>-1.0</ele><time>2026-05-01T09:18:57.972Z</time></trkpt><trkpt lat="45.643568454220755" lon="12.972434726165552"><ele>-0.9999999999999999</ele><time>2026-05-01T09:18:58.972Z</time></trkpt><trkpt lat="45.643649091713456" lon="12.972443689355561"><ele>-1.0</ele><time>2026-05-01T09:18:59.972Z</time></trkpt><trkpt lat="45.64372934653891" lon="12.972462640597458"><ele>-1.0</ele><time>2026-05-01T09:19:00.972Z</time></trkpt><trkpt lat="45.64381598235827" lon="12.972474108901295"><ele>-1.0</ele><time>2026-05-01T09:19:01.972Z</time></trkpt><trkpt lat="45.64390399233789" lon="12.972485596908541"><ele>-1.0</ele><time>2026-05-01T09:19:02.972Z</time></trkpt><trkpt lat="45.64399568389523" lon="12.972497181369294"><ele>-1.0</ele><time>2026-05-01T09:19:03.972Z</time></trkpt><trkpt lat="45.644087301784424" lon="12.972514852433866"><ele>-1.0</ele><time>2026-05-01T09:19:04.972Z</time></trkpt><trkpt lat="45.64417961819783" lon="12.972524886568369"><ele>-1.0</ele><time>2026-05-01T09:19:05.972Z</time></trkpt><trkpt lat="45.6442739830664" lon="12.972545852411606"><ele>-1.0</ele><time>2026-05-01T09:19:06.972Z</time></trkpt><trkpt lat="45.6443716647779" lon="12.972560175439508"><ele>-1.0</ele><time>2026-05-01T09:19:07.972Z</time></trkpt><trkpt lat="45.644468574933654" lon="12.972577222757133"><ele>-1.0</ele><time>2026-05-01T09:19:08.972Z</time></trkpt><trkpt lat="45.644563967599666" lon="12.972593367269866"><ele>-1.0</ele><time>2026-05-01T09:19:09.972Z</time></trkpt><trkpt lat="45.64465433572162" lon="12.972605705623813"><ele>-1.0</ele><time>2026-05-01T09:19:10.971Z</time></trkpt><trkpt lat="45.644739414066855" lon="12.972617158193406"><ele>-1.0</ele><time>2026-05-01T09:19:11.971Z</time></trkpt><trkpt lat="45.64484778332787" lon="12.97264277199446"><ele>-1.0</ele><time>2026-05-01T09:19:13.971Z</time></trkpt><trkpt lat="45.64489713101105" lon="12.972507437132858"><ele>-1.0</ele><time>2026-05-01T09:19:17.971Z</time></trkpt><trkpt lat="45.64489186622922" lon="12.972398094170007"><ele>-1.0</ele><time>2026-05-01T09:19:18.971Z</time></trkpt><trkpt lat="45.64488637142654" lon="12.972282177554572"><ele>-1.4</ele><time>2026-05-01T09:19:19.971Z</time></trkpt><trkpt lat="45.64488347542354" lon="12.972157169533753"><ele>-1.8</ele><time>2026-05-01T09:19:20.971Z</time></trkpt><trkpt lat="45.644887740053726" lon="12.972023851374837"><ele>-2.1999999999999997</ele><time>2026-05-01T09:19:21.971Z</time></trkpt><trkpt lat="45.64488895645241" lon="12.97189196706433"><ele>-2.6</ele><time>2026-05-01T09:19:22.971Z</time></trkpt><trkpt lat="45.64489009517729" lon="12.971746170407027"><ele>-3.0</ele><time>2026-05-01T09:19:23.971Z</time></trkpt><trkpt lat="45.64489042864949" lon="12.97160066203387"><ele>-3.0</ele><time>2026-05-01T09:19:24.971Z</time></trkpt><trkpt lat="45.6448916904345" lon="12.971449476852213"><ele>-3.0</ele><time>2026-05-01T09:19:25.971Z</time></trkpt><trkpt lat="45.64489255755466" lon="12.971292962072267"><ele>-3.0</ele><time>2026-05-01T09:19:26.971Z</time></trkpt><trkpt lat="45.644889780364274" lon="12.971130646341425"><ele>-3.0</ele><time>2026-05-01T09:19:27.971Z</time></trkpt><trkpt lat="45.64488768464474" lon="12.970963342564236"><ele>-3.0</ele><time>2026-05-01T09:19:28.971Z</time></trkpt><trkpt lat="45.64489119273279" lon="12.970792428311956"><ele>-2.75</ele><time>2026-05-01T09:19:29.971Z</time></trkpt><trkpt lat="45.64489569944282" lon="12.970619052669058"><ele>-2.5</ele><time>2026-05-01T09:19:30.971Z</time></trkpt><trkpt lat="45.64489725630497" lon="12.970444734985117"><ele>-2.25</ele><time>2026-05-01T09:19:31.971Z</time></trkpt><trkpt lat="45.644901680416105" lon="12.970268694074074"><ele>-2.0</ele><time>2026-05-01T09:19:32.971Z</time></trkpt><trkpt lat="45.64490239989262" lon="12.970088519536098"><ele>-2.0</ele><time>2026-05-01T09:19:33.971Z</time></trkpt><trkpt lat="45.64490081164194" lon="12.969901012774345"><ele>-2.0</ele><time>2026-05-01T09:19:34.971Z</time></trkpt><trkpt lat="45.64489869931822" lon="12.969717703299859"><ele>-2.0</ele><time>2026-05-01T09:19:35.971Z</time></trkpt><trkpt lat="45.6448994533965" lon="12.969532096741034"><ele>-2.0</ele><time>2026-05-01T09:19:36.971Z</time></trkpt><trkpt lat="45.644900262786976" lon="12.96934249489891"><ele>-2.25</ele><time>2026-05-01T09:19:37.971Z</time></trkpt><trkpt lat="45.64490194637658" lon="12.969152694147358"><ele>-2.5</ele><time>2026-05-01T09:19:38.971Z</time></trkpt><trkpt lat="45.644904245012796" lon="12.968968194059368"><ele>-2.75</ele><time>2026-05-01T09:19:39.971Z</time></trkpt><trkpt lat="45.644906286079376" lon="12.968790379250096"><ele>-3.0</ele><time>2026-05-01T09:19:40.971Z</time></trkpt><trkpt lat="45.6449065713595" lon="12.96860729428298"><ele>-3.0</ele><time>2026-05-01T09:19:41.971Z</time></trkpt><trkpt lat="45.644909388618565" lon="12.968429214544283"><ele>-3.0</ele><time>2026-05-01T09:19:42.971Z</time></trkpt><trkpt lat="45.644906955455106" lon="12.968248499126695"><ele>-3.0</ele><time>2026-05-01T09:19:43.971Z</time></trkpt><trkpt lat="45.64491012494564" lon="12.968071621615314"><ele>-3.0</ele><time>2026-05-01T09:19:44.971Z</time></trkpt><trkpt lat="45.64490928415744" lon="12.967890305857988"><ele>-3.0</ele><time>2026-05-01T09:19:45.971Z</time></trkpt><trkpt lat="45.644909998152144" lon="12.967707972605707"><ele>-3.0</ele><time>2026-05-01T09:19:46.971Z</time></trkpt><trkpt lat="45.64491083963233" lon="12.967526871498674"><ele>-3.0</ele><time>2026-05-01T09:19:47.971Z</time></trkpt><trkpt lat="45.64490984070067" lon="12.967343154828821"><ele>-3.0</ele><time>2026-05-01T09:19:48.971Z</time></trkpt><trkpt lat="45.644910045084444" lon="12.967155252401335"><ele>-3.0</ele><time>2026-05-01T09:19:49.971Z</time></trkpt><trkpt lat="45.64491381297505" lon="12.9669758761651"><ele>-3.0</ele><time>2026-05-01T09:19:50.971Z</time></trkpt><trkpt lat="45.64491737235178" lon="12.966790673615469"><ele>-3.0</ele><time>2026-05-01T09:19:51.971Z</time></trkpt><trkpt lat="45.64491247824108" lon="12.96659750646962"><ele>-3.0</ele><time>2026-05-01T09:19:52.971Z</time></trkpt><trkpt lat="45.64491357745003" lon="12.966408603244066"><ele>-3.0</ele><time>2026-05-01T09:19:53.971Z</time></trkpt><trkpt lat="45.64491273482023" lon="12.966217376633793"><ele>-3.0</ele><time>2026-05-01T09:19:54.971Z</time></trkpt><trkpt lat="45.644915210326786" lon="12.966018979931588"><ele>-3.0</ele><time>2026-05-01T09:19:55.971Z</time></trkpt><trkpt lat="45.64491654993973" lon="12.965818621609028"><ele>-3.0</ele><time>2026-05-01T09:19:56.971Z</time></trkpt><trkpt lat="45.64491465290368" lon="12.965625514599623"><ele>-3.0</ele><time>2026-05-01T09:19:57.971Z</time></trkpt><trkpt lat="45.64491213029635" lon="12.965422854687967"><ele>-3.0</ele><time>2026-05-01T09:19:58.971Z</time></trkpt><trkpt lat="45.644916119650034" lon="12.965226864591093"><ele>-3.0</ele><time>2026-05-01T09:19:59.971Z</time></trkpt><trkpt lat="45.644915846362345" lon="12.96502677569045"><ele>-3.0</ele><time>2026-05-01T09:20:00.971Z</time></trkpt><trkpt lat="45.64491791792397" lon="12.964830916877926"><ele>-3.0</ele><time>2026-05-01T09:20:01.971Z</time></trkpt><trkpt lat="45.64491957183226" lon="12.964633833016624"><ele>-3.0</ele><time>2026-05-01T09:20:02.971Z</time></trkpt><trkpt lat="45.64491782898097" lon="12.964446247601291"><ele>-3.0</ele><time>2026-05-01T09:20:03.971Z</time></trkpt><trkpt lat="45.644914712542324" lon="12.964259002452378"><ele>-3.0</ele><time>2026-05-01T09:20:04.971Z</time></trkpt><trkpt lat="45.644920425488394" lon="12.964073247673744"><ele>-3.0</ele><time>2026-05-01T09:20:05.971Z</time></trkpt><trkpt lat="45.644917459375066" lon="12.963883841707002"><ele>-3.0</ele><time>2026-05-01T09:20:06.971Z</time></trkpt><trkpt lat="45.64492096712007" lon="12.963687497585742"><ele>-3.0</ele><time>2026-05-01T09:20:07.971Z</time></trkpt><trkpt lat="45.64492066651826" lon="12.96348707658049"><ele>-3.0</ele><time>2026-05-01T09:20:08.971Z</time></trkpt><trkpt lat="45.64491894911883" lon="12.963280909909365"><ele>-3.0</ele><time>2026-05-01T09:20:09.971Z</time></trkpt><trkpt lat="45.644919820568255" lon="12.963077169297577"><ele>-3.0</ele><time>2026-05-01T09:20:10.971Z</time></trkpt><trkpt lat="45.64492078052959" lon="12.962877302792933"><ele>-3.0</ele><time>2026-05-01T09:20:11.971Z</time></trkpt><trkpt lat="45.64491995502611" lon="12.962667589545315"><ele>-3.0</ele><time>2026-05-01T09:20:12.971Z</time></trkpt><trkpt lat="45.644925419664176" lon="12.962249051605589"><ele>-3.0</ele><time>2026-05-01T09:20:14.971Z</time></trkpt><trkpt lat="45.644925917485466" lon="12.962037179095725"><ele>-3.0</ele><time>2026-05-01T09:20:15.971Z</time></trkpt><trkpt lat="45.64492652906936" lon="12.961816753227152"><ele>-3.0</ele><time>2026-05-01T09:20:16.971Z</time></trkpt><trkpt lat="45.64492549850431" lon="12.961599942710468"><ele>-3.0</ele><time>2026-05-01T09:20:17.971Z</time></trkpt><trkpt lat="45.64493051970253" lon="12.961394538125653"><ele>-3.0</ele><time>2026-05-01T09:20:18.971Z</time></trkpt><trkpt lat="45.644944082445804" lon="12.961196178358634"><ele>-3.0</ele><time>2026-05-01T09:20:19.971Z</time></trkpt><trkpt lat="45.64494969653412" lon="12.960988811244732"><ele>-3.0</ele><time>2026-05-01T09:20:20.971Z</time></trkpt><trkpt lat="45.64495181561296" lon="12.960781672199229"><ele>-3.0</ele><time>2026-05-01T09:20:21.971Z</time></trkpt><trkpt lat="45.644952467855425" lon="12.96057000968672"><ele>-3.0</ele><time>2026-05-01T09:20:22.971Z</time></trkpt><trkpt lat="45.64495534442572" lon="12.960356350080858"><ele>-3.0</ele><time>2026-05-01T09:20:23.971Z</time></trkpt><trkpt lat="45.64495749089803" lon="12.960131088611023"><ele>-2.6666666666666665</ele><time>2026-05-01T09:20:24.971Z</time></trkpt><trkpt lat="45.64495602786729" lon="12.959901590848505"><ele>-2.333333333333333</ele><time>2026-05-01T09:20:25.971Z</time></trkpt><trkpt lat="45.64495737636445" lon="12.959665152870713"><ele>-2.0</ele><time>2026-05-01T09:20:26.971Z</time></trkpt><trkpt lat="45.644961813392214" lon="12.959424791419227"><ele>-2.333333333333333</ele><time>2026-05-01T09:20:27.971Z</time></trkpt><trkpt lat="45.644962445179594" lon="12.959189902772623"><ele>-2.6666666666666665</ele><time>2026-05-01T09:20:28.971Z</time></trkpt><trkpt lat="45.644959975855" lon="12.958954921556497"><ele>-3.0</ele><time>2026-05-01T09:20:29.971Z</time></trkpt><trkpt lat="45.6449595417287" lon="12.958717816492452"><ele>-3.0</ele><time>2026-05-01T09:20:30.971Z</time></trkpt><trkpt lat="45.644960946168304" lon="12.958481459893418"><ele>-3.0</ele><time>2026-05-01T09:20:31.971Z</time></trkpt><trkpt lat="45.64496291632667" lon="12.958241745481429"><ele>-3.0</ele><time>2026-05-01T09:20:32.971Z</time></trkpt><trkpt lat="45.64496580777698" lon="12.957999752228167"><ele>-3.0</ele><time>2026-05-01T09:20:33.97Z</time></trkpt><trkpt lat="45.644964679315805" lon="12.957758238856364"><ele>-3.0</ele><time>2026-05-01T09:20:34.97Z</time></trkpt><trkpt lat="45.64496720762175" lon="12.957516093481393"><ele>-3.0</ele><time>2026-05-01T09:20:35.97Z</time></trkpt><trkpt lat="45.644966954207355" lon="12.95727311724042"><ele>-3.0</ele><time>2026-05-01T09:20:36.97Z</time></trkpt><trkpt lat="45.64496684467757" lon="12.957030140149081"><ele>-3.0</ele><time>2026-05-01T09:20:37.97Z</time></trkpt><trkpt lat="45.644968652340125" lon="12.95678589421212"><ele>-3.0</ele><time>2026-05-01T09:20:38.97Z</time></trkpt><trkpt lat="45.64496888538704" lon="12.956538297492973"><ele>-3.0</ele><time>2026-05-01T09:20:39.97Z</time></trkpt><trkpt lat="45.644966795528816" lon="12.956296099987194"><ele>-3.0</ele><time>2026-05-01T09:20:40.971Z</time></trkpt><trkpt lat="45.644965053415156" lon="12.956072162037058"><ele>-3.0</ele><time>2026-05-01T09:20:41.971Z</time></trkpt><trkpt lat="45.644968373757294" lon="12.955843950044278"><ele>-3.0</ele><time>2026-05-01T09:20:42.971Z</time></trkpt><trkpt lat="45.644969837592036" lon="12.95562099709802"><ele>-3.0</ele><time>2026-05-01T09:20:43.972Z</time></trkpt><trkpt lat="45.6449674477913" lon="12.955404537546999"><ele>-3.0</ele><time>2026-05-01T09:20:44.971Z</time></trkpt><trkpt lat="45.64497063209324" lon="12.955188547972412"><ele>-3.0</ele><time>2026-05-01T09:20:45.971Z</time></trkpt><trkpt lat="45.64497309784876" lon="12.954976951700257"><ele>-3.0</ele><time>2026-05-01T09:20:46.972Z</time></trkpt><trkpt lat="45.644976472236294" lon="12.954771668619825"><ele>-3.0</ele><time>2026-05-01T09:20:47.972Z</time></trkpt><trkpt lat="45.64497665116039" lon="12.95458062616181"><ele>-3.0</ele><time>2026-05-01T09:20:48.972Z</time></trkpt><trkpt lat="45.6449802031651" lon="12.95438699735123"><ele>-3.0</ele><time>2026-05-01T09:20:49.971Z</time></trkpt><trkpt lat="45.64498016047465" lon="12.95418729175544"><ele>-3.0</ele><time>2026-05-01T09:20:50.972Z</time></trkpt><trkpt lat="45.64498056399002" lon="12.953985308421062"><ele>-3.0</ele><time>2026-05-01T09:20:51.972Z</time></trkpt><trkpt lat="45.64497129260356" lon="12.953799785391423"><ele>-3.0</ele><time>2026-05-01T09:20:52.972Z</time></trkpt><trkpt lat="45.64497189204664" lon="12.953630360630676"><ele>-3.0</ele><time>2026-05-01T09:20:53.972Z</time></trkpt><trkpt lat="45.64497872199448" lon="12.953452763088237"><ele>-3.0</ele><time>2026-05-01T09:20:54.972Z</time></trkpt><trkpt lat="45.644985882867196" lon="12.953255299463846"><ele>-3.0</ele><time>2026-05-01T09:20:55.972Z</time></trkpt><trkpt lat="45.64499014322663" lon="12.953054267273302"><ele>-3.0</ele><time>2026-05-01T09:20:56.972Z</time></trkpt><trkpt lat="45.64499122541226" lon="12.952854957669453"><ele>-2.75</ele><time>2026-05-01T09:20:57.972Z</time></trkpt><trkpt lat="45.64499198597546" lon="12.952646103455988"><ele>-2.5</ele><time>2026-05-01T09:20:58.972Z</time></trkpt><trkpt lat="45.64499254207333" lon="12.952433408286849"><ele>-2.25</ele><time>2026-05-01T09:20:59.972Z</time></trkpt><trkpt lat="45.644992569490434" lon="12.952217616292248"><ele>-2.0</ele><time>2026-05-01T09:21:00.972Z</time></trkpt><trkpt lat="45.64499500361273" lon="12.952006511680402"><ele>-1.75</ele><time>2026-05-01T09:21:01.972Z</time></trkpt><trkpt lat="45.64499602203266" lon="12.951815551293164"><ele>-1.5</ele><time>2026-05-01T09:21:02.971Z</time></trkpt><trkpt lat="45.644996947056754" lon="12.95162060578493"><ele>-1.25</ele><time>2026-05-01T09:21:03.971Z</time></trkpt><trkpt lat="45.64499517685062" lon="12.951418825909736"><ele>-1.0</ele><time>2026-05-01T09:21:04.971Z</time></trkpt><trkpt lat="45.64499596833306" lon="12.951224169717575"><ele>-1.0</ele><time>2026-05-01T09:21:05.971Z</time></trkpt><trkpt lat="45.644993917415995" lon="12.95102700409186"><ele>-1.0</ele><time>2026-05-01T09:21:06.971Z</time></trkpt><trkpt lat="45.64499544048922" lon="12.950827914537902"><ele>-1.0</ele><time>2026-05-01T09:21:07.971Z</time></trkpt><trkpt lat="45.64499933680553" lon="12.950630403488752"><ele>-1.0</ele><time>2026-05-01T09:21:08.971Z</time></trkpt><trkpt lat="45.644998175707826" lon="12.950428586336328"><ele>-1.25</ele><time>2026-05-01T09:21:09.971Z</time></trkpt><trkpt lat="45.64500108772939" lon="12.95022983129765"><ele>-1.5</ele><time>2026-05-01T09:21:10.971Z</time></trkpt><trkpt lat="45.64500272932312" lon="12.950026545459284"><ele>-1.75</ele><time>2026-05-01T09:21:11.971Z</time></trkpt><trkpt lat="45.644998948084435" lon="12.949818675134514"><ele>-2.0</ele><time>2026-05-01T09:21:12.971Z</time></trkpt><trkpt lat="45.6449978978305" lon="12.949615364855184"><ele>-2.0</ele><time>2026-05-01T09:21:13.971Z</time></trkpt><trkpt lat="45.64499879000481" lon="12.949430714152866"><ele>-2.0</ele><time>2026-05-01T09:21:14.971Z</time></trkpt><trkpt lat="45.64500042715371" lon="12.949265377721627"><ele>-2.0</ele><time>2026-05-01T09:21:15.971Z</time></trkpt><trkpt lat="45.64500185359534" lon="12.949114814694918"><ele>-2.0</ele><time>2026-05-01T09:21:16.971Z</time></trkpt><trkpt lat="45.64500677120838" lon="12.94897587890232"><ele>-2.0</ele><time>2026-05-01T09:21:17.971Z</time></trkpt><trkpt lat="45.64500644040385" lon="12.94884109294412"><ele>-2.0</ele><time>2026-05-01T09:21:18.971Z</time></trkpt><trkpt lat="45.645006253277856" lon="12.9487141555798"><ele>-2.0</ele><time>2026-05-01T09:21:19.971Z</time></trkpt><trkpt lat="45.645004378054196" lon="12.948592126372189"><ele>-2.0</ele><time>2026-05-01T09:21:20.971Z</time></trkpt><trkpt lat="45.645001896184816" lon="12.94845917605145"><ele>-2.0</ele><time>2026-05-01T09:21:21.971Z</time></trkpt><trkpt lat="45.64499928277944" lon="12.948321662495704"><ele>-2.0</ele><time>2026-05-01T09:21:22.971Z</time></trkpt><trkpt lat="45.644997495684805" lon="12.948184063672143"><ele>-2.0</ele><time>2026-05-01T09:21:23.971Z</time></trkpt><trkpt lat="45.64500574092869" lon="12.94804062762982"><ele>-2.0</ele><time>2026-05-01T09:21:24.971Z</time></trkpt><trkpt lat="45.64500534286239" lon="12.947901711165546"><ele>-2.0</ele><time>2026-05-01T09:21:25.971Z</time></trkpt><trkpt lat="45.64500465603207" lon="12.947757780984924"><ele>-2.0</ele><time>2026-05-01T09:21:26.971Z</time></trkpt><trkpt lat="45.64500487389474" lon="12.947617944874724"><ele>-2.0</ele><time>2026-05-01T09:21:27.971Z</time></trkpt><trkpt lat="45.64500123556247" lon="12.947489959628582"><ele>-1.75</ele><time>2026-05-01T09:21:28.971Z</time></trkpt><trkpt lat="45.64500279705544" lon="12.947386027604354"><ele>-1.5</ele><time>2026-05-01T09:21:29.971Z</time></trkpt><trkpt lat="45.64500926187194" lon="12.947253449094536"><ele>-1.25</ele><time>2026-05-01T09:21:31.971Z</time></trkpt><trkpt lat="45.64499308419196" lon="12.947162305234114"><ele>-1.0</ele><time>2026-05-01T09:21:34.971Z</time></trkpt><trkpt lat="45.64523546535757" lon="12.946637395723432"><ele>-1.25</ele><time>2026-05-01T09:21:39.971Z</time></trkpt><trkpt lat="45.64533580427237" lon="12.946628934714765"><ele>-1.5</ele><time>2026-05-01T09:21:40.971Z</time></trkpt><trkpt lat="45.64544105327924" lon="12.946620059598278"><ele>-1.75</ele><time>2026-05-01T09:21:41.971Z</time></trkpt><trkpt lat="45.64557940931803" lon="12.946445582869954"><ele>-2.0</ele><time>2026-05-01T09:21:42.971Z</time></trkpt><trkpt lat="45.64607980765252" lon="12.947174639288718"><ele>-2.25</ele><time>2026-05-01T09:21:46.971Z</time></trkpt><trkpt lat="45.64621697626696" lon="12.947170820818267"><ele>-2.5</ele><time>2026-05-01T09:21:47.971Z</time></trkpt><trkpt lat="45.64635393232369" lon="12.947169574122244"><ele>-2.75</ele><time>2026-05-01T09:21:48.971Z</time></trkpt><trkpt lat="45.646495018134935" lon="12.947174062369404"><ele>-3.0</ele><time>2026-05-01T09:21:49.971Z</time></trkpt><trkpt lat="45.64663703037492" lon="12.947177668017986"><ele>-3.0</ele><time>2026-05-01T09:21:50.971Z</time></trkpt><trkpt lat="45.64678351588131" lon="12.94717968404888"><ele>-3.0</ele><time>2026-05-01T09:21:51.971Z</time></trkpt><trkpt lat="45.64692929660249" lon="12.947179648888387"><ele>-3.0</ele><time>2026-05-01T09:21:52.971Z</time></trkpt><trkpt lat="45.64707617462173" lon="12.947182963533587"><ele>-3.0</ele><time>2026-05-01T09:21:53.971Z</time></trkpt><trkpt lat="45.64722600678851" lon="12.94718331115707"><ele>-3.333333333333333</ele><time>2026-05-01T09:21:54.971Z</time></trkpt><trkpt lat="45.64737658001656" lon="12.947184101462698"><ele>-3.6666666666666665</ele><time>2026-05-01T09:21:55.971Z</time></trkpt><trkpt lat="45.647529788957065" lon="12.94718531174231"><ele>-4.0</ele><time>2026-05-01T09:21:56.971Z</time></trkpt><trkpt lat="45.64768468960415" lon="12.947186574294317"><ele>-3.6666666666666665</ele><time>2026-05-01T09:21:57.971Z</time></trkpt><trkpt lat="45.64783923862099" lon="12.947185578665325"><ele>-3.333333333333333</ele><time>2026-05-01T09:21:58.971Z</time></trkpt><trkpt lat="45.64799526977351" lon="12.94718825225665"><ele>-3.0</ele><time>2026-05-01T09:21:59.971Z</time></trkpt><trkpt lat="45.64815019777759" lon="12.947190858004726"><ele>-3.0</ele><time>2026-05-01T09:22:00.971Z</time></trkpt><trkpt lat="45.64830746092365" lon="12.947192641938592"><ele>-3.0</ele><time>2026-05-01T09:22:01.971Z</time></trkpt><trkpt lat="45.64846409211058" lon="12.94719461583525"><ele>-3.0</ele><time>2026-05-01T09:22:02.971Z</time></trkpt><trkpt lat="45.648618861965815" lon="12.9471941875753"><ele>-3.0</ele><time>2026-05-01T09:22:03.971Z</time></trkpt><trkpt lat="45.64877429221292" lon="12.947192494370901"><ele>-3.0</ele><time>2026-05-01T09:22:04.971Z</time></trkpt><trkpt lat="45.648925792580805" lon="12.947194666799334"><ele>-3.0</ele><time>2026-05-01T09:22:05.971Z</time></trkpt><trkpt lat="45.649079272844126" lon="12.947199881648425"><ele>-3.0</ele><time>2026-05-01T09:22:06.971Z</time></trkpt><trkpt lat="45.64923656449967" lon="12.947207668498093"><ele>-3.0</ele><time>2026-05-01T09:22:07.971Z</time></trkpt><trkpt lat="45.64939480114019" lon="12.947219713734276"><ele>-3.0</ele><time>2026-05-01T09:22:08.971Z</time></trkpt><trkpt lat="45.64955587175902" lon="12.947218607670607"><ele>-2.6666666666666665</ele><time>2026-05-01T09:22:09.971Z</time></trkpt><trkpt lat="45.64971815812063" lon="12.947215224087694"><ele>-2.333333333333333</ele><time>2026-05-01T09:22:10.971Z</time></trkpt><trkpt lat="45.649874710868886" lon="12.947217928452899"><ele>-2.0</ele><time>2026-05-01T09:22:11.971Z</time></trkpt><trkpt lat="45.650038312922334" lon="12.947216089593777"><ele>-2.0</ele><time>2026-05-01T09:22:12.971Z</time></trkpt><trkpt lat="45.65020363934357" lon="12.94721444668598"><ele>-2.0</ele><time>2026-05-01T09:22:13.971Z</time></trkpt><trkpt lat="45.650371652161176" lon="12.947217314279008"><ele>-2.0</ele><time>2026-05-01T09:22:14.971Z</time></trkpt><trkpt lat="45.65053840835776" lon="12.947220540772456"><ele>-2.333333333333333</ele><time>2026-05-01T09:22:15.971Z</time></trkpt><trkpt lat="45.650707863779516" lon="12.947222486838072"><ele>-2.6666666666666665</ele><time>2026-05-01T09:22:16.971Z</time></trkpt><trkpt lat="45.65087327748685" lon="12.947224248667608"><ele>-3.0</ele><time>2026-05-01T09:22:17.971Z</time></trkpt><trkpt lat="45.651039148595096" lon="12.94722709968327"><ele>-3.0</ele><time>2026-05-01T09:22:18.971Z</time></trkpt><trkpt lat="45.65120518062002" lon="12.947225389003851"><ele>-3.0</ele><time>2026-05-01T09:22:19.971Z</time></trkpt><trkpt lat="45.65137228208401" lon="12.947222025324857"><ele>-3.0</ele><time>2026-05-01T09:22:20.971Z</time></trkpt><trkpt lat="45.65153448353369" lon="12.947219113056228"><ele>-3.0</ele><time>2026-05-01T09:22:21.971Z</time></trkpt><trkpt lat="45.65169632536154" lon="12.947222890730583"><ele>-3.0</ele><time>2026-05-01T09:22:22.971Z</time></trkpt><trkpt lat="45.65185852633296" lon="12.947226746393673"><ele>-3.0</ele><time>2026-05-01T09:22:23.971Z</time></trkpt><trkpt lat="45.6520226577309" lon="12.947229274586821"><ele>-3.0</ele><time>2026-05-01T09:22:24.971Z</time></trkpt><trkpt lat="45.652187605291694" lon="12.94723244416807"><ele>-3.0</ele><time>2026-05-01T09:22:25.97Z</time></trkpt><trkpt lat="45.65235364910264" lon="12.94723442134413"><ele>-3.0</ele><time>2026-05-01T09:22:26.97Z</time></trkpt><trkpt lat="45.65251767673991" lon="12.947231831710399"><ele>-3.0</ele><time>2026-05-01T09:22:27.97Z</time></trkpt><trkpt lat="45.652680460051364" lon="12.947230814430666"><ele>-3.0</ele><time>2026-05-01T09:22:28.97Z</time></trkpt><trkpt lat="45.65284200184124" lon="12.947234428674868"><ele>-3.0</ele><time>2026-05-01T09:22:29.97Z</time></trkpt><trkpt lat="45.653001654484626" lon="12.947237823796149"><ele>-3.0</ele><time>2026-05-01T09:22:30.97Z</time></trkpt><trkpt lat="45.65316193488942" lon="12.947240922867225"><ele>-3.0</ele><time>2026-05-01T09:22:31.97Z</time></trkpt><trkpt lat="45.653321389519355" lon="12.947240364474725"><ele>-3.0</ele><time>2026-05-01T09:22:32.97Z</time></trkpt><trkpt lat="45.653482309310526" lon="12.947242179495136"><ele>-2.6666666666666665</ele><time>2026-05-01T09:22:33.97Z</time></trkpt><trkpt lat="45.65364732582074" lon="12.947240608198452"><ele>-2.333333333333333</ele><time>2026-05-01T09:22:34.97Z</time></trkpt><trkpt lat="45.65381508420102" lon="12.947240032997374"><ele>-2.0</ele><time>2026-05-01T09:22:35.97Z</time></trkpt><trkpt lat="45.65398015721094" lon="12.947243008500328"><ele>-2.0</ele><time>2026-05-01T09:22:36.97Z</time></trkpt><trkpt lat="45.65415536394049" lon="12.947249597194341"><ele>-2.0</ele><time>2026-05-01T09:22:37.97Z</time></trkpt><trkpt lat="45.654331599061976" lon="12.947249714218014"><ele>-2.0</ele><time>2026-05-01T09:22:38.97Z</time></trkpt><trkpt lat="45.654502048778525" lon="12.947251139436094"><ele>-1.6666666666666665</ele><time>2026-05-01T09:22:39.97Z</time></trkpt><trkpt lat="45.65467592520827" lon="12.947254957124041"><ele>-1.3333333333333333</ele><time>2026-05-01T09:22:40.97Z</time></trkpt><trkpt lat="45.654850928799725" lon="12.94725800613766"><ele>-1.0</ele><time>2026-05-01T09:22:41.97Z</time></trkpt><trkpt lat="45.65502480396179" lon="12.947263280571457"><ele>-1.0</ele><time>2026-05-01T09:22:42.97Z</time></trkpt><trkpt lat="45.65520146354693" lon="12.947262945019103"><ele>-1.0</ele><time>2026-05-01T09:22:43.97Z</time></trkpt><trkpt lat="45.655376108724376" lon="12.947261455123915"><ele>-1.0</ele><time>2026-05-01T09:22:44.97Z</time></trkpt><trkpt lat="45.65554957985139" lon="12.947263591651918"><ele>-1.6666666666666665</ele><time>2026-05-01T09:22:45.97Z</time></trkpt><trkpt lat="45.65572076407943" lon="12.947262637431939"><ele>-2.3333333333333335</ele><time>2026-05-01T09:22:46.972Z</time></trkpt><trkpt lat="45.655894956365124" lon="12.947264763422558"><ele>-3.0</ele><time>2026-05-01T09:22:47.971Z</time></trkpt><trkpt lat="45.656071360805434" lon="12.947264559665962"><ele>-3.0</ele><time>2026-05-01T09:22:48.971Z</time></trkpt><trkpt lat="45.65624614038595" lon="12.947260844401013"><ele>-3.0</ele><time>2026-05-01T09:22:49.972Z</time></trkpt><trkpt lat="45.65642740683242" lon="12.947259713512933"><ele>-3.0</ele><time>2026-05-01T09:22:50.971Z</time></trkpt><trkpt lat="45.656604909804116" lon="12.947257877948315"><ele>-3.0</ele><time>2026-05-01T09:22:51.971Z</time></trkpt><trkpt lat="45.65678333336168" lon="12.947260610496066"><ele>-3.0</ele><time>2026-05-01T09:22:52.971Z</time></trkpt><trkpt lat="45.656966752092735" lon="12.947266937915613"><ele>-3.0</ele><time>2026-05-01T09:22:53.971Z</time></trkpt><trkpt lat="45.65714937697075" lon="12.947271536855043"><ele>-2.6666666666666665</ele><time>2026-05-01T09:22:54.971Z</time></trkpt><trkpt lat="45.65733254163792" lon="12.947275194787158"><ele>-2.333333333333333</ele><time>2026-05-01T09:22:55.971Z</time></trkpt><trkpt lat="45.657516248599904" lon="12.947276444785773"><ele>-2.0</ele><time>2026-05-01T09:22:56.971Z</time></trkpt><trkpt lat="45.65769818917573" lon="12.947277923479543"><ele>-1.3333333333333333</ele><time>2026-05-01T09:22:57.971Z</time></trkpt><trkpt lat="45.65788343978261" lon="12.947277791705009"><ele>-0.6666666666666666</ele><time>2026-05-01T09:22:58.971Z</time></trkpt><trkpt lat="45.65806872647258" lon="12.947279686073113"><ele>0.0</ele><time>2026-05-01T09:22:59.971Z</time></trkpt><trkpt lat="45.65825252530216" lon="12.947279249860255"><ele>0.0</ele><time>2026-05-01T09:23:00.971Z</time></trkpt><trkpt lat="45.65843550795322" lon="12.947278173685497"><ele>0.0</ele><time>2026-05-01T09:23:01.971Z</time></trkpt><trkpt lat="45.65861215247459" lon="12.94727572149023"><ele>0.0</ele><time>2026-05-01T09:23:02.971Z</time></trkpt><trkpt lat="45.65879035147156" lon="12.947277323572957"><ele>0.3333333333333333</ele><time>2026-05-01T09:23:03.971Z</time></trkpt><trkpt lat="45.65896625528117" lon="12.947280198480797"><ele>0.6666666666666666</ele><time>2026-05-01T09:23:04.971Z</time></trkpt><trkpt lat="45.65913318569665" lon="12.947283298735112"><ele>1.0</ele><time>2026-05-01T09:23:05.971Z</time></trkpt><trkpt lat="45.65929900237118" lon="12.947280725243738"><ele>0.0</ele><time>2026-05-01T09:23:06.971Z</time></trkpt><trkpt lat="45.659460856769776" lon="12.947283566223962"><ele>-1.0</ele><time>2026-05-01T09:23:07.971Z</time></trkpt><trkpt lat="45.659628095499805" lon="12.947301107502552"><ele>-2.0</ele><time>2026-05-01T09:23:08.971Z</time></trkpt><trkpt lat="45.65979280396143" lon="12.94728124586557"><ele>-2.0</ele><time>2026-05-01T09:23:09.971Z</time></trkpt><trkpt lat="45.65995767100859" lon="12.947287679862303"><ele>-2.0</ele><time>2026-05-01T09:23:10.971Z</time></trkpt><trkpt lat="45.660120337928454" lon="12.947296246908206"><ele>-2.0</ele><time>2026-05-01T09:23:11.971Z</time></trkpt><trkpt lat="45.660285515158385" lon="12.947302598967363"><ele>-2.0</ele><time>2026-05-01T09:23:12.971Z</time></trkpt><trkpt lat="45.660451225217706" lon="12.94730799390851"><ele>-2.0</ele><time>2026-05-01T09:23:13.97Z</time></trkpt><trkpt lat="45.66061966973966" lon="12.94731105537513"><ele>-2.0</ele><time>2026-05-01T09:23:14.97Z</time></trkpt><trkpt lat="45.660789477356744" lon="12.94731645637045"><ele>-2.0</ele><time>2026-05-01T09:23:15.97Z</time></trkpt><trkpt lat="45.66095858902259" lon="12.947316854464846"><ele>-2.0</ele><time>2026-05-01T09:23:16.97Z</time></trkpt><trkpt lat="45.66112771533902" lon="12.947317656057548"><ele>-2.0</ele><time>2026-05-01T09:23:17.97Z</time></trkpt><trkpt lat="45.661296663472555" lon="12.947318805942917"><ele>-2.6666666666666665</ele><time>2026-05-01T09:23:18.97Z</time></trkpt><trkpt lat="45.661467558346715" lon="12.947320020994368"><ele>-3.333333333333333</ele><time>2026-05-01T09:23:19.97Z</time></trkpt><trkpt lat="45.66163793700254" lon="12.947320731138895"><ele>-4.0</ele><time>2026-05-01T09:23:20.97Z</time></trkpt><trkpt lat="45.661806324644544" lon="12.947320297945643"><ele>-3.333333333333333</ele><time>2026-05-01T09:23:21.97Z</time></trkpt><trkpt lat="45.66197802173033" lon="12.947321850297703"><ele>-2.6666666666666665</ele><time>2026-05-01T09:23:22.97Z</time></trkpt><trkpt lat="45.662150164534566" lon="12.947328263412132"><ele>-2.0</ele><time>2026-05-01T09:23:23.97Z</time></trkpt><trkpt lat="45.66232181984723" lon="12.947327382124996"><ele>-2.0</ele><time>2026-05-01T09:23:24.97Z</time></trkpt><trkpt lat="45.662494453728335" lon="12.947331057203078"><ele>-2.0</ele><time>2026-05-01T09:23:25.97Z</time></trkpt><trkpt lat="45.66266792309882" lon="12.94733362643856"><ele>-2.0</ele><time>2026-05-01T09:23:26.97Z</time></trkpt><trkpt lat="45.662837210299266" lon="12.947334049303004"><ele>-2.6666666666666665</ele><time>2026-05-01T09:23:27.97Z</time></trkpt><trkpt lat="45.663008731412035" lon="12.947334404267266"><ele>-3.333333333333333</ele><time>2026-05-01T09:23:28.97Z</time></trkpt><trkpt lat="45.66318773257839" lon="12.947337144282875"><ele>-4.0</ele><time>2026-05-01T09:23:29.97Z</time></trkpt><trkpt lat="45.663365641533034" lon="12.947337290223702"><ele>-4.0</ele><time>2026-05-01T09:23:30.97Z</time></trkpt><trkpt lat="45.66354454491104" lon="12.947336947681524"><ele>-4.0</ele><time>2026-05-01T09:23:31.97Z</time></trkpt><trkpt lat="45.663721203472434" lon="12.947342724675575"><ele>-4.0</ele><time>2026-05-01T09:23:32.97Z</time></trkpt><trkpt lat="45.66390026793402" lon="12.947341900239072"><ele>-3.333333333333333</ele><time>2026-05-01T09:23:33.97Z</time></trkpt><trkpt lat="45.66407497707095" lon="12.947342714853306"><ele>-2.6666666666666665</ele><time>2026-05-01T09:23:34.97Z</time></trkpt><trkpt lat="45.66425312348464" lon="12.947344075886614"><ele>-2.0</ele><time>2026-05-01T09:23:35.97Z</time></trkpt><trkpt lat="45.6644336725896" lon="12.947345411712226"><ele>-2.0</ele><time>2026-05-01T09:23:36.97Z</time></trkpt><trkpt lat="45.66461352062845" lon="12.94734537676787"><ele>-2.0</ele><time>2026-05-01T09:23:37.97Z</time></trkpt><trkpt lat="45.66479407967287" lon="12.94734651121869"><ele>-2.0</ele><time>2026-05-01T09:23:38.97Z</time></trkpt><trkpt lat="45.66497423821861" lon="12.947346013749009"><ele>-2.0</ele><time>2026-05-01T09:23:39.97Z</time></trkpt><trkpt lat="45.66515229003162" lon="12.94734923586012"><ele>-2.0</ele><time>2026-05-01T09:23:40.97Z</time></trkpt><trkpt lat="45.665332555905415" lon="12.947350391277542"><ele>-2.0</ele><time>2026-05-01T09:23:41.97Z</time></trkpt><trkpt lat="45.66551137323765" lon="12.947351583853623"><ele>-2.6666666666666665</ele><time>2026-05-01T09:23:42.97Z</time></trkpt><trkpt lat="45.66569374308806" lon="12.947360126310214"><ele>-3.333333333333333</ele><time>2026-05-01T09:23:43.97Z</time></trkpt><trkpt lat="45.66587309135996" lon="12.947361882761156"><ele>-4.0</ele><time>2026-05-01T09:23:44.97Z</time></trkpt><trkpt lat="45.666048675651766" lon="12.947366467014636"><ele>-3.333333333333333</ele><time>2026-05-01T09:23:45.97Z</time></trkpt><trkpt lat="45.666228084888765" lon="12.94736595993332"><ele>-2.6666666666666665</ele><time>2026-05-01T09:23:46.97Z</time></trkpt><trkpt lat="45.66640543774886" lon="12.947370361058576"><ele>-2.0</ele><time>2026-05-01T09:23:47.97Z</time></trkpt><trkpt lat="45.66658405878711" lon="12.947372300329173"><ele>-2.0</ele><time>2026-05-01T09:23:48.97Z</time></trkpt><trkpt lat="45.66676677577642" lon="12.947369689014527"><ele>-2.0</ele><time>2026-05-01T09:23:49.97Z</time></trkpt><trkpt lat="45.66694554943544" lon="12.947372654455393"><ele>-2.0</ele><time>2026-05-01T09:23:50.97Z</time></trkpt><trkpt lat="45.66712328834404" lon="12.947379412596808"><ele>-2.0</ele><time>2026-05-01T09:23:51.97Z</time></trkpt><trkpt lat="45.66729886713805" lon="12.947380646809215"><ele>-2.0</ele><time>2026-05-01T09:23:52.97Z</time></trkpt><trkpt lat="45.667481660677666" lon="12.947379543259425"><ele>-2.0</ele><time>2026-05-01T09:23:53.97Z</time></trkpt><trkpt lat="45.66765366443584" lon="12.947378010783293"><ele>-1.3333333333333333</ele><time>2026-05-01T09:23:54.97Z</time></trkpt><trkpt lat="45.6678218752463" lon="12.947380052118609"><ele>-0.6666666666666666</ele><time>2026-05-01T09:23:55.97Z</time></trkpt><trkpt lat="45.66799007463775" lon="12.947383023820175"><ele>0.0</ele><time>2026-05-01T09:23:56.97Z</time></trkpt><trkpt lat="45.66815175669234" lon="12.947383363567422"><ele>0.0</ele><time>2026-05-01T09:23:57.97Z</time></trkpt><trkpt lat="45.66831641724745" lon="12.947383668423912"><ele>0.0</ele><time>2026-05-01T09:23:58.97Z</time></trkpt><trkpt lat="45.668482763071644" lon="12.94738095579866"><ele>0.0</ele><time>2026-05-01T09:23:59.97Z</time></trkpt><trkpt lat="45.66864657606303" lon="12.947375191021731"><ele>-0.3333333333333333</ele><time>2026-05-01T09:24:00.97Z</time></trkpt><trkpt lat="45.668807869223976" lon="12.947372155483851"><ele>-0.6666666666666666</ele><time>2026-05-01T09:24:01.97Z</time></trkpt><trkpt lat="45.66896801655104" lon="12.947370831260084"><ele>-1.0</ele><time>2026-05-01T09:24:02.97Z</time></trkpt><trkpt lat="45.66912878781979" lon="12.94737388081402"><ele>-1.0</ele><time>2026-05-01T09:24:03.97Z</time></trkpt><trkpt lat="45.66928585241695" lon="12.947379262018401"><ele>-1.0</ele><time>2026-05-01T09:24:04.97Z</time></trkpt><trkpt lat="45.66944709372043" lon="12.947380695118976"><ele>-1.0</ele><time>2026-05-01T09:24:05.97Z</time></trkpt><trkpt lat="45.66960470354084" lon="12.947390009211032"><ele>-1.3333333333333333</ele><time>2026-05-01T09:24:06.97Z</time></trkpt><trkpt lat="45.669762709184205" lon="12.94739637424017"><ele>-1.6666666666666665</ele><time>2026-05-01T09:24:07.97Z</time></trkpt><trkpt lat="45.6699222375172" lon="12.947397533731062"><ele>-2.0</ele><time>2026-05-01T09:24:08.97Z</time></trkpt><trkpt lat="45.67008144036136" lon="12.94739728395596"><ele>-2.0</ele><time>2026-05-01T09:24:09.97Z</time></trkpt><trkpt lat="45.67024003748432" lon="12.94739598544862"><ele>-2.0</ele><time>2026-05-01T09:24:10.97Z</time></trkpt><trkpt lat="45.67040147667797" lon="12.947396341895836"><ele>-2.0</ele><time>2026-05-01T09:24:11.97Z</time></trkpt><trkpt lat="45.67055893936733" lon="12.94739671487488"><ele>-2.333333333333333</ele><time>2026-05-01T09:24:12.97Z</time></trkpt><trkpt lat="45.67071870544785" lon="12.947396263407123"><ele>-2.6666666666666665</ele><time>2026-05-01T09:24:13.97Z</time></trkpt><trkpt lat="45.67087824254938" lon="12.947402290769698"><ele>-3.0</ele><time>2026-05-01T09:24:14.97Z</time></trkpt><trkpt lat="45.67103914683144" lon="12.947407804457947"><ele>-2.6666666666666665</ele><time>2026-05-01T09:24:15.97Z</time></trkpt><trkpt lat="45.6712002411479" lon="12.947410108180096"><ele>-2.333333333333333</ele><time>2026-05-01T09:24:16.97Z</time></trkpt><trkpt lat="45.67136186319841" lon="12.947412684518003"><ele>-2.0</ele><time>2026-05-01T09:24:17.97Z</time></trkpt><trkpt lat="45.67152955810801" lon="12.947418027992619"><ele>-2.0</ele><time>2026-05-01T09:24:18.97Z</time></trkpt><trkpt lat="45.671696369531595" lon="12.94742235038257"><ele>-2.0</ele><time>2026-05-01T09:24:19.97Z</time></trkpt><trkpt lat="45.67186754546394" lon="12.947421859832517"><ele>-2.0</ele><time>2026-05-01T09:24:20.97Z</time></trkpt><trkpt lat="45.672040338557764" lon="12.947425820881529"><ele>-2.0</ele><time>2026-05-01T09:24:21.97Z</time></trkpt><trkpt lat="45.67221449040882" lon="12.947430322253918"><ele>-2.0</ele><time>2026-05-01T09:24:22.97Z</time></trkpt><trkpt lat="45.67238904374231" lon="12.947432535423097"><ele>-2.0</ele><time>2026-05-01T09:24:23.97Z</time></trkpt><trkpt lat="45.672555858185696" lon="12.94743110723902"><ele>-2.0</ele><time>2026-05-01T09:24:24.97Z</time></trkpt><trkpt lat="45.67271998316315" lon="12.94743866097089"><ele>-2.0</ele><time>2026-05-01T09:24:25.97Z</time></trkpt><trkpt lat="45.67287990966508" lon="12.947432983876132"><ele>-2.0</ele><time>2026-05-01T09:24:26.97Z</time></trkpt><trkpt lat="45.67304770124868" lon="12.947436999830932"><ele>-2.0</ele><time>2026-05-01T09:24:27.97Z</time></trkpt><trkpt lat="45.673215782711196" lon="12.947440583345854"><ele>-2.0</ele><time>2026-05-01T09:24:28.97Z</time></trkpt><trkpt lat="45.67338340341808" lon="12.947444431716653"><ele>-2.0</ele><time>2026-05-01T09:24:29.97Z</time></trkpt><trkpt lat="45.67355094066345" lon="12.947444759695063"><ele>-2.0</ele><time>2026-05-01T09:24:30.97Z</time></trkpt><trkpt lat="45.67371754778972" lon="12.947446580011299"><ele>-2.0</ele><time>2026-05-01T09:24:31.97Z</time></trkpt><trkpt lat="45.67388355691747" lon="12.947448995141391"><ele>-2.0</ele><time>2026-05-01T09:24:32.97Z</time></trkpt><trkpt lat="45.674052100447824" lon="12.947452064315753"><ele>-2.0</ele><time>2026-05-01T09:24:33.97Z</time></trkpt><trkpt lat="45.6742194690122" lon="12.9474475422385"><ele>-2.0</ele><time>2026-05-01T09:24:34.97Z</time></trkpt><trkpt lat="45.67438553580158" lon="12.947447043991124"><ele>-2.0</ele><time>2026-05-01T09:24:35.97Z</time></trkpt><trkpt lat="45.67454829381937" lon="12.94744591928024"><ele>-1.6666666666666665</ele><time>2026-05-01T09:24:36.969Z</time></trkpt><trkpt lat="45.67471216046954" lon="12.94744905862253"><ele>-1.3333333333333333</ele><time>2026-05-01T09:24:37.969Z</time></trkpt><trkpt lat="45.674875999477216" lon="12.947451672680975"><ele>-1.0</ele><time>2026-05-01T09:24:38.969Z</time></trkpt><trkpt lat="45.675039481217" lon="12.947455667291102"><ele>-1.0</ele><time>2026-05-01T09:24:39.969Z</time></trkpt><trkpt lat="45.67520686694314" lon="12.947455330269188"><ele>-1.0</ele><time>2026-05-01T09:24:40.969Z</time></trkpt><trkpt lat="45.6753742442907" lon="12.947455114367331"><ele>-1.0</ele><time>2026-05-01T09:24:41.969Z</time></trkpt><trkpt lat="45.675545098751655" lon="12.947454943284086"><ele>-1.6666666666666665</ele><time>2026-05-01T09:24:42.969Z</time></trkpt><trkpt lat="45.67571752253404" lon="12.947455500128209"><ele>-2.3333333333333335</ele><time>2026-05-01T09:24:43.969Z</time></trkpt><trkpt lat="45.675886463154825" lon="12.94745611061283"><ele>-3.0</ele><time>2026-05-01T09:24:44.969Z</time></trkpt><trkpt lat="45.67605693999029" lon="12.947458414513454"><ele>-2.6666666666666665</ele><time>2026-05-01T09:24:45.969Z</time></trkpt><trkpt lat="45.67622867420742" lon="12.94746050506496"><ele>-2.333333333333333</ele><time>2026-05-01T09:24:46.969Z</time></trkpt><trkpt lat="45.67639552795392" lon="12.947463845240014"><ele>-2.0</ele><time>2026-05-01T09:24:47.969Z</time></trkpt><trkpt lat="45.67656396277203" lon="12.947466312770699"><ele>-2.0</ele><time>2026-05-01T09:24:48.969Z</time></trkpt><trkpt lat="45.676734986005485" lon="12.94746572209354"><ele>-2.0</ele><time>2026-05-01T09:24:49.969Z</time></trkpt><trkpt lat="45.67690497925447" lon="12.947464460538328"><ele>-2.0</ele><time>2026-05-01T09:24:50.969Z</time></trkpt><trkpt lat="45.67707267123504" lon="12.947463020925118"><ele>-1.6666666666666665</ele><time>2026-05-01T09:24:51.969Z</time></trkpt><trkpt lat="45.677234476624854" lon="12.947461741145792"><ele>-1.3333333333333333</ele><time>2026-05-01T09:24:52.971Z</time></trkpt><trkpt lat="45.67739684024036" lon="12.947469572776868"><ele>-1.0</ele><time>2026-05-01T09:24:53.971Z</time></trkpt><trkpt lat="45.67755474513242" lon="12.947471175793632"><ele>-1.0</ele><time>2026-05-01T09:24:54.971Z</time></trkpt><trkpt lat="45.677710223660696" lon="12.947474076597523"><ele>-1.0</ele><time>2026-05-01T09:24:55.971Z</time></trkpt><trkpt lat="45.67786980375953" lon="12.947472875171337"><ele>-1.0</ele><time>2026-05-01T09:24:56.971Z</time></trkpt><trkpt lat="45.67802860265063" lon="12.947468848812584"><ele>-1.0</ele><time>2026-05-01T09:24:57.971Z</time></trkpt><trkpt lat="45.67817837757226" lon="12.947468893661082"><ele>-1.0</ele><time>2026-05-01T09:24:58.971Z</time></trkpt><trkpt lat="45.67833001447844" lon="12.9474738816145"><ele>-1.0</ele><time>2026-05-01T09:24:59.971Z</time></trkpt><trkpt lat="45.67847898992476" lon="12.947479840273935"><ele>-1.0</ele><time>2026-05-01T09:25:00.971Z</time></trkpt><trkpt lat="45.678635573124474" lon="12.947480686908808"><ele>-1.0</ele><time>2026-05-01T09:25:01.97Z</time></trkpt><trkpt lat="45.678794619501936" lon="12.947482885391093"><ele>-1.0</ele><time>2026-05-01T09:25:02.971Z</time></trkpt><trkpt lat="45.678951026662" lon="12.947477826318595"><ele>-1.0</ele><time>2026-05-01T09:25:03.971Z</time></trkpt><trkpt lat="45.679110557680154" lon="12.94747685376281"><ele>-1.0</ele><time>2026-05-01T09:25:04.971Z</time></trkpt><trkpt lat="45.679267971619986" lon="12.947478067538944"><ele>-1.0</ele><time>2026-05-01T09:25:05.971Z</time></trkpt><trkpt lat="45.679427231347056" lon="12.947482453589247"><ele>-1.3333333333333333</ele><time>2026-05-01T09:25:06.971Z</time></trkpt><trkpt lat="45.67958676704769" lon="12.947487836808053"><ele>-1.6666666666666665</ele><time>2026-05-01T09:25:07.971Z</time></trkpt><trkpt lat="45.67974393148617" lon="12.947483825120829"><ele>-2.0</ele><time>2026-05-01T09:25:08.971Z</time></trkpt><trkpt lat="45.679898746316866" lon="12.94748085508515"><ele>-2.0</ele><time>2026-05-01T09:25:09.971Z</time></trkpt><trkpt lat="45.68005850931973" lon="12.947475467290936"><ele>-2.0</ele><time>2026-05-01T09:25:10.971Z</time></trkpt><trkpt lat="45.68021740082961" lon="12.947470691830613"><ele>-2.0</ele><time>2026-05-01T09:25:11.971Z</time></trkpt><trkpt lat="45.680371639035904" lon="12.947476124588412"><ele>-2.0</ele><time>2026-05-01T09:25:12.971Z</time></trkpt><trkpt lat="45.68052380298944" lon="12.947479782949758"><ele>-2.0</ele><time>2026-05-01T09:25:13.971Z</time></trkpt><trkpt lat="45.680682018411076" lon="12.947485699387311"><ele>-2.0</ele><time>2026-05-01T09:25:14.971Z</time></trkpt><trkpt lat="45.680841475923486" lon="12.947483612763275"><ele>-2.0</ele><time>2026-05-01T09:25:15.971Z</time></trkpt><trkpt lat="45.68116255037753" lon="12.947484167651892"><ele>-2.0</ele><time>2026-05-01T09:25:17.971Z</time></trkpt><trkpt lat="45.6813227787507" lon="12.947483910035185"><ele>-2.0</ele><time>2026-05-01T09:25:18.971Z</time></trkpt><trkpt lat="45.68148089113356" lon="12.94748263287314"><ele>-2.0</ele><time>2026-05-01T09:25:19.971Z</time></trkpt><trkpt lat="45.68163376560385" lon="12.947480662607601"><ele>-2.0</ele><time>2026-05-01T09:25:20.971Z</time></trkpt><trkpt lat="45.68178487908113" lon="12.947481014759749"><ele>-1.6666666666666665</ele><time>2026-05-01T09:25:21.971Z</time></trkpt><trkpt lat="45.68193316588671" lon="12.947485426399476"><ele>-1.3333333333333333</ele><time>2026-05-01T09:25:22.971Z</time></trkpt><trkpt lat="45.682086840921" lon="12.947489265961421"><ele>-1.0</ele><time>2026-05-01T09:25:23.971Z</time></trkpt><trkpt lat="45.68224283787159" lon="12.947494379082865"><ele>-1.0</ele><time>2026-05-01T09:25:24.971Z</time></trkpt><trkpt lat="45.6824057904247" lon="12.947497779932636"><ele>-1.0</ele><time>2026-05-01T09:25:25.971Z</time></trkpt><trkpt lat="45.68256609168726" lon="12.947496647892885"><ele>-1.0</ele><time>2026-05-01T09:25:26.971Z</time></trkpt><trkpt lat="45.682732192559214" lon="12.947503628967302"><ele>-0.6666666666666666</ele><time>2026-05-01T09:25:27.971Z</time></trkpt><trkpt lat="45.682900207106655" lon="12.947497812373916"><ele>-0.3333333333333333</ele><time>2026-05-01T09:25:28.971Z</time></trkpt><trkpt lat="45.68306702789611" lon="12.947513112301108"><ele>0.0</ele><time>2026-05-01T09:25:29.971Z</time></trkpt><trkpt lat="45.68323570132391" lon="12.94751494404317"><ele>0.0</ele><time>2026-05-01T09:25:30.971Z</time></trkpt><trkpt lat="45.68339886759043" lon="12.947516825854587"><ele>0.0</ele><time>2026-05-01T09:25:31.971Z</time></trkpt><trkpt lat="45.68357279780185" lon="12.947518831809905"><ele>0.0</ele><time>2026-05-01T09:25:32.972Z</time></trkpt><trkpt lat="45.68374549470251" lon="12.947501173788591"><ele>-0.3333333333333333</ele><time>2026-05-01T09:25:33.973Z</time></trkpt><trkpt lat="45.6839054626475" lon="12.94752266846887"><ele>-0.6666666666666666</ele><time>2026-05-01T09:25:34.973Z</time></trkpt><trkpt lat="45.68406541682989" lon="12.947506117933491"><ele>-1.0</ele><time>2026-05-01T09:25:35.974Z</time></trkpt><trkpt lat="45.68422068257285" lon="12.947512232940115"><ele>-1.0</ele><time>2026-05-01T09:25:36.975Z</time></trkpt><trkpt lat="45.68436352691024" lon="12.947515790686756"><ele>-1.0</ele><time>2026-05-01T09:25:37.975Z</time></trkpt><trkpt lat="45.68450458485107" lon="12.947522079459334"><ele>-1.0</ele><time>2026-05-01T09:25:38.976Z</time></trkpt><trkpt lat="45.68464169865893" lon="12.94752092881"><ele>-1.0</ele><time>2026-05-01T09:25:39.977Z</time></trkpt><trkpt lat="45.68477895290142" lon="12.947522610754882"><ele>-0.75</ele><time>2026-05-01T09:25:40.977Z</time></trkpt><trkpt lat="45.68491288195112" lon="12.947524263997902"><ele>-0.5</ele><time>2026-05-01T09:25:41.978Z</time></trkpt><trkpt lat="45.68504991286396" lon="12.947532246431516"><ele>-0.25</ele><time>2026-05-01T09:25:42.978Z</time></trkpt><trkpt lat="45.685174867257814" lon="12.94753420640907"><ele>0.0</ele><time>2026-05-01T09:25:43.979Z</time></trkpt><trkpt lat="45.68528000521785" lon="12.947547368292117"><ele>0.0</ele><time>2026-05-01T09:25:44.979Z</time></trkpt><trkpt lat="45.685362486240216" lon="12.947563166898435"><ele>0.0</ele><time>2026-05-01T09:25:45.979Z</time></trkpt><trkpt lat="45.68545952901753" lon="12.947600836339092"><ele>0.0</ele><time>2026-05-01T09:25:47.98Z</time></trkpt><trkpt lat="45.685542158672696" lon="12.947550368744807"><ele>0.0</ele><time>2026-05-01T09:25:50.981Z</time></trkpt><trkpt lat="45.68557867794087" lon="12.947433432906603"><ele>0.0</ele><time>2026-05-01T09:25:53.982Z</time></trkpt><trkpt lat="45.68562619069876" lon="12.947352337951388"><ele>0.0</ele><time>2026-05-01T09:25:57.982Z</time></trkpt><trkpt lat="45.685669760266734" lon="12.947270980327733"><ele>0.0</ele><time>2026-05-01T09:26:00.983Z</time></trkpt><trkpt lat="45.68571676509397" lon="12.947197066717466"><ele>0.0</ele><time>2026-05-01T09:26:33.985Z</time></trkpt><trkpt lat="45.685770723329846" lon="12.947088350394672"><ele>0.0</ele><time>2026-05-01T09:26:35.985Z</time></trkpt><trkpt lat="45.68583744888011" lon="12.946950406914073"><ele>0.0</ele><time>2026-05-01T09:26:37.985Z</time></trkpt><trkpt lat="45.68590105529017" lon="12.946801950150368"><ele>0.0</ele><time>2026-05-01T09:26:39.985Z</time></trkpt><trkpt lat="45.68594074311405" lon="12.946721612908286"><ele>-0.16666666666666666</ele><time>2026-05-01T09:26:40.985Z</time></trkpt><trkpt lat="45.68598662089078" lon="12.94663370240459"><ele>-0.3333333333333333</ele><time>2026-05-01T09:26:41.985Z</time></trkpt><trkpt lat="45.686032332043816" lon="12.94653955147402"><ele>-0.5</ele><time>2026-05-01T09:26:42.985Z</time></trkpt><trkpt lat="45.686078701654395" lon="12.946440592225487"><ele>-0.6666666666666666</ele><time>2026-05-01T09:26:43.985Z</time></trkpt><trkpt lat="45.68612582024603" lon="12.946339605010964"><ele>-0.8333333333333333</ele><time>2026-05-01T09:26:44.985Z</time></trkpt><trkpt lat="45.68617598728892" lon="12.946234934793946"><ele>-1.0</ele><time>2026-05-01T09:26:45.985Z</time></trkpt><trkpt lat="45.68622422440537" lon="12.946122170380239"><ele>-1.0</ele><time>2026-05-01T09:26:46.985Z</time></trkpt><trkpt lat="45.68627352283886" lon="12.946009839212"><ele>-1.0</ele><time>2026-05-01T09:26:47.985Z</time></trkpt><trkpt lat="45.686320390776814" lon="12.94589960741913"><ele>-1.0</ele><time>2026-05-01T09:26:48.985Z</time></trkpt><trkpt lat="45.686364773353425" lon="12.945788310485812"><ele>-1.0</ele><time>2026-05-01T09:26:49.985Z</time></trkpt><trkpt lat="45.686408124798746" lon="12.945674741555075"><ele>-1.0</ele><time>2026-05-01T09:26:50.985Z</time></trkpt><trkpt lat="45.686465392103706" lon="12.945571113523158"><ele>-1.2000000000000002</ele><time>2026-05-01T09:26:51.985Z</time></trkpt><trkpt lat="45.686506232004945" lon="12.94545656125606"><ele>-1.4000000000000001</ele><time>2026-05-01T09:26:52.985Z</time></trkpt><trkpt lat="45.68654844549569" lon="12.945344242718207"><ele>-1.6</ele><time>2026-05-01T09:26:53.985Z</time></trkpt><trkpt lat="45.686593320513644" lon="12.945229546947724"><ele>-1.8</ele><time>2026-05-01T09:26:54.985Z</time></trkpt><trkpt lat="45.68663858388764" lon="12.945115698893325"><ele>-2.0</ele><time>2026-05-01T09:26:55.985Z</time></trkpt><trkpt lat="45.68668688408086" lon="12.945001867832037"><ele>-2.0</ele><time>2026-05-01T09:26:56.985Z</time></trkpt><trkpt lat="45.68673835374918" lon="12.944877516994936"><ele>-2.0</ele><time>2026-05-01T09:26:57.985Z</time></trkpt><trkpt lat="45.68680576884776" lon="12.94476362276629"><ele>-2.0</ele><time>2026-05-01T09:26:58.986Z</time></trkpt><trkpt lat="45.686867796093104" lon="12.944634661642466"><ele>-2.0</ele><time>2026-05-01T09:26:59.985Z</time></trkpt><trkpt lat="45.68693402514742" lon="12.944499609206934"><ele>-2.0</ele><time>2026-05-01T09:27:00.985Z</time></trkpt><trkpt lat="45.68700309872425" lon="12.944358570719341"><ele>-2.0</ele><time>2026-05-01T09:27:01.985Z</time></trkpt><trkpt lat="45.68707352920417" lon="12.94421708011446"><ele>-2.0</ele><time>2026-05-01T09:27:02.985Z</time></trkpt><trkpt lat="45.68714481982846" lon="12.944073756978854"><ele>-2.0</ele><time>2026-05-01T09:27:03.985Z</time></trkpt><trkpt lat="45.68721643842547" lon="12.943929471385665"><ele>-2.0</ele><time>2026-05-01T09:27:04.986Z</time></trkpt><trkpt lat="45.687289506350595" lon="12.943782730555233"><ele>-2.0</ele><time>2026-05-01T09:27:05.986Z</time></trkpt><trkpt lat="45.6873638891046" lon="12.94363878217975"><ele>-2.0</ele><time>2026-05-01T09:27:06.986Z</time></trkpt><trkpt lat="45.68743677744403" lon="12.9434945447341"><ele>-2.0</ele><time>2026-05-01T09:27:07.985Z</time></trkpt><trkpt lat="45.6875044309338" lon="12.94335838761567"><ele>-2.0</ele><time>2026-05-01T09:27:08.985Z</time></trkpt><trkpt lat="45.68757070221927" lon="12.943227945812788"><ele>-1.9999999999999998</ele><time>2026-05-01T09:27:09.985Z</time></trkpt><trkpt lat="45.68762965988586" lon="12.943117620484854"><ele>-2.0</ele><time>2026-05-01T09:27:10.985Z</time></trkpt><trkpt lat="45.6876800861938" lon="12.943013203191851"><ele>-2.0</ele><time>2026-05-01T09:27:11.985Z</time></trkpt><trkpt lat="45.687730724872885" lon="12.942910681141974"><ele>-2.0</ele><time>2026-05-01T09:27:12.985Z</time></trkpt><trkpt lat="45.687768230414974" lon="12.942797271033005"><ele>-1.9999999999999998</ele><time>2026-05-01T09:27:13.985Z</time></trkpt><trkpt lat="45.68779486307687" lon="12.942683077657694"><ele>-2.0</ele><time>2026-05-01T09:27:14.985Z</time></trkpt><trkpt lat="45.68781623660958" lon="12.942562296301457"><ele>-1.8</ele><time>2026-05-01T09:27:15.985Z</time></trkpt><trkpt lat="45.687828219092964" lon="12.942435916923474"><ele>-1.6</ele><time>2026-05-01T09:27:16.985Z</time></trkpt><trkpt lat="45.68782287612698" lon="12.942302304153685"><ele>-1.4000000000000001</ele><time>2026-05-01T09:27:17.985Z</time></trkpt><trkpt lat="45.68781028423416" lon="12.942167658651579"><ele>-1.2000000000000002</ele><time>2026-05-01T09:27:18.985Z</time></trkpt><trkpt lat="45.68778568531181" lon="12.942030029502357"><ele>-1.0</ele><time>2026-05-01T09:27:19.985Z</time></trkpt><trkpt lat="45.687752192955216" lon="12.941884257424881"><ele>-1.25</ele><time>2026-05-01T09:27:20.985Z</time></trkpt><trkpt lat="45.68771653443808" lon="12.941731939868156"><ele>-1.5</ele><time>2026-05-01T09:27:21.985Z</time></trkpt><trkpt lat="45.68768183681237" lon="12.941574363397358"><ele>-1.75</ele><time>2026-05-01T09:27:22.985Z</time></trkpt><trkpt lat="45.68764751340679" lon="12.941417911084287"><ele>-2.0</ele><time>2026-05-01T09:27:23.985Z</time></trkpt><trkpt lat="45.68761327701764" lon="12.941263143436547"><ele>-2.0</ele><time>2026-05-01T09:27:24.985Z</time></trkpt><trkpt lat="45.68757485380813" lon="12.941102388987437"><ele>-2.0</ele><time>2026-05-01T09:27:25.985Z</time></trkpt><trkpt lat="45.68753649724507" lon="12.940939929446397"><ele>-2.0</ele><time>2026-05-01T09:27:26.985Z</time></trkpt><trkpt lat="45.68749764564383" lon="12.940778069366393"><ele>-2.0</ele><time>2026-05-01T09:27:27.985Z</time></trkpt><trkpt lat="45.687459122374285" lon="12.940616197264204"><ele>-2.0</ele><time>2026-05-01T09:27:28.985Z</time></trkpt><trkpt lat="45.68742012917781" lon="12.940466696069"><ele>-2.0</ele><time>2026-05-01T09:27:29.985Z</time></trkpt><trkpt lat="45.687387050123874" lon="12.940335808902448"><ele>-2.0</ele><time>2026-05-01T09:27:30.985Z</time></trkpt><trkpt lat="45.687358062761895" lon="12.940215307883259"><ele>-2.0</ele><time>2026-05-01T09:27:31.985Z</time></trkpt><trkpt lat="45.687328687486804" lon="12.940091575986504"><ele>-2.0</ele><time>2026-05-01T09:27:32.985Z</time></trkpt><trkpt lat="45.687296993332325" lon="12.939963405851797"><ele>-2.0</ele><time>2026-05-01T09:27:33.985Z</time></trkpt><trkpt lat="45.68727510034368" lon="12.939827274949282"><ele>-2.0</ele><time>2026-05-01T09:27:34.985Z</time></trkpt><trkpt lat="45.68726340023288" lon="12.939682024023252"><ele>-2.0</ele><time>2026-05-01T09:27:35.985Z</time></trkpt><trkpt lat="45.68726590715545" lon="12.939535932144594"><ele>-2.0</ele><time>2026-05-01T09:27:36.985Z</time></trkpt><trkpt lat="45.68729310353245" lon="12.939391064307792"><ele>-2.0</ele><time>2026-05-01T09:27:37.985Z</time></trkpt><trkpt lat="45.68730821926651" lon="12.939238024663405"><ele>-2.0</ele><time>2026-05-01T09:27:38.985Z</time></trkpt><trkpt lat="45.68732874459617" lon="12.939093836909521"><ele>-2.0</ele><time>2026-05-01T09:27:39.985Z</time></trkpt><trkpt lat="45.68734615427155" lon="12.93894492387377"><ele>-2.0</ele><time>2026-05-01T09:27:40.985Z</time></trkpt><trkpt lat="45.687363044706025" lon="12.938802453077605"><ele>-2.0</ele><time>2026-05-01T09:27:41.985Z</time></trkpt><trkpt lat="45.687378603452636" lon="12.938653055749853"><ele>-2.0</ele><time>2026-05-01T09:27:42.985Z</time></trkpt><trkpt lat="45.687396210257845" lon="12.938514658432947"><ele>-2.0</ele><time>2026-05-01T09:27:43.985Z</time></trkpt><trkpt lat="45.68741692267754" lon="12.938386794103089"><ele>-2.0</ele><time>2026-05-01T09:27:44.985Z</time></trkpt><trkpt lat="45.68744168950964" lon="12.938255952618666"><ele>-2.0</ele><time>2026-05-01T09:27:45.985Z</time></trkpt><trkpt lat="45.687472946207606" lon="12.938132525348996"><ele>-2.0</ele><time>2026-05-01T09:27:46.985Z</time></trkpt><trkpt lat="45.6875095258646" lon="12.938007766294344"><ele>-2.0</ele><time>2026-05-01T09:27:47.985Z</time></trkpt><trkpt lat="45.68755187029609" lon="12.93788264761705"><ele>-2.2</ele><time>2026-05-01T09:27:48.985Z</time></trkpt><trkpt lat="45.687594285667885" lon="12.93775424163488"><ele>-2.4000000000000004</ele><time>2026-05-01T09:27:49.985Z</time></trkpt><trkpt lat="45.6876385939365" lon="12.937626419100397"><ele>-2.5999999999999996</ele><time>2026-05-01T09:27:50.985Z</time></trkpt><trkpt lat="45.68769376597751" lon="12.937507958539069"><ele>-2.8</ele><time>2026-05-01T09:27:51.985Z</time></trkpt><trkpt lat="45.687728025238506" lon="12.93738642613511"><ele>-3.0</ele><time>2026-05-01T09:27:52.985Z</time></trkpt><trkpt lat="45.68775269997172" lon="12.93726653151828"><ele>-2.8333333333333335</ele><time>2026-05-01T09:27:53.985Z</time></trkpt><trkpt lat="45.68776239805229" lon="12.937148669258157"><ele>-2.6666666666666665</ele><time>2026-05-01T09:27:54.985Z</time></trkpt><trkpt lat="45.6877594093745" lon="12.937035123901094"><ele>-2.5</ele><time>2026-05-01T09:27:55.985Z</time></trkpt><trkpt lat="45.68774828758681" lon="12.93692395392754"><ele>-2.333333333333333</ele><time>2026-05-01T09:27:56.985Z</time></trkpt><trkpt lat="45.68773268960545" lon="12.936803070567002"><ele>-2.1666666666666665</ele><time>2026-05-01T09:27:57.985Z</time></trkpt><trkpt lat="45.68771403458195" lon="12.936677020018877"><ele>-2.0</ele><time>2026-05-01T09:27:58.985Z</time></trkpt><trkpt lat="45.68770755403156" lon="12.93653932806029"><ele>-2.0</ele><time>2026-05-01T09:27:59.985Z</time></trkpt><trkpt lat="45.68768492649298" lon="12.936399516598142"><ele>-2.0</ele><time>2026-05-01T09:28:00.985Z</time></trkpt><trkpt lat="45.68765906333036" lon="12.936257165091678"><ele>-2.0</ele><time>2026-05-01T09:28:01.985Z</time></trkpt><trkpt lat="45.687624364423776" lon="12.9361226477733"><ele>-2.0</ele><time>2026-05-01T09:28:02.985Z</time></trkpt><trkpt lat="45.68759176275048" lon="12.935974297731066"><ele>-2.0</ele><time>2026-05-01T09:28:03.985Z</time></trkpt><trkpt lat="45.68755774303405" lon="12.935825424141568"><ele>-1.8</ele><time>2026-05-01T09:28:04.985Z</time></trkpt><trkpt lat="45.68751886284663" lon="12.935679658708775"><ele>-1.6</ele><time>2026-05-01T09:28:05.985Z</time></trkpt><trkpt lat="45.68748763185123" lon="12.935528809842978"><ele>-1.4000000000000001</ele><time>2026-05-01T09:28:06.985Z</time></trkpt><trkpt lat="45.68743345447566" lon="12.935389074725546"><ele>-1.2000000000000002</ele><time>2026-05-01T09:28:07.985Z</time></trkpt><trkpt lat="45.6873711981932" lon="12.935272308524405"><ele>-1.0</ele><time>2026-05-01T09:28:08.985Z</time></trkpt><trkpt lat="45.6873413271664" lon="12.9351536055344"><ele>-0.9999999999999999</ele><time>2026-05-01T09:28:09.985Z</time></trkpt><trkpt lat="45.68731052684827" lon="12.93504701741519"><ele>-1.0</ele><time>2026-05-01T09:28:10.985Z</time></trkpt><trkpt lat="45.68729202844439" lon="12.93494543803917"><ele>-1.0</ele><time>2026-05-01T09:28:11.985Z</time></trkpt><trkpt lat="45.68728073643551" lon="12.934840044064543"><ele>-1.0</ele><time>2026-05-01T09:28:12.985Z</time></trkpt><trkpt lat="45.68726015532872" lon="12.93472504613592"><ele>-0.9999999999999999</ele><time>2026-05-01T09:28:13.985Z</time></trkpt><trkpt lat="45.68726554612743" lon="12.934602069709571"><ele>-1.0</ele><time>2026-05-01T09:28:14.984Z</time></trkpt><trkpt lat="45.68727199594014" lon="12.934479730937795"><ele>-1.0</ele><time>2026-05-01T09:28:15.984Z</time></trkpt><trkpt lat="45.687271109553556" lon="12.934349445561388"><ele>-1.0</ele><time>2026-05-01T09:28:16.984Z</time></trkpt><trkpt lat="45.687274024866994" lon="12.934217828083922"><ele>-1.0</ele><time>2026-05-01T09:28:17.984Z</time></trkpt><trkpt lat="45.68727697419408" lon="12.93408809165064"><ele>-1.0</ele><time>2026-05-01T09:28:18.984Z</time></trkpt><trkpt lat="45.68727527336894" lon="12.933950143171629"><ele>-1.0</ele><time>2026-05-01T09:28:19.984Z</time></trkpt><trkpt lat="45.68729050622449" lon="12.933815949690835"><ele>-1.2000000000000002</ele><time>2026-05-01T09:28:20.984Z</time></trkpt><trkpt lat="45.68729375837446" lon="12.933673576798256"><ele>-1.4000000000000001</ele><time>2026-05-01T09:28:21.984Z</time></trkpt><trkpt lat="45.68729622436831" lon="12.933528929584986"><ele>-1.6</ele><time>2026-05-01T09:28:22.984Z</time></trkpt><trkpt lat="45.68729693222368" lon="12.93337358592232"><ele>-1.8</ele><time>2026-05-01T09:28:23.984Z</time></trkpt><trkpt lat="45.68729394618651" lon="12.933210431627781"><ele>-2.0</ele><time>2026-05-01T09:28:24.984Z</time></trkpt><trkpt lat="45.687290568236946" lon="12.933039762933591"><ele>-2.0</ele><time>2026-05-01T09:28:25.984Z</time></trkpt><trkpt lat="45.68728878650352" lon="12.932843274561048"><ele>-2.0</ele><time>2026-05-01T09:28:26.984Z</time></trkpt><trkpt lat="45.687286773782304" lon="12.932652252196725"><ele>-2.0</ele><time>2026-05-01T09:28:27.984Z</time></trkpt><trkpt lat="45.68728390118305" lon="12.932479661602995"><ele>-2.0</ele><time>2026-05-01T09:28:28.984Z</time></trkpt><trkpt lat="45.68728544700697" lon="12.9323143147694"><ele>-1.9999999999999998</ele><time>2026-05-01T09:28:29.984Z</time></trkpt><trkpt lat="45.68728552244812" lon="12.932166765716003"><ele>-2.0</ele><time>2026-05-01T09:28:30.984Z</time></trkpt><trkpt lat="45.687282127895095" lon="12.932037130533574"><ele>-2.0</ele><time>2026-05-01T09:28:31.984Z</time></trkpt><trkpt lat="45.68728556365285" lon="12.931914328855056"><ele>-2.0</ele><time>2026-05-01T09:28:32.984Z</time></trkpt><trkpt lat="45.687289502157796" lon="12.93179685919457"><ele>-1.9999999999999998</ele><time>2026-05-01T09:28:33.984Z</time></trkpt><trkpt lat="45.6872852770731" lon="12.931673492425126"><ele>-2.0</ele><time>2026-05-01T09:28:34.984Z</time></trkpt><trkpt lat="45.68728327175002" lon="12.931564428303487"><ele>-2.0</ele><time>2026-05-01T09:28:35.984Z</time></trkpt><trkpt lat="45.68728330098072" lon="12.931424844075309"><ele>-2.0</ele><time>2026-05-01T09:28:37.984Z</time></trkpt><trkpt lat="45.68730351739557" lon="12.931291654095736"><ele>-2.0</ele><time>2026-05-01T09:28:40.984Z</time></trkpt><trkpt lat="45.687408414227754" lon="12.93131844047813"><ele>-2.0</ele><time>2026-05-01T09:28:44.984Z</time></trkpt><trkpt lat="45.68750895425047" lon="12.931318593601551"><ele>-2.0</ele><time>2026-05-01T09:28:46.984Z</time></trkpt><trkpt lat="45.687628277761355" lon="12.931299692053281"><ele>-1.9999999999999998</ele><time>2026-05-01T09:28:48.984Z</time></trkpt><trkpt lat="45.68769660851193" lon="12.93131889355277"><ele>-2.0</ele><time>2026-05-01T09:28:49.984Z</time></trkpt><trkpt lat="45.68777175003673" lon="12.931318691833647"><ele>-2.0</ele><time>2026-05-01T09:28:50.984Z</time></trkpt><trkpt lat="45.687854177261066" lon="12.93131864677151"><ele>-2.0</ele><time>2026-05-01T09:28:51.984Z</time></trkpt><trkpt lat="45.687933791586545" lon="12.931319474647564"><ele>-1.9999999999999998</ele><time>2026-05-01T09:28:52.984Z</time></trkpt><trkpt lat="45.68800836079495" lon="12.931316836181246"><ele>-2.0</ele><time>2026-05-01T09:28:53.984Z</time></trkpt><trkpt lat="45.688083478886504" lon="12.931316367672531"><ele>-2.1666666666666665</ele><time>2026-05-01T09:28:54.984Z</time></trkpt><trkpt lat="45.6881605397873" lon="12.931319763441687"><ele>-2.333333333333333</ele><time>2026-05-01T09:28:55.984Z</time></trkpt><trkpt lat="45.68823983724565" lon="12.931320499049797"><ele>-2.5</ele><time>2026-05-01T09:28:56.984Z</time></trkpt><trkpt lat="45.68832153993651" lon="12.931321842238981"><ele>-2.6666666666666665</ele><time>2026-05-01T09:28:57.984Z</time></trkpt><trkpt lat="45.68840871324833" lon="12.931321997156275"><ele>-2.8333333333333335</ele><time>2026-05-01T09:28:58.984Z</time></trkpt><trkpt lat="45.68849547511467" lon="12.931318027740737"><ele>-3.0</ele><time>2026-05-01T09:28:59.984Z</time></trkpt><trkpt lat="45.688586282835026" lon="12.931318141633279"><ele>-2.8333333333333335</ele><time>2026-05-01T09:29:00.984Z</time></trkpt><trkpt lat="45.68867708254568" lon="12.931317523642996"><ele>-2.6666666666666665</ele><time>2026-05-01T09:29:01.984Z</time></trkpt><trkpt lat="45.68876960953005" lon="12.931320328608866"><ele>-2.5</ele><time>2026-05-01T09:29:02.984Z</time></trkpt><trkpt lat="45.68886459014198" lon="12.931321714452592"><ele>-2.333333333333333</ele><time>2026-05-01T09:29:03.984Z</time></trkpt><trkpt lat="45.68895197521307" lon="12.931320431752734"><ele>-2.1666666666666665</ele><time>2026-05-01T09:29:04.985Z</time></trkpt><trkpt lat="45.689029600734855" lon="12.93132045798579"><ele>-2.0</ele><time>2026-05-01T09:29:05.985Z</time></trkpt><trkpt lat="45.689098905357895" lon="12.931315688397651"><ele>-1.9999999999999998</ele><time>2026-05-01T09:29:06.985Z</time></trkpt><trkpt lat="45.68921584179839" lon="12.93131194743433"><ele>-2.0</ele><time>2026-05-01T09:29:08.985Z</time></trkpt><trkpt lat="45.68930074605879" lon="12.931316576725393"><ele>-2.0</ele><time>2026-05-01T09:29:10.986Z</time></trkpt><trkpt lat="45.68937335945883" lon="12.93131289455611"><ele>-2.0</ele><time>2026-05-01T09:29:13.985Z</time></trkpt><trkpt lat="45.68944063444658" lon="12.931323549627859"><ele>-1.9999999999999998</ele><time>2026-05-01T09:32:11.985Z</time></trkpt><trkpt lat="45.68954232199081" lon="12.931311740993255"><ele>-2.0</ele><time>2026-05-01T09:32:13.985Z</time></trkpt><trkpt lat="45.6896191270402" lon="12.931310735419945"><ele>-2.2</ele><time>2026-05-01T09:32:14.985Z</time></trkpt><trkpt lat="45.68971106514939" lon="12.93130968074073"><ele>-2.4000000000000004</ele><time>2026-05-01T09:32:15.985Z</time></trkpt><trkpt lat="45.68980875983232" lon="12.931311794853986"><ele>-2.5999999999999996</ele><time>2026-05-01T09:32:16.985Z</time></trkpt><trkpt lat="45.689913312475575" lon="12.93131160262113"><ele>-2.8</ele><time>2026-05-01T09:32:17.985Z</time></trkpt><trkpt lat="45.69001038820283" lon="12.931315966328237"><ele>-3.0</ele><time>2026-05-01T09:32:18.985Z</time></trkpt><trkpt lat="45.69010617793451" lon="12.931317679309299"><ele>-3.0</ele><time>2026-05-01T09:32:19.985Z</time></trkpt><trkpt lat="45.69020205529111" lon="12.931313241263126"><ele>-3.0</ele><time>2026-05-01T09:32:20.985Z</time></trkpt><trkpt lat="45.690296289456455" lon="12.931311542520884"><ele>-3.0</ele><time>2026-05-01T09:32:21.985Z</time></trkpt><trkpt lat="45.690391551342664" lon="12.931312407961277"><ele>-3.0</ele><time>2026-05-01T09:32:22.985Z</time></trkpt><trkpt lat="45.690487686670494" lon="12.931318114421469"><ele>-3.0</ele><time>2026-05-01T09:32:23.985Z</time></trkpt><trkpt lat="45.69058090047637" lon="12.931322969083906"><ele>-3.0</ele><time>2026-05-01T09:32:24.985Z</time></trkpt><trkpt lat="45.6906753807147" lon="12.93132236372702"><ele>-3.0</ele><time>2026-05-01T09:32:25.985Z</time></trkpt><trkpt lat="45.69077679034643" lon="12.931321931861756"><ele>-3.0</ele><time>2026-05-01T09:32:26.985Z</time></trkpt><trkpt lat="45.69088235376158" lon="12.931322630152378"><ele>-3.0</ele><time>2026-05-01T09:32:27.985Z</time></trkpt><trkpt lat="45.69099478447247" lon="12.931322189440685"><ele>-3.0</ele><time>2026-05-01T09:32:28.985Z</time></trkpt><trkpt lat="45.69110924660534" lon="12.93131974839744"><ele>-3.0</ele><time>2026-05-01T09:32:29.985Z</time></trkpt><trkpt lat="45.69122192031928" lon="12.93131770100748"><ele>-3.0</ele><time>2026-05-01T09:32:30.985Z</time></trkpt><trkpt lat="45.6913365622993" lon="12.931337017232893"><ele>-3.0</ele><time>2026-05-01T09:32:31.985Z</time></trkpt><trkpt lat="45.69145557534401" lon="12.931334496119787"><ele>-3.0</ele><time>2026-05-01T09:32:32.985Z</time></trkpt><trkpt lat="45.69157368746085" lon="12.931329896904776"><ele>-3.0</ele><time>2026-05-01T09:32:33.985Z</time></trkpt><trkpt lat="45.69169417596929" lon="12.931324285721596"><ele>-3.0</ele><time>2026-05-01T09:32:34.985Z</time></trkpt><trkpt lat="45.691815419296056" lon="12.931324747142751"><ele>-3.0</ele><time>2026-05-01T09:32:35.985Z</time></trkpt><trkpt lat="45.69193884994046" lon="12.93132503661825"><ele>-3.0</ele><time>2026-05-01T09:32:36.985Z</time></trkpt><trkpt lat="45.69206283128513" lon="12.931326389652925"><ele>-2.75</ele><time>2026-05-01T09:32:37.985Z</time></trkpt><trkpt lat="45.692187028094494" lon="12.931327359451778"><ele>-2.5</ele><time>2026-05-01T09:32:38.985Z</time></trkpt><trkpt lat="45.692311588860726" lon="12.931329164918349"><ele>-2.25</ele><time>2026-05-01T09:32:39.984Z</time></trkpt><trkpt lat="45.692438293009864" lon="12.931331477846335"><ele>-2.0</ele><time>2026-05-01T09:32:40.984Z</time></trkpt><trkpt lat="45.692562786836845" lon="12.931331201831261"><ele>-2.0</ele><time>2026-05-01T09:32:41.984Z</time></trkpt><trkpt lat="45.692681285156226" lon="12.931331624985937"><ele>-2.0</ele><time>2026-05-01T09:32:42.984Z</time></trkpt><trkpt lat="45.692803132641096" lon="12.93133511231806"><ele>-2.0</ele><time>2026-05-01T09:32:43.984Z</time></trkpt><trkpt lat="45.692919535249196" lon="12.931336067941897"><ele>-2.0</ele><time>2026-05-01T09:32:44.984Z</time></trkpt><trkpt lat="45.69303137190746" lon="12.931337309810292"><ele>-2.0</ele><time>2026-05-01T09:32:45.984Z</time></trkpt><trkpt lat="45.69313858624693" lon="12.93133557487643"><ele>-2.0</ele><time>2026-05-01T09:32:46.984Z</time></trkpt><trkpt lat="45.69324594065672" lon="12.931358058375869"><ele>-2.0</ele><time>2026-05-01T09:32:47.984Z</time></trkpt><trkpt lat="45.693348640687844" lon="12.931357895291603"><ele>-2.0</ele><time>2026-05-01T09:32:48.984Z</time></trkpt><trkpt lat="45.693449397701656" lon="12.931354518341616"><ele>-2.0</ele><time>2026-05-01T09:32:49.984Z</time></trkpt><trkpt lat="45.69354409479432" lon="12.93134883697999"><ele>-1.8</ele><time>2026-05-01T09:32:50.984Z</time></trkpt><trkpt lat="45.6936387229722" lon="12.931339334637451"><ele>-1.6</ele><time>2026-05-01T09:32:51.984Z</time></trkpt><trkpt lat="45.69373182317802" lon="12.931322951287267"><ele>-1.4000000000000001</ele><time>2026-05-01T09:32:52.984Z</time></trkpt><trkpt lat="45.69382595455595" lon="12.931309443667034"><ele>-1.2000000000000002</ele><time>2026-05-01T09:32:53.984Z</time></trkpt><trkpt lat="45.69392229235298" lon="12.931290388946119"><ele>-1.0</ele><time>2026-05-01T09:32:54.984Z</time></trkpt><trkpt lat="45.69401984775496" lon="12.93126952310769"><ele>-1.0</ele><time>2026-05-01T09:32:55.984Z</time></trkpt><trkpt lat="45.69411805795872" lon="12.931242959510726"><ele>-1.0</ele><time>2026-05-01T09:32:56.984Z</time></trkpt><trkpt lat="45.69421551361703" lon="12.931226575642505"><ele>-1.0</ele><time>2026-05-01T09:32:57.984Z</time></trkpt><trkpt lat="45.69431283377317" lon="12.93120604419241"><ele>-1.0</ele><time>2026-05-01T09:32:58.984Z</time></trkpt><trkpt lat="45.694410112971454" lon="12.931181917601625"><ele>-1.0</ele><time>2026-05-01T09:32:59.984Z</time></trkpt><trkpt lat="45.694508050774814" lon="12.93116230719595"><ele>-1.0</ele><time>2026-05-01T09:33:00.984Z</time></trkpt><trkpt lat="45.694605907376705" lon="12.931140649815601"><ele>-1.0</ele><time>2026-05-01T09:33:01.984Z</time></trkpt><trkpt lat="45.69470354267965" lon="12.93111909755696"><ele>-1.0</ele><time>2026-05-01T09:33:02.984Z</time></trkpt><trkpt lat="45.694801636294656" lon="12.931096336174516"><ele>-1.0</ele><time>2026-05-01T09:33:03.984Z</time></trkpt><trkpt lat="45.69489945489629" lon="12.931076106338713"><ele>-1.0</ele><time>2026-05-01T09:33:04.984Z</time></trkpt><trkpt lat="45.694997483389955" lon="12.931057171246787"><ele>-1.0</ele><time>2026-05-01T09:33:05.984Z</time></trkpt><trkpt lat="45.69509629353293" lon="12.93103572276117"><ele>-1.0</ele><time>2026-05-01T09:33:06.984Z</time></trkpt><trkpt lat="45.695196082332586" lon="12.931010112737178"><ele>-1.0</ele><time>2026-05-01T09:33:07.984Z</time></trkpt><trkpt lat="45.6952979005543" lon="12.930984319624034"><ele>-1.0</ele><time>2026-05-01T09:33:08.984Z</time></trkpt><trkpt lat="45.69540111335284" lon="12.930959866679666"><ele>-1.0</ele><time>2026-05-01T09:33:09.984Z</time></trkpt><trkpt lat="45.69550713780365" lon="12.930936356634625"><ele>-1.2000000000000002</ele><time>2026-05-01T09:33:10.984Z</time></trkpt><trkpt lat="45.69561173556394" lon="12.930915155241008"><ele>-1.4000000000000001</ele><time>2026-05-01T09:33:11.984Z</time></trkpt><trkpt lat="45.69571881885048" lon="12.930891754040413"><ele>-1.6</ele><time>2026-05-01T09:33:12.984Z</time></trkpt><trkpt lat="45.69582931098117" lon="12.930868431180965"><ele>-1.8</ele><time>2026-05-01T09:33:13.984Z</time></trkpt><trkpt lat="45.69594649810745" lon="12.930844593707459"><ele>-2.0</ele><time>2026-05-01T09:33:14.984Z</time></trkpt><trkpt lat="45.696067966970226" lon="12.930819307548644"><ele>-2.25</ele><time>2026-05-01T09:33:15.985Z</time></trkpt><trkpt lat="45.696189977225195" lon="12.930790528397857"><ele>-2.5</ele><time>2026-05-01T09:33:16.985Z</time></trkpt><trkpt lat="45.69631504570317" lon="12.930766328706953"><ele>-2.75</ele><time>2026-05-01T09:33:17.985Z</time></trkpt><trkpt lat="45.696437033006205" lon="12.930741836391856"><ele>-3.0</ele><time>2026-05-01T09:33:18.985Z</time></trkpt><trkpt lat="45.69655497133931" lon="12.930712972992541"><ele>-3.0</ele><time>2026-05-01T09:33:19.985Z</time></trkpt><trkpt lat="45.69666814498576" lon="12.930686173884906"><ele>-3.0</ele><time>2026-05-01T09:33:20.985Z</time></trkpt><trkpt lat="45.696774872260896" lon="12.930658787949172"><ele>-3.0</ele><time>2026-05-01T09:33:21.985Z</time></trkpt><trkpt lat="45.69688172787062" lon="12.930657881751637"><ele>-3.0</ele><time>2026-05-01T09:33:22.985Z</time></trkpt><trkpt lat="45.69698513423795" lon="12.930636552767327"><ele>-3.0</ele><time>2026-05-01T09:33:23.985Z</time></trkpt><trkpt lat="45.6970882931151" lon="12.930612336635077"><ele>-2.8</ele><time>2026-05-01T09:33:24.985Z</time></trkpt><trkpt lat="45.697194629903784" lon="12.930589715324219"><ele>-2.5999999999999996</ele><time>2026-05-01T09:33:25.985Z</time></trkpt><trkpt lat="45.697300604561235" lon="12.93056919032075"><ele>-2.4000000000000004</ele><time>2026-05-01T09:33:26.985Z</time></trkpt><trkpt lat="45.69741133466393" lon="12.93054528585715"><ele>-2.2</ele><time>2026-05-01T09:33:27.985Z</time></trkpt><trkpt lat="45.697522898054" lon="12.930523040219441"><ele>-2.0</ele><time>2026-05-01T09:33:28.985Z</time></trkpt><trkpt lat="45.69763557944117" lon="12.930495167681139"><ele>-2.0</ele><time>2026-05-01T09:33:29.985Z</time></trkpt><trkpt lat="45.69774768305763" lon="12.930466367067224"><ele>-2.0</ele><time>2026-05-01T09:33:30.985Z</time></trkpt><trkpt lat="45.69785891517312" lon="12.930440652568251"><ele>-2.0</ele><time>2026-05-01T09:33:31.985Z</time></trkpt><trkpt lat="45.697968637963996" lon="12.930416330527054"><ele>-2.0</ele><time>2026-05-01T09:33:32.985Z</time></trkpt><trkpt lat="45.69807808671243" lon="12.930390691602096"><ele>-2.0</ele><time>2026-05-01T09:33:33.985Z</time></trkpt><trkpt lat="45.6981873235457" lon="12.9303654507498"><ele>-2.2</ele><time>2026-05-01T09:33:34.985Z</time></trkpt><trkpt lat="45.69829391441114" lon="12.930342630854545"><ele>-2.4000000000000004</ele><time>2026-05-01T09:33:35.985Z</time></trkpt><trkpt lat="45.69839834681925" lon="12.930318395382002"><ele>-2.5999999999999996</ele><time>2026-05-01T09:33:36.985Z</time></trkpt><trkpt lat="45.69850261730965" lon="12.930297014261464"><ele>-2.8</ele><time>2026-05-01T09:33:37.985Z</time></trkpt><trkpt lat="45.69860864202017" lon="12.930275177582192"><ele>-3.0</ele><time>2026-05-01T09:33:38.985Z</time></trkpt><trkpt lat="45.69871616037763" lon="12.930253432504648"><ele>-2.4</ele><time>2026-05-01T09:33:39.985Z</time></trkpt><trkpt lat="45.69882381709956" lon="12.930226237374095"><ele>-1.7999999999999998</ele><time>2026-05-01T09:33:40.985Z</time></trkpt><trkpt lat="45.69893112533183" lon="12.930201797133252"><ele>-1.2</ele><time>2026-05-01T09:33:41.985Z</time></trkpt><trkpt lat="45.699035228058065" lon="12.930178695238235"><ele>-0.6</ele><time>2026-05-01T09:33:42.985Z</time></trkpt><trkpt lat="45.699138916024374" lon="12.930154562768564"><ele>0.0</ele><time>2026-05-01T09:33:43.985Z</time></trkpt><trkpt lat="45.69924191525634" lon="12.930132530820455"><ele>0.0</ele><time>2026-05-01T09:33:44.985Z</time></trkpt><trkpt lat="45.699345738039014" lon="12.930107932829715"><ele>0.0</ele><time>2026-05-01T09:33:45.985Z</time></trkpt><trkpt lat="45.69945196786979" lon="12.930087956026457"><ele>0.0</ele><time>2026-05-01T09:33:46.985Z</time></trkpt><trkpt lat="45.699558795464036" lon="12.93006450491794"><ele>0.0</ele><time>2026-05-01T09:33:47.985Z</time></trkpt><trkpt lat="45.69966918500796" lon="12.93005277228485"><ele>0.0</ele><time>2026-05-01T09:33:48.985Z</time></trkpt><trkpt lat="45.69977838639883" lon="12.930028985262185"><ele>-0.4</ele><time>2026-05-01T09:33:49.985Z</time></trkpt><trkpt lat="45.69988144870282" lon="12.930004792049543"><ele>-0.8</ele><time>2026-05-01T09:33:50.985Z</time></trkpt><trkpt lat="45.699981989728556" lon="12.929983965021474"><ele>-1.2000000000000002</ele><time>2026-05-01T09:33:51.985Z</time></trkpt><trkpt lat="45.70007588352368" lon="12.929964347315318"><ele>-1.6</ele><time>2026-05-01T09:33:52.985Z</time></trkpt><trkpt lat="45.700159702053654" lon="12.929947406312797"><ele>-2.0</ele><time>2026-05-01T09:33:53.985Z</time></trkpt><trkpt lat="45.700236017579336" lon="12.929929044754289"><ele>-1.6</ele><time>2026-05-01T09:33:54.985Z</time></trkpt><trkpt lat="45.70029954447329" lon="12.929913129071828"><ele>-1.2000000000000002</ele><time>2026-05-01T09:33:55.985Z</time></trkpt><trkpt lat="45.70041276437674" lon="12.929878520481548"><ele>-0.8</ele><time>2026-05-01T09:33:57.985Z</time></trkpt><trkpt lat="45.70047959866068" lon="12.92984970368443"><ele>-0.4</ele><time>2026-05-01T09:34:00.985Z</time></trkpt><trkpt lat="45.70045593167566" lon="12.929625752619545"><ele>0.0</ele><time>2026-05-01T09:34:05.985Z</time></trkpt><trkpt lat="45.70042479959382" lon="12.929509480571737"><ele>0.0</ele><time>2026-05-01T09:34:06.985Z</time></trkpt><trkpt lat="45.700373498774724" lon="12.929388080861656"><ele>0.0</ele><time>2026-05-01T09:34:07.985Z</time></trkpt><trkpt lat="45.700315498629024" lon="12.92925082775289"><ele>0.0</ele><time>2026-05-01T09:34:08.985Z</time></trkpt><trkpt lat="45.700254020761236" lon="12.929105344903345"><ele>0.0</ele><time>2026-05-01T09:34:09.985Z</time></trkpt><trkpt lat="45.700188511929305" lon="12.92895032299333"><ele>-0.5</ele><time>2026-05-01T09:34:10.985Z</time></trkpt><trkpt lat="45.70011939958944" lon="12.928787771616527"><ele>-1.0</ele><time>2026-05-01T09:34:11.985Z</time></trkpt><trkpt lat="45.70004941651436" lon="12.928623637154153"><ele>-1.5</ele><time>2026-05-01T09:34:12.984Z</time></trkpt><trkpt lat="45.69997702947654" lon="12.928453864557024"><ele>-2.0</ele><time>2026-05-01T09:34:13.984Z</time></trkpt><trkpt lat="45.69990333081413" lon="12.928281015736083"><ele>-2.0</ele><time>2026-05-01T09:34:14.984Z</time></trkpt><trkpt lat="45.69982756872612" lon="12.928103327467419"><ele>-2.0</ele><time>2026-05-01T09:34:15.984Z</time></trkpt><trkpt lat="45.69975035193845" lon="12.92792222743616"><ele>-2.0</ele><time>2026-05-01T09:34:16.984Z</time></trkpt><trkpt lat="45.69967172378861" lon="12.927737817268886"><ele>-2.0</ele><time>2026-05-01T09:34:17.984Z</time></trkpt><trkpt lat="45.69959175567305" lon="12.927550264415125"><ele>-2.0</ele><time>2026-05-01T09:34:18.984Z</time></trkpt><trkpt lat="45.69951147758015" lon="12.927361984572205"><ele>-2.0</ele><time>2026-05-01T09:34:19.984Z</time></trkpt><trkpt lat="45.699429835788294" lon="12.92717039390895"><ele>-2.0</ele><time>2026-05-01T09:34:20.984Z</time></trkpt><trkpt lat="45.699348114794624" lon="12.926976595210027"><ele>-2.0</ele><time>2026-05-01T09:34:21.984Z</time></trkpt><trkpt lat="45.69926505534301" lon="12.92677962243309"><ele>-2.0</ele><time>2026-05-01T09:34:22.984Z</time></trkpt><trkpt lat="45.699179512749645" lon="12.926576761084089"><ele>-2.0</ele><time>2026-05-01T09:34:23.984Z</time></trkpt><trkpt lat="45.69909436192383" lon="12.926374828473014"><ele>-2.0</ele><time>2026-05-01T09:34:24.984Z</time></trkpt><trkpt lat="45.69900849258764" lon="12.926171192083087"><ele>-2.0</ele><time>2026-05-01T09:34:25.984Z</time></trkpt><trkpt lat="45.69892123551962" lon="12.925964430999292"><ele>-2.0</ele><time>2026-05-01T09:34:26.984Z</time></trkpt><trkpt lat="45.69883200703123" lon="12.925757343065385"><ele>-2.0</ele><time>2026-05-01T09:34:27.984Z</time></trkpt><trkpt lat="45.69873081887318" lon="12.925563777755666"><ele>-2.0</ele><time>2026-05-01T09:34:28.984Z</time></trkpt><trkpt lat="45.69865031491522" lon="12.925347621087127"><ele>-2.0</ele><time>2026-05-01T09:34:29.984Z</time></trkpt><trkpt lat="45.698564967985895" lon="12.925133579983491"><ele>-2.0</ele><time>2026-05-01T09:34:30.984Z</time></trkpt><trkpt lat="45.69847554962862" lon="12.924919145600041"><ele>-2.0</ele><time>2026-05-01T09:34:31.984Z</time></trkpt><trkpt lat="45.698382722675994" lon="12.924703748807282"><ele>-2.0</ele><time>2026-05-01T09:34:32.984Z</time></trkpt><trkpt lat="45.69829223900333" lon="12.924486965015243"><ele>-2.0</ele><time>2026-05-01T09:34:33.984Z</time></trkpt><trkpt lat="45.698197103897435" lon="12.92427086213717"><ele>-2.0</ele><time>2026-05-01T09:34:34.984Z</time></trkpt><trkpt lat="45.69810425286151" lon="12.924052672621746"><ele>-2.0</ele><time>2026-05-01T09:34:35.984Z</time></trkpt><trkpt lat="45.698009282826284" lon="12.923831619499902"><ele>-2.0</ele><time>2026-05-01T09:34:36.984Z</time></trkpt><trkpt lat="45.69791198598069" lon="12.923608281154479"><ele>-2.0</ele><time>2026-05-01T09:34:37.984Z</time></trkpt><trkpt lat="45.69781734706225" lon="12.923389815133003"><ele>-2.0</ele><time>2026-05-01T09:34:38.984Z</time></trkpt><trkpt lat="45.697729041501596" lon="12.923183593795752"><ele>-2.0</ele><time>2026-05-01T09:34:39.984Z</time></trkpt><trkpt lat="45.6976428484662" lon="12.922985623518306"><ele>-2.0</ele><time>2026-05-01T09:34:40.984Z</time></trkpt><trkpt lat="45.69757214475899" lon="12.92278061600906"><ele>-2.0</ele><time>2026-05-01T09:34:41.984Z</time></trkpt><trkpt lat="45.69748395417323" lon="12.922608055848315"><ele>-1.75</ele><time>2026-05-01T09:34:42.984Z</time></trkpt><trkpt lat="45.69743203084583" lon="12.922423281934872"><ele>-1.5</ele><time>2026-05-01T09:34:43.984Z</time></trkpt><trkpt lat="45.69737349984276" lon="12.922266843518926"><ele>-1.25</ele><time>2026-05-01T09:34:44.984Z</time></trkpt><trkpt lat="45.69732020845622" lon="12.92213659590644"><ele>-1.0</ele><time>2026-05-01T09:34:45.984Z</time></trkpt><trkpt lat="45.69726920754495" lon="12.922034060637365"><ele>-0.9999999999999999</ele><time>2026-05-01T09:34:46.984Z</time></trkpt><trkpt lat="45.697248884168346" lon="12.921918007169234"><ele>-1.0</ele><time>2026-05-01T09:34:47.984Z</time></trkpt><trkpt lat="45.697275436135136" lon="12.921810609230263"><ele>-1.0</ele><time>2026-05-01T09:34:48.984Z</time></trkpt><trkpt lat="45.69731803024689" lon="12.921699452049252"><ele>-1.0</ele><time>2026-05-01T09:34:49.984Z</time></trkpt><trkpt lat="45.69739379726039" lon="12.921626503088483"><ele>-0.9999999999999999</ele><time>2026-05-01T09:34:50.984Z</time></trkpt><trkpt lat="45.697476019247034" lon="12.92154726162037"><ele>-1.0</ele><time>2026-05-01T09:34:51.984Z</time></trkpt><trkpt lat="45.69756910522821" lon="12.921464484233809"><ele>-1.0</ele><time>2026-05-01T09:34:52.984Z</time></trkpt><trkpt lat="45.697672278586225" lon="12.921363176391026"><ele>-1.0</ele><time>2026-05-01T09:34:53.984Z</time></trkpt><trkpt lat="45.697781365885774" lon="12.921257414044216"><ele>-1.0</ele><time>2026-05-01T09:34:54.984Z</time></trkpt><trkpt lat="45.69789089548187" lon="12.921134009651887"><ele>-1.0</ele><time>2026-05-01T09:34:55.984Z</time></trkpt><trkpt lat="45.69799680367587" lon="12.921008119541288"><ele>-1.25</ele><time>2026-05-01T09:34:56.984Z</time></trkpt><trkpt lat="45.6980985050696" lon="12.920873317153003"><ele>-1.5</ele><time>2026-05-01T09:34:57.984Z</time></trkpt><trkpt lat="45.698205556829784" lon="12.920732536313695"><ele>-1.75</ele><time>2026-05-01T09:34:58.984Z</time></trkpt><trkpt lat="45.69832277052289" lon="12.92061150360323"><ele>-2.0</ele><time>2026-05-01T09:34:59.984Z</time></trkpt><trkpt lat="45.69845266017268" lon="12.920516468170106"><ele>-1.75</ele><time>2026-05-01T09:35:00.984Z</time></trkpt><trkpt lat="45.698593293076435" lon="12.920450424487592"><ele>-1.5</ele><time>2026-05-01T09:35:01.984Z</time></trkpt><trkpt lat="45.69873450442237" lon="12.92039065938799"><ele>-1.25</ele><time>2026-05-01T09:35:02.984Z</time></trkpt><trkpt lat="45.698863951966764" lon="12.920299241386585"><ele>-1.0</ele><time>2026-05-01T09:35:03.984Z</time></trkpt><trkpt lat="45.69897941571362" lon="12.920181813237706"><ele>-1.3333333333333333</ele><time>2026-05-01T09:35:04.984Z</time></trkpt><trkpt lat="45.6990888168154" lon="12.920041067136856"><ele>-1.6666666666666665</ele><time>2026-05-01T09:35:05.984Z</time></trkpt><trkpt lat="45.69919951408826" lon="12.91988566699795"><ele>-2.0</ele><time>2026-05-01T09:35:06.984Z</time></trkpt><trkpt lat="45.699312213873085" lon="12.919728457098081"><ele>-2.0</ele><time>2026-05-01T09:35:07.984Z</time></trkpt><trkpt lat="45.69942886359665" lon="12.919566399235835"><ele>-2.0</ele><time>2026-05-01T09:35:08.984Z</time></trkpt><trkpt lat="45.699551976890255" lon="12.919405949699954"><ele>-2.0</ele><time>2026-05-01T09:35:09.984Z</time></trkpt><trkpt lat="45.69968068299083" lon="12.919247990194826"><ele>-2.0</ele><time>2026-05-01T09:35:10.984Z</time></trkpt><trkpt lat="45.69981466584295" lon="12.919095308407679"><ele>-2.0</ele><time>2026-05-01T09:35:11.984Z</time></trkpt><trkpt lat="45.69995031039938" lon="12.918938417347508"><ele>-2.0</ele><time>2026-05-01T09:35:12.984Z</time></trkpt><trkpt lat="45.700079562672954" lon="12.918788064073226"><ele>-2.0</ele><time>2026-05-01T09:35:13.984Z</time></trkpt><trkpt lat="45.70019849297053" lon="12.918647302954739"><ele>-2.0</ele><time>2026-05-01T09:35:14.984Z</time></trkpt><trkpt lat="45.700310242538826" lon="12.918524068051598"><ele>-2.0</ele><time>2026-05-01T09:35:15.984Z</time></trkpt><trkpt lat="45.70040949049146" lon="12.918418944851693"><ele>-2.0</ele><time>2026-05-01T09:35:16.984Z</time></trkpt><trkpt lat="45.70049864986658" lon="12.918346367036452"><ele>-2.1666666666666665</ele><time>2026-05-01T09:35:17.984Z</time></trkpt><trkpt lat="45.70056502620628" lon="12.91826507299688"><ele>-2.333333333333333</ele><time>2026-05-01T09:35:18.984Z</time></trkpt><trkpt lat="45.70060935159191" lon="12.91819941295373"><ele>-2.5</ele><time>2026-05-01T09:35:19.984Z</time></trkpt><trkpt lat="45.70062660397724" lon="12.918036739292676"><ele>-2.6666666666666665</ele><time>2026-05-01T09:35:21.985Z</time></trkpt><trkpt lat="45.70061022692836" lon="12.91793499025824"><ele>-2.8333333333333335</ele><time>2026-05-01T09:35:22.985Z</time></trkpt><trkpt lat="45.70058605083793" lon="12.917829354828143"><ele>-3.0</ele><time>2026-05-01T09:35:23.984Z</time></trkpt><trkpt lat="45.70055906697717" lon="12.917709579901402"><ele>-3.0</ele><time>2026-05-01T09:35:24.985Z</time></trkpt><trkpt lat="45.70054450254733" lon="12.917562050293185"><ele>-3.0</ele><time>2026-05-01T09:35:25.985Z</time></trkpt><trkpt lat="45.7005185328083" lon="12.91741184027671"><ele>-3.0</ele><time>2026-05-01T09:35:26.985Z</time></trkpt><trkpt lat="45.70049170615072" lon="12.91724514138834"><ele>-3.0</ele><time>2026-05-01T09:35:27.985Z</time></trkpt><trkpt lat="45.7004651655918" lon="12.917074408370123"><ele>-3.0</ele><time>2026-05-01T09:35:28.985Z</time></trkpt><trkpt lat="45.70044079134022" lon="12.916891370140787"><ele>-3.0</ele><time>2026-05-01T09:35:29.985Z</time></trkpt><trkpt lat="45.70041669742455" lon="12.91669552774596"><ele>-3.0</ele><time>2026-05-01T09:35:30.985Z</time></trkpt><trkpt lat="45.70039423580638" lon="12.916484987151549"><ele>-3.0</ele><time>2026-05-01T09:35:31.985Z</time></trkpt><trkpt lat="45.700376637567445" lon="12.916264429907772"><ele>-3.0</ele><time>2026-05-01T09:35:32.985Z</time></trkpt><trkpt lat="45.70036469723949" lon="12.916031126124427"><ele>-3.0</ele><time>2026-05-01T09:35:33.985Z</time></trkpt><trkpt lat="45.70035581673795" lon="12.91580285860873"><ele>-3.0</ele><time>2026-05-01T09:35:34.985Z</time></trkpt><trkpt lat="45.700339796010155" lon="12.915346110766576"><ele>-3.0</ele><time>2026-05-01T09:35:36.985Z</time></trkpt><trkpt lat="45.700333322763" lon="12.915115931806048"><ele>-3.0</ele><time>2026-05-01T09:35:37.985Z</time></trkpt><trkpt lat="45.700327009857006" lon="12.914883970624535"><ele>-3.0</ele><time>2026-05-01T09:35:38.985Z</time></trkpt><trkpt lat="45.70032266642546" lon="12.914654437617795"><ele>-2.6666666666666665</ele><time>2026-05-01T09:35:39.985Z</time></trkpt><trkpt lat="45.700318209566824" lon="12.914432520884679"><ele>-2.333333333333333</ele><time>2026-05-01T09:35:40.985Z</time></trkpt><trkpt lat="45.700325439230376" lon="12.91420730312784"><ele>-2.0</ele><time>2026-05-01T09:35:41.985Z</time></trkpt><trkpt lat="45.700290852454316" lon="12.913989811749932"><ele>-2.0</ele><time>2026-05-01T09:35:42.985Z</time></trkpt><trkpt lat="45.70024915341452" lon="12.913775834117892"><ele>-2.0</ele><time>2026-05-01T09:35:43.985Z</time></trkpt><trkpt lat="45.70018471747832" lon="12.913564234243957"><ele>-2.0</ele><time>2026-05-01T09:35:44.985Z</time></trkpt><trkpt lat="45.700119383563155" lon="12.91334092216821"><ele>-2.0</ele><time>2026-05-01T09:35:45.985Z</time></trkpt><trkpt lat="45.70004035655119" lon="12.913114108390978"><ele>-2.0</ele><time>2026-05-01T09:35:46.985Z</time></trkpt><trkpt lat="45.699959566181604" lon="12.912876948663726"><ele>-2.0</ele><time>2026-05-01T09:35:47.985Z</time></trkpt><trkpt lat="45.69987875299411" lon="12.912653039198407"><ele>-2.333333333333333</ele><time>2026-05-01T09:35:48.985Z</time></trkpt><trkpt lat="45.699777724898695" lon="12.912436105204165"><ele>-2.6666666666666665</ele><time>2026-05-01T09:35:49.985Z</time></trkpt><trkpt lat="45.69969293403518" lon="12.912205823382248"><ele>-3.0</ele><time>2026-05-01T09:35:50.985Z</time></trkpt><trkpt lat="45.69958775263645" lon="12.91199184096958"><ele>-3.0</ele><time>2026-05-01T09:35:51.985Z</time></trkpt><trkpt lat="45.699483147281825" lon="12.911771664710132"><ele>-3.0</ele><time>2026-05-01T09:35:52.985Z</time></trkpt><trkpt lat="45.69937867020402" lon="12.911546673345386"><ele>-3.0</ele><time>2026-05-01T09:35:53.985Z</time></trkpt><trkpt lat="45.699280512845625" lon="12.911316740585368"><ele>-2.6666666666666665</ele><time>2026-05-01T09:35:54.985Z</time></trkpt><trkpt lat="45.69918669874446" lon="12.911078848244564"><ele>-2.333333333333333</ele><time>2026-05-01T09:35:55.985Z</time></trkpt><trkpt lat="45.699086480887374" lon="12.910847019088378"><ele>-2.0</ele><time>2026-05-01T09:35:56.985Z</time></trkpt><trkpt lat="45.69900687935468" lon="12.910602670916619"><ele>-2.0</ele><time>2026-05-01T09:35:57.985Z</time></trkpt><trkpt lat="45.69892446678395" lon="12.910345421152133"><ele>-2.0</ele><time>2026-05-01T09:35:58.985Z</time></trkpt><trkpt lat="45.6988473023191" lon="12.910089878236056"><ele>-2.0</ele><time>2026-05-01T09:35:59.985Z</time></trkpt><trkpt lat="45.69878945160679" lon="12.90982121681971"><ele>-2.0</ele><time>2026-05-01T09:36:00.985Z</time></trkpt><trkpt lat="45.69872086820324" lon="12.909556733526578"><ele>-2.0</ele><time>2026-05-01T09:36:01.985Z</time></trkpt><trkpt lat="45.698661841524604" lon="12.909289865901407"><ele>-2.0</ele><time>2026-05-01T09:36:02.985Z</time></trkpt><trkpt lat="45.69860809864557" lon="12.909020185722134"><ele>-2.0</ele><time>2026-05-01T09:36:03.985Z</time></trkpt><trkpt lat="45.6985548037502" lon="12.908746177014809"><ele>-2.0</ele><time>2026-05-01T09:36:04.985Z</time></trkpt><trkpt lat="45.69850145200562" lon="12.908469445833237"><ele>-2.0</ele><time>2026-05-01T09:36:05.985Z</time></trkpt><trkpt lat="45.69844780521681" lon="12.908191670314459"><ele>-2.0</ele><time>2026-05-01T09:36:06.985Z</time></trkpt><trkpt lat="45.69839409548246" lon="12.907913568203627"><ele>-2.0</ele><time>2026-05-01T09:36:07.985Z</time></trkpt><trkpt lat="45.698325470452886" lon="12.9076400905353"><ele>-2.0</ele><time>2026-05-01T09:36:08.985Z</time></trkpt><trkpt lat="45.69827385908377" lon="12.907360141776358"><ele>-2.0</ele><time>2026-05-01T09:36:09.985Z</time></trkpt><trkpt lat="45.69822498767521" lon="12.90708916159309"><ele>-2.0</ele><time>2026-05-01T09:36:10.985Z</time></trkpt><trkpt lat="45.69817544252917" lon="12.906820967739979"><ele>-2.0</ele><time>2026-05-01T09:36:11.985Z</time></trkpt><trkpt lat="45.69812461080257" lon="12.906556464949032"><ele>-2.0</ele><time>2026-05-01T09:36:12.985Z</time></trkpt><trkpt lat="45.69809647465166" lon="12.906287393293319"><ele>-2.0</ele><time>2026-05-01T09:36:13.985Z</time></trkpt><trkpt lat="45.69805527238826" lon="12.9060220232451"><ele>-2.0</ele><time>2026-05-01T09:36:14.985Z</time></trkpt><trkpt lat="45.6980071347245" lon="12.905757460318172"><ele>-2.0</ele><time>2026-05-01T09:36:15.985Z</time></trkpt><trkpt lat="45.698012514987134" lon="12.905481013559749"><ele>-2.0</ele><time>2026-05-01T09:36:16.985Z</time></trkpt><trkpt lat="45.698023232818585" lon="12.905202364056622"><ele>-2.0</ele><time>2026-05-01T09:36:17.985Z</time></trkpt><trkpt lat="45.69804528992166" lon="12.904922989098862"><ele>-2.0</ele><time>2026-05-01T09:36:18.985Z</time></trkpt><trkpt lat="45.69806313892359" lon="12.904643627472316"><ele>-2.0</ele><time>2026-05-01T09:36:19.985Z</time></trkpt><trkpt lat="45.698100095619225" lon="12.90436123490147"><ele>-2.0</ele><time>2026-05-01T09:36:20.985Z</time></trkpt><trkpt lat="45.6981330434987" lon="12.904077768493918"><ele>-2.0</ele><time>2026-05-01T09:36:21.985Z</time></trkpt><trkpt lat="45.69818410177923" lon="12.90379770617861"><ele>-2.0</ele><time>2026-05-01T09:36:22.985Z</time></trkpt><trkpt lat="45.69821889900301" lon="12.903515602614942"><ele>-2.0</ele><time>2026-05-01T09:36:23.985Z</time></trkpt><trkpt lat="45.69824746824269" lon="12.903236127473738"><ele>-2.0</ele><time>2026-05-01T09:36:24.984Z</time></trkpt><trkpt lat="45.69826619780516" lon="12.902953932553226"><ele>-2.0</ele><time>2026-05-01T09:36:25.984Z</time></trkpt><trkpt lat="45.698251480589335" lon="12.90267300372641"><ele>-2.0</ele><time>2026-05-01T09:36:26.984Z</time></trkpt><trkpt lat="45.698245285133915" lon="12.902390322383901"><ele>-1.3333333333333333</ele><time>2026-05-01T09:36:27.984Z</time></trkpt><trkpt lat="45.69823910111677" lon="12.90210498556497"><ele>-0.6666666666666666</ele><time>2026-05-01T09:36:28.984Z</time></trkpt><trkpt lat="45.69824823925725" lon="12.901818094216102"><ele>0.0</ele><time>2026-05-01T09:36:29.984Z</time></trkpt><trkpt lat="45.698243143654665" lon="12.90152542764423"><ele>0.0</ele><time>2026-05-01T09:36:30.984Z</time></trkpt><trkpt lat="45.698237541834125" lon="12.90123621192031"><ele>0.0</ele><time>2026-05-01T09:36:31.984Z</time></trkpt><trkpt lat="45.698215164905584" lon="12.900944316557755"><ele>0.0</ele><time>2026-05-01T09:36:32.984Z</time></trkpt><trkpt lat="45.69820731422684" lon="12.900652001181243"><ele>-0.6666666666666666</ele><time>2026-05-01T09:36:33.984Z</time></trkpt><trkpt lat="45.698198551120214" lon="12.900360771128485"><ele>-1.3333333333333333</ele><time>2026-05-01T09:36:34.984Z</time></trkpt><trkpt lat="45.69819202552399" lon="12.900073947888007"><ele>-2.0</ele><time>2026-05-01T09:36:35.984Z</time></trkpt><trkpt lat="45.69820551993511" lon="12.899800186259975"><ele>-2.0</ele><time>2026-05-01T09:36:36.984Z</time></trkpt><trkpt lat="45.69820602687166" lon="12.899545899304414"><ele>-2.0</ele><time>2026-05-01T09:36:37.984Z</time></trkpt><trkpt lat="45.698221999754765" lon="12.899305837431093"><ele>-2.0</ele><time>2026-05-01T09:36:38.984Z</time></trkpt><trkpt lat="45.698258914883716" lon="12.89905585591462"><ele>-1.6666666666666665</ele><time>2026-05-01T09:36:39.984Z</time></trkpt><trkpt lat="45.69832005389202" lon="12.898805845827649"><ele>-1.3333333333333333</ele><time>2026-05-01T09:36:40.984Z</time></trkpt><trkpt lat="45.69839137941991" lon="12.89854545906136"><ele>-1.0</ele><time>2026-05-01T09:36:41.984Z</time></trkpt><trkpt lat="45.698468375558065" lon="12.898282807639221"><ele>-0.3333333333333333</ele><time>2026-05-01T09:36:42.984Z</time></trkpt><trkpt lat="45.698547756611774" lon="12.89801218590641"><ele>0.3333333333333333</ele><time>2026-05-01T09:36:43.984Z</time></trkpt><trkpt lat="45.6986282349484" lon="12.897735305649734"><ele>1.0</ele><time>2026-05-01T09:36:44.984Z</time></trkpt><trkpt lat="45.69870914587181" lon="12.897454090836142"><ele>1.0</ele><time>2026-05-01T09:36:45.984Z</time></trkpt><trkpt lat="45.69879024948138" lon="12.89717087153217"><ele>1.0</ele><time>2026-05-01T09:36:46.984Z</time></trkpt><trkpt lat="45.69886969107593" lon="12.896891149252319"><ele>1.0</ele><time>2026-05-01T09:36:47.984Z</time></trkpt><trkpt lat="45.69895024796738" lon="12.896607499836028"><ele>1.0</ele><time>2026-05-01T09:36:48.984Z</time></trkpt><trkpt lat="45.69902899609738" lon="12.896330219231926"><ele>1.0</ele><time>2026-05-01T09:36:49.984Z</time></trkpt><trkpt lat="45.699106223641735" lon="12.896056433548129"><ele>1.0</ele><time>2026-05-01T09:36:50.984Z</time></trkpt><trkpt lat="45.699182534950815" lon="12.895785495087747"><ele>0.3333333333333333</ele><time>2026-05-01T09:36:51.984Z</time></trkpt><trkpt lat="45.69925896236592" lon="12.895512480763944"><ele>-0.3333333333333333</ele><time>2026-05-01T09:36:52.984Z</time></trkpt><trkpt lat="45.69933510487889" lon="12.895239301993517"><ele>-1.0</ele><time>2026-05-01T09:36:53.984Z</time></trkpt><trkpt lat="45.69940994724971" lon="12.894970787768896"><ele>-2.3333333333333335</ele><time>2026-05-01T09:36:54.984Z</time></trkpt><trkpt lat="45.69948735286901" lon="12.894693077371418"><ele>-3.666666666666667</ele><time>2026-05-01T09:36:55.984Z</time></trkpt><trkpt lat="45.699563027109015" lon="12.894423245696089"><ele>-5.0</ele><time>2026-05-01T09:36:56.984Z</time></trkpt><trkpt lat="45.699640074000925" lon="12.894152484786753"><ele>-5.0</ele><time>2026-05-01T09:36:57.984Z</time></trkpt><trkpt lat="45.69971687456576" lon="12.89388258956456"><ele>-5.0</ele><time>2026-05-01T09:36:58.984Z</time></trkpt><trkpt lat="45.699792954134594" lon="12.893615228077323"><ele>-5.0</ele><time>2026-05-01T09:36:59.984Z</time></trkpt><trkpt lat="45.69986811048801" lon="12.893351111065227"><ele>-4.666666666666667</ele><time>2026-05-01T09:37:00.984Z</time></trkpt><trkpt lat="45.6999442183866" lon="12.893083650000408"><ele>-4.333333333333333</ele><time>2026-05-01T09:37:01.984Z</time></trkpt><trkpt lat="45.70001806805942" lon="12.892823161189801"><ele>-4.0</ele><time>2026-05-01T09:37:02.984Z</time></trkpt><trkpt lat="45.7000918555501" lon="12.892561327377264"><ele>-4.0</ele><time>2026-05-01T09:37:03.984Z</time></trkpt><trkpt lat="45.70016580668704" lon="12.892298913177887"><ele>-4.0</ele><time>2026-05-01T09:37:04.984Z</time></trkpt><trkpt lat="45.70023808785579" lon="12.89204242449345"><ele>-4.0</ele><time>2026-05-01T09:37:05.984Z</time></trkpt><trkpt lat="45.70029465500108" lon="12.891780501442344"><ele>-3.333333333333333</ele><time>2026-05-01T09:37:06.984Z</time></trkpt><trkpt lat="45.70036777392022" lon="12.89152338469089"><ele>-2.6666666666666665</ele><time>2026-05-01T09:37:07.984Z</time></trkpt><trkpt lat="45.70044098204805" lon="12.891265177739418"><ele>-2.0</ele><time>2026-05-01T09:37:08.984Z</time></trkpt><trkpt lat="45.70051373459606" lon="12.891010350440725"><ele>-2.333333333333333</ele><time>2026-05-01T09:37:09.984Z</time></trkpt><trkpt lat="45.70058394635028" lon="12.890751579099362"><ele>-2.6666666666666665</ele><time>2026-05-01T09:37:10.984Z</time></trkpt><trkpt lat="45.70065284582569" lon="12.890494276570973"><ele>-3.0</ele><time>2026-05-01T09:37:11.984Z</time></trkpt><trkpt lat="45.700741273535684" lon="12.890251099255334"><ele>-3.333333333333333</ele><time>2026-05-01T09:37:12.984Z</time></trkpt><trkpt lat="45.70081852973549" lon="12.890006756975055"><ele>-3.6666666666666665</ele><time>2026-05-01T09:37:13.984Z</time></trkpt><trkpt lat="45.70090216546808" lon="12.889763196874728"><ele>-4.0</ele><time>2026-05-01T09:37:14.984Z</time></trkpt><trkpt lat="45.70098988735597" lon="12.889519400562463"><ele>-4.0</ele><time>2026-05-01T09:37:15.984Z</time></trkpt><trkpt lat="45.70106792261287" lon="12.889266875023386"><ele>-4.0</ele><time>2026-05-01T09:37:16.984Z</time></trkpt><trkpt lat="45.70117235884012" lon="12.889030759008241"><ele>-4.0</ele><time>2026-05-01T09:37:17.984Z</time></trkpt><trkpt lat="45.7012637553223" lon="12.888786405750084"><ele>-4.333333333333333</ele><time>2026-05-01T09:37:18.984Z</time></trkpt><trkpt lat="45.70135592011632" lon="12.888539998431863"><ele>-4.666666666666667</ele><time>2026-05-01T09:37:19.984Z</time></trkpt><trkpt lat="45.701447290368584" lon="12.888295715306011"><ele>-5.0</ele><time>2026-05-01T09:37:20.984Z</time></trkpt><trkpt lat="45.70153861977311" lon="12.88805154140534"><ele>-5.0</ele><time>2026-05-01T09:37:21.984Z</time></trkpt><trkpt lat="45.70163113843649" lon="12.887804187987213"><ele>-5.0</ele><time>2026-05-01T09:37:22.984Z</time></trkpt><trkpt lat="45.70172221844491" lon="12.88756151807771"><ele>-5.0</ele><time>2026-05-01T09:37:23.984Z</time></trkpt><trkpt lat="45.70181424976645" lon="12.88731795708598"><ele>-5.0</ele><time>2026-05-01T09:37:24.984Z</time></trkpt><trkpt lat="45.70190685455661" lon="12.887072878513372"><ele>-5.0</ele><time>2026-05-01T09:37:25.984Z</time></trkpt><trkpt lat="45.70199915123253" lon="12.886826227368008"><ele>-5.0</ele><time>2026-05-01T09:37:26.984Z</time></trkpt><trkpt lat="45.702090848839624" lon="12.886579566441998"><ele>-4.666666666666667</ele><time>2026-05-01T09:37:27.985Z</time></trkpt><trkpt lat="45.70217904785908" lon="12.886339693752763"><ele>-4.333333333333333</ele><time>2026-05-01T09:37:28.985Z</time></trkpt><trkpt lat="45.70226665974336" lon="12.886101433460972"><ele>-4.0</ele><time>2026-05-01T09:37:29.985Z</time></trkpt><trkpt lat="45.70234833390107" lon="12.885879320770586"><ele>-4.0</ele><time>2026-05-01T09:37:30.984Z</time></trkpt><trkpt lat="45.70242807535601" lon="12.885662645393158"><ele>-4.0</ele><time>2026-05-01T09:37:31.985Z</time></trkpt><trkpt lat="45.7025093181957" lon="12.885446079292173"><ele>-4.0</ele><time>2026-05-01T09:37:32.985Z</time></trkpt><trkpt lat="45.7025902127456" lon="12.88523044155703"><ele>-4.0</ele><time>2026-05-01T09:37:33.984Z</time></trkpt><trkpt lat="45.702672303240256" lon="12.885011615841282"><ele>-4.0</ele><time>2026-05-01T09:37:34.985Z</time></trkpt><trkpt lat="45.702754635670644" lon="12.88479214524048"><ele>-4.0</ele><time>2026-05-01T09:37:35.985Z</time></trkpt><trkpt lat="45.70283758099259" lon="12.884572708335464"><ele>-4.0</ele><time>2026-05-01T09:37:36.985Z</time></trkpt><trkpt lat="45.70292162777187" lon="12.884350412689392"><ele>-4.0</ele><time>2026-05-01T09:37:37.984Z</time></trkpt><trkpt lat="45.7030064164353" lon="12.884126154890323"><ele>-4.0</ele><time>2026-05-01T09:37:38.984Z</time></trkpt><trkpt lat="45.70309143419841" lon="12.883901291141674"><ele>-3.0</ele><time>2026-05-01T09:37:39.985Z</time></trkpt><trkpt lat="45.7031778407436" lon="12.883672754207828"><ele>-2.0</ele><time>2026-05-01T09:37:40.985Z</time></trkpt><trkpt lat="45.70326540276506" lon="12.88344116107051"><ele>-1.0</ele><time>2026-05-01T09:37:41.985Z</time></trkpt><trkpt lat="45.70335528315402" lon="12.883203436147344"><ele>-1.0</ele><time>2026-05-01T09:37:42.985Z</time></trkpt><trkpt lat="45.70344519382016" lon="12.882962300461704"><ele>-1.0</ele><time>2026-05-01T09:37:43.985Z</time></trkpt><trkpt lat="45.70353008006196" lon="12.882734555438383"><ele>-1.0</ele><time>2026-05-01T09:37:44.985Z</time></trkpt><trkpt lat="45.70360889644205" lon="12.882521119346737"><ele>-1.6666666666666665</ele><time>2026-05-01T09:37:45.985Z</time></trkpt><trkpt lat="45.703688830083465" lon="12.882305904708742"><ele>-2.3333333333333335</ele><time>2026-05-01T09:37:46.985Z</time></trkpt><trkpt lat="45.703770954873114" lon="12.882085336497902"><ele>-3.0</ele><time>2026-05-01T09:37:47.985Z</time></trkpt><trkpt lat="45.70385393594948" lon="12.881862003688441"><ele>-3.333333333333333</ele><time>2026-05-01T09:37:48.985Z</time></trkpt><trkpt lat="45.70393689571301" lon="12.881638585242767"><ele>-3.6666666666666665</ele><time>2026-05-01T09:37:49.985Z</time></trkpt><trkpt lat="45.704021961951845" lon="12.881409759562294"><ele>-4.0</ele><time>2026-05-01T09:37:50.985Z</time></trkpt><trkpt lat="45.70410897848968" lon="12.88118070270649"><ele>-4.0</ele><time>2026-05-01T09:37:51.985Z</time></trkpt><trkpt lat="45.70419732871784" lon="12.880948352251304"><ele>-4.0</ele><time>2026-05-01T09:37:52.985Z</time></trkpt><trkpt lat="45.70428930315624" lon="12.880704728199486"><ele>-4.0</ele><time>2026-05-01T09:37:53.985Z</time></trkpt><trkpt lat="45.704377454240586" lon="12.880467464718937"><ele>-4.0</ele><time>2026-05-01T09:37:54.984Z</time></trkpt><trkpt lat="45.704448292758315" lon="12.880209936289152"><ele>-4.0</ele><time>2026-05-01T09:37:55.984Z</time></trkpt><trkpt lat="45.704536920614906" lon="12.879960390586627"><ele>-4.0</ele><time>2026-05-01T09:37:56.984Z</time></trkpt><trkpt lat="45.7046295736745" lon="12.879712719850161"><ele>-4.0</ele><time>2026-05-01T09:37:57.984Z</time></trkpt><trkpt lat="45.704721226716465" lon="12.879469469023496"><ele>-4.0</ele><time>2026-05-01T09:37:58.984Z</time></trkpt><trkpt lat="45.704800647987184" lon="12.879239577359035"><ele>-4.0</ele><time>2026-05-01T09:37:59.984Z</time></trkpt><trkpt lat="45.704890287063705" lon="12.879062688470354"><ele>-4.0</ele><time>2026-05-01T09:38:00.984Z</time></trkpt><trkpt lat="45.704956520518934" lon="12.878897010495995"><ele>-4.0</ele><time>2026-05-01T09:38:01.984Z</time></trkpt><trkpt lat="45.70502966278616" lon="12.87876197931476"><ele>-4.0</ele><time>2026-05-01T09:38:02.984Z</time></trkpt><trkpt lat="45.70512589746176" lon="12.878652144978764"><ele>-4.0</ele><time>2026-05-01T09:38:03.984Z</time></trkpt><trkpt lat="45.7052484018193" lon="12.878590225683848"><ele>-3.75</ele><time>2026-05-01T09:38:04.984Z</time></trkpt><trkpt lat="45.70538005498685" lon="12.878554249090735"><ele>-3.5</ele><time>2026-05-01T09:38:05.984Z</time></trkpt><trkpt lat="45.705522031664465" lon="12.87851766133435"><ele>-3.25</ele><time>2026-05-01T09:38:06.984Z</time></trkpt><trkpt lat="45.705672941366835" lon="12.878455882020466"><ele>-3.0</ele><time>2026-05-01T09:38:07.984Z</time></trkpt><trkpt lat="45.70583624029327" lon="12.87841431846103"><ele>-3.0</ele><time>2026-05-01T09:38:08.984Z</time></trkpt><trkpt lat="45.70599948931993" lon="12.878370154881916"><ele>-3.0</ele><time>2026-05-01T09:38:09.984Z</time></trkpt><trkpt lat="45.70614695916082" lon="12.878330580602874"><ele>-3.0</ele><time>2026-05-01T09:38:10.984Z</time></trkpt><trkpt lat="45.706283010221476" lon="12.87829377099598"><ele>-3.0</ele><time>2026-05-01T09:38:11.984Z</time></trkpt><trkpt lat="45.70641510566151" lon="12.878260156081263"><ele>-3.0</ele><time>2026-05-01T09:38:12.984Z</time></trkpt><trkpt lat="45.706545854977875" lon="12.878222597872094"><ele>-3.0</ele><time>2026-05-01T09:38:13.984Z</time></trkpt><trkpt lat="45.70667527124541" lon="12.878207298482618"><ele>-3.0</ele><time>2026-05-01T09:38:14.984Z</time></trkpt><trkpt lat="45.70679693447852" lon="12.878170947900784"><ele>-2.75</ele><time>2026-05-01T09:38:15.984Z</time></trkpt><trkpt lat="45.70700444040803" lon="12.878093333902958"><ele>-2.5</ele><time>2026-05-01T09:38:17.984Z</time></trkpt><trkpt lat="45.70708561330009" lon="12.878054391665875"><ele>-2.25</ele><time>2026-05-01T09:38:18.984Z</time></trkpt><trkpt lat="45.707158284227226" lon="12.878016460636253"><ele>-2.0</ele><time>2026-05-01T09:38:19.984Z</time></trkpt><trkpt lat="45.707232551371" lon="12.87797311427199"><ele>-2.0</ele><time>2026-05-01T09:38:20.984Z</time></trkpt><trkpt lat="45.7072808606745" lon="12.877913809984255"><ele>-2.0</ele><time>2026-05-01T09:38:21.984Z</time></trkpt><trkpt lat="45.70735954108152" lon="12.877866066694148"><ele>-2.0</ele><time>2026-05-01T09:38:23.984Z</time></trkpt><trkpt lat="45.707418637879556" lon="12.877823028366828"><ele>-2.0</ele><time>2026-05-01T09:38:27.984Z</time></trkpt></trkseg></trk></gpx>